<?xml version="1.0" encoding="UTF-8" standalone="no" ?><gpx xmlns="http://www.topografix.com/GPX/1/1" xmlns:gpxx="http://www.garmin.com/xmlschemas/GpxExtensions/v3" xmlns:gpxtrkx="http://www.garmin.com/xmlschemas/TrackStatsExtension/v1" xmlns:wptx1="http://www.garmin.com/xmlschemas/WaypointExtension/v1" xmlns:gpxtpx="http://www.garmin.com/xmlschemas/TrackPointExtension/v1" creator="eTrex 20" version="1.1" xmlns:xsi="http://www.w3.org/2001/XMLSchema-instance" xsi:schemaLocation="http://www.topografix.com/GPX/1/1 http://www.topografix.com/GPX/1/1/gpx.xsd http://www.garmin.com/xmlschemas/GpxExtensions/v3 http://www8.garmin.com/xmlschemas/GpxExtensionsv3.xsd http://www.garmin.com/xmlschemas/TrackStatsExtension/v1 http://www8.garmin.com/xmlschemas/TrackStatsExtension.xsd http://www.garmin.com/xmlschemas/WaypointExtension/v1 http://www8.garmin.com/xmlschemas/WaypointExtensionv1.xsd http://www.garmin.com/xmlschemas/TrackPointExtension/v1 http://www.garmin.com/xmlschemas/TrackPointExtensionv1.xsd"><metadata><link href="http://www.garmin.com"><text>Garmin International</text></link><time>2014-09-04T14:41:56Z</time></metadata><trk><name>2014-09-02 10:26:38 Auto</name><extensions><gpxx:TrackExtension><gpxx:DisplayColor>Cyan</gpxx:DisplayColor></gpxx:TrackExtension></extensions><trkseg><trkpt lat="45.9146938752" lon="6.8624762725"><ele>1039.80</ele><time>2014-09-02T08:26:38Z</time></trkpt><trkpt lat="45.9146888461" lon="6.8625016697"><ele>1037.88</ele><time>2014-09-02T08:27:10Z</time></trkpt><trkpt lat="45.9147071186" lon="6.8625104707"><ele>1036.44</ele><time>2014-09-02T08:27:15Z</time></trkpt><trkpt lat="45.9147134889" lon="6.8625251390"><ele>1036.44</ele><time>2014-09-02T08:27:16Z</time></trkpt><trkpt lat="45.9147192724" lon="6.8625407293"><ele>1036.44</ele><time>2014-09-02T08:27:17Z</time></trkpt><trkpt lat="45.9147298336" lon="6.8625591695"><ele>1036.92</ele><time>2014-09-02T08:27:18Z</time></trkpt><trkpt lat="45.9147437476" lon="6.8625793699"><ele>1036.92</ele><time>2014-09-02T08:27:19Z</time></trkpt><trkpt lat="45.9147574101" lon="6.8626089580"><ele>1037.40</ele><time>2014-09-02T08:27:20Z</time></trkpt><trkpt lat="45.9147723299" lon="6.8626413122"><ele>1037.40</ele><time>2014-09-02T08:27:21Z</time></trkpt><trkpt lat="45.9148810431" lon="6.8628949486"><ele>1037.88</ele><time>2014-09-02T08:27:27Z</time></trkpt><trkpt lat="45.9149026684" lon="6.8629574776"><ele>1037.88</ele><time>2014-09-02T08:27:28Z</time></trkpt><trkpt lat="45.9149172530" lon="6.8629928492"><ele>1037.40</ele><time>2014-09-02T08:27:29Z</time></trkpt><trkpt lat="45.9151308239" lon="6.8635151256"><ele>1035.96</ele><time>2014-09-02T08:27:42Z</time></trkpt><trkpt lat="45.9151306562" lon="6.8635095935"><ele>1035.96</ele><time>2014-09-02T08:28:07Z</time></trkpt><trkpt lat="45.9151340090" lon="6.8635176402"><ele>1035.96</ele><time>2014-09-02T08:28:21Z</time></trkpt><trkpt lat="45.9151414689" lon="6.8635335658"><ele>1035.96</ele><time>2014-09-02T08:28:22Z</time></trkpt><trkpt lat="45.9153392818" lon="6.8640270922"><ele>1034.52</ele><time>2014-09-02T08:28:35Z</time></trkpt><trkpt lat="45.9156966861" lon="6.8648800347"><ele>1033.07</ele><time>2014-09-02T08:28:50Z</time></trkpt><trkpt lat="45.9157690220" lon="6.8650479242"><ele>1032.59</ele><time>2014-09-02T08:28:53Z</time></trkpt><trkpt lat="45.9157946706" lon="6.8651013169"><ele>1033.07</ele><time>2014-09-02T08:28:54Z</time></trkpt><trkpt lat="45.9158956725" lon="6.8653281312"><ele>1032.59</ele><time>2014-09-02T08:28:58Z</time></trkpt><trkpt lat="45.9159182198" lon="6.8653879780"><ele>1032.59</ele><time>2014-09-02T08:28:59Z</time></trkpt><trkpt lat="45.9159431141" lon="6.8654475734"><ele>1032.59</ele><time>2014-09-02T08:29:00Z</time></trkpt><trkpt lat="45.9160493128" lon="6.8657073285"><ele>1032.59</ele><time>2014-09-02T08:29:04Z</time></trkpt><trkpt lat="45.9160787333" lon="6.8657750543"><ele>1032.59</ele><time>2014-09-02T08:29:05Z</time></trkpt><trkpt lat="45.9161006100" lon="6.8658453785"><ele>1032.59</ele><time>2014-09-02T08:29:06Z</time></trkpt><trkpt lat="45.9161889553" lon="6.8660576921"><ele>1032.59</ele><time>2014-09-02T08:29:10Z</time></trkpt><trkpt lat="45.9162116703" lon="6.8661138508"><ele>1032.59</ele><time>2014-09-02T08:29:11Z</time></trkpt><trkpt lat="45.9162388276" lon="6.8661755417"><ele>1032.59</ele><time>2014-09-02T08:29:12Z</time></trkpt><trkpt lat="45.9162663203" lon="6.8662316166"><ele>1032.59</ele><time>2014-09-02T08:29:13Z</time></trkpt><trkpt lat="45.9165616985" lon="6.8669224530"><ele>1034.04</ele><time>2014-09-02T08:29:27Z</time></trkpt><trkpt lat="45.9165801387" lon="6.8669654522"><ele>1035.48</ele><time>2014-09-02T08:29:37Z</time></trkpt><trkpt lat="45.9175108653" lon="6.8671321683"><ele>1035.00</ele><time>2014-09-02T08:30:15Z</time></trkpt><trkpt lat="45.9179188125" lon="6.8665935472"><ele>1035.48</ele><time>2014-09-02T08:30:31Z</time></trkpt><trkpt lat="45.9179930761" lon="6.8664984964"><ele>1035.48</ele><time>2014-09-02T08:30:33Z</time></trkpt><trkpt lat="45.9181273542" lon="6.8663088977"><ele>1036.92</ele><time>2014-09-02T08:30:37Z</time></trkpt><trkpt lat="45.9185982496" lon="6.8656919058"><ele>1038.84</ele><time>2014-09-02T08:30:52Z</time></trkpt><trkpt lat="45.9189225454" lon="6.8654918298"><ele>1040.28</ele><time>2014-09-02T08:31:02Z</time></trkpt><trkpt lat="45.9193112142" lon="6.8655538559"><ele>1040.76</ele><time>2014-09-02T08:31:13Z</time></trkpt><trkpt lat="45.9195905831" lon="6.8658561911"><ele>1039.32</ele><time>2014-09-02T08:31:24Z</time></trkpt><trkpt lat="45.9198956005" lon="6.8661936466"><ele>1040.76</ele><time>2014-09-02T08:31:38Z</time></trkpt><trkpt lat="45.9199313913" lon="6.8662254978"><ele>1040.76</ele><time>2014-09-02T08:31:40Z</time></trkpt><trkpt lat="45.9199432936" lon="6.8662162777"><ele>1040.76</ele><time>2014-09-02T08:31:41Z</time></trkpt><trkpt lat="45.9200077504" lon="6.8661895394"><ele>1041.25</ele><time>2014-09-02T08:31:51Z</time></trkpt><trkpt lat="45.9200000390" lon="6.8661823310"><ele>1043.17</ele><time>2014-09-02T08:32:09Z</time></trkpt><trkpt lat="45.9199245181" lon="6.8662461173"><ele>1044.13</ele><time>2014-09-02T08:32:30Z</time></trkpt><trkpt lat="45.9198724665" lon="6.8663697504"><ele>1043.65</ele><time>2014-09-02T08:32:56Z</time></trkpt><trkpt lat="45.9198694490" lon="6.8663888611"><ele>1043.17</ele><time>2014-09-02T08:33:00Z</time></trkpt><trkpt lat="45.9198595583" lon="6.8664171919"><ele>1045.09</ele><time>2014-09-02T08:33:12Z</time></trkpt><trkpt lat="45.9198412858" lon="6.8664040323"><ele>1050.38</ele><time>2014-09-02T08:33:26Z</time></trkpt><trkpt lat="45.9198352508" lon="6.8664040323"><ele>1052.30</ele><time>2014-09-02T08:33:36Z</time></trkpt><trkpt lat="45.9198085126" lon="6.8664246518"><ele>1051.34</ele><time>2014-09-02T08:33:50Z</time></trkpt><trkpt lat="45.9198312275" lon="6.8664395716"><ele>1052.78</ele><time>2014-09-02T08:34:07Z</time></trkpt><trkpt lat="45.9198614862" lon="6.8663622905"><ele>1051.82</ele><time>2014-09-02T08:34:25Z</time></trkpt><trkpt lat="45.9198687784" lon="6.8663701694"><ele>1051.34</ele><time>2014-09-02T08:34:29Z</time></trkpt><trkpt lat="45.9200115222" lon="6.8664445169"><ele>1051.82</ele><time>2014-09-02T08:34:37Z</time></trkpt><trkpt lat="45.9203593712" lon="6.8666838203"><ele>1046.53</ele><time>2014-09-02T08:34:51Z</time></trkpt><trkpt lat="45.9206130914" lon="6.8669004086"><ele>1045.09</ele><time>2014-09-02T08:35:03Z</time></trkpt><trkpt lat="45.9208073001" lon="6.8670677114"><ele>1043.65</ele><time>2014-09-02T08:35:16Z</time></trkpt><trkpt lat="45.9210250620" lon="6.8673464935"><ele>1043.17</ele><time>2014-09-02T08:35:29Z</time></trkpt><trkpt lat="45.9210449271" lon="6.8673568033"><ele>1043.17</ele><time>2014-09-02T08:35:30Z</time></trkpt><trkpt lat="45.9210631158" lon="6.8673727289"><ele>1042.69</ele><time>2014-09-02T08:35:31Z</time></trkpt><trkpt lat="45.9210828133" lon="6.8673925940"><ele>1042.69</ele><time>2014-09-02T08:35:32Z</time></trkpt><trkpt lat="45.9211045224" lon="6.8674138002"><ele>1042.21</ele><time>2014-09-02T08:35:33Z</time></trkpt><trkpt lat="45.9213512018" lon="6.8676519301"><ele>1039.80</ele><time>2014-09-02T08:35:46Z</time></trkpt><trkpt lat="45.9216112923" lon="6.8678489886"><ele>1040.28</ele><time>2014-09-02T08:35:57Z</time></trkpt><trkpt lat="45.9216273017" lon="6.8678633217"><ele>1039.80</ele><time>2014-09-02T08:35:58Z</time></trkpt><trkpt lat="45.9218608215" lon="6.8680613860"><ele>1042.21</ele><time>2014-09-02T08:36:11Z</time></trkpt><trkpt lat="45.9219770785" lon="6.8681996036"><ele>1041.25</ele><time>2014-09-02T08:36:21Z</time></trkpt><trkpt lat="45.9219925851" lon="6.8682001904"><ele>1041.25</ele><time>2014-09-02T08:36:22Z</time></trkpt><trkpt lat="45.9220127854" lon="6.8682019506"><ele>1041.25</ele><time>2014-09-02T08:36:23Z</time></trkpt><trkpt lat="45.9220355004" lon="6.8682105839"><ele>1041.25</ele><time>2014-09-02T08:36:24Z</time></trkpt><trkpt lat="45.9220548626" lon="6.8682265934"><ele>1041.25</ele><time>2014-09-02T08:36:25Z</time></trkpt><trkpt lat="45.9220674355" lon="6.8682482187"><ele>1041.25</ele><time>2014-09-02T08:36:26Z</time></trkpt><trkpt lat="45.9220743924" lon="6.8682782259"><ele>1040.76</ele><time>2014-09-02T08:36:27Z</time></trkpt><trkpt lat="45.9220857080" lon="6.8683073111"><ele>1040.76</ele><time>2014-09-02T08:36:28Z</time></trkpt><trkpt lat="45.9220999572" lon="6.8683348875"><ele>1040.28</ele><time>2014-09-02T08:36:29Z</time></trkpt><trkpt lat="45.9222278651" lon="6.8684524857"><ele>1039.80</ele><time>2014-09-02T08:36:40Z</time></trkpt><trkpt lat="45.9222300444" lon="6.8684692495"><ele>1040.28</ele><time>2014-09-02T08:36:41Z</time></trkpt><trkpt lat="45.9222234227" lon="6.8684964906"><ele>1042.69</ele><time>2014-09-02T08:36:54Z</time></trkpt><trkpt lat="45.9222606383" lon="6.8684509769"><ele>1049.42</ele><time>2014-09-02T08:37:38Z</time></trkpt><trkpt lat="45.9222719539" lon="6.8684938923"><ele>1050.38</ele><time>2014-09-02T08:38:10Z</time></trkpt><trkpt lat="45.9222367499" lon="6.8684581853"><ele>1045.57</ele><time>2014-09-02T08:38:45Z</time></trkpt><trkpt lat="45.9222867060" lon="6.8684695847"><ele>1046.05</ele><time>2014-09-02T08:39:00Z</time></trkpt><trkpt lat="45.9223050624" lon="6.8684818223"><ele>1046.05</ele><time>2014-09-02T08:39:01Z</time></trkpt><trkpt lat="45.9223231673" lon="6.8684919644"><ele>1046.05</ele><time>2014-09-02T08:39:03Z</time></trkpt><trkpt lat="45.9223825112" lon="6.8685195409"><ele>1046.05</ele><time>2014-09-02T08:39:07Z</time></trkpt><trkpt lat="45.9223900549" lon="6.8685319461"><ele>1046.05</ele><time>2014-09-02T08:39:08Z</time></trkpt><trkpt lat="45.9225572739" lon="6.8687953893"><ele>1046.53</ele><time>2014-09-02T08:39:21Z</time></trkpt><trkpt lat="45.9226814937" lon="6.8689903524"><ele>1043.17</ele><time>2014-09-02T08:39:32Z</time></trkpt><trkpt lat="45.9228131734" lon="6.8690870795"><ele>1043.65</ele><time>2014-09-02T08:39:44Z</time></trkpt><trkpt lat="45.9228244890" lon="6.8690869119"><ele>1043.17</ele><time>2014-09-02T08:39:55Z</time></trkpt><trkpt lat="45.9228886943" lon="6.8692123890"><ele>1042.21</ele><time>2014-09-02T08:40:07Z</time></trkpt><trkpt lat="45.9229096491" lon="6.8692518678"><ele>1042.21</ele><time>2014-09-02T08:40:08Z</time></trkpt><trkpt lat="45.9229952283" lon="6.8694811966"><ele>1042.21</ele><time>2014-09-02T08:40:19Z</time></trkpt><trkpt lat="45.9230223857" lon="6.8695268780"><ele>1042.69</ele><time>2014-09-02T08:40:21Z</time></trkpt><trkpt lat="45.9230347909" lon="6.8695504311"><ele>1042.69</ele><time>2014-09-02T08:40:22Z</time></trkpt><trkpt lat="45.9230513871" lon="6.8695654348"><ele>1042.69</ele><time>2014-09-02T08:40:23Z</time></trkpt><trkpt lat="45.9230691567" lon="6.8695812766"><ele>1042.69</ele><time>2014-09-02T08:40:24Z</time></trkpt><trkpt lat="45.9230853338" lon="6.8695973698"><ele>1042.69</ele><time>2014-09-02T08:40:25Z</time></trkpt><trkpt lat="45.9231017623" lon="6.8696134631"><ele>1042.69</ele><time>2014-09-02T08:40:26Z</time></trkpt><trkpt lat="45.9231177717" lon="6.8696321547"><ele>1042.69</ele><time>2014-09-02T08:40:27Z</time></trkpt><trkpt lat="45.9231307637" lon="6.8696425483"><ele>1042.69</ele><time>2014-09-02T08:40:28Z</time></trkpt><trkpt lat="45.9231445938" lon="6.8696624134"><ele>1043.17</ele><time>2014-09-02T08:40:30Z</time></trkpt><trkpt lat="45.9231508803" lon="6.8696921691"><ele>1042.69</ele><time>2014-09-02T08:40:31Z</time></trkpt><trkpt lat="45.9231548198" lon="6.8697632477"><ele>1043.17</ele><time>2014-09-02T08:40:35Z</time></trkpt><trkpt lat="45.9230658039" lon="6.8700021319"><ele>1042.69</ele><time>2014-09-02T08:40:45Z</time></trkpt><trkpt lat="45.9230557457" lon="6.8700214941"><ele>1043.17</ele><time>2014-09-02T08:40:56Z</time></trkpt><trkpt lat="45.9230602719" lon="6.8700390123"><ele>1040.76</ele><time>2014-09-02T08:41:26Z</time></trkpt><trkpt lat="45.9230559133" lon="6.8700926565"><ele>1041.25</ele><time>2014-09-02T08:41:44Z</time></trkpt><trkpt lat="45.9230480343" lon="6.8700701930"><ele>1044.13</ele><time>2014-09-02T08:41:59Z</time></trkpt><trkpt lat="45.9230729286" lon="6.8700655829"><ele>1044.13</ele><time>2014-09-02T08:42:19Z</time></trkpt><trkpt lat="45.9230734315" lon="6.8700812571"><ele>1041.25</ele><time>2014-09-02T08:42:34Z</time></trkpt><trkpt lat="45.9230616968" lon="6.8700932432"><ele>1041.73</ele><time>2014-09-02T08:42:38Z</time></trkpt><trkpt lat="45.9230537340" lon="6.8701127730"><ele>1041.73</ele><time>2014-09-02T08:42:39Z</time></trkpt><trkpt lat="45.9230609424" lon="6.8701501563"><ele>1041.25</ele><time>2014-09-02T08:42:42Z</time></trkpt><trkpt lat="45.9230792150" lon="6.8701716140"><ele>1040.76</ele><time>2014-09-02T08:42:45Z</time></trkpt><trkpt lat="45.9230782092" lon="6.8702001125"><ele>1040.76</ele><time>2014-09-02T08:42:47Z</time></trkpt><trkpt lat="45.9230678156" lon="6.8702318799"><ele>1039.80</ele><time>2014-09-02T08:42:56Z</time></trkpt><trkpt lat="45.9230926260" lon="6.8702046387"><ele>1036.44</ele><time>2014-09-02T08:43:24Z</time></trkpt><trkpt lat="45.9230941348" lon="6.8702420220"><ele>1035.48</ele><time>2014-09-02T08:43:38Z</time></trkpt><trkpt lat="45.9232855774" lon="6.8705016095"><ele>1034.04</ele><time>2014-09-02T08:43:54Z</time></trkpt><trkpt lat="45.9232956357" lon="6.8704913836"><ele>1034.04</ele><time>2014-09-02T08:43:55Z</time></trkpt><trkpt lat="45.9233064484" lon="6.8704477139"><ele>1035.00</ele><time>2014-09-02T08:44:00Z</time></trkpt><trkpt lat="45.9232927859" lon="6.8704342190"><ele>1035.00</ele><time>2014-09-02T08:44:01Z</time></trkpt><trkpt lat="45.9232761059" lon="6.8704011943"><ele>1035.00</ele><time>2014-09-02T08:44:02Z</time></trkpt><trkpt lat="45.9231519699" lon="6.8702960853"><ele>1035.00</ele><time>2014-09-02T08:44:10Z</time></trkpt><trkpt lat="45.9231325239" lon="6.8702833448"><ele>1035.00</ele><time>2014-09-02T08:44:11Z</time></trkpt><trkpt lat="45.9230900276" lon="6.8702394236"><ele>1035.00</ele><time>2014-09-02T08:44:14Z</time></trkpt><trkpt lat="45.9230809752" lon="6.8702078238"><ele>1035.48</ele><time>2014-09-02T08:44:15Z</time></trkpt><trkpt lat="45.9230855014" lon="6.8701794092"><ele>1035.48</ele><time>2014-09-02T08:44:16Z</time></trkpt><trkpt lat="45.9231260698" lon="6.8699914869"><ele>1036.92</ele><time>2014-09-02T08:44:28Z</time></trkpt><trkpt lat="45.9231287520" lon="6.8699711189"><ele>1037.40</ele><time>2014-09-02T08:44:42Z</time></trkpt><trkpt lat="45.9230910335" lon="6.8699940853"><ele>1040.28</ele><time>2014-09-02T08:45:16Z</time></trkpt><trkpt lat="45.9230947215" lon="6.8700163811"><ele>1041.25</ele><time>2014-09-02T08:45:48Z</time></trkpt><trkpt lat="45.9231045283" lon="6.8700043112"><ele>1042.21</ele><time>2014-09-02T08:46:13Z</time></trkpt><trkpt lat="45.9231238905" lon="6.8700064067"><ele>1043.65</ele><time>2014-09-02T08:46:41Z</time></trkpt><trkpt lat="45.9231269918" lon="6.8699949235"><ele>1043.17</ele><time>2014-09-02T08:46:42Z</time></trkpt><trkpt lat="45.9231260698" lon="6.8699795008"><ele>1043.17</ele><time>2014-09-02T08:46:43Z</time></trkpt><trkpt lat="45.9230608586" lon="6.8699967675"><ele>1042.21</ele><time>2014-09-02T08:46:48Z</time></trkpt><trkpt lat="45.9230593499" lon="6.8700189795"><ele>1042.21</ele><time>2014-09-02T08:46:49Z</time></trkpt><trkpt lat="45.9230595175" lon="6.8700424489"><ele>1042.21</ele><time>2014-09-02T08:46:50Z</time></trkpt><trkpt lat="45.9230634570" lon="6.8700722046"><ele>1042.21</ele><time>2014-09-02T08:46:51Z</time></trkpt><trkpt lat="45.9230677318" lon="6.8701051455"><ele>1041.73</ele><time>2014-09-02T08:46:52Z</time></trkpt><trkpt lat="45.9233014192" lon="6.8704771344"><ele>1040.76</ele><time>2014-09-02T08:47:10Z</time></trkpt><trkpt lat="45.9233288281" lon="6.8704829179"><ele>1040.76</ele><time>2014-09-02T08:47:18Z</time></trkpt><trkpt lat="45.9233957157" lon="6.8704999331"><ele>1040.76</ele><time>2014-09-02T08:47:22Z</time></trkpt><trkpt lat="45.9234103002" lon="6.8705052976"><ele>1040.76</ele><time>2014-09-02T08:47:23Z</time></trkpt><trkpt lat="45.9234745055" lon="6.8705275096"><ele>1041.25</ele><time>2014-09-02T08:47:28Z</time></trkpt><trkpt lat="45.9234851506" lon="6.8705252465"><ele>1041.25</ele><time>2014-09-02T08:47:29Z</time></trkpt><trkpt lat="45.9235035907" lon="6.8705348857"><ele>1041.25</ele><time>2014-09-02T08:47:31Z</time></trkpt><trkpt lat="45.9235361125" lon="6.8705532420"><ele>1041.73</ele><time>2014-09-02T08:47:32Z</time></trkpt><trkpt lat="45.9235480987" lon="6.8705677427"><ele>1041.73</ele><time>2014-09-02T08:47:33Z</time></trkpt><trkpt lat="45.9235544689" lon="6.8705792259"><ele>1041.73</ele><time>2014-09-02T08:47:34Z</time></trkpt><trkpt lat="45.9235661197" lon="6.8706218898"><ele>1042.21</ele><time>2014-09-02T08:47:37Z</time></trkpt><trkpt lat="45.9235814586" lon="6.8706461973"><ele>1042.21</ele><time>2014-09-02T08:47:38Z</time></trkpt><trkpt lat="45.9235967137" lon="6.8706550822"><ele>1042.21</ele><time>2014-09-02T08:47:39Z</time></trkpt><trkpt lat="45.9236070234" lon="6.8706597760"><ele>1042.69</ele><time>2014-09-02T08:47:40Z</time></trkpt><trkpt lat="45.9236210212" lon="6.8706636317"><ele>1042.69</ele><time>2014-09-02T08:47:41Z</time></trkpt><trkpt lat="45.9236701392" lon="6.8706606980"><ele>1046.05</ele><time>2014-09-02T08:47:56Z</time></trkpt><trkpt lat="45.9236762580" lon="6.8706383184"><ele>1045.09</ele><time>2014-09-02T08:48:04Z</time></trkpt><trkpt lat="45.9236822091" lon="6.8706277572"><ele>1045.09</ele><time>2014-09-02T08:48:05Z</time></trkpt><trkpt lat="45.9236869030" lon="6.8706147652"><ele>1045.09</ele><time>2014-09-02T08:48:06Z</time></trkpt><trkpt lat="45.9236931894" lon="6.8705943972"><ele>1044.61</ele><time>2014-09-02T08:48:07Z</time></trkpt><trkpt lat="45.9236994758" lon="6.8705744483"><ele>1044.61</ele><time>2014-09-02T08:48:09Z</time></trkpt><trkpt lat="45.9237075225" lon="6.8705656473"><ele>1044.61</ele><time>2014-09-02T08:48:10Z</time></trkpt><trkpt lat="45.9237322491" lon="6.8705623783"><ele>1044.13</ele><time>2014-09-02T08:48:11Z</time></trkpt><trkpt lat="45.9237538744" lon="6.8705632165"><ele>1044.13</ele><time>2014-09-02T08:48:12Z</time></trkpt><trkpt lat="45.9240465704" lon="6.8706258293"><ele>1044.61</ele><time>2014-09-02T08:48:24Z</time></trkpt><trkpt lat="45.9242590517" lon="6.8707240652"><ele>1045.57</ele><time>2014-09-02T08:48:35Z</time></trkpt><trkpt lat="45.9242712893" lon="6.8707289267"><ele>1045.09</ele><time>2014-09-02T08:48:36Z</time></trkpt><trkpt lat="45.9242805094" lon="6.8707389012"><ele>1045.57</ele><time>2014-09-02T08:48:37Z</time></trkpt><trkpt lat="45.9242940880" lon="6.8707460258"><ele>1045.57</ele><time>2014-09-02T08:48:38Z</time></trkpt><trkpt lat="45.9244343173" lon="6.8707854208"><ele>1045.57</ele><time>2014-09-02T08:48:44Z</time></trkpt><trkpt lat="45.9244573675" lon="6.8707916234"><ele>1046.05</ele><time>2014-09-02T08:48:45Z</time></trkpt><trkpt lat="45.9244757239" lon="6.8708020169"><ele>1046.05</ele><time>2014-09-02T08:48:46Z</time></trkpt><trkpt lat="45.9245012049" lon="6.8707958981"><ele>1046.05</ele><time>2014-09-02T08:48:47Z</time></trkpt><trkpt lat="45.9245308768" lon="6.8707964011"><ele>1046.05</ele><time>2014-09-02T08:48:48Z</time></trkpt><trkpt lat="45.9245572798" lon="6.8707987480"><ele>1046.05</ele><time>2014-09-02T08:48:49Z</time></trkpt><trkpt lat="45.9247426875" lon="6.8708115723"><ele>1043.17</ele><time>2014-09-02T08:49:01Z</time></trkpt><trkpt lat="45.9248177893" lon="6.8708212115"><ele>1043.65</ele><time>2014-09-02T08:49:05Z</time></trkpt><trkpt lat="45.9248381574" lon="6.8708279170"><ele>1043.65</ele><time>2014-09-02T08:49:06Z</time></trkpt><trkpt lat="45.9249226470" lon="6.8708337843"><ele>1045.09</ele><time>2014-09-02T08:49:10Z</time></trkpt><trkpt lat="45.9249394108" lon="6.8708403222"><ele>1045.09</ele><time>2014-09-02T08:49:11Z</time></trkpt><trkpt lat="45.9249531571" lon="6.8708459381"><ele>1045.09</ele><time>2014-09-02T08:49:12Z</time></trkpt><trkpt lat="45.9249775484" lon="6.8708735146"><ele>1044.13</ele><time>2014-09-02T08:49:25Z</time></trkpt><trkpt lat="45.9249449428" lon="6.8708801363"><ele>1041.25</ele><time>2014-09-02T08:49:53Z</time></trkpt><trkpt lat="45.9249193780" lon="6.8708492070"><ele>1041.73</ele><time>2014-09-02T08:50:05Z</time></trkpt><trkpt lat="45.9249042906" lon="6.8708478659"><ele>1041.73</ele><time>2014-09-02T08:50:06Z</time></trkpt><trkpt lat="45.9248875268" lon="6.8708456028"><ele>1041.73</ele><time>2014-09-02T08:50:07Z</time></trkpt><trkpt lat="45.9248727746" lon="6.8708407413"><ele>1041.73</ele><time>2014-09-02T08:50:08Z</time></trkpt><trkpt lat="45.9248541668" lon="6.8708370533"><ele>1041.73</ele><time>2014-09-02T08:50:09Z</time></trkpt><trkpt lat="45.9248326253" lon="6.8708343711"><ele>1041.73</ele><time>2014-09-02T08:50:10Z</time></trkpt><trkpt lat="45.9248099942" lon="6.8708314374"><ele>1041.73</ele><time>2014-09-02T08:50:11Z</time></trkpt><trkpt lat="45.9247855190" lon="6.8708270788"><ele>1041.73</ele><time>2014-09-02T08:50:12Z</time></trkpt><trkpt lat="45.9247618821" lon="6.8708233070"><ele>1041.25</ele><time>2014-09-02T08:50:13Z</time></trkpt><trkpt lat="45.9247378260" lon="6.8708182778"><ele>1041.25</ele><time>2014-09-02T08:50:14Z</time></trkpt><trkpt lat="45.9244667552" lon="6.8707979936"><ele>1041.25</ele><time>2014-09-02T08:50:27Z</time></trkpt><trkpt lat="45.9244305454" lon="6.8708130810"><ele>1042.21</ele><time>2014-09-02T08:50:38Z</time></trkpt><trkpt lat="45.9244307969" lon="6.8707718421"><ele>1042.21</ele><time>2014-09-02T08:51:05Z</time></trkpt><trkpt lat="45.9244538471" lon="6.8707467802"><ele>1040.76</ele><time>2014-09-02T08:51:32Z</time></trkpt><trkpt lat="45.9244567808" lon="6.8707172759"><ele>1041.73</ele><time>2014-09-02T08:51:57Z</time></trkpt><trkpt lat="45.9244555235" lon="6.8707409129"><ele>1042.21</ele><time>2014-09-02T08:52:22Z</time></trkpt><trkpt lat="45.9244386759" lon="6.8707373925"><ele>1041.25</ele><time>2014-09-02T08:52:47Z</time></trkpt><trkpt lat="45.9244592115" lon="6.8707501329"><ele>1041.73</ele><time>2014-09-02T08:53:04Z</time></trkpt><trkpt lat="45.9244543500" lon="6.8707560841"><ele>1042.21</ele><time>2014-09-02T08:53:21Z</time></trkpt><trkpt lat="45.9244416934" lon="6.8707414158"><ele>1042.21</ele><time>2014-09-02T08:53:23Z</time></trkpt><trkpt lat="45.9242945910" lon="6.8707002606"><ele>1042.21</ele><time>2014-09-02T08:53:33Z</time></trkpt><trkpt lat="45.9240036551" lon="6.8706092332"><ele>1045.57</ele><time>2014-09-02T08:53:44Z</time></trkpt><trkpt lat="45.9235666227" lon="6.8704467081"><ele>1045.09</ele><time>2014-09-02T08:54:06Z</time></trkpt><trkpt lat="45.9235734120" lon="6.8703555968"><ele>1044.61</ele><time>2014-09-02T08:54:09Z</time></trkpt><trkpt lat="45.9235660359" lon="6.8703303672"><ele>1044.13</ele><time>2014-09-02T08:54:10Z</time></trkpt><trkpt lat="45.9235511161" lon="6.8703099154"><ele>1044.13</ele><time>2014-09-02T08:54:11Z</time></trkpt><trkpt lat="45.9235346876" lon="6.8703006953"><ele>1044.61</ele><time>2014-09-02T08:54:12Z</time></trkpt><trkpt lat="45.9235246293" lon="6.8702976778"><ele>1044.61</ele><time>2014-09-02T08:54:13Z</time></trkpt><trkpt lat="45.9235094581" lon="6.8702985160"><ele>1044.61</ele><time>2014-09-02T08:54:14Z</time></trkpt><trkpt lat="45.9234942030" lon="6.8703050539"><ele>1044.61</ele><time>2014-09-02T08:54:15Z</time></trkpt><trkpt lat="45.9234817978" lon="6.8703172076"><ele>1044.61</ele><time>2014-09-02T08:54:16Z</time></trkpt><trkpt lat="45.9235010762" lon="6.8703567702"><ele>1042.21</ele><time>2014-09-02T08:54:22Z</time></trkpt><trkpt lat="45.9235139843" lon="6.8703603745"><ele>1042.21</ele><time>2014-09-02T08:54:23Z</time></trkpt><trkpt lat="45.9235278983" lon="6.8703519925"><ele>1042.69</ele><time>2014-09-02T08:54:24Z</time></trkpt><trkpt lat="45.9235423151" lon="6.8703332171"><ele>1042.69</ele><time>2014-09-02T08:54:25Z</time></trkpt><trkpt lat="45.9235565644" lon="6.8703151960"><ele>1042.69</ele><time>2014-09-02T08:54:26Z</time></trkpt><trkpt lat="45.9235688020" lon="6.8702930678"><ele>1042.69</ele><time>2014-09-02T08:54:27Z</time></trkpt><trkpt lat="45.9235801175" lon="6.8702675030"><ele>1042.69</ele><time>2014-09-02T08:54:28Z</time></trkpt><trkpt lat="45.9235974681" lon="6.8701881263"><ele>1042.69</ele><time>2014-09-02T08:54:31Z</time></trkpt><trkpt lat="45.9235976357" lon="6.8701641541"><ele>1042.69</ele><time>2014-09-02T08:54:32Z</time></trkpt><trkpt lat="45.9236006532" lon="6.8701395113"><ele>1042.21</ele><time>2014-09-02T08:54:33Z</time></trkpt><trkpt lat="45.9236046765" lon="6.8701140303"><ele>1042.21</ele><time>2014-09-02T08:54:34Z</time></trkpt><trkpt lat="45.9236128069" lon="6.8700895552"><ele>1041.73</ele><time>2014-09-02T08:54:35Z</time></trkpt><trkpt lat="45.9236237034" lon="6.8700650800"><ele>1041.73</ele><time>2014-09-02T08:54:36Z</time></trkpt><trkpt lat="45.9237503540" lon="6.8698602263"><ele>1044.13</ele><time>2014-09-02T08:54:46Z</time></trkpt><trkpt lat="45.9240119532" lon="6.8698268663"><ele>1046.53</ele><time>2014-09-02T08:54:59Z</time></trkpt><trkpt lat="45.9242090955" lon="6.8698795047"><ele>1047.97</ele><time>2014-09-02T08:55:12Z</time></trkpt><trkpt lat="45.9242849518" lon="6.8699054047"><ele>1049.90</ele><time>2014-09-02T08:55:18Z</time></trkpt><trkpt lat="45.9245235007" lon="6.8698548619"><ele>1055.67</ele><time>2014-09-02T08:55:29Z</time></trkpt><trkpt lat="45.9247654863" lon="6.8698399421"><ele>1061.43</ele><time>2014-09-02T08:55:39Z</time></trkpt><trkpt lat="45.9250798076" lon="6.8698003795"><ele>1068.16</ele><time>2014-09-02T08:55:51Z</time></trkpt><trkpt lat="45.9252723400" lon="6.8698315602"><ele>1067.20</ele><time>2014-09-02T08:56:03Z</time></trkpt><trkpt lat="45.9254187718" lon="6.8698492460"><ele>1060.95</ele><time>2014-09-02T08:56:13Z</time></trkpt><trkpt lat="45.9259291459" lon="6.8699820153"><ele>1055.67</ele><time>2014-09-02T08:56:29Z</time></trkpt><trkpt lat="45.9263248555" lon="6.8701177184"><ele>1055.67</ele><time>2014-09-02T08:56:41Z</time></trkpt><trkpt lat="45.9267677553" lon="6.8701804150"><ele>1052.78</ele><time>2014-09-02T08:56:55Z</time></trkpt><trkpt lat="45.9271684103" lon="6.8702022079"><ele>1054.22</ele><time>2014-09-02T08:57:08Z</time></trkpt><trkpt lat="45.9276366234" lon="6.8702400103"><ele>1052.30</ele><time>2014-09-02T08:57:24Z</time></trkpt><trkpt lat="45.9280228615" lon="6.8703027070"><ele>1053.26</ele><time>2014-09-02T08:57:38Z</time></trkpt><trkpt lat="45.9284996241" lon="6.8705488835"><ele>1055.18</ele><time>2014-09-02T08:57:53Z</time></trkpt><trkpt lat="45.9289766382" lon="6.8707685731"><ele>1056.15</ele><time>2014-09-02T08:58:06Z</time></trkpt><trkpt lat="45.9291726910" lon="6.8708307669"><ele>1056.63</ele><time>2014-09-02T08:58:11Z</time></trkpt><trkpt lat="45.9295989107" lon="6.8710091338"><ele>1056.63</ele><time>2014-09-02T08:58:22Z</time></trkpt><trkpt lat="45.9296289179" lon="6.8710509595"><ele>1056.15</ele><time>2014-09-02T08:58:23Z</time></trkpt><trkpt lat="45.9296635352" lon="6.8710894324"><ele>1055.67</ele><time>2014-09-02T08:58:24Z</time></trkpt><trkpt lat="45.9296973981" lon="6.8711291626"><ele>1055.67</ele><time>2014-09-02T08:58:25Z</time></trkpt><trkpt lat="45.9297284950" lon="6.8711727485"><ele>1055.18</ele><time>2014-09-02T08:58:26Z</time></trkpt><trkpt lat="45.9297583345" lon="6.8712181784"><ele>1055.18</ele><time>2014-09-02T08:58:27Z</time></trkpt><trkpt lat="45.9297880065" lon="6.8712635245"><ele>1055.18</ele><time>2014-09-02T08:58:28Z</time></trkpt><trkpt lat="45.9298490267" lon="6.8713480979"><ele>1055.18</ele><time>2014-09-02T08:58:30Z</time></trkpt><trkpt lat="45.9298817161" lon="6.8713848107"><ele>1055.18</ele><time>2014-09-02T08:58:31Z</time></trkpt><trkpt lat="45.9300983045" lon="6.8716869783"><ele>1055.67</ele><time>2014-09-02T08:58:38Z</time></trkpt><trkpt lat="45.9301299881" lon="6.8717287201"><ele>1055.67</ele><time>2014-09-02T08:58:39Z</time></trkpt><trkpt lat="45.9305065032" lon="6.8722652458"><ele>1057.11</ele><time>2014-09-02T08:58:54Z</time></trkpt><trkpt lat="45.9305156395" lon="6.8722864520"><ele>1057.59</ele><time>2014-09-02T08:58:55Z</time></trkpt><trkpt lat="45.9305220097" lon="6.8723064009"><ele>1058.07</ele><time>2014-09-02T08:58:56Z</time></trkpt><trkpt lat="45.9305303078" lon="6.8723208178"><ele>1058.55</ele><time>2014-09-02T08:58:57Z</time></trkpt><trkpt lat="45.9305410367" lon="6.8723826762"><ele>1055.67</ele><time>2014-09-02T08:59:09Z</time></trkpt><trkpt lat="45.9305795096" lon="6.8723682594"><ele>1052.78</ele><time>2014-09-02T09:00:03Z</time></trkpt><trkpt lat="45.9305669367" lon="6.8723680917"><ele>1054.70</ele><time>2014-09-02T09:00:42Z</time></trkpt><trkpt lat="45.9306279570" lon="6.8724442832"><ele>1056.15</ele><time>2014-09-02T09:00:49Z</time></trkpt><trkpt lat="45.9307793342" lon="6.8726892862"><ele>1058.55</ele><time>2014-09-02T09:01:00Z</time></trkpt><trkpt lat="45.9307565354" lon="6.8726650625"><ele>1059.03</ele><time>2014-09-02T09:01:22Z</time></trkpt><trkpt lat="45.9307670966" lon="6.8726888672"><ele>1059.99</ele><time>2014-09-02T09:01:29Z</time></trkpt><trkpt lat="45.9307778254" lon="6.8726959080"><ele>1059.99</ele><time>2014-09-02T09:01:30Z</time></trkpt><trkpt lat="45.9307977743" lon="6.8727057148"><ele>1059.99</ele><time>2014-09-02T09:01:31Z</time></trkpt><trkpt lat="45.9311548434" lon="6.8729658052"><ele>1060.95</ele><time>2014-09-02T09:01:43Z</time></trkpt><trkpt lat="45.9311934840" lon="6.8729940522"><ele>1061.43</ele><time>2014-09-02T09:01:44Z</time></trkpt><trkpt lat="45.9318341967" lon="6.8733900972"><ele>1062.39</ele><time>2014-09-02T09:02:00Z</time></trkpt><trkpt lat="45.9325176571" lon="6.8739857152"><ele>1061.91</ele><time>2014-09-02T09:02:15Z</time></trkpt><trkpt lat="45.9325597342" lon="6.8740372639"><ele>1062.39</ele><time>2014-09-02T09:02:16Z</time></trkpt><trkpt lat="45.9326034039" lon="6.8740863819"><ele>1062.39</ele><time>2014-09-02T09:02:17Z</time></trkpt><trkpt lat="45.9332183842" lon="6.8748299405"><ele>1061.91</ele><time>2014-09-02T09:02:31Z</time></trkpt><trkpt lat="45.9337579273" lon="6.8756641075"><ele>1060.47</ele><time>2014-09-02T09:02:45Z</time></trkpt><trkpt lat="45.9340828937" lon="6.8761016428"><ele>1061.43</ele><time>2014-09-02T09:02:54Z</time></trkpt><trkpt lat="45.9341217857" lon="6.8761386909"><ele>1061.91</ele><time>2014-09-02T09:02:55Z</time></trkpt><trkpt lat="45.9341600072" lon="6.8761757389"><ele>1061.91</ele><time>2014-09-02T09:02:56Z</time></trkpt><trkpt lat="45.9348765761" lon="6.8765879609"><ele>1063.84</ele><time>2014-09-02T09:03:12Z</time></trkpt><trkpt lat="45.9352939948" lon="6.8768005259"><ele>1062.87</ele><time>2014-09-02T09:03:21Z</time></trkpt><trkpt lat="45.9354316257" lon="6.8768782262"><ele>1062.87</ele><time>2014-09-02T09:03:24Z</time></trkpt><trkpt lat="45.9355221502" lon="6.8769167829"><ele>1062.87</ele><time>2014-09-02T09:03:26Z</time></trkpt><trkpt lat="45.9360985737" lon="6.8772098981"><ele>1061.43</ele><time>2014-09-02T09:03:40Z</time></trkpt><trkpt lat="45.9366950300" lon="6.8775263987"><ele>1063.36</ele><time>2014-09-02T09:03:54Z</time></trkpt><trkpt lat="45.9367957804" lon="6.8775817193"><ele>1063.36</ele><time>2014-09-02T09:03:56Z</time></trkpt><trkpt lat="45.9375164565" lon="6.8782412075"><ele>1062.39</ele><time>2014-09-02T09:04:12Z</time></trkpt><trkpt lat="45.9375533368" lon="6.8782929238"><ele>1062.39</ele><time>2014-09-02T09:04:13Z</time></trkpt><trkpt lat="45.9381918702" lon="6.8790378235"><ele>1063.36</ele><time>2014-09-02T09:04:30Z</time></trkpt><trkpt lat="45.9383528866" lon="6.8791948166"><ele>1063.84</ele><time>2014-09-02T09:04:34Z</time></trkpt><trkpt lat="45.9391111974" lon="6.8796719983"><ele>1065.28</ele><time>2014-09-02T09:04:50Z</time></trkpt><trkpt lat="45.9397105873" lon="6.8801620044"><ele>1066.24</ele><time>2014-09-02T09:05:03Z</time></trkpt><trkpt lat="45.9398581088" lon="6.8803648464"><ele>1066.24</ele><time>2014-09-02T09:05:07Z</time></trkpt><trkpt lat="45.9399676602" lon="6.8805998750"><ele>1066.24</ele><time>2014-09-02T09:05:11Z</time></trkpt><trkpt lat="45.9399863519" lon="6.8806709535"><ele>1066.24</ele><time>2014-09-02T09:05:12Z</time></trkpt><trkpt lat="45.9399967454" lon="6.8807308003"><ele>1065.76</ele><time>2014-09-02T09:05:13Z</time></trkpt><trkpt lat="45.9400062170" lon="6.8808077462"><ele>1065.76</ele><time>2014-09-02T09:05:14Z</time></trkpt><trkpt lat="45.9400047921" lon="6.8808620609"><ele>1065.28</ele><time>2014-09-02T09:05:15Z</time></trkpt><trkpt lat="45.9400016069" lon="6.8809219915"><ele>1065.28</ele><time>2014-09-02T09:05:16Z</time></trkpt><trkpt lat="45.9399949014" lon="6.8809872866"><ele>1065.28</ele><time>2014-09-02T09:05:17Z</time></trkpt><trkpt lat="45.9399701748" lon="6.8811061420"><ele>1064.80</ele><time>2014-09-02T09:05:19Z</time></trkpt><trkpt lat="45.9399513993" lon="6.8811683357"><ele>1064.32</ele><time>2014-09-02T09:05:20Z</time></trkpt><trkpt lat="45.9399344679" lon="6.8812268414"><ele>1064.32</ele><time>2014-09-02T09:05:21Z</time></trkpt><trkpt lat="45.9397907183" lon="6.8823099509"><ele>1062.39</ele><time>2014-09-02T09:05:36Z</time></trkpt><trkpt lat="45.9399094898" lon="6.8833166175"><ele>1063.84</ele><time>2014-09-02T09:05:51Z</time></trkpt><trkpt lat="45.9400141798" lon="6.8840956315"><ele>1063.84</ele><time>2014-09-02T09:06:05Z</time></trkpt><trkpt lat="45.9400690813" lon="6.8845252041"><ele>1064.80</ele><time>2014-09-02T09:06:12Z</time></trkpt><trkpt lat="45.9400778823" lon="6.8845909182"><ele>1064.80</ele><time>2014-09-02T09:06:13Z</time></trkpt><trkpt lat="45.9401421715" lon="6.8850500789"><ele>1063.84</ele><time>2014-09-02T09:06:20Z</time></trkpt><trkpt lat="45.9401534870" lon="6.8851821776"><ele>1063.84</ele><time>2014-09-02T09:06:22Z</time></trkpt><trkpt lat="45.9401709214" lon="6.8853058107"><ele>1064.32</ele><time>2014-09-02T09:06:24Z</time></trkpt><trkpt lat="45.9402719233" lon="6.8859558273"><ele>1064.80</ele><time>2014-09-02T09:06:35Z</time></trkpt><trkpt lat="45.9402939677" lon="6.8860092200"><ele>1065.28</ele><time>2014-09-02T09:06:36Z</time></trkpt><trkpt lat="45.9404431656" lon="6.8863072805"><ele>1064.80</ele><time>2014-09-02T09:06:42Z</time></trkpt><trkpt lat="45.9404714964" lon="6.8863516208"><ele>1064.80</ele><time>2014-09-02T09:06:43Z</time></trkpt><trkpt lat="45.9405403119" lon="6.8864454981"><ele>1065.28</ele><time>2014-09-02T09:06:45Z</time></trkpt><trkpt lat="45.9411111195" lon="6.8871316407"><ele>1065.76</ele><time>2014-09-02T09:07:00Z</time></trkpt><trkpt lat="45.9411678649" lon="6.8872131966"><ele>1065.76</ele><time>2014-09-02T09:07:02Z</time></trkpt><trkpt lat="45.9411801863" lon="6.8872629013"><ele>1065.76</ele><time>2014-09-02T09:07:03Z</time></trkpt><trkpt lat="45.9411849640" lon="6.8873097561"><ele>1065.76</ele><time>2014-09-02T09:07:04Z</time></trkpt><trkpt lat="45.9412075952" lon="6.8874031305"><ele>1066.24</ele><time>2014-09-02T09:07:06Z</time></trkpt><trkpt lat="45.9412348364" lon="6.8874421902"><ele>1066.24</ele><time>2014-09-02T09:07:07Z</time></trkpt><trkpt lat="45.9412702918" lon="6.8874711078"><ele>1066.72</ele><time>2014-09-02T09:07:08Z</time></trkpt><trkpt lat="45.9417867009" lon="6.8879767042"><ele>1068.64</ele><time>2014-09-02T09:07:22Z</time></trkpt><trkpt lat="45.9423247352" lon="6.8886678759"><ele>1071.53</ele><time>2014-09-02T09:07:37Z</time></trkpt><trkpt lat="45.9426885936" lon="6.8891411182"><ele>1071.05</ele><time>2014-09-02T09:07:47Z</time></trkpt><trkpt lat="45.9429630172" lon="6.8895066530"><ele>1071.05</ele><time>2014-09-02T09:07:55Z</time></trkpt><trkpt lat="45.9429907613" lon="6.8895395938"><ele>1071.05</ele><time>2014-09-02T09:07:56Z</time></trkpt><trkpt lat="45.9430099558" lon="6.8895670865"><ele>1071.53</ele><time>2014-09-02T09:07:57Z</time></trkpt><trkpt lat="45.9430223610" lon="6.8895849399"><ele>1071.53</ele><time>2014-09-02T09:07:58Z</time></trkpt><trkpt lat="45.9430156555" lon="6.8895672541"><ele>1071.53</ele><time>2014-09-02T09:08:04Z</time></trkpt><trkpt lat="45.9428513702" lon="6.8893679325"><ele>1071.05</ele><time>2014-09-02T09:08:14Z</time></trkpt><trkpt lat="45.9424275812" lon="6.8888211809"><ele>1069.60</ele><time>2014-09-02T09:08:25Z</time></trkpt><trkpt lat="45.9423891082" lon="6.8887787685"><ele>1070.08</ele><time>2014-09-02T09:08:26Z</time></trkpt><trkpt lat="45.9423534852" lon="6.8887352664"><ele>1070.08</ele><time>2014-09-02T09:08:27Z</time></trkpt><trkpt lat="45.9422216378" lon="6.8885648623"><ele>1069.12</ele><time>2014-09-02T09:08:31Z</time></trkpt><trkpt lat="45.9421879426" lon="6.8885231204"><ele>1068.64</ele><time>2014-09-02T09:08:32Z</time></trkpt><trkpt lat="45.9418069851" lon="6.8880254030"><ele>1065.28</ele><time>2014-09-02T09:08:45Z</time></trkpt><trkpt lat="45.9418093320" lon="6.8880249839"><ele>1065.76</ele><time>2014-09-02T09:09:02Z</time></trkpt><trkpt lat="45.9418167919" lon="6.8880162667"><ele>1063.84</ele><time>2014-09-02T09:09:39Z</time></trkpt><trkpt lat="45.9418131877" lon="6.8880016822"><ele>1064.32</ele><time>2014-09-02T09:10:16Z</time></trkpt><trkpt lat="45.9417936578" lon="6.8880262412"><ele>1063.36</ele><time>2014-09-02T09:10:46Z</time></trkpt><trkpt lat="45.9418054763" lon="6.8880559970"><ele>1066.24</ele><time>2014-09-02T09:11:26Z</time></trkpt><trkpt lat="45.9418078233" lon="6.8880543206"><ele>1068.16</ele><time>2014-09-02T09:12:05Z</time></trkpt><trkpt lat="45.9418155346" lon="6.8880319409"><ele>1069.60</ele><time>2014-09-02T09:12:45Z</time></trkpt><trkpt lat="45.9418206476" lon="6.8880263250"><ele>1069.60</ele><time>2014-09-02T09:13:18Z</time></trkpt><trkpt lat="45.9418245871" lon="6.8880223855"><ele>1067.68</ele><time>2014-09-02T09:13:47Z</time></trkpt><trkpt lat="45.9418486431" lon="6.8880440947"><ele>1068.16</ele><time>2014-09-02T09:13:51Z</time></trkpt><trkpt lat="45.9420321230" lon="6.8882921152"><ele>1070.57</ele><time>2014-09-02T09:14:01Z</time></trkpt><trkpt lat="45.9425630327" lon="6.8889800180"><ele>1071.53</ele><time>2014-09-02T09:14:18Z</time></trkpt><trkpt lat="45.9426327702" lon="6.8890688661"><ele>1071.53</ele><time>2014-09-02T09:14:20Z</time></trkpt><trkpt lat="45.9426675551" lon="6.8891098537"><ele>1071.53</ele><time>2014-09-02T09:14:21Z</time></trkpt><trkpt lat="45.9426967241" lon="6.8891482428"><ele>1071.53</ele><time>2014-09-02T09:14:22Z</time></trkpt><trkpt lat="45.9430383705" lon="6.8895937409"><ele>1071.53</ele><time>2014-09-02T09:14:32Z</time></trkpt><trkpt lat="45.9430718143" lon="6.8896395061"><ele>1071.53</ele><time>2014-09-02T09:14:33Z</time></trkpt><trkpt lat="45.9431039169" lon="6.8896854389"><ele>1071.53</ele><time>2014-09-02T09:14:34Z</time></trkpt><trkpt lat="45.9431351814" lon="6.8897317071"><ele>1071.53</ele><time>2014-09-02T09:14:35Z</time></trkpt><trkpt lat="45.9431691281" lon="6.8897773046"><ele>1071.53</ele><time>2014-09-02T09:14:36Z</time></trkpt><trkpt lat="45.9432025719" lon="6.8898192979"><ele>1072.01</ele><time>2014-09-02T09:14:37Z</time></trkpt><trkpt lat="45.9432339203" lon="6.8898646440"><ele>1072.01</ele><time>2014-09-02T09:14:38Z</time></trkpt><trkpt lat="45.9433926735" lon="6.8900915422"><ele>1073.93</ele><time>2014-09-02T09:14:43Z</time></trkpt><trkpt lat="45.9434260335" lon="6.8901344575"><ele>1074.41</ele><time>2014-09-02T09:14:44Z</time></trkpt><trkpt lat="45.9435282927" lon="6.8902627006"><ele>1075.37</ele><time>2014-09-02T09:14:47Z</time></trkpt><trkpt lat="45.9435608145" lon="6.8903084658"><ele>1075.85</ele><time>2014-09-02T09:14:48Z</time></trkpt><trkpt lat="45.9441604558" lon="6.8911129609"><ele>1076.81</ele><time>2014-09-02T09:15:05Z</time></trkpt><trkpt lat="45.9445496276" lon="6.8916147854"><ele>1077.78</ele><time>2014-09-02T09:15:16Z</time></trkpt><trkpt lat="45.9451215249" lon="6.8923767842"><ele>1078.26</ele><time>2014-09-02T09:15:32Z</time></trkpt><trkpt lat="45.9458443802" lon="6.8933066726"><ele>1079.22</ele><time>2014-09-02T09:15:51Z</time></trkpt><trkpt lat="45.9464622103" lon="6.8941237405"><ele>1078.74</ele><time>2014-09-02T09:16:08Z</time></trkpt><trkpt lat="45.9470013343" lon="6.8948216178"><ele>1080.18</ele><time>2014-09-02T09:16:23Z</time></trkpt><trkpt lat="45.9475468285" lon="6.8955374323"><ele>1080.66</ele><time>2014-09-02T09:16:39Z</time></trkpt><trkpt lat="45.9480635729" lon="6.8962136004"><ele>1082.10</ele><time>2014-09-02T09:16:55Z</time></trkpt><trkpt lat="45.9486130904" lon="6.8969305046"><ele>1083.54</ele><time>2014-09-02T09:17:12Z</time></trkpt><trkpt lat="45.9491302539" lon="6.8975962792"><ele>1084.50</ele><time>2014-09-02T09:17:28Z</time></trkpt><trkpt lat="45.9491604287" lon="6.8976348359"><ele>1084.50</ele><time>2014-09-02T09:17:29Z</time></trkpt><trkpt lat="45.9495627601" lon="6.8981203996"><ele>1086.43</ele><time>2014-09-02T09:17:42Z</time></trkpt><trkpt lat="45.9500690270" lon="6.8983634748"><ele>1088.35</ele><time>2014-09-02T09:17:56Z</time></trkpt><trkpt lat="45.9502969310" lon="6.8987212144"><ele>1089.79</ele><time>2014-09-02T09:18:06Z</time></trkpt><trkpt lat="45.9504640661" lon="6.8993446603"><ele>1091.23</ele><time>2014-09-02T09:18:19Z</time></trkpt><trkpt lat="45.9507972468" lon="6.8998023123"><ele>1092.20</ele><time>2014-09-02T09:18:31Z</time></trkpt><trkpt lat="45.9511492029" lon="6.9002331421"><ele>1092.68</ele><time>2014-09-02T09:18:44Z</time></trkpt><trkpt lat="45.9515493549" lon="6.9007593580"><ele>1093.16</ele><time>2014-09-02T09:19:00Z</time></trkpt><trkpt lat="45.9520018101" lon="6.9013583288"><ele>1095.56</ele><time>2014-09-02T09:19:17Z</time></trkpt><trkpt lat="45.9524260182" lon="6.9018908311"><ele>1097.96</ele><time>2014-09-02T09:19:33Z</time></trkpt><trkpt lat="45.9528258350" lon="6.9023170508"><ele>1100.37</ele><time>2014-09-02T09:19:48Z</time></trkpt><trkpt lat="45.9531115741" lon="6.9024332240"><ele>1105.17</ele><time>2014-09-02T09:19:59Z</time></trkpt><trkpt lat="45.9532635380" lon="6.9024614710"><ele>1108.06</ele><time>2014-09-02T09:20:05Z</time></trkpt><trkpt lat="45.9532866720" lon="6.9024610519"><ele>1108.54</ele><time>2014-09-02T09:20:06Z</time></trkpt><trkpt lat="45.9536910988" lon="6.9024783187"><ele>1115.27</ele><time>2014-09-02T09:20:21Z</time></trkpt><trkpt lat="45.9541144688" lon="6.9024901371"><ele>1121.03</ele><time>2014-09-02T09:20:37Z</time></trkpt><trkpt lat="45.9544145409" lon="6.9025705196"><ele>1124.40</ele><time>2014-09-02T09:20:49Z</time></trkpt><trkpt lat="45.9547644015" lon="6.9027814921"><ele>1126.80</ele><time>2014-09-02T09:21:04Z</time></trkpt><trkpt lat="45.9549760446" lon="6.9028811529"><ele>1126.32</ele><time>2014-09-02T09:21:15Z</time></trkpt><trkpt lat="45.9552746080" lon="6.9029643852"><ele>1127.28</ele><time>2014-09-02T09:21:28Z</time></trkpt><trkpt lat="45.9555778652" lon="6.9029771257"><ele>1131.61</ele><time>2014-09-02T09:21:42Z</time></trkpt><trkpt lat="45.9558593296" lon="6.9030039478"><ele>1132.09</ele><time>2014-09-02T09:21:55Z</time></trkpt><trkpt lat="45.9561003093" lon="6.9029355515"><ele>1132.57</ele><time>2014-09-02T09:22:07Z</time></trkpt><trkpt lat="45.9564437997" lon="6.9028377347"><ele>1133.05</ele><time>2014-09-02T09:22:23Z</time></trkpt><trkpt lat="45.9566717036" lon="6.9029180333"><ele>1135.45</ele><time>2014-09-02T09:22:35Z</time></trkpt><trkpt lat="45.9567945823" lon="6.9029808976"><ele>1135.45</ele><time>2014-09-02T09:22:43Z</time></trkpt><trkpt lat="45.9568115976" lon="6.9029906206"><ele>1135.45</ele><time>2014-09-02T09:22:44Z</time></trkpt><trkpt lat="45.9568285290" lon="6.9029992539"><ele>1135.45</ele><time>2014-09-02T09:22:45Z</time></trkpt><trkpt lat="45.9568468016" lon="6.9030036964"><ele>1135.45</ele><time>2014-09-02T09:22:46Z</time></trkpt><trkpt lat="45.9568655770" lon="6.9030088093"><ele>1135.45</ele><time>2014-09-02T09:22:47Z</time></trkpt><trkpt lat="45.9568843525" lon="6.9030134194"><ele>1135.45</ele><time>2014-09-02T09:22:48Z</time></trkpt><trkpt lat="45.9569046367" lon="6.9030148443"><ele>1135.45</ele><time>2014-09-02T09:22:49Z</time></trkpt><trkpt lat="45.9569237474" lon="6.9030188676"><ele>1135.45</ele><time>2014-09-02T09:22:50Z</time></trkpt><trkpt lat="45.9571756236" lon="6.9029901177"><ele>1137.38</ele><time>2014-09-02T09:23:03Z</time></trkpt><trkpt lat="45.9574205428" lon="6.9029469509"><ele>1138.82</ele><time>2014-09-02T09:23:17Z</time></trkpt><trkpt lat="45.9576760232" lon="6.9030010980"><ele>1140.74</ele><time>2014-09-02T09:23:30Z</time></trkpt><trkpt lat="45.9577229619" lon="6.9030425884"><ele>1141.22</ele><time>2014-09-02T09:23:33Z</time></trkpt><trkpt lat="45.9577378817" lon="6.9030624535"><ele>1141.22</ele><time>2014-09-02T09:23:34Z</time></trkpt><trkpt lat="45.9577536397" lon="6.9030746911"><ele>1141.22</ele><time>2014-09-02T09:23:35Z</time></trkpt><trkpt lat="45.9580183402" lon="6.9032414071"><ele>1142.18</ele><time>2014-09-02T09:23:51Z</time></trkpt><trkpt lat="45.9582945239" lon="6.9032541476"><ele>1146.03</ele><time>2014-09-02T09:24:05Z</time></trkpt><trkpt lat="45.9585416224" lon="6.9033470191"><ele>1147.47</ele><time>2014-09-02T09:24:18Z</time></trkpt><trkpt lat="45.9588012937" lon="6.9036582392"><ele>1150.35</ele><time>2014-09-02T09:24:35Z</time></trkpt><trkpt lat="45.9589503240" lon="6.9039641786"><ele>1152.76</ele><time>2014-09-02T09:24:49Z</time></trkpt><trkpt lat="45.9590669163" lon="6.9042735547"><ele>1155.16</ele><time>2014-09-02T09:25:03Z</time></trkpt><trkpt lat="45.9591399226" lon="6.9047230761"><ele>1158.53</ele><time>2014-09-02T09:25:19Z</time></trkpt><trkpt lat="45.9592096601" lon="6.9051373098"><ele>1159.97</ele><time>2014-09-02T09:25:33Z</time></trkpt><trkpt lat="45.9592879470" lon="6.9055372104"><ele>1161.89</ele><time>2014-09-02T09:25:48Z</time></trkpt><trkpt lat="45.9592964128" lon="6.9055880886"><ele>1162.37</ele><time>2014-09-02T09:25:50Z</time></trkpt><trkpt lat="45.9593020286" lon="6.9056129828"><ele>1162.85</ele><time>2014-09-02T09:25:51Z</time></trkpt><trkpt lat="45.9593099914" lon="6.9056364521"><ele>1163.33</ele><time>2014-09-02T09:25:52Z</time></trkpt><trkpt lat="45.9593182895" lon="6.9056627713"><ele>1163.81</ele><time>2014-09-02T09:25:53Z</time></trkpt><trkpt lat="45.9593273420" lon="6.9056869950"><ele>1164.29</ele><time>2014-09-02T09:25:54Z</time></trkpt><trkpt lat="45.9593377355" lon="6.9057112187"><ele>1164.29</ele><time>2014-09-02T09:25:55Z</time></trkpt><trkpt lat="45.9593472909" lon="6.9057385437"><ele>1164.29</ele><time>2014-09-02T09:25:56Z</time></trkpt><trkpt lat="45.9593548346" lon="6.9057617616"><ele>1164.77</ele><time>2014-09-02T09:25:57Z</time></trkpt><trkpt lat="45.9593653120" lon="6.9058454968"><ele>1163.81</ele><time>2014-09-02T09:26:09Z</time></trkpt><trkpt lat="45.9593756218" lon="6.9058408868"><ele>1160.93</ele><time>2014-09-02T09:26:37Z</time></trkpt><trkpt lat="45.9593659826" lon="6.9058435690"><ele>1161.41</ele><time>2014-09-02T09:27:04Z</time></trkpt><trkpt lat="45.9593722690" lon="6.9058092870"><ele>1157.56</ele><time>2014-09-02T09:27:29Z</time></trkpt><trkpt lat="45.9593884461" lon="6.9057925232"><ele>1159.97</ele><time>2014-09-02T09:28:04Z</time></trkpt><trkpt lat="45.9593588579" lon="6.9058243744"><ele>1161.89</ele><time>2014-09-02T09:28:32Z</time></trkpt><trkpt lat="45.9593372326" lon="6.9058615901"><ele>1162.85</ele><time>2014-09-02T09:28:58Z</time></trkpt><trkpt lat="45.9593387414" lon="6.9058274757"><ele>1160.93</ele><time>2014-09-02T09:29:22Z</time></trkpt><trkpt lat="45.9593399148" lon="6.9058358576"><ele>1160.45</ele><time>2014-09-02T09:29:58Z</time></trkpt><trkpt lat="45.9593601990" lon="6.9058324210"><ele>1157.56</ele><time>2014-09-02T09:30:30Z</time></trkpt><trkpt lat="45.9594339598" lon="6.9060091116"><ele>1158.05</ele><time>2014-09-02T09:30:42Z</time></trkpt><trkpt lat="45.9596139193" lon="6.9063936733"><ele>1159.49</ele><time>2014-09-02T09:30:55Z</time></trkpt><trkpt lat="45.9597893525" lon="6.9068060629"><ele>1161.41</ele><time>2014-09-02T09:31:09Z</time></trkpt><trkpt lat="45.9598244727" lon="6.9068706874"><ele>1161.89</ele><time>2014-09-02T09:31:11Z</time></trkpt><trkpt lat="45.9598369617" lon="6.9068979286"><ele>1161.89</ele><time>2014-09-02T09:31:12Z</time></trkpt><trkpt lat="45.9598482773" lon="6.9069272652"><ele>1162.37</ele><time>2014-09-02T09:31:13Z</time></trkpt><trkpt lat="45.9598580841" lon="6.9069493096"><ele>1162.37</ele><time>2014-09-02T09:31:14Z</time></trkpt><trkpt lat="45.9598691482" lon="6.9069798198"><ele>1162.37</ele><time>2014-09-02T09:31:15Z</time></trkpt><trkpt lat="45.9598792903" lon="6.9070092402"><ele>1161.89</ele><time>2014-09-02T09:31:16Z</time></trkpt><trkpt lat="45.9598901030" lon="6.9070384931"><ele>1161.89</ele><time>2014-09-02T09:31:17Z</time></trkpt><trkpt lat="45.9600634407" lon="6.9074477814"><ele>1162.85</ele><time>2014-09-02T09:31:31Z</time></trkpt><trkpt lat="45.9601435717" lon="6.9075783715"><ele>1163.33</ele><time>2014-09-02T09:31:36Z</time></trkpt><trkpt lat="45.9601636883" lon="6.9075971469"><ele>1163.33</ele><time>2014-09-02T09:31:37Z</time></trkpt><trkpt lat="45.9601785243" lon="6.9076240528"><ele>1163.81</ele><time>2014-09-02T09:31:38Z</time></trkpt><trkpt lat="45.9601929411" lon="6.9076559879"><ele>1163.81</ele><time>2014-09-02T09:31:39Z</time></trkpt><trkpt lat="45.9602110460" lon="6.9076916948"><ele>1163.81</ele><time>2014-09-02T09:31:40Z</time></trkpt><trkpt lat="45.9603680391" lon="6.9078149926"><ele>1163.33</ele><time>2014-09-02T09:31:56Z</time></trkpt><trkpt lat="45.9605211765" lon="6.9075312652"><ele>1163.33</ele><time>2014-09-02T09:32:17Z</time></trkpt><trkpt lat="45.9605368506" lon="6.9075972307"><ele>1164.77</ele><time>2014-09-02T09:32:38Z</time></trkpt><trkpt lat="45.9606863838" lon="6.9077626895"><ele>1167.18</ele><time>2014-09-02T09:33:03Z</time></trkpt><trkpt lat="45.9609305486" lon="6.9080167450"><ele>1171.50</ele><time>2014-09-02T09:33:23Z</time></trkpt><trkpt lat="45.9611735400" lon="6.9083557930"><ele>1181.12</ele><time>2014-09-02T09:33:45Z</time></trkpt><trkpt lat="45.9616366401" lon="6.9088237546"><ele>1189.77</ele><time>2014-09-02T09:34:06Z</time></trkpt><trkpt lat="45.9620263148" lon="6.9093040377"><ele>1193.13</ele><time>2014-09-02T09:34:12Z</time></trkpt><trkpt lat="45.9635886177" lon="6.9117027707"><ele>1184.00</ele><time>2014-09-02T09:34:27Z</time></trkpt><trkpt lat="45.9640186094" lon="6.9120239653"><ele>1181.60</ele><time>2014-09-02T09:34:42Z</time></trkpt><trkpt lat="45.9644861519" lon="6.9123677071"><ele>1182.08</ele><time>2014-09-02T09:34:58Z</time></trkpt><trkpt lat="45.9649847075" lon="6.9126382750"><ele>1183.52</ele><time>2014-09-02T09:35:15Z</time></trkpt><trkpt lat="45.9654152859" lon="6.9127911609"><ele>1182.56</ele><time>2014-09-02T09:35:28Z</time></trkpt><trkpt lat="45.9660182800" lon="6.9130050670"><ele>1183.52</ele><time>2014-09-02T09:35:44Z</time></trkpt><trkpt lat="45.9666397143" lon="6.9132021256"><ele>1184.00</ele><time>2014-09-02T09:36:01Z</time></trkpt><trkpt lat="45.9671477415" lon="6.9133790676"><ele>1186.40</ele><time>2014-09-02T09:36:15Z</time></trkpt><trkpt lat="45.9677111730" lon="6.9136140123"><ele>1188.33</ele><time>2014-09-02T09:36:31Z</time></trkpt><trkpt lat="45.9681132529" lon="6.9139844924"><ele>1189.77</ele><time>2014-09-02T09:36:46Z</time></trkpt><trkpt lat="45.9684850741" lon="6.9144282304"><ele>1192.65</ele><time>2014-09-02T09:37:01Z</time></trkpt><trkpt lat="45.9688625950" lon="6.9148930907"><ele>1194.58</ele><time>2014-09-02T09:37:17Z</time></trkpt><trkpt lat="45.9692495037" lon="6.9153811689"><ele>1196.98</ele><time>2014-09-02T09:37:32Z</time></trkpt><trkpt lat="45.9697110113" lon="6.9159735180"><ele>1199.38</ele><time>2014-09-02T09:37:51Z</time></trkpt><trkpt lat="45.9701047931" lon="6.9163705688"><ele>1200.82</ele><time>2014-09-02T09:38:06Z</time></trkpt><trkpt lat="45.9704867564" lon="6.9166756701"><ele>1202.75</ele><time>2014-09-02T09:38:18Z</time></trkpt><trkpt lat="45.9708988108" lon="6.9169965293"><ele>1206.59</ele><time>2014-09-02T09:38:31Z</time></trkpt><trkpt lat="45.9713089373" lon="6.9173001219"><ele>1211.88</ele><time>2014-09-02T09:38:45Z</time></trkpt><trkpt lat="45.9717561118" lon="6.9176384155"><ele>1218.61</ele><time>2014-09-02T09:38:59Z</time></trkpt><trkpt lat="45.9721575212" lon="6.9179563411"><ele>1221.49</ele><time>2014-09-02T09:39:12Z</time></trkpt><trkpt lat="45.9726073779" lon="6.9184108917"><ele>1221.49</ele><time>2014-09-02T09:39:27Z</time></trkpt><trkpt lat="45.9729714878" lon="6.9189495128"><ele>1215.72</ele><time>2014-09-02T09:39:44Z</time></trkpt><trkpt lat="45.9732406307" lon="6.9193479046"><ele>1209.96</ele><time>2014-09-02T09:39:56Z</time></trkpt><trkpt lat="45.9736088477" lon="6.9197795726"><ele>1211.40</ele><time>2014-09-02T09:40:10Z</time></trkpt><trkpt lat="45.9740113467" lon="6.9201088976"><ele>1213.32</ele><time>2014-09-02T09:40:23Z</time></trkpt><trkpt lat="45.9744894505" lon="6.9204725046"><ele>1216.21</ele><time>2014-09-02T09:40:39Z</time></trkpt><trkpt lat="45.9748940449" lon="6.9208066072"><ele>1217.17</ele><time>2014-09-02T09:40:54Z</time></trkpt><trkpt lat="45.9752343502" lon="6.9210267998"><ele>1220.53</ele><time>2014-09-02T09:41:07Z</time></trkpt><trkpt lat="45.9758769069" lon="6.9215137046"><ele>1219.09</ele><time>2014-09-02T09:41:34Z</time></trkpt><trkpt lat="45.9758928325" lon="6.9215277862"><ele>1219.09</ele><time>2014-09-02T09:41:35Z</time></trkpt><trkpt lat="45.9759163018" lon="6.9215441309"><ele>1219.09</ele><time>2014-09-02T09:41:36Z</time></trkpt><trkpt lat="45.9759360831" lon="6.9215419516"><ele>1219.09</ele><time>2014-09-02T09:41:37Z</time></trkpt><trkpt lat="45.9759419505" lon="6.9214891456"><ele>1218.61</ele><time>2014-09-02T09:41:39Z</time></trkpt><trkpt lat="45.9759245161" lon="6.9214670174"><ele>1218.61</ele><time>2014-09-02T09:41:40Z</time></trkpt><trkpt lat="45.9759012982" lon="6.9214407820"><ele>1218.61</ele><time>2014-09-02T09:41:41Z</time></trkpt><trkpt lat="45.9758505877" lon="6.9213511795"><ele>1218.13</ele><time>2014-09-02T09:41:47Z</time></trkpt><trkpt lat="45.9758567065" lon="6.9213208370"><ele>1217.17</ele><time>2014-09-02T09:41:57Z</time></trkpt><trkpt lat="45.9758659266" lon="6.9213257823"><ele>1218.13</ele><time>2014-09-02T09:42:08Z</time></trkpt><trkpt lat="45.9758552816" lon="6.9212828670"><ele>1216.69</ele><time>2014-09-02T09:42:32Z</time></trkpt><trkpt lat="45.9758391883" lon="6.9212851301"><ele>1215.72</ele><time>2014-09-02T09:42:46Z</time></trkpt><trkpt lat="45.9758535214" lon="6.9213168137"><ele>1214.28</ele><time>2014-09-02T09:43:07Z</time></trkpt><trkpt lat="45.9758722968" lon="6.9210708886"><ele>1215.72</ele><time>2014-09-02T09:43:29Z</time></trkpt><trkpt lat="45.9758966044" lon="6.9210183341"><ele>1215.72</ele><time>2014-09-02T09:43:30Z</time></trkpt><trkpt lat="45.9759123623" lon="6.9209930208"><ele>1216.21</ele><time>2014-09-02T09:43:31Z</time></trkpt><trkpt lat="45.9759336524" lon="6.9209647737"><ele>1216.21</ele><time>2014-09-02T09:43:32Z</time></trkpt><trkpt lat="45.9759577084" lon="6.9209361915"><ele>1215.72</ele><time>2014-09-02T09:43:33Z</time></trkpt><trkpt lat="45.9763555136" lon="6.9207714032"><ele>1216.21</ele><time>2014-09-02T09:43:46Z</time></trkpt><trkpt lat="45.9767782129" lon="6.9211232755"><ele>1217.65</ele><time>2014-09-02T09:43:59Z</time></trkpt><trkpt lat="45.9771695640" lon="6.9215133693"><ele>1219.09</ele><time>2014-09-02T09:44:11Z</time></trkpt><trkpt lat="45.9772037622" lon="6.9215448853"><ele>1219.09</ele><time>2014-09-02T09:44:12Z</time></trkpt><trkpt lat="45.9772363678" lon="6.9215796702"><ele>1219.09</ele><time>2014-09-02T09:44:13Z</time></trkpt><trkpt lat="45.9778149705" lon="6.9220862724"><ele>1220.05</ele><time>2014-09-02T09:44:31Z</time></trkpt><trkpt lat="45.9782536794" lon="6.9224279188"><ele>1224.38</ele><time>2014-09-02T09:44:46Z</time></trkpt><trkpt lat="45.9787073079" lon="6.9227275718"><ele>1227.74</ele><time>2014-09-02T09:45:02Z</time></trkpt><trkpt lat="45.9790945519" lon="6.9229729939"><ele>1231.59</ele><time>2014-09-02T09:45:18Z</time></trkpt><trkpt lat="45.9794557281" lon="6.9231865648"><ele>1232.55</ele><time>2014-09-02T09:45:33Z</time></trkpt><trkpt lat="45.9797512740" lon="6.9233946037"><ele>1234.95</ele><time>2014-09-02T09:45:46Z</time></trkpt><trkpt lat="45.9800843708" lon="6.9237378426"><ele>1237.83</ele><time>2014-09-02T09:46:02Z</time></trkpt><trkpt lat="45.9804369975" lon="6.9241434429"><ele>1240.72</ele><time>2014-09-02T09:46:19Z</time></trkpt><trkpt lat="45.9807260893" lon="6.9244888611"><ele>1244.08</ele><time>2014-09-02T09:46:34Z</time></trkpt><trkpt lat="45.9809657279" lon="6.9247853290"><ele>1246.49</ele><time>2014-09-02T09:46:48Z</time></trkpt><trkpt lat="45.9812563285" lon="6.9251254667"><ele>1249.37</ele><time>2014-09-02T09:47:04Z</time></trkpt><trkpt lat="45.9813328553" lon="6.9252236187"><ele>1249.37</ele><time>2014-09-02T09:47:09Z</time></trkpt><trkpt lat="45.9813334420" lon="6.9252568949"><ele>1249.37</ele><time>2014-09-02T09:47:10Z</time></trkpt><trkpt lat="45.9813342802" lon="6.9252673723"><ele>1249.85</ele><time>2014-09-02T09:47:11Z</time></trkpt><trkpt lat="45.9813031834" lon="6.9253220223"><ele>1249.37</ele><time>2014-09-02T09:47:22Z</time></trkpt><trkpt lat="45.9813105594" lon="6.9252956193"><ele>1248.41</ele><time>2014-09-02T09:47:26Z</time></trkpt><trkpt lat="45.9813030157" lon="6.9252297375"><ele>1247.45</ele><time>2014-09-02T09:47:31Z</time></trkpt><trkpt lat="45.9812971484" lon="6.9252118003"><ele>1247.45</ele><time>2014-09-02T09:47:32Z</time></trkpt><trkpt lat="45.9812869225" lon="6.9251978863"><ele>1247.45</ele><time>2014-09-02T09:47:33Z</time></trkpt><trkpt lat="45.9812796302" lon="6.9251879957"><ele>1247.45</ele><time>2014-09-02T09:47:34Z</time></trkpt><trkpt lat="45.9812652972" lon="6.9251739141"><ele>1247.45</ele><time>2014-09-02T09:47:35Z</time></trkpt><trkpt lat="45.9812497068" lon="6.9251596648"><ele>1247.45</ele><time>2014-09-02T09:47:36Z</time></trkpt><trkpt lat="45.9812342003" lon="6.9251428172"><ele>1247.45</ele><time>2014-09-02T09:47:37Z</time></trkpt><trkpt lat="45.9810051229" lon="6.9249029271"><ele>1244.56</ele><time>2014-09-02T09:47:50Z</time></trkpt><trkpt lat="45.9809960704" lon="6.9249162544"><ele>1244.08</ele><time>2014-09-02T09:47:51Z</time></trkpt><trkpt lat="45.9809979983" lon="6.9249420706"><ele>1243.60</ele><time>2014-09-02T09:47:52Z</time></trkpt><trkpt lat="45.9810047876" lon="6.9249485247"><ele>1243.12</ele><time>2014-09-02T09:47:53Z</time></trkpt><trkpt lat="45.9810165223" lon="6.9249653723"><ele>1243.12</ele><time>2014-09-02T09:47:54Z</time></trkpt><trkpt lat="45.9811073821" lon="6.9251763448"><ele>1243.60</ele><time>2014-09-02T09:48:06Z</time></trkpt><trkpt lat="45.9811085556" lon="6.9251915999"><ele>1243.60</ele><time>2014-09-02T09:48:07Z</time></trkpt><trkpt lat="45.9811021015" lon="6.9252070226"><ele>1244.08</ele><time>2014-09-02T09:48:08Z</time></trkpt><trkpt lat="45.9810927138" lon="6.9252165779"><ele>1244.08</ele><time>2014-09-02T09:48:09Z</time></trkpt><trkpt lat="45.9810907859" lon="6.9252308272"><ele>1242.64</ele><time>2014-09-02T09:48:26Z</time></trkpt><trkpt lat="45.9812527243" lon="6.9251120556"><ele>1242.16</ele><time>2014-09-02T09:49:26Z</time></trkpt><trkpt lat="45.9813911933" lon="6.9251838047"><ele>1242.16</ele><time>2014-09-02T09:49:47Z</time></trkpt><trkpt lat="45.9815249685" lon="6.9247946329"><ele>1241.68</ele><time>2014-09-02T09:50:22Z</time></trkpt><trkpt lat="45.9810073860" lon="6.9247513823"><ele>1241.68</ele><time>2014-09-02T09:50:57Z</time></trkpt></trkseg><trkseg><trkpt lat="45.9811446816" lon="6.9251858164"><ele>1240.72</ele><time>2014-09-02T09:53:34Z</time></trkpt><trkpt lat="45.9810983296" lon="6.9251791947"><ele>1239.28</ele><time>2014-09-02T09:53:38Z</time></trkpt><trkpt lat="45.9810775425" lon="6.9251136482"><ele>1239.28</ele><time>2014-09-02T09:53:43Z</time></trkpt><trkpt lat="45.9810107388" lon="6.9249030948"><ele>1240.72</ele><time>2014-09-02T09:53:52Z</time></trkpt><trkpt lat="45.9810291789" lon="6.9248950481"><ele>1241.68</ele><time>2014-09-02T09:53:59Z</time></trkpt><trkpt lat="45.9810384829" lon="6.9248955511"><ele>1242.16</ele><time>2014-09-02T09:54:00Z</time></trkpt><trkpt lat="45.9810502175" lon="6.9249055255"><ele>1242.64</ele><time>2014-09-02T09:54:01Z</time></trkpt><trkpt lat="45.9810656402" lon="6.9249349460"><ele>1242.64</ele><time>2014-09-02T09:54:02Z</time></trkpt><trkpt lat="45.9810762014" lon="6.9249570742"><ele>1243.12</ele><time>2014-09-02T09:54:03Z</time></trkpt><trkpt lat="45.9813563246" lon="6.9253008999"><ele>1245.04</ele><time>2014-09-02T09:54:17Z</time></trkpt><trkpt lat="45.9816822968" lon="6.9255934283"><ele>1246.97</ele><time>2014-09-02T09:54:31Z</time></trkpt><trkpt lat="45.9819551278" lon="6.9258127827"><ele>1249.37</ele><time>2014-09-02T09:54:42Z</time></trkpt><trkpt lat="45.9822937567" lon="6.9260483142"><ele>1251.77</ele><time>2014-09-02T09:54:56Z</time></trkpt><trkpt lat="45.9827466309" lon="6.9262461271"><ele>1253.70</ele><time>2014-09-02T09:55:14Z</time></trkpt><trkpt lat="45.9830605332" lon="6.9264163636"><ele>1258.50</ele><time>2014-09-02T09:55:28Z</time></trkpt><trkpt lat="45.9833725914" lon="6.9265679922"><ele>1262.35</ele><time>2014-09-02T09:55:43Z</time></trkpt><trkpt lat="45.9833995812" lon="6.9265726861"><ele>1262.83</ele><time>2014-09-02T09:55:44Z</time></trkpt><trkpt lat="45.9834222961" lon="6.9265758712"><ele>1262.83</ele><time>2014-09-02T09:55:45Z</time></trkpt><trkpt lat="45.9836328495" lon="6.9266626239"><ele>1265.71</ele><time>2014-09-02T09:55:54Z</time></trkpt><trkpt lat="45.9836553968" lon="6.9266691618"><ele>1265.71</ele><time>2014-09-02T09:55:55Z</time></trkpt><trkpt lat="45.9839422256" lon="6.9268213771"><ele>1264.27</ele><time>2014-09-02T09:56:08Z</time></trkpt><trkpt lat="45.9842760768" lon="6.9269544818"><ele>1265.71</ele><time>2014-09-02T09:56:22Z</time></trkpt><trkpt lat="45.9845053218" lon="6.9270652067"><ele>1268.12</ele><time>2014-09-02T09:56:33Z</time></trkpt><trkpt lat="45.9846387617" lon="6.9271644484"><ele>1270.04</ele><time>2014-09-02T09:56:44Z</time></trkpt><trkpt lat="45.9846033901" lon="6.9271684717"><ele>1270.52</ele><time>2014-09-02T09:56:50Z</time></trkpt><trkpt lat="45.9845934156" lon="6.9271600898"><ele>1270.52</ele><time>2014-09-02T09:56:51Z</time></trkpt><trkpt lat="45.9845673479" lon="6.9271320943"><ele>1271.00</ele><time>2014-09-02T09:57:04Z</time></trkpt><trkpt lat="45.9845829383" lon="6.9271200243"><ele>1273.40</ele><time>2014-09-02T09:57:21Z</time></trkpt><trkpt lat="45.9845996182" lon="6.9270717446"><ele>1274.36</ele><time>2014-09-02T09:57:40Z</time></trkpt><trkpt lat="45.9846639074" lon="6.9270118978"><ele>1277.25</ele><time>2014-09-02T09:58:03Z</time></trkpt><trkpt lat="45.9846727084" lon="6.9269232173"><ele>1278.21</ele><time>2014-09-02T09:58:18Z</time></trkpt><trkpt lat="45.9846644942" lon="6.9268927909"><ele>1277.73</ele><time>2014-09-02T09:58:36Z</time></trkpt><trkpt lat="45.9846940823" lon="6.9268809725"><ele>1275.81</ele><time>2014-09-02T09:58:59Z</time></trkpt><trkpt lat="45.9847397637" lon="6.9268523064"><ele>1273.88</ele><time>2014-09-02T09:59:21Z</time></trkpt><trkpt lat="45.9847311303" lon="6.9268275797"><ele>1272.44</ele><time>2014-09-02T09:59:47Z</time></trkpt><trkpt lat="45.9847346507" lon="6.9267845806"><ele>1272.44</ele><time>2014-09-02T10:00:13Z</time></trkpt><trkpt lat="45.9847018775" lon="6.9267541543"><ele>1278.69</ele><time>2014-09-02T10:00:36Z</time></trkpt><trkpt lat="45.9846653324" lon="6.9267322775"><ele>1279.65</ele><time>2014-09-02T10:00:51Z</time></trkpt><trkpt lat="45.9846729599" lon="6.9267514721"><ele>1280.61</ele><time>2014-09-02T10:00:57Z</time></trkpt><trkpt lat="45.9847709443" lon="6.9268544018"><ele>1275.81</ele><time>2014-09-02T10:01:02Z</time></trkpt><trkpt lat="45.9850694239" lon="6.9272166677"><ele>1270.04</ele><time>2014-09-02T10:01:17Z</time></trkpt><trkpt lat="45.9851626307" lon="6.9272838067"><ele>1269.08</ele><time>2014-09-02T10:01:22Z</time></trkpt><trkpt lat="45.9853933007" lon="6.9274362735"><ele>1269.08</ele><time>2014-09-02T10:01:35Z</time></trkpt><trkpt lat="45.9855763614" lon="6.9275395386"><ele>1269.08</ele><time>2014-09-02T10:01:45Z</time></trkpt><trkpt lat="45.9855936281" lon="6.9275466632"><ele>1269.08</ele><time>2014-09-02T10:01:46Z</time></trkpt><trkpt lat="45.9856098052" lon="6.9275582302"><ele>1269.56</ele><time>2014-09-02T10:01:47Z</time></trkpt><trkpt lat="45.9856256470" lon="6.9275733177"><ele>1269.56</ele><time>2014-09-02T10:01:48Z</time></trkpt><trkpt lat="45.9856424108" lon="6.9275836274"><ele>1269.56</ele><time>2014-09-02T10:01:49Z</time></trkpt><trkpt lat="45.9856589232" lon="6.9275928475"><ele>1269.56</ele><time>2014-09-02T10:01:50Z</time></trkpt><trkpt lat="45.9856754355" lon="6.9275989663"><ele>1269.56</ele><time>2014-09-02T10:01:51Z</time></trkpt><trkpt lat="45.9856927861" lon="6.9276060071"><ele>1270.04</ele><time>2014-09-02T10:01:52Z</time></trkpt><trkpt lat="45.9857100528" lon="6.9276149757"><ele>1270.04</ele><time>2014-09-02T10:01:53Z</time></trkpt><trkpt lat="45.9857282415" lon="6.9276233576"><ele>1270.04</ele><time>2014-09-02T10:01:54Z</time></trkpt><trkpt lat="45.9857468493" lon="6.9276360981"><ele>1270.04</ele><time>2014-09-02T10:01:55Z</time></trkpt><trkpt lat="45.9860281460" lon="6.9277989585"><ele>1272.44</ele><time>2014-09-02T10:02:11Z</time></trkpt><trkpt lat="45.9862885717" lon="6.9279287942"><ele>1274.36</ele><time>2014-09-02T10:02:26Z</time></trkpt><trkpt lat="45.9865302220" lon="6.9280204084"><ele>1274.36</ele><time>2014-09-02T10:02:40Z</time></trkpt><trkpt lat="45.9868187271" lon="6.9280979410"><ele>1273.88</ele><time>2014-09-02T10:02:55Z</time></trkpt><trkpt lat="45.9870780632" lon="6.9282376673"><ele>1277.73</ele><time>2014-09-02T10:03:10Z</time></trkpt><trkpt lat="45.9873332921" lon="6.9283664133"><ele>1282.06</ele><time>2014-09-02T10:03:25Z</time></trkpt><trkpt lat="45.9875429235" lon="6.9284431916"><ele>1284.46</ele><time>2014-09-02T10:03:37Z</time></trkpt><trkpt lat="45.9877927881" lon="6.9285669923"><ele>1291.67</ele><time>2014-09-02T10:03:53Z</time></trkpt><trkpt lat="45.9878556523" lon="6.9286069740"><ele>1294.07</ele><time>2014-09-02T10:03:57Z</time></trkpt><trkpt lat="45.9878972266" lon="6.9286418427"><ele>1295.99</ele><time>2014-09-02T10:04:00Z</time></trkpt><trkpt lat="45.9879084583" lon="6.9286528230"><ele>1296.96</ele><time>2014-09-02T10:04:01Z</time></trkpt><trkpt lat="45.9879257251" lon="6.9286566786"><ele>1297.44</ele><time>2014-09-02T10:04:02Z</time></trkpt><trkpt lat="45.9879419859" lon="6.9286604505"><ele>1298.40</ele><time>2014-09-02T10:04:03Z</time></trkpt><trkpt lat="45.9879564866" lon="6.9286658149"><ele>1299.36</ele><time>2014-09-02T10:04:04Z</time></trkpt><trkpt lat="45.9879718255" lon="6.9286735263"><ele>1299.84</ele><time>2014-09-02T10:04:05Z</time></trkpt><trkpt lat="45.9879986476" lon="6.9286780525"><ele>1301.76</ele><time>2014-09-02T10:04:07Z</time></trkpt><trkpt lat="45.9880132321" lon="6.9286795612"><ele>1302.72</ele><time>2014-09-02T10:04:08Z</time></trkpt><trkpt lat="45.9880286548" lon="6.9286835007"><ele>1303.69</ele><time>2014-09-02T10:04:09Z</time></trkpt><trkpt lat="45.9880437423" lon="6.9286850933"><ele>1304.17</ele><time>2014-09-02T10:04:10Z</time></trkpt><trkpt lat="45.9880601708" lon="6.9286901224"><ele>1305.13</ele><time>2014-09-02T10:04:11Z</time></trkpt><trkpt lat="45.9880768508" lon="6.9286958221"><ele>1305.61</ele><time>2014-09-02T10:04:12Z</time></trkpt><trkpt lat="45.9882865660" lon="6.9287285954"><ele>1308.97</ele><time>2014-09-02T10:04:24Z</time></trkpt><trkpt lat="45.9883962013" lon="6.9287569262"><ele>1309.45</ele><time>2014-09-02T10:04:30Z</time></trkpt><trkpt lat="45.9884159826" lon="6.9287571777"><ele>1309.45</ele><time>2014-09-02T10:04:31Z</time></trkpt><trkpt lat="45.9886154719" lon="6.9287615363"><ele>1308.49</ele><time>2014-09-02T10:04:41Z</time></trkpt><trkpt lat="45.9886322357" lon="6.9287655596"><ele>1308.49</ele><time>2014-09-02T10:04:42Z</time></trkpt><trkpt lat="45.9886495862" lon="6.9287732709"><ele>1308.49</ele><time>2014-09-02T10:04:43Z</time></trkpt><trkpt lat="45.9886651766" lon="6.9287815690"><ele>1308.49</ele><time>2014-09-02T10:04:44Z</time></trkpt><trkpt lat="45.9886840358" lon="6.9287869334"><ele>1308.49</ele><time>2014-09-02T10:04:45Z</time></trkpt><trkpt lat="45.9889287874" lon="6.9288103189"><ele>1308.01</ele><time>2014-09-02T10:04:58Z</time></trkpt><trkpt lat="45.9891929012" lon="6.9288247358"><ele>1310.90</ele><time>2014-09-02T10:05:12Z</time></trkpt><trkpt lat="45.9894033708" lon="6.9288271666"><ele>1314.26</ele><time>2014-09-02T10:05:24Z</time></trkpt><trkpt lat="45.9896643832" lon="6.9288488757"><ele>1317.14</ele><time>2014-09-02T10:05:39Z</time></trkpt><trkpt lat="45.9899160918" lon="6.9288968202"><ele>1315.70</ele><time>2014-09-02T10:05:52Z</time></trkpt><trkpt lat="45.9901439957" lon="6.9290772825"><ele>1314.74</ele><time>2014-09-02T10:06:06Z</time></trkpt><trkpt lat="45.9901602566" lon="6.9290933758"><ele>1314.74</ele><time>2014-09-02T10:06:07Z</time></trkpt><trkpt lat="45.9901755117" lon="6.9291072059"><ele>1314.74</ele><time>2014-09-02T10:06:08Z</time></trkpt><trkpt lat="45.9904276393" lon="6.9291036017"><ele>1312.82</ele><time>2014-09-02T10:06:22Z</time></trkpt><trkpt lat="45.9905262105" lon="6.9289773703"><ele>1311.86</ele><time>2014-09-02T10:06:30Z</time></trkpt><trkpt lat="45.9905327484" lon="6.9289538171"><ele>1311.86</ele><time>2014-09-02T10:06:31Z</time></trkpt><trkpt lat="45.9905407112" lon="6.9289309345"><ele>1311.86</ele><time>2014-09-02T10:06:32Z</time></trkpt><trkpt lat="45.9905471653" lon="6.9289099798"><ele>1311.86</ele><time>2014-09-02T10:06:33Z</time></trkpt><trkpt lat="45.9905479196" lon="6.9288929645"><ele>1311.86</ele><time>2014-09-02T10:06:34Z</time></trkpt><trkpt lat="45.9905583970" lon="6.9288557488"><ele>1311.86</ele><time>2014-09-02T10:06:43Z</time></trkpt><trkpt lat="45.9906169865" lon="6.9288585149"><ele>1313.30</ele><time>2014-09-02T10:07:08Z</time></trkpt><trkpt lat="45.9906045813" lon="6.9288667291"><ele>1312.82</ele><time>2014-09-02T10:07:44Z</time></trkpt><trkpt lat="45.9905866440" lon="6.9288763683"><ele>1310.90</ele><time>2014-09-02T10:08:19Z</time></trkpt><trkpt lat="45.9905651864" lon="6.9288187008"><ele>1311.86</ele><time>2014-09-02T10:08:38Z</time></trkpt><trkpt lat="45.9905240312" lon="6.9285783917"><ele>1312.34</ele><time>2014-09-02T10:08:49Z</time></trkpt><trkpt lat="45.9901878331" lon="6.9283985160"><ele>1312.34</ele><time>2014-09-02T10:09:04Z</time></trkpt><trkpt lat="45.9897916205" lon="6.9282566104"><ele>1312.82</ele><time>2014-09-02T10:09:19Z</time></trkpt><trkpt lat="45.9897015151" lon="6.9279824384"><ele>1318.10</ele><time>2014-09-02T10:09:29Z</time></trkpt><trkpt lat="45.9897099808" lon="6.9279565383"><ele>1318.59</ele><time>2014-09-02T10:09:30Z</time></trkpt><trkpt lat="45.9897203743" lon="6.9279288780"><ele>1319.07</ele><time>2014-09-02T10:09:31Z</time></trkpt><trkpt lat="45.9897835739" lon="6.9278122857"><ele>1319.55</ele><time>2014-09-02T10:09:36Z</time></trkpt><trkpt lat="45.9898015112" lon="6.9277982879"><ele>1319.55</ele><time>2014-09-02T10:09:37Z</time></trkpt><trkpt lat="45.9898922034" lon="6.9277541153"><ele>1319.55</ele><time>2014-09-02T10:09:42Z</time></trkpt><trkpt lat="45.9901718237" lon="6.9279055763"><ele>1324.35</ele><time>2014-09-02T10:09:58Z</time></trkpt><trkpt lat="45.9904268011" lon="6.9280472305"><ele>1326.76</ele><time>2014-09-02T10:10:14Z</time></trkpt><trkpt lat="45.9907210059" lon="6.9281442091"><ele>1329.64</ele><time>2014-09-02T10:10:31Z</time></trkpt><trkpt lat="45.9909349121" lon="6.9281711988"><ele>1331.56</ele><time>2014-09-02T10:10:45Z</time></trkpt><trkpt lat="45.9909468982" lon="6.9281647447"><ele>1331.56</ele><time>2014-09-02T10:10:46Z</time></trkpt><trkpt lat="45.9909622371" lon="6.9281582069"><ele>1331.56</ele><time>2014-09-02T10:10:47Z</time></trkpt><trkpt lat="45.9909765702" lon="6.9281553570"><ele>1331.56</ele><time>2014-09-02T10:10:48Z</time></trkpt><trkpt lat="45.9909928311" lon="6.9281523395"><ele>1331.56</ele><time>2014-09-02T10:10:49Z</time></trkpt><trkpt lat="45.9910093434" lon="6.9281543512"><ele>1331.56</ele><time>2014-09-02T10:10:50Z</time></trkpt><trkpt lat="45.9910254367" lon="6.9281601347"><ele>1331.56</ele><time>2014-09-02T10:10:51Z</time></trkpt><trkpt lat="45.9910405241" lon="6.9281565305"><ele>1331.56</ele><time>2014-09-02T10:10:52Z</time></trkpt><trkpt lat="45.9910558630" lon="6.9281437900"><ele>1331.56</ele><time>2014-09-02T10:10:53Z</time></trkpt><trkpt lat="45.9911133628" lon="6.9280992821"><ele>1332.04</ele><time>2014-09-02T10:10:57Z</time></trkpt><trkpt lat="45.9911266901" lon="6.9280839432"><ele>1332.04</ele><time>2014-09-02T10:10:58Z</time></trkpt><trkpt lat="45.9911790770" lon="6.9280194864"><ele>1332.04</ele><time>2014-09-02T10:11:02Z</time></trkpt><trkpt lat="45.9912156221" lon="6.9279209152"><ele>1331.56</ele><time>2014-09-02T10:11:07Z</time></trkpt><trkpt lat="45.9911567811" lon="6.9276697095"><ele>1333.97</ele><time>2014-09-02T10:11:19Z</time></trkpt><trkpt lat="45.9909333196" lon="6.9275998045"><ele>1333.97</ele><time>2014-09-02T10:11:33Z</time></trkpt><trkpt lat="45.9906635061" lon="6.9274960365"><ele>1335.89</ele><time>2014-09-02T10:11:48Z</time></trkpt><trkpt lat="45.9904848877" lon="6.9272668753"><ele>1335.89</ele><time>2014-09-02T10:12:02Z</time></trkpt><trkpt lat="45.9904744942" lon="6.9272470940"><ele>1335.89</ele><time>2014-09-02T10:12:03Z</time></trkpt><trkpt lat="45.9904607479" lon="6.9272307493"><ele>1335.89</ele><time>2014-09-02T10:12:04Z</time></trkpt><trkpt lat="45.9904476721" lon="6.9272143207"><ele>1335.89</ele><time>2014-09-02T10:12:05Z</time></trkpt><trkpt lat="45.9904341772" lon="6.9271999877"><ele>1335.89</ele><time>2014-09-02T10:12:06Z</time></trkpt><trkpt lat="45.9904200118" lon="6.9271876663"><ele>1335.89</ele><time>2014-09-02T10:12:07Z</time></trkpt><trkpt lat="45.9904055949" lon="6.9271771051"><ele>1335.89</ele><time>2014-09-02T10:12:08Z</time></trkpt><trkpt lat="45.9903908428" lon="6.9271688908"><ele>1335.89</ele><time>2014-09-02T10:12:09Z</time></trkpt><trkpt lat="45.9903756715" lon="6.9271612633"><ele>1335.89</ele><time>2014-09-02T10:12:10Z</time></trkpt><trkpt lat="45.9903597459" lon="6.9271521270"><ele>1335.41</ele><time>2014-09-02T10:12:11Z</time></trkpt><trkpt lat="45.9903429821" lon="6.9271431584"><ele>1335.41</ele><time>2014-09-02T10:12:12Z</time></trkpt><trkpt lat="45.9903282300" lon="6.9271367881"><ele>1335.41</ele><time>2014-09-02T10:12:13Z</time></trkpt><trkpt lat="45.9903133940" lon="6.9271280710"><ele>1335.41</ele><time>2014-09-02T10:12:14Z</time></trkpt><trkpt lat="45.9900839813" lon="6.9270696491"><ele>1336.37</ele><time>2014-09-02T10:12:28Z</time></trkpt><trkpt lat="45.9897944704" lon="6.9270593394"><ele>1338.77</ele><time>2014-09-02T10:12:44Z</time></trkpt><trkpt lat="45.9895105753" lon="6.9272559788"><ele>1343.10</ele><time>2014-09-02T10:13:01Z</time></trkpt><trkpt lat="45.9892211482" lon="6.9275267981"><ele>1345.98</ele><time>2014-09-02T10:13:18Z</time></trkpt><trkpt lat="45.9889622312" lon="6.9275148120"><ele>1350.79</ele><time>2014-09-02T10:13:33Z</time></trkpt><trkpt lat="45.9888020530" lon="6.9273138978"><ele>1350.31</ele><time>2014-09-02T10:13:46Z</time></trkpt><trkpt lat="45.9887605626" lon="6.9271515403"><ele>1353.19</ele><time>2014-09-02T10:13:59Z</time></trkpt><trkpt lat="45.9887553658" lon="6.9271601737"><ele>1357.04</ele><time>2014-09-02T10:14:14Z</time></trkpt><trkpt lat="45.9887603112" lon="6.9271897618"><ele>1362.33</ele><time>2014-09-02T10:14:48Z</time></trkpt><trkpt lat="45.9887648374" lon="6.9271806255"><ele>1362.33</ele><time>2014-09-02T10:15:11Z</time></trkpt><trkpt lat="45.9887762368" lon="6.9271968026"><ele>1360.88</ele><time>2014-09-02T10:15:29Z</time></trkpt><trkpt lat="45.9887668490" lon="6.9271621853"><ele>1363.77</ele><time>2014-09-02T10:15:52Z</time></trkpt><trkpt lat="45.9887565393" lon="6.9271512050"><ele>1362.33</ele><time>2014-09-02T10:16:15Z</time></trkpt><trkpt lat="45.9887379315" lon="6.9271674659"><ele>1362.81</ele><time>2014-09-02T10:16:42Z</time></trkpt><trkpt lat="45.9887405299" lon="6.9271445833"><ele>1360.88</ele><time>2014-09-02T10:16:56Z</time></trkpt><trkpt lat="45.9887298010" lon="6.9270869996"><ele>1361.36</ele><time>2014-09-02T10:17:02Z</time></trkpt><trkpt lat="45.9887349140" lon="6.9270670507"><ele>1361.36</ele><time>2014-09-02T10:17:03Z</time></trkpt><trkpt lat="45.9887757339" lon="6.9269602653"><ele>1362.33</ele><time>2014-09-02T10:17:08Z</time></trkpt><trkpt lat="45.9887878038" lon="6.9269403163"><ele>1362.33</ele><time>2014-09-02T10:17:09Z</time></trkpt><trkpt lat="45.9887995385" lon="6.9269201159"><ele>1362.81</ele><time>2014-09-02T10:17:10Z</time></trkpt><trkpt lat="45.9888135362" lon="6.9269011728"><ele>1362.81</ele><time>2014-09-02T10:17:11Z</time></trkpt><trkpt lat="45.9888278693" lon="6.9268813916"><ele>1363.29</ele><time>2014-09-02T10:17:12Z</time></trkpt><trkpt lat="45.9888402745" lon="6.9268612750"><ele>1363.77</ele><time>2014-09-02T10:17:13Z</time></trkpt><trkpt lat="45.9888549428" lon="6.9268412422"><ele>1363.77</ele><time>2014-09-02T10:17:14Z</time></trkpt><trkpt lat="45.9888709523" lon="6.9268264901"><ele>1364.25</ele><time>2014-09-02T10:17:15Z</time></trkpt><trkpt lat="45.9888886381" lon="6.9268106483"><ele>1364.73</ele><time>2014-09-02T10:17:16Z</time></trkpt><trkpt lat="45.9889038093" lon="6.9267968182"><ele>1364.73</ele><time>2014-09-02T10:17:17Z</time></trkpt><trkpt lat="45.9889204893" lon="6.9267851673"><ele>1365.21</ele><time>2014-09-02T10:17:18Z</time></trkpt><trkpt lat="45.9891369939" lon="6.9266888592"><ele>1370.02</ele><time>2014-09-02T10:17:32Z</time></trkpt><trkpt lat="45.9891501535" lon="6.9266911224"><ele>1370.98</ele><time>2014-09-02T10:17:33Z</time></trkpt><trkpt lat="45.9891645703" lon="6.9266951457"><ele>1371.46</ele><time>2014-09-02T10:17:34Z</time></trkpt><trkpt lat="45.9894032869" lon="6.9266815670"><ele>1376.75</ele><time>2014-09-02T10:17:48Z</time></trkpt><trkpt lat="45.9896949772" lon="6.9266218878"><ele>1380.59</ele><time>2014-09-02T10:18:05Z</time></trkpt><trkpt lat="45.9898906946" lon="6.9266101532"><ele>1381.55</ele><time>2014-09-02T10:18:16Z</time></trkpt><trkpt lat="45.9899067041" lon="6.9266060460"><ele>1381.55</ele><time>2014-09-02T10:18:17Z</time></trkpt><trkpt lat="45.9899214562" lon="6.9266024418"><ele>1382.03</ele><time>2014-09-02T10:18:18Z</time></trkpt><trkpt lat="45.9899336938" lon="6.9266037829"><ele>1382.03</ele><time>2014-09-02T10:18:19Z</time></trkpt><trkpt lat="45.9899463505" lon="6.9266078062"><ele>1382.51</ele><time>2014-09-02T10:18:20Z</time></trkpt><trkpt lat="45.9899567440" lon="6.9266093150"><ele>1382.51</ele><time>2014-09-02T10:18:21Z</time></trkpt><trkpt lat="45.9899730049" lon="6.9266068842"><ele>1382.51</ele><time>2014-09-02T10:18:22Z</time></trkpt><trkpt lat="45.9902460035" lon="6.9266102370"><ele>1382.99</ele><time>2014-09-02T10:18:38Z</time></trkpt><trkpt lat="45.9903321695" lon="6.9266162720"><ele>1383.47</ele><time>2014-09-02T10:18:43Z</time></trkpt><trkpt lat="45.9903493524" lon="6.9266211335"><ele>1383.47</ele><time>2014-09-02T10:18:44Z</time></trkpt><trkpt lat="45.9903670382" lon="6.9266247377"><ele>1383.47</ele><time>2014-09-02T10:18:45Z</time></trkpt><trkpt lat="45.9903859813" lon="6.9266305212"><ele>1382.99</ele><time>2014-09-02T10:18:46Z</time></trkpt><trkpt lat="45.9904029965" lon="6.9266313594"><ele>1382.51</ele><time>2014-09-02T10:18:47Z</time></trkpt><trkpt lat="45.9906196687" lon="6.9266643003"><ele>1381.07</ele><time>2014-09-02T10:18:59Z</time></trkpt><trkpt lat="45.9909483232" lon="6.9266788010"><ele>1379.63</ele><time>2014-09-02T10:19:16Z</time></trkpt><trkpt lat="45.9912053123" lon="6.9268158451"><ele>1379.15</ele><time>2014-09-02T10:19:31Z</time></trkpt><trkpt lat="45.9914384969" lon="6.9269033521"><ele>1379.63</ele><time>2014-09-02T10:19:45Z</time></trkpt><trkpt lat="45.9916876070" lon="6.9268171862"><ele>1382.03</ele><time>2014-09-02T10:19:59Z</time></trkpt><trkpt lat="45.9919631202" lon="6.9268368836"><ele>1383.47</ele><time>2014-09-02T10:20:14Z</time></trkpt><trkpt lat="45.9921642859" lon="6.9269592594"><ele>1383.96</ele><time>2014-09-02T10:20:27Z</time></trkpt><trkpt lat="45.9924098756" lon="6.9269249775"><ele>1385.40</ele><time>2014-09-02T10:20:40Z</time></trkpt><trkpt lat="45.9926711395" lon="6.9268396497"><ele>1389.72</ele><time>2014-09-02T10:20:54Z</time></trkpt><trkpt lat="45.9929036535" lon="6.9268673938"><ele>1391.17</ele><time>2014-09-02T10:21:06Z</time></trkpt><trkpt lat="45.9931261092" lon="6.9268712495"><ele>1392.61</ele><time>2014-09-02T10:21:18Z</time></trkpt><trkpt lat="45.9933675919" lon="6.9268922880"><ele>1397.41</ele><time>2014-09-02T10:21:31Z</time></trkpt><trkpt lat="45.9936355613" lon="6.9268863369"><ele>1398.37</ele><time>2014-09-02T10:21:44Z</time></trkpt><trkpt lat="45.9939699154" lon="6.9268929586"><ele>1398.86</ele><time>2014-09-02T10:22:01Z</time></trkpt><trkpt lat="45.9942691494" lon="6.9270468503"><ele>1399.82</ele><time>2014-09-02T10:22:18Z</time></trkpt><trkpt lat="45.9945220314" lon="6.9270999078"><ele>1399.82</ele><time>2014-09-02T10:22:32Z</time></trkpt><trkpt lat="45.9947322495" lon="6.9270430785"><ele>1400.78</ele><time>2014-09-02T10:22:46Z</time></trkpt><trkpt lat="45.9948070999" lon="6.9270303380"><ele>1401.26</ele><time>2014-09-02T10:22:54Z</time></trkpt><trkpt lat="45.9948198404" lon="6.9270451739"><ele>1401.26</ele><time>2014-09-02T10:22:55Z</time></trkpt><trkpt lat="45.9948280547" lon="6.9270495325"><ele>1401.74</ele><time>2014-09-02T10:22:56Z</time></trkpt><trkpt lat="45.9948524460" lon="6.9270600937"><ele>1400.30</ele><time>2014-09-02T10:23:10Z</time></trkpt><trkpt lat="45.9948476683" lon="6.9270824734"><ele>1401.26</ele><time>2014-09-02T10:23:23Z</time></trkpt><trkpt lat="45.9948407952" lon="6.9270662125"><ele>1402.70</ele><time>2014-09-02T10:23:51Z</time></trkpt><trkpt lat="45.9948380291" lon="6.9270895980"><ele>1404.14</ele><time>2014-09-02T10:24:32Z</time></trkpt><trkpt lat="45.9948435612" lon="6.9270914420"><ele>1405.58</ele><time>2014-09-02T10:25:04Z</time></trkpt><trkpt lat="45.9949029889" lon="6.9270702358"><ele>1405.10</ele><time>2014-09-02T10:25:46Z</time></trkpt><trkpt lat="45.9948575590" lon="6.9270694815"><ele>1406.55</ele><time>2014-09-02T10:26:14Z</time></trkpt><trkpt lat="45.9948332515" lon="6.9270779472"><ele>1408.47</ele><time>2014-09-02T10:27:02Z</time></trkpt><trkpt lat="45.9948599059" lon="6.9270899333"><ele>1410.39</ele><time>2014-09-02T10:27:42Z</time></trkpt><trkpt lat="45.9948376939" lon="6.9271244667"><ele>1407.51</ele><time>2014-09-02T10:28:16Z</time></trkpt><trkpt lat="45.9948573913" lon="6.9270644523"><ele>1407.99</ele><time>2014-09-02T10:28:48Z</time></trkpt><trkpt lat="45.9948366880" lon="6.9271177612"><ele>1408.95</ele><time>2014-09-02T10:29:27Z</time></trkpt><trkpt lat="45.9948418010" lon="6.9271190185"><ele>1410.39</ele><time>2014-09-02T10:30:00Z</time></trkpt><trkpt lat="45.9948499314" lon="6.9271028414"><ele>1406.55</ele><time>2014-09-02T10:30:35Z</time></trkpt><trkpt lat="45.9948728979" lon="6.9271178450"><ele>1411.83</ele><time>2014-09-02T10:31:06Z</time></trkpt><trkpt lat="45.9948262945" lon="6.9271015003"><ele>1410.39</ele><time>2014-09-02T10:31:38Z</time></trkpt><trkpt lat="45.9948339220" lon="6.9271098822"><ele>1411.83</ele><time>2014-09-02T10:32:13Z</time></trkpt><trkpt lat="45.9948389512" lon="6.9271058589"><ele>1408.47</ele><time>2014-09-02T10:32:49Z</time></trkpt><trkpt lat="45.9948178288" lon="6.9270745944"><ele>1406.55</ele><time>2014-09-02T10:33:23Z</time></trkpt><trkpt lat="45.9948752448" lon="6.9271016680"><ele>1409.91</ele><time>2014-09-02T10:33:57Z</time></trkpt><trkpt lat="45.9948826209" lon="6.9270864967"><ele>1408.95</ele><time>2014-09-02T10:34:30Z</time></trkpt><trkpt lat="45.9948642645" lon="6.9270430785"><ele>1409.91</ele><time>2014-09-02T10:35:05Z</time></trkpt><trkpt lat="45.9948702157" lon="6.9270952977"><ele>1409.91</ele><time>2014-09-02T10:35:32Z</time></trkpt><trkpt lat="45.9948494285" lon="6.9270795397"><ele>1410.39</ele><time>2014-09-02T10:36:11Z</time></trkpt><trkpt lat="45.9948520269" lon="6.9271015003"><ele>1410.87</ele><time>2014-09-02T10:36:49Z</time></trkpt><trkpt lat="45.9948493447" lon="6.9271290768"><ele>1407.03</ele><time>2014-09-02T10:37:22Z</time></trkpt><trkpt lat="45.9948433097" lon="6.9270572439"><ele>1403.18</ele><time>2014-09-02T10:37:56Z</time></trkpt><trkpt lat="45.9948685393" lon="6.9270476885"><ele>1405.10</ele><time>2014-09-02T10:38:36Z</time></trkpt><trkpt lat="45.9948749095" lon="6.9270675536"><ele>1404.62</ele><time>2014-09-02T10:39:09Z</time></trkpt><trkpt lat="45.9948658571" lon="6.9271201082"><ele>1408.47</ele><time>2014-09-02T10:39:40Z</time></trkpt><trkpt lat="45.9948040824" lon="6.9270744268"><ele>1401.26</ele><time>2014-09-02T10:40:24Z</time></trkpt><trkpt lat="45.9948531166" lon="6.9271105528"><ele>1405.10</ele><time>2014-09-02T10:41:02Z</time></trkpt><trkpt lat="45.9948621690" lon="6.9271024223"><ele>1404.62</ele><time>2014-09-02T10:41:33Z</time></trkpt><trkpt lat="45.9948834591" lon="6.9270265661"><ele>1406.07</ele><time>2014-09-02T10:42:15Z</time></trkpt><trkpt lat="45.9948356822" lon="6.9270241354"><ele>1404.62</ele><time>2014-09-02T10:42:26Z</time></trkpt><trkpt lat="45.9948236123" lon="6.9270076230"><ele>1404.62</ele><time>2014-09-02T10:42:27Z</time></trkpt><trkpt lat="45.9948222712" lon="6.9269828126"><ele>1404.14</ele><time>2014-09-02T10:42:29Z</time></trkpt><trkpt lat="45.9948362689" lon="6.9269678928"><ele>1404.62</ele><time>2014-09-02T10:42:30Z</time></trkpt><trkpt lat="45.9948453214" lon="6.9269569125"><ele>1404.62</ele><time>2014-09-02T10:42:31Z</time></trkpt><trkpt lat="45.9948546253" lon="6.9269458484"><ele>1404.62</ele><time>2014-09-02T10:42:32Z</time></trkpt><trkpt lat="45.9948649351" lon="6.9269347005"><ele>1404.62</ele><time>2014-09-02T10:42:33Z</time></trkpt><trkpt lat="45.9948761668" lon="6.9269254804"><ele>1404.62</ele><time>2014-09-02T10:42:34Z</time></trkpt><trkpt lat="45.9948884044" lon="6.9269175176"><ele>1404.62</ele><time>2014-09-02T10:42:35Z</time></trkpt><trkpt lat="45.9949015640" lon="6.9269088842"><ele>1404.62</ele><time>2014-09-02T10:42:36Z</time></trkpt><trkpt lat="45.9949152265" lon="6.9269056991"><ele>1404.62</ele><time>2014-09-02T10:42:37Z</time></trkpt><trkpt lat="45.9949310683" lon="6.9269054476"><ele>1404.62</ele><time>2014-09-02T10:42:38Z</time></trkpt><trkpt lat="45.9949452337" lon="6.9268984906"><ele>1404.62</ele><time>2014-09-02T10:42:39Z</time></trkpt><trkpt lat="45.9949575551" lon="6.9268899411"><ele>1405.10</ele><time>2014-09-02T10:42:40Z</time></trkpt><trkpt lat="45.9949702956" lon="6.9268844090"><ele>1405.10</ele><time>2014-09-02T10:42:41Z</time></trkpt><trkpt lat="45.9949842934" lon="6.9268774521"><ele>1405.10</ele><time>2014-09-02T10:42:42Z</time></trkpt><trkpt lat="45.9949997999" lon="6.9268676452"><ele>1405.10</ele><time>2014-09-02T10:42:43Z</time></trkpt><trkpt lat="45.9950180724" lon="6.9268620294"><ele>1405.10</ele><time>2014-09-02T10:42:44Z</time></trkpt><trkpt lat="45.9950365964" lon="6.9268570840"><ele>1405.10</ele><time>2014-09-02T10:42:45Z</time></trkpt><trkpt lat="45.9950539470" lon="6.9268518873"><ele>1405.10</ele><time>2014-09-02T10:42:46Z</time></trkpt><trkpt lat="45.9952695295" lon="6.9268313516"><ele>1406.55</ele><time>2014-09-02T10:42:58Z</time></trkpt><trkpt lat="45.9955095034" lon="6.9268251490"><ele>1411.83</ele><time>2014-09-02T10:43:11Z</time></trkpt><trkpt lat="45.9955278598" lon="6.9268279988"><ele>1412.31</ele><time>2014-09-02T10:43:12Z</time></trkpt><trkpt lat="45.9957834240" lon="6.9268534798"><ele>1416.16</ele><time>2014-09-02T10:43:26Z</time></trkpt><trkpt lat="45.9959953185" lon="6.9268704951"><ele>1419.04</ele><time>2014-09-02T10:43:38Z</time></trkpt><trkpt lat="45.9962585941" lon="6.9267647155"><ele>1423.37</ele><time>2014-09-02T10:43:54Z</time></trkpt><trkpt lat="45.9964880906" lon="6.9265741948"><ele>1427.21</ele><time>2014-09-02T10:44:09Z</time></trkpt><trkpt lat="45.9965041000" lon="6.9265726022"><ele>1427.70</ele><time>2014-09-02T10:44:10Z</time></trkpt><trkpt lat="45.9967491031" lon="6.9264845084"><ele>1428.18</ele><time>2014-09-02T10:44:24Z</time></trkpt><trkpt lat="45.9968874045" lon="6.9264570996"><ele>1426.73</ele><time>2014-09-02T10:44:32Z</time></trkpt><trkpt lat="45.9969055094" lon="6.9264538307"><ele>1426.25</ele><time>2014-09-02T10:44:33Z</time></trkpt><trkpt lat="45.9969247878" lon="6.9264475442"><ele>1426.25</ele><time>2014-09-02T10:44:34Z</time></trkpt><trkpt lat="45.9969413001" lon="6.9264389947"><ele>1426.25</ele><time>2014-09-02T10:44:35Z</time></trkpt><trkpt lat="45.9969580639" lon="6.9264335465"><ele>1426.25</ele><time>2014-09-02T10:44:36Z</time></trkpt><trkpt lat="45.9969754145" lon="6.9264245778"><ele>1426.25</ele><time>2014-09-02T10:44:37Z</time></trkpt><trkpt lat="45.9969904181" lon="6.9264198001"><ele>1426.25</ele><time>2014-09-02T10:44:38Z</time></trkpt><trkpt lat="45.9970074333" lon="6.9264192134"><ele>1426.25</ele><time>2014-09-02T10:44:39Z</time></trkpt><trkpt lat="45.9970241971" lon="6.9264150225"><ele>1425.77</ele><time>2014-09-02T10:44:40Z</time></trkpt><trkpt lat="45.9970405418" lon="6.9264125917"><ele>1425.77</ele><time>2014-09-02T10:44:41Z</time></trkpt><trkpt lat="45.9970572218" lon="6.9264096580"><ele>1425.77</ele><time>2014-09-02T10:44:42Z</time></trkpt><trkpt lat="45.9970741533" lon="6.9264091551"><ele>1425.29</ele><time>2014-09-02T10:44:43Z</time></trkpt><trkpt lat="45.9970955271" lon="6.9263941515"><ele>1425.29</ele><time>2014-09-02T10:44:52Z</time></trkpt><trkpt lat="45.9971067589" lon="6.9263863564"><ele>1425.29</ele><time>2014-09-02T10:44:53Z</time></trkpt><trkpt lat="45.9971234389" lon="6.9263726939"><ele>1425.29</ele><time>2014-09-02T10:44:54Z</time></trkpt><trkpt lat="45.9973682743" lon="6.9262009487"><ele>1426.25</ele><time>2014-09-02T10:45:07Z</time></trkpt><trkpt lat="45.9975805040" lon="6.9259841926"><ele>1428.66</ele><time>2014-09-02T10:45:20Z</time></trkpt><trkpt lat="45.9977880400" lon="6.9256965257"><ele>1430.58</ele><time>2014-09-02T10:45:36Z</time></trkpt><trkpt lat="45.9979446139" lon="6.9254653528"><ele>1430.10</ele><time>2014-09-02T10:45:48Z</time></trkpt><trkpt lat="45.9981450252" lon="6.9251483493"><ele>1431.54</ele><time>2014-09-02T10:46:04Z</time></trkpt><trkpt lat="45.9982873499" lon="6.9248387218"><ele>1430.58</ele><time>2014-09-02T10:46:18Z</time></trkpt><trkpt lat="45.9984307643" lon="6.9244891964"><ele>1430.10</ele><time>2014-09-02T10:46:33Z</time></trkpt><trkpt lat="45.9986698162" lon="6.9242215622"><ele>1430.10</ele><time>2014-09-02T10:46:48Z</time></trkpt><trkpt lat="45.9988925233" lon="6.9239863660"><ele>1431.06</ele><time>2014-09-02T10:47:01Z</time></trkpt><trkpt lat="45.9989107121" lon="6.9239729550"><ele>1431.54</ele><time>2014-09-02T10:47:02Z</time></trkpt><trkpt lat="45.9991245344" lon="6.9237547740"><ele>1432.02</ele><time>2014-09-02T10:47:15Z</time></trkpt><trkpt lat="45.9993808530" lon="6.9235053286"><ele>1432.02</ele><time>2014-09-02T10:47:31Z</time></trkpt><trkpt lat="45.9996998683" lon="6.9233063422"><ele>1432.98</ele><time>2014-09-02T10:47:49Z</time></trkpt><trkpt lat="46.0000053886" lon="6.9231942762"><ele>1431.06</ele><time>2014-09-02T10:48:05Z</time></trkpt><trkpt lat="46.0003308579" lon="6.9231062662"><ele>1435.87</ele><time>2014-09-02T10:48:21Z</time></trkpt><trkpt lat="46.0006713308" lon="6.9230366964"><ele>1440.19</ele><time>2014-09-02T10:48:36Z</time></trkpt><trkpt lat="46.0009300802" lon="6.9230176695"><ele>1443.56</ele><time>2014-09-02T10:48:49Z</time></trkpt><trkpt lat="46.0013073497" lon="6.9229813758"><ele>1446.92</ele><time>2014-09-02T10:49:07Z</time></trkpt><trkpt lat="46.0016904864" lon="6.9229657855"><ele>1449.81</ele><time>2014-09-02T10:49:25Z</time></trkpt><trkpt lat="46.0020328872" lon="6.9230485987"><ele>1455.09</ele><time>2014-09-02T10:49:42Z</time></trkpt><trkpt lat="46.0023254994" lon="6.9231313281"><ele>1459.90</ele><time>2014-09-02T10:49:56Z</time></trkpt><trkpt lat="46.0023457836" lon="6.9231335912"><ele>1459.90</ele><time>2014-09-02T10:49:57Z</time></trkpt><trkpt lat="46.0026547406" lon="6.9231957849"><ele>1462.30</ele><time>2014-09-02T10:50:12Z</time></trkpt><trkpt lat="46.0026974045" lon="6.9231983833"><ele>1462.78</ele><time>2014-09-02T10:50:14Z</time></trkpt><trkpt lat="46.0027196165" lon="6.9232019037"><ele>1462.78</ele><time>2014-09-02T10:50:15Z</time></trkpt><trkpt lat="46.0027419124" lon="6.9232038315"><ele>1462.30</ele><time>2014-09-02T10:50:16Z</time></trkpt><trkpt lat="46.0027652979" lon="6.9232080225"><ele>1462.78</ele><time>2014-09-02T10:50:17Z</time></trkpt><trkpt lat="46.0027860012" lon="6.9232135545"><ele>1462.78</ele><time>2014-09-02T10:50:18Z</time></trkpt><trkpt lat="46.0028060339" lon="6.9232210983"><ele>1462.78</ele><time>2014-09-02T10:50:19Z</time></trkpt><trkpt lat="46.0030818824" lon="6.9233020674"><ele>1464.71</ele><time>2014-09-02T10:50:32Z</time></trkpt><trkpt lat="46.0032004863" lon="6.9233169872"><ele>1466.15</ele><time>2014-09-02T10:50:38Z</time></trkpt><trkpt lat="46.0032198485" lon="6.9233271293"><ele>1466.63</ele><time>2014-09-02T10:50:39Z</time></trkpt><trkpt lat="46.0035144724" lon="6.9234290533"><ele>1467.11</ele><time>2014-09-02T10:50:54Z</time></trkpt><trkpt lat="46.0035982076" lon="6.9234514330"><ele>1467.59</ele><time>2014-09-02T10:50:59Z</time></trkpt><trkpt lat="46.0036042426" lon="6.9234655146"><ele>1468.07</ele><time>2014-09-02T10:51:01Z</time></trkpt><trkpt lat="46.0036051646" lon="6.9234862179"><ele>1468.55</ele><time>2014-09-02T10:51:02Z</time></trkpt><trkpt lat="46.0036083497" lon="6.9235084299"><ele>1464.23</ele><time>2014-09-02T10:51:13Z</time></trkpt><trkpt lat="46.0036082659" lon="6.9234936778"><ele>1461.34</ele><time>2014-09-02T10:51:41Z</time></trkpt><trkpt lat="46.0036552045" lon="6.9234426320"><ele>1458.46</ele><time>2014-09-02T10:52:10Z</time></trkpt><trkpt lat="46.0036427993" lon="6.9234720524"><ele>1459.90</ele><time>2014-09-02T10:52:36Z</time></trkpt><trkpt lat="46.0036133789" lon="6.9234575517"><ele>1459.42</ele><time>2014-09-02T10:53:06Z</time></trkpt><trkpt lat="46.0036414582" lon="6.9234697893"><ele>1461.34</ele><time>2014-09-02T10:53:11Z</time></trkpt><trkpt lat="46.0036534443" lon="6.9234809373"><ele>1461.82</ele><time>2014-09-02T10:53:12Z</time></trkpt><trkpt lat="46.0036663525" lon="6.9234903250"><ele>1461.82</ele><time>2014-09-02T10:53:13Z</time></trkpt><trkpt lat="46.0036815237" lon="6.9235029817"><ele>1462.30</ele><time>2014-09-02T10:53:14Z</time></trkpt><trkpt lat="46.0037003830" lon="6.9235179853"><ele>1462.30</ele><time>2014-09-02T10:53:15Z</time></trkpt><trkpt lat="46.0037180688" lon="6.9235257804"><ele>1462.30</ele><time>2014-09-02T10:53:16Z</time></trkpt><trkpt lat="46.0037992895" lon="6.9235658459"><ele>1464.71</ele><time>2014-09-02T10:53:28Z</time></trkpt><trkpt lat="46.0038298834" lon="6.9235556200"><ele>1464.71</ele><time>2014-09-02T10:53:58Z</time></trkpt><trkpt lat="46.0038403608" lon="6.9235606492"><ele>1463.74</ele><time>2014-09-02T10:54:02Z</time></trkpt><trkpt lat="46.0038418695" lon="6.9235733058"><ele>1464.71</ele><time>2014-09-02T10:54:13Z</time></trkpt><trkpt lat="46.0038705356" lon="6.9235867169"><ele>1464.71</ele><time>2014-09-02T10:54:15Z</time></trkpt><trkpt lat="46.0039763153" lon="6.9236624893"><ele>1463.74</ele><time>2014-09-02T10:54:21Z</time></trkpt><trkpt lat="46.0039911512" lon="6.9236637466"><ele>1463.74</ele><time>2014-09-02T10:54:22Z</time></trkpt><trkpt lat="46.0040069930" lon="6.9236598071"><ele>1464.23</ele><time>2014-09-02T10:54:23Z</time></trkpt><trkpt lat="46.0040696058" lon="6.9236495811"><ele>1464.71</ele><time>2014-09-02T10:54:27Z</time></trkpt><trkpt lat="46.0040918179" lon="6.9236618187"><ele>1464.23</ele><time>2014-09-02T10:54:28Z</time></trkpt><trkpt lat="46.0041086655" lon="6.9236702006"><ele>1464.23</ele><time>2014-09-02T10:54:29Z</time></trkpt><trkpt lat="46.0041359905" lon="6.9236783311"><ele>1463.74</ele><time>2014-09-02T10:54:30Z</time></trkpt><trkpt lat="46.0041637346" lon="6.9236775767"><ele>1464.23</ele><time>2014-09-02T10:54:31Z</time></trkpt><trkpt lat="46.0041934066" lon="6.9236704521"><ele>1464.71</ele><time>2014-09-02T10:54:32Z</time></trkpt><trkpt lat="46.0042209830" lon="6.9236616511"><ele>1464.71</ele><time>2014-09-02T10:54:33Z</time></trkpt><trkpt lat="46.0043229070" lon="6.9236255251"><ele>1465.19</ele><time>2014-09-02T10:54:36Z</time></trkpt><trkpt lat="46.0050030146" lon="6.9234652631"><ele>1460.38</ele><time>2014-09-02T10:54:47Z</time></trkpt><trkpt lat="46.0061587952" lon="6.9232501835"><ele>1449.32</ele><time>2014-09-02T10:55:00Z</time></trkpt><trkpt lat="46.0065238271" lon="6.9231931865"><ele>1445.48</ele><time>2014-09-02T10:55:06Z</time></trkpt><trkpt lat="46.0065225698" lon="6.9232144766"><ele>1444.52</ele><time>2014-09-02T10:55:16Z</time></trkpt><trkpt lat="46.0065270960" lon="6.9232088607"><ele>1445.00</ele><time>2014-09-02T10:55:52Z</time></trkpt><trkpt lat="46.0065213963" lon="6.9232379459"><ele>1446.44</ele><time>2014-09-02T10:56:21Z</time></trkpt><trkpt lat="46.0065124277" lon="6.9232298154"><ele>1445.48</ele><time>2014-09-02T10:56:44Z</time></trkpt><trkpt lat="46.0065269284" lon="6.9232327491"><ele>1443.08</ele><time>2014-09-02T10:57:14Z</time></trkpt><trkpt lat="46.0065243300" lon="6.9232414663"><ele>1445.96</ele><time>2014-09-02T10:57:50Z</time></trkpt><trkpt lat="46.0065294430" lon="6.9232418016"><ele>1447.88</ele><time>2014-09-02T10:58:20Z</time></trkpt><trkpt lat="46.0065140203" lon="6.9232349284"><ele>1450.29</ele><time>2014-09-02T10:58:54Z</time></trkpt><trkpt lat="46.0065105837" lon="6.9232304022"><ele>1450.29</ele><time>2014-09-02T10:59:28Z</time></trkpt><trkpt lat="46.0065253358" lon="6.9232122973"><ele>1451.25</ele><time>2014-09-02T11:00:08Z</time></trkpt><trkpt lat="46.0065258387" lon="6.9232008141"><ele>1450.29</ele><time>2014-09-02T11:00:38Z</time></trkpt><trkpt lat="46.0065291915" lon="6.9232001435"><ele>1451.73</ele><time>2014-09-02T11:01:08Z</time></trkpt><trkpt lat="46.0065245815" lon="6.9232159853"><ele>1451.25</ele><time>2014-09-02T11:01:37Z</time></trkpt><trkpt lat="46.0065161996" lon="6.9232322462"><ele>1453.17</ele><time>2014-09-02T11:02:10Z</time></trkpt><trkpt lat="46.0065143555" lon="6.9232117105"><ele>1452.69</ele><time>2014-09-02T11:02:45Z</time></trkpt><trkpt lat="46.0065143555" lon="6.9232117943"><ele>1453.17</ele><time>2014-09-02T11:03:13Z</time></trkpt><trkpt lat="46.0065188818" lon="6.9231928512"><ele>1452.69</ele><time>2014-09-02T11:03:48Z</time></trkpt><trkpt lat="46.0065182112" lon="6.9231973775"><ele>1452.69</ele><time>2014-09-02T11:04:18Z</time></trkpt><trkpt lat="46.0065167863" lon="6.9231996406"><ele>1450.77</ele><time>2014-09-02T11:04:52Z</time></trkpt><trkpt lat="46.0065258387" lon="6.9232049212"><ele>1451.25</ele><time>2014-09-02T11:05:22Z</time></trkpt><trkpt lat="46.0065243300" lon="6.9231966231"><ele>1450.77</ele><time>2014-09-02T11:05:52Z</time></trkpt><trkpt lat="46.0065236595" lon="6.9232139736"><ele>1452.69</ele><time>2014-09-02T11:06:22Z</time></trkpt><trkpt lat="46.0065276828" lon="6.9232299831"><ele>1449.81</ele><time>2014-09-02T11:06:59Z</time></trkpt><trkpt lat="46.0065256711" lon="6.9232069328"><ele>1450.29</ele><time>2014-09-02T11:07:20Z</time></trkpt><trkpt lat="46.0065424349" lon="6.9232055917"><ele>1448.84</ele><time>2014-09-02T11:07:37Z</time></trkpt><trkpt lat="46.0065680835" lon="6.9232039154"><ele>1455.09</ele><time>2014-09-02T11:08:06Z</time></trkpt><trkpt lat="46.0065745376" lon="6.9231991377"><ele>1455.09</ele><time>2014-09-02T11:08:34Z</time></trkpt><trkpt lat="46.0065889545" lon="6.9231501035"><ele>1457.50</ele><time>2014-09-02T11:08:47Z</time></trkpt><trkpt lat="46.0066006891" lon="6.9231386203"><ele>1457.50</ele><time>2014-09-02T11:08:48Z</time></trkpt><trkpt lat="46.0066161118" lon="6.9231308252"><ele>1457.50</ele><time>2014-09-02T11:08:49Z</time></trkpt><trkpt lat="46.0066369828" lon="6.9231247902"><ele>1457.50</ele><time>2014-09-02T11:08:50Z</time></trkpt><trkpt lat="46.0066653974" lon="6.9231216889"><ele>1457.50</ele><time>2014-09-02T11:08:51Z</time></trkpt><trkpt lat="46.0066989250" lon="6.9231104571"><ele>1457.02</ele><time>2014-09-02T11:08:52Z</time></trkpt><trkpt lat="46.0067354701" lon="6.9230991416"><ele>1457.02</ele><time>2014-09-02T11:08:53Z</time></trkpt><trkpt lat="46.0067752842" lon="6.9230896700"><ele>1457.02</ele><time>2014-09-02T11:08:54Z</time></trkpt><trkpt lat="46.0068210494" lon="6.9230810367"><ele>1456.53</ele><time>2014-09-02T11:08:55Z</time></trkpt><trkpt lat="46.0075699724" lon="6.9229133986"><ele>1451.73</ele><time>2014-09-02T11:09:07Z</time></trkpt><trkpt lat="46.0077730659" lon="6.9228885043"><ele>1449.81</ele><time>2014-09-02T11:09:10Z</time></trkpt><trkpt lat="46.0078386962" lon="6.9228988141"><ele>1449.32</ele><time>2014-09-02T11:09:11Z</time></trkpt><trkpt lat="46.0079031531" lon="6.9229242112"><ele>1448.84</ele><time>2014-09-02T11:09:12Z</time></trkpt><trkpt lat="46.0079677776" lon="6.9229655340"><ele>1448.36</ele><time>2014-09-02T11:09:13Z</time></trkpt><trkpt lat="46.0080247745" lon="6.9230101258"><ele>1447.40</ele><time>2014-09-02T11:09:14Z</time></trkpt><trkpt lat="46.0083807539" lon="6.9233190827"><ele>1443.56</ele><time>2014-09-02T11:09:20Z</time></trkpt><trkpt lat="46.0084494855" lon="6.9233530294"><ele>1443.08</ele><time>2014-09-02T11:09:21Z</time></trkpt><trkpt lat="46.0085224081" lon="6.9233793486"><ele>1442.60</ele><time>2014-09-02T11:09:22Z</time></trkpt><trkpt lat="46.0090044513" lon="6.9234595634"><ele>1438.75</ele><time>2014-09-02T11:09:28Z</time></trkpt><trkpt lat="46.0090781283" lon="6.9234889001"><ele>1438.27</ele><time>2014-09-02T11:09:29Z</time></trkpt><trkpt lat="46.0091520566" lon="6.9235262834"><ele>1437.31</ele><time>2014-09-02T11:09:30Z</time></trkpt><trkpt lat="46.0095763486" lon="6.9237892237"><ele>1433.94</ele><time>2014-09-02T11:09:36Z</time></trkpt><trkpt lat="46.0100042447" lon="6.9239068218"><ele>1430.58</ele><time>2014-09-02T11:09:42Z</time></trkpt><trkpt lat="46.0100545362" lon="6.9238976855"><ele>1430.58</ele><time>2014-09-02T11:09:43Z</time></trkpt><trkpt lat="46.0101049952" lon="6.9238717016"><ele>1430.10</ele><time>2014-09-02T11:09:44Z</time></trkpt><trkpt lat="46.0101555381" lon="6.9238352403"><ele>1429.62</ele><time>2014-09-02T11:09:45Z</time></trkpt><trkpt lat="46.0102059972" lon="6.9237843622"><ele>1429.14</ele><time>2014-09-02T11:09:46Z</time></trkpt><trkpt lat="46.0102526005" lon="6.9237255212"><ele>1428.66</ele><time>2014-09-02T11:09:47Z</time></trkpt><trkpt lat="46.0103019699" lon="6.9236574601"><ele>1428.66</ele><time>2014-09-02T11:09:48Z</time></trkpt><trkpt lat="46.0105282813" lon="6.9234019797"><ele>1426.73</ele><time>2014-09-02T11:09:52Z</time></trkpt><trkpt lat="46.0105950851" lon="6.9233642612"><ele>1426.25</ele><time>2014-09-02T11:09:53Z</time></trkpt><trkpt lat="46.0106677562" lon="6.9233450666"><ele>1425.29</ele><time>2014-09-02T11:09:54Z</time></trkpt><trkpt lat="46.0107423551" lon="6.9233371876"><ele>1424.33</ele><time>2014-09-02T11:09:55Z</time></trkpt><trkpt lat="46.0108173732" lon="6.9233350083"><ele>1423.85</ele><time>2014-09-02T11:09:56Z</time></trkpt><trkpt lat="46.0111946426" lon="6.9233338349"><ele>1420.97</ele><time>2014-09-02T11:10:01Z</time></trkpt><trkpt lat="46.0112616979" lon="6.9233137183"><ele>1420.49</ele><time>2014-09-02T11:10:02Z</time></trkpt><trkpt lat="46.0113258194" lon="6.9232787658"><ele>1420.49</ele><time>2014-09-02T11:10:03Z</time></trkpt><trkpt lat="46.0113844927" lon="6.9232262112"><ele>1420.00</ele><time>2014-09-02T11:10:04Z</time></trkpt><trkpt lat="46.0114372149" lon="6.9231572282"><ele>1420.00</ele><time>2014-09-02T11:10:05Z</time></trkpt><trkpt lat="46.0114822257" lon="6.9230729062"><ele>1419.52</ele><time>2014-09-02T11:10:06Z</time></trkpt><trkpt lat="46.0115222912" lon="6.9229780231"><ele>1419.52</ele><time>2014-09-02T11:10:07Z</time></trkpt><trkpt lat="46.0115559027" lon="6.9228744227"><ele>1419.04</ele><time>2014-09-02T11:10:08Z</time></trkpt><trkpt lat="46.0115849879" lon="6.9227651227"><ele>1418.56</ele><time>2014-09-02T11:10:09Z</time></trkpt><trkpt lat="46.0116094630" lon="6.9226512127"><ele>1418.08</ele><time>2014-09-02T11:10:10Z</time></trkpt><trkpt lat="46.0116393026" lon="6.9225413259"><ele>1417.60</ele><time>2014-09-02T11:10:11Z</time></trkpt><trkpt lat="46.0116786975" lon="6.9224358816"><ele>1417.12</ele><time>2014-09-02T11:10:12Z</time></trkpt><trkpt lat="46.0117217805" lon="6.9223343767"><ele>1416.64</ele><time>2014-09-02T11:10:13Z</time></trkpt><trkpt lat="46.0117721558" lon="6.9222376496"><ele>1416.16</ele><time>2014-09-02T11:10:14Z</time></trkpt><trkpt lat="46.0118324216" lon="6.9221501425"><ele>1415.68</ele><time>2014-09-02T11:10:15Z</time></trkpt><trkpt lat="46.0119072720" lon="6.9220708497"><ele>1415.20</ele><time>2014-09-02T11:10:16Z</time></trkpt><trkpt lat="46.0119770095" lon="6.9220148586"><ele>1414.24</ele><time>2014-09-02T11:10:17Z</time></trkpt><trkpt lat="46.0120585654" lon="6.9219680037"><ele>1413.76</ele><time>2014-09-02T11:10:18Z</time></trkpt><trkpt lat="46.0121318232" lon="6.9219376612"><ele>1413.28</ele><time>2014-09-02T11:10:19Z</time></trkpt><trkpt lat="46.0122080985" lon="6.9219106715"><ele>1412.31</ele><time>2014-09-02T11:10:20Z</time></trkpt><trkpt lat="46.0124976095" lon="6.9217727054"><ele>1410.39</ele><time>2014-09-02T11:10:24Z</time></trkpt><trkpt lat="46.0131865181" lon="6.9211563002"><ele>1405.10</ele><time>2014-09-02T11:10:34Z</time></trkpt><trkpt lat="46.0132706724" lon="6.9211134687"><ele>1403.66</ele><time>2014-09-02T11:10:40Z</time></trkpt><trkpt lat="46.0132677387" lon="6.9211277179"><ele>1398.37</ele><time>2014-09-02T11:11:04Z</time></trkpt><trkpt lat="46.0132795572" lon="6.9211117085"><ele>1398.37</ele><time>2014-09-02T11:11:05Z</time></trkpt><trkpt lat="46.0132919624" lon="6.9210936874"><ele>1398.86</ele><time>2014-09-02T11:11:06Z</time></trkpt><trkpt lat="46.0136174317" lon="6.9207884185"><ele>1398.86</ele><time>2014-09-02T11:11:16Z</time></trkpt><trkpt lat="46.0143215116" lon="6.9200234022"><ele>1394.53</ele><time>2014-09-02T11:11:29Z</time></trkpt><trkpt lat="46.0150043014" lon="6.9192595594"><ele>1387.80</ele><time>2014-09-02T11:11:39Z</time></trkpt><trkpt lat="46.0150749609" lon="6.9192241039"><ele>1386.84</ele><time>2014-09-02T11:11:40Z</time></trkpt><trkpt lat="46.0159645323" lon="6.9189485069"><ele>1380.11</ele><time>2014-09-02T11:11:51Z</time></trkpt><trkpt lat="46.0163786821" lon="6.9189544581"><ele>1376.26</ele><time>2014-09-02T11:12:01Z</time></trkpt><trkpt lat="46.0168032255" lon="6.9190238602"><ele>1373.86</ele><time>2014-09-02T11:12:12Z</time></trkpt><trkpt lat="46.0168411117" lon="6.9190423004"><ele>1373.38</ele><time>2014-09-02T11:12:13Z</time></trkpt><trkpt lat="46.0168786626" lon="6.9190671947"><ele>1373.38</ele><time>2014-09-02T11:12:14Z</time></trkpt><trkpt lat="46.0169142857" lon="6.9190966152"><ele>1373.38</ele><time>2014-09-02T11:12:15Z</time></trkpt><trkpt lat="46.0169460531" lon="6.9191309810"><ele>1372.90</ele><time>2014-09-02T11:12:16Z</time></trkpt><trkpt lat="46.0169724561" lon="6.9191697054"><ele>1372.90</ele><time>2014-09-02T11:12:17Z</time></trkpt><trkpt lat="46.0169946682" lon="6.9192093518"><ele>1372.42</ele><time>2014-09-02T11:12:18Z</time></trkpt><trkpt lat="46.0171562713" lon="6.9195401855"><ele>1369.54</ele><time>2014-09-02T11:12:28Z</time></trkpt><trkpt lat="46.0172029585" lon="6.9196237531"><ele>1369.54</ele><time>2014-09-02T11:12:36Z</time></trkpt><trkpt lat="46.0171754658" lon="6.9196551014"><ele>1369.05</ele><time>2014-09-02T11:12:58Z</time></trkpt><trkpt lat="46.0171897151" lon="6.9196394272"><ele>1366.65</ele><time>2014-09-02T11:13:43Z</time></trkpt><trkpt lat="46.0171950795" lon="6.9195748027"><ele>1375.30</ele><time>2014-09-02T11:14:40Z</time></trkpt><trkpt lat="46.0172177944" lon="6.9196003675"><ele>1376.26</ele><time>2014-09-02T11:15:02Z</time></trkpt><trkpt lat="46.0172338039" lon="6.9196124375"><ele>1376.26</ele><time>2014-09-02T11:15:03Z</time></trkpt><trkpt lat="46.0174343828" lon="6.9196851086"><ele>1377.71</ele><time>2014-09-02T11:15:09Z</time></trkpt><trkpt lat="46.0174848419" lon="6.9196794089"><ele>1377.71</ele><time>2014-09-02T11:15:10Z</time></trkpt><trkpt lat="46.0181757621" lon="6.9196975976"><ele>1372.90</ele><time>2014-09-02T11:15:21Z</time></trkpt><trkpt lat="46.0190333147" lon="6.9196867850"><ele>1361.36</ele><time>2014-09-02T11:15:35Z</time></trkpt><trkpt lat="46.0190753080" lon="6.9196814205"><ele>1360.88</ele><time>2014-09-02T11:15:36Z</time></trkpt><trkpt lat="46.0193932336" lon="6.9196169637"><ele>1356.56</ele><time>2014-09-02T11:15:49Z</time></trkpt><trkpt lat="46.0196398292" lon="6.9194831047"><ele>1353.67</ele><time>2014-09-02T11:16:02Z</time></trkpt><trkpt lat="46.0199495405" lon="6.9193108566"><ele>1352.23</ele><time>2014-09-02T11:16:13Z</time></trkpt><trkpt lat="46.0201861616" lon="6.9190411270"><ele>1349.83</ele><time>2014-09-02T11:16:25Z</time></trkpt><trkpt lat="46.0202376265" lon="6.9189264625"><ele>1348.87</ele><time>2014-09-02T11:16:27Z</time></trkpt><trkpt lat="46.0202616826" lon="6.9188628439"><ele>1348.87</ele><time>2014-09-02T11:16:28Z</time></trkpt><trkpt lat="46.0202849843" lon="6.9187943637"><ele>1348.39</ele><time>2014-09-02T11:16:29Z</time></trkpt><trkpt lat="46.0204714816" lon="6.9183176849"><ele>1346.94</ele><time>2014-09-02T11:16:36Z</time></trkpt><trkpt lat="46.0205106251" lon="6.9182667229"><ele>1346.94</ele><time>2014-09-02T11:16:37Z</time></trkpt><trkpt lat="46.0205568932" lon="6.9182242267"><ele>1346.94</ele><time>2014-09-02T11:16:38Z</time></trkpt><trkpt lat="46.0206071008" lon="6.9181943871"><ele>1346.94</ele><time>2014-09-02T11:16:39Z</time></trkpt><trkpt lat="46.0206668638" lon="6.9181809761"><ele>1346.46</ele><time>2014-09-02T11:16:40Z</time></trkpt><trkpt lat="46.0207200050" lon="6.9181819819"><ele>1346.46</ele><time>2014-09-02T11:16:41Z</time></trkpt><trkpt lat="46.0207808577" lon="6.9181852508"><ele>1346.46</ele><time>2014-09-02T11:16:42Z</time></trkpt><trkpt lat="46.0208438896" lon="6.9181921240"><ele>1345.98</ele><time>2014-09-02T11:16:43Z</time></trkpt><trkpt lat="46.0209084302" lon="6.9182143360"><ele>1345.98</ele><time>2014-09-02T11:16:44Z</time></trkpt><trkpt lat="46.0209731385" lon="6.9182502106"><ele>1345.50</ele><time>2014-09-02T11:16:45Z</time></trkpt><trkpt lat="46.0210356675" lon="6.9182973169"><ele>1345.50</ele><time>2014-09-02T11:16:46Z</time></trkpt><trkpt lat="46.0211649165" lon="6.9183913618"><ele>1345.02</ele><time>2014-09-02T11:16:48Z</time></trkpt><trkpt lat="46.0212247632" lon="6.9184374623"><ele>1344.54</ele><time>2014-09-02T11:16:49Z</time></trkpt><trkpt lat="46.0219874326" lon="6.9189240318"><ele>1339.73</ele><time>2014-09-02T11:17:01Z</time></trkpt><trkpt lat="46.0227887426" lon="6.9193468150"><ele>1331.56</ele><time>2014-09-02T11:17:13Z</time></trkpt><trkpt lat="46.0231096856" lon="6.9195549376"><ele>1329.16</ele><time>2014-09-02T11:17:18Z</time></trkpt><trkpt lat="46.0239635501" lon="6.9203782082"><ele>1322.91</ele><time>2014-09-02T11:17:32Z</time></trkpt><trkpt lat="46.0249739047" lon="6.9214815181"><ele>1315.22</ele><time>2014-09-02T11:17:48Z</time></trkpt><trkpt lat="46.0254459735" lon="6.9221397489"><ele>1309.93</ele><time>2014-09-02T11:17:58Z</time></trkpt><trkpt lat="46.0257203970" lon="6.9227877539"><ele>1306.57</ele><time>2014-09-02T11:18:09Z</time></trkpt><trkpt lat="46.0259256698" lon="6.9232700486"><ele>1306.09</ele><time>2014-09-02T11:18:22Z</time></trkpt><trkpt lat="46.0261781327" lon="6.9238960091"><ele>1304.17</ele><time>2014-09-02T11:18:34Z</time></trkpt><trkpt lat="46.0264408216" lon="6.9244473707"><ele>1304.65</ele><time>2014-09-02T11:18:47Z</time></trkpt><trkpt lat="46.0265502892" lon="6.9245989993"><ele>1304.17</ele><time>2014-09-02T11:18:51Z</time></trkpt><trkpt lat="46.0266068671" lon="6.9246784598"><ele>1304.17</ele><time>2014-09-02T11:18:53Z</time></trkpt><trkpt lat="46.0266388021" lon="6.9247146696"><ele>1304.17</ele><time>2014-09-02T11:18:54Z</time></trkpt><trkpt lat="46.0270306561" lon="6.9253573939"><ele>1306.09</ele><time>2014-09-02T11:19:09Z</time></trkpt><trkpt lat="46.0270860605" lon="6.9255752396"><ele>1306.57</ele><time>2014-09-02T11:19:13Z</time></trkpt><trkpt lat="46.0271370225" lon="6.9257336576"><ele>1306.57</ele><time>2014-09-02T11:19:16Z</time></trkpt><trkpt lat="46.0271677841" lon="6.9258403592"><ele>1306.57</ele><time>2014-09-02T11:19:18Z</time></trkpt><trkpt lat="46.0272186622" lon="6.9259469770"><ele>1306.57</ele><time>2014-09-02T11:19:20Z</time></trkpt><trkpt lat="46.0275049042" lon="6.9264116697"><ele>1306.09</ele><time>2014-09-02T11:19:29Z</time></trkpt><trkpt lat="46.0276000388" lon="6.9265650585"><ele>1305.61</ele><time>2014-09-02T11:19:32Z</time></trkpt><trkpt lat="46.0276291240" lon="6.9266143441"><ele>1305.61</ele><time>2014-09-02T11:19:33Z</time></trkpt><trkpt lat="46.0276600532" lon="6.9266572595"><ele>1305.61</ele><time>2014-09-02T11:19:34Z</time></trkpt><trkpt lat="46.0276989453" lon="6.9266969897"><ele>1305.13</ele><time>2014-09-02T11:19:35Z</time></trkpt><trkpt lat="46.0277362447" lon="6.9267271645"><ele>1304.65</ele><time>2014-09-02T11:19:36Z</time></trkpt><trkpt lat="46.0277706105" lon="6.9267494604"><ele>1304.65</ele><time>2014-09-02T11:19:37Z</time></trkpt><trkpt lat="46.0278110951" lon="6.9267651346"><ele>1304.65</ele><time>2014-09-02T11:19:38Z</time></trkpt><trkpt lat="46.0283606965" lon="6.9268015958"><ele>1303.20</ele><time>2014-09-02T11:19:50Z</time></trkpt><trkpt lat="46.0285663884" lon="6.9268496241"><ele>1303.20</ele><time>2014-09-02T11:19:54Z</time></trkpt><trkpt lat="46.0286168475" lon="6.9268785417"><ele>1303.20</ele><time>2014-09-02T11:19:55Z</time></trkpt><trkpt lat="46.0286694858" lon="6.9269186072"><ele>1302.72</ele><time>2014-09-02T11:19:56Z</time></trkpt><trkpt lat="46.0287163407" lon="6.9269628637"><ele>1302.72</ele><time>2014-09-02T11:19:57Z</time></trkpt><trkpt lat="46.0287652910" lon="6.9270202797"><ele>1302.24</ele><time>2014-09-02T11:19:58Z</time></trkpt><trkpt lat="46.0288103856" lon="6.9270787854"><ele>1302.24</ele><time>2014-09-02T11:19:59Z</time></trkpt><trkpt lat="46.0295989551" lon="6.9281601347"><ele>1295.03</ele><time>2014-09-02T11:20:15Z</time></trkpt><trkpt lat="46.0296468157" lon="6.9282187242"><ele>1294.55</ele><time>2014-09-02T11:20:16Z</time></trkpt><trkpt lat="46.0296946764" lon="6.9282662496"><ele>1294.07</ele><time>2014-09-02T11:20:17Z</time></trkpt><trkpt lat="46.0297437944" lon="6.9283032976"><ele>1294.07</ele><time>2014-09-02T11:20:18Z</time></trkpt><trkpt lat="46.0298007075" lon="6.9283338916"><ele>1293.59</ele><time>2014-09-02T11:20:19Z</time></trkpt><trkpt lat="46.0298515856" lon="6.9283509906"><ele>1293.11</ele><time>2014-09-02T11:20:20Z</time></trkpt><trkpt lat="46.0299095884" lon="6.9283577800"><ele>1293.11</ele><time>2014-09-02T11:20:21Z</time></trkpt><trkpt lat="46.0299623944" lon="6.9283554330"><ele>1292.63</ele><time>2014-09-02T11:20:22Z</time></trkpt><trkpt lat="46.0305450205" lon="6.9283820875"><ele>1289.27</ele><time>2014-09-02T11:20:32Z</time></trkpt><trkpt lat="46.0305991676" lon="6.9284167886"><ele>1289.27</ele><time>2014-09-02T11:20:33Z</time></trkpt><trkpt lat="46.0306427535" lon="6.9284587819"><ele>1288.78</ele><time>2014-09-02T11:20:34Z</time></trkpt><trkpt lat="46.0306905303" lon="6.9285132643"><ele>1288.78</ele><time>2014-09-02T11:20:35Z</time></trkpt><trkpt lat="46.0307309311" lon="6.9285694230"><ele>1288.30</ele><time>2014-09-02T11:20:36Z</time></trkpt><trkpt lat="46.0307714995" lon="6.9286299404"><ele>1287.82</ele><time>2014-09-02T11:20:37Z</time></trkpt><trkpt lat="46.0308089666" lon="6.9286840037"><ele>1287.82</ele><time>2014-09-02T11:20:38Z</time></trkpt><trkpt lat="46.0308417398" lon="6.9287341274"><ele>1287.82</ele><time>2014-09-02T11:20:39Z</time></trkpt><trkpt lat="46.0308708251" lon="6.9287799764"><ele>1287.34</ele><time>2014-09-02T11:20:40Z</time></trkpt><trkpt lat="46.0310600884" lon="6.9290823955"><ele>1287.34</ele><time>2014-09-02T11:20:47Z</time></trkpt><trkpt lat="46.0311369505" lon="6.9291848224"><ele>1286.86</ele><time>2014-09-02T11:20:50Z</time></trkpt><trkpt lat="46.0311663710" lon="6.9291859958"><ele>1286.38</ele><time>2014-09-02T11:20:51Z</time></trkpt><trkpt lat="46.0311870743" lon="6.9291235507"><ele>1286.38</ele><time>2014-09-02T11:20:56Z</time></trkpt><trkpt lat="46.0311907623" lon="6.9290955551"><ele>1285.90</ele><time>2014-09-02T11:21:27Z</time></trkpt><trkpt lat="46.0311844759" lon="6.9291072898"><ele>1286.38</ele><time>2014-09-02T11:21:33Z</time></trkpt><trkpt lat="46.0311771836" lon="6.9291642867"><ele>1285.90</ele><time>2014-09-02T11:21:37Z</time></trkpt><trkpt lat="46.0311898403" lon="6.9292134885"><ele>1285.90</ele><time>2014-09-02T11:21:39Z</time></trkpt><trkpt lat="46.0312087834" lon="6.9292463455"><ele>1285.90</ele><time>2014-09-02T11:21:40Z</time></trkpt><trkpt lat="46.0312197637" lon="6.9292625226"><ele>1285.90</ele><time>2014-09-02T11:21:41Z</time></trkpt><trkpt lat="46.0312431492" lon="6.9292933680"><ele>1285.90</ele><time>2014-09-02T11:21:42Z</time></trkpt><trkpt lat="46.0312686302" lon="6.9293230399"><ele>1285.42</ele><time>2014-09-02T11:21:43Z</time></trkpt><trkpt lat="46.0312963743" lon="6.9293571543"><ele>1285.42</ele><time>2014-09-02T11:21:44Z</time></trkpt><trkpt lat="46.0313256271" lon="6.9293923583"><ele>1285.42</ele><time>2014-09-02T11:21:45Z</time></trkpt><trkpt lat="46.0313550476" lon="6.9294306636"><ele>1284.94</ele><time>2014-09-02T11:21:46Z</time></trkpt><trkpt lat="46.0313879885" lon="6.9294710644"><ele>1284.94</ele><time>2014-09-02T11:21:47Z</time></trkpt><trkpt lat="46.0314226057" lon="6.9295072742"><ele>1284.46</ele><time>2014-09-02T11:21:48Z</time></trkpt><trkpt lat="46.0314660240" lon="6.9295454118"><ele>1284.46</ele><time>2014-09-02T11:21:49Z</time></trkpt><trkpt lat="46.0315072630" lon="6.9295796100"><ele>1284.46</ele><time>2014-09-02T11:21:50Z</time></trkpt><trkpt lat="46.0315477476" lon="6.9296176638"><ele>1283.98</ele><time>2014-09-02T11:21:51Z</time></trkpt><trkpt lat="46.0318069998" lon="6.9298175722"><ele>1283.02</ele><time>2014-09-02T11:21:57Z</time></trkpt><trkpt lat="46.0318596382" lon="6.9298396166"><ele>1283.02</ele><time>2014-09-02T11:21:58Z</time></trkpt><trkpt lat="46.0325425956" lon="6.9301064964"><ele>1278.69</ele><time>2014-09-02T11:22:10Z</time></trkpt><trkpt lat="46.0328093916" lon="6.9302587118"><ele>1276.77</ele><time>2014-09-02T11:22:15Z</time></trkpt><trkpt lat="46.0329042748" lon="6.9303277787"><ele>1275.81</ele><time>2014-09-02T11:22:17Z</time></trkpt><trkpt lat="46.0329527222" lon="6.9303626474"><ele>1275.33</ele><time>2014-09-02T11:22:18Z</time></trkpt><trkpt lat="46.0329994932" lon="6.9304046407"><ele>1274.85</ele><time>2014-09-02T11:22:19Z</time></trkpt><trkpt lat="46.0330398101" lon="6.9304507412"><ele>1274.85</ele><time>2014-09-02T11:22:20Z</time></trkpt><trkpt lat="46.0330780316" lon="6.9305057265"><ele>1274.36</ele><time>2014-09-02T11:22:21Z</time></trkpt><trkpt lat="46.0331119783" lon="6.9305619691"><ele>1273.88</ele><time>2014-09-02T11:22:22Z</time></trkpt><trkpt lat="46.0331448354" lon="6.9306282699"><ele>1273.40</ele><time>2014-09-02T11:22:23Z</time></trkpt><trkpt lat="46.0331719927" lon="6.9306920562"><ele>1272.92</ele><time>2014-09-02T11:22:24Z</time></trkpt><trkpt lat="46.0333986394" lon="6.9313816354"><ele>1270.04</ele><time>2014-09-02T11:22:37Z</time></trkpt><trkpt lat="46.0335796047" lon="6.9318077713"><ele>1270.04</ele><time>2014-09-02T11:22:51Z</time></trkpt><trkpt lat="46.0335905012" lon="6.9318185002"><ele>1270.04</ele><time>2014-09-02T11:23:05Z</time></trkpt><trkpt lat="46.0336762480" lon="6.9319076836"><ele>1268.12</ele><time>2014-09-02T11:23:30Z</time></trkpt><trkpt lat="46.0339528508" lon="6.9322501682"><ele>1264.75</ele><time>2014-09-02T11:23:43Z</time></trkpt><trkpt lat="46.0340513382" lon="6.9323794171"><ele>1264.27</ele><time>2014-09-02T11:23:49Z</time></trkpt><trkpt lat="46.0340701137" lon="6.9323943369"><ele>1263.79</ele><time>2014-09-02T11:23:50Z</time></trkpt><trkpt lat="46.0340888053" lon="6.9324095920"><ele>1263.79</ele><time>2014-09-02T11:23:51Z</time></trkpt><trkpt lat="46.0341071617" lon="6.9324325584"><ele>1263.79</ele><time>2014-09-02T11:23:52Z</time></trkpt><trkpt lat="46.0341256857" lon="6.9324579556"><ele>1263.79</ele><time>2014-09-02T11:23:53Z</time></trkpt><trkpt lat="46.0344752111" lon="6.9328383263"><ele>1261.39</ele><time>2014-09-02T11:24:08Z</time></trkpt><trkpt lat="46.0347916279" lon="6.9331485406"><ele>1260.43</ele><time>2014-09-02T11:24:22Z</time></trkpt><trkpt lat="46.0348802246" lon="6.9332382269"><ele>1260.43</ele><time>2014-09-02T11:24:28Z</time></trkpt><trkpt lat="46.0348931327" lon="6.9332432561"><ele>1260.43</ele><time>2014-09-02T11:24:29Z</time></trkpt><trkpt lat="46.0349032748" lon="6.9332550745"><ele>1260.43</ele><time>2014-09-02T11:24:30Z</time></trkpt><trkpt lat="46.0349126626" lon="6.9332676474"><ele>1260.91</ele><time>2014-09-02T11:24:31Z</time></trkpt><trkpt lat="46.0349240620" lon="6.9332854170"><ele>1260.43</ele><time>2014-09-02T11:24:32Z</time></trkpt><trkpt lat="46.0349927098" lon="6.9332744367"><ele>1259.94</ele><time>2014-09-02T11:24:43Z</time></trkpt><trkpt lat="46.0349993315" lon="6.9332810584"><ele>1259.94</ele><time>2014-09-02T11:24:44Z</time></trkpt><trkpt lat="46.0350119043" lon="6.9333065394"><ele>1259.46</ele><time>2014-09-02T11:24:56Z</time></trkpt><trkpt lat="46.0350140836" lon="6.9333472755"><ele>1258.98</ele><time>2014-09-02T11:25:18Z</time></trkpt><trkpt lat="46.0350163467" lon="6.9333780371"><ele>1258.50</ele><time>2014-09-02T11:25:23Z</time></trkpt><trkpt lat="46.0350020975" lon="6.9333773665"><ele>1258.50</ele><time>2014-09-02T11:25:24Z</time></trkpt><trkpt lat="46.0348938871" lon="6.9334720820"><ele>1258.50</ele><time>2014-09-02T11:25:30Z</time></trkpt><trkpt lat="46.0348889418" lon="6.9335381314"><ele>1258.50</ele><time>2014-09-02T11:25:32Z</time></trkpt><trkpt lat="46.0348997544" lon="6.9336104672"><ele>1258.50</ele><time>2014-09-02T11:25:33Z</time></trkpt><trkpt lat="46.0349142551" lon="6.9336649496"><ele>1258.50</ele><time>2014-09-02T11:25:34Z</time></trkpt><trkpt lat="46.0350146703" lon="6.9340581447"><ele>1258.02</ele><time>2014-09-02T11:25:45Z</time></trkpt><trkpt lat="46.0350231361" lon="6.9340933487"><ele>1258.50</ele><time>2014-09-02T11:25:59Z</time></trkpt><trkpt lat="46.0350323562" lon="6.9341086037"><ele>1258.50</ele><time>2014-09-02T11:26:00Z</time></trkpt><trkpt lat="46.0350421630" lon="6.9341260381"><ele>1258.50</ele><time>2014-09-02T11:26:01Z</time></trkpt><trkpt lat="46.0351818055" lon="6.9345224183"><ele>1258.50</ele><time>2014-09-02T11:26:13Z</time></trkpt><trkpt lat="46.0353526287" lon="6.9348587003"><ele>1259.46</ele><time>2014-09-02T11:26:22Z</time></trkpt><trkpt lat="46.0353662074" lon="6.9348581973"><ele>1259.46</ele><time>2014-09-02T11:26:23Z</time></trkpt><trkpt lat="46.0353828035" lon="6.9348307885"><ele>1259.46</ele><time>2014-09-02T11:26:24Z</time></trkpt><trkpt lat="46.0353747569" lon="6.9348139409"><ele>1259.46</ele><time>2014-09-02T11:26:25Z</time></trkpt><trkpt lat="46.0353582446" lon="6.9347942434"><ele>1259.94</ele><time>2014-09-02T11:26:27Z</time></trkpt><trkpt lat="46.0353230406" lon="6.9348018710"><ele>1259.94</ele><time>2014-09-02T11:26:29Z</time></trkpt><trkpt lat="46.0353071149" lon="6.9347964227"><ele>1259.94</ele><time>2014-09-02T11:26:30Z</time></trkpt><trkpt lat="46.0352881718" lon="6.9348074030"><ele>1260.43</ele><time>2014-09-02T11:26:31Z</time></trkpt><trkpt lat="46.0352728330" lon="6.9348256756"><ele>1260.91</ele><time>2014-09-02T11:26:32Z</time></trkpt><trkpt lat="46.0351853259" lon="6.9348905515"><ele>1261.39</ele><time>2014-09-02T11:26:44Z</time></trkpt><trkpt lat="46.0351535585" lon="6.9349269290"><ele>1256.58</ele><time>2014-09-02T11:27:19Z</time></trkpt><trkpt lat="46.0351876728" lon="6.9348884560"><ele>1256.58</ele><time>2014-09-02T11:27:28Z</time></trkpt><trkpt lat="46.0351965576" lon="6.9348774757"><ele>1256.58</ele><time>2014-09-02T11:27:29Z</time></trkpt><trkpt lat="46.0352123156" lon="6.9348602090"><ele>1256.58</ele><time>2014-09-02T11:27:30Z</time></trkpt><trkpt lat="46.0352305882" lon="6.9348443672"><ele>1256.58</ele><time>2014-09-02T11:27:31Z</time></trkpt><trkpt lat="46.0352498665" lon="6.9348280225"><ele>1256.58</ele><time>2014-09-02T11:27:32Z</time></trkpt><trkpt lat="46.0352871660" lon="6.9348325487"><ele>1256.58</ele><time>2014-09-02T11:27:35Z</time></trkpt><trkpt lat="46.0353137366" lon="6.9348605443"><ele>1256.10</ele><time>2014-09-02T11:27:36Z</time></trkpt><trkpt lat="46.0353280697" lon="6.9348865282"><ele>1256.10</ele><time>2014-09-02T11:27:37Z</time></trkpt><trkpt lat="46.0356138926" lon="6.9354596827"><ele>1254.18</ele><time>2014-09-02T11:27:49Z</time></trkpt><trkpt lat="46.0358483344" lon="6.9359874073"><ele>1251.77</ele><time>2014-09-02T11:27:59Z</time></trkpt><trkpt lat="46.0358840413" lon="6.9360378664"><ele>1251.77</ele><time>2014-09-02T11:28:00Z</time></trkpt><trkpt lat="46.0359230172" lon="6.9360833801"><ele>1251.29</ele><time>2014-09-02T11:28:01Z</time></trkpt><trkpt lat="46.0359663516" lon="6.9361242838"><ele>1250.81</ele><time>2014-09-02T11:28:02Z</time></trkpt><trkpt lat="46.0360137094" lon="6.9361625891"><ele>1250.33</ele><time>2014-09-02T11:28:03Z</time></trkpt><trkpt lat="46.0360632464" lon="6.9361947756"><ele>1249.85</ele><time>2014-09-02T11:28:04Z</time></trkpt><trkpt lat="46.0361137055" lon="6.9362204242"><ele>1249.37</ele><time>2014-09-02T11:28:05Z</time></trkpt><trkpt lat="46.0361634102" lon="6.9362402894"><ele>1248.89</ele><time>2014-09-02T11:28:06Z</time></trkpt><trkpt lat="46.0368760396" lon="6.9366394356"><ele>1243.12</ele><time>2014-09-02T11:28:18Z</time></trkpt><trkpt lat="46.0370192025" lon="6.9366955943"><ele>1242.16</ele><time>2014-09-02T11:28:20Z</time></trkpt><trkpt lat="46.0379102826" lon="6.9369868655"><ele>1236.39</ele><time>2014-09-02T11:28:32Z</time></trkpt><trkpt lat="46.0379724763" lon="6.9370040484"><ele>1235.91</ele><time>2014-09-02T11:28:33Z</time></trkpt><trkpt lat="46.0383021366" lon="6.9370647334"><ele>1236.87</ele><time>2014-09-02T11:28:39Z</time></trkpt><trkpt lat="46.0386524163" lon="6.9372339640"><ele>1237.35</ele><time>2014-09-02T11:28:48Z</time></trkpt><trkpt lat="46.0386609659" lon="6.9372548349"><ele>1237.35</ele><time>2014-09-02T11:28:49Z</time></trkpt><trkpt lat="46.0386598762" lon="6.9373663981"><ele>1238.80</ele><time>2014-09-02T11:28:58Z</time></trkpt><trkpt lat="46.0386615526" lon="6.9373599440"><ele>1238.32</ele><time>2014-09-02T11:29:33Z</time></trkpt><trkpt lat="46.0386595409" lon="6.9373669010"><ele>1237.83</ele><time>2014-09-02T11:29:54Z</time></trkpt><trkpt lat="46.0386472195" lon="6.9373547472"><ele>1238.80</ele><time>2014-09-02T11:29:59Z</time></trkpt><trkpt lat="46.0386554338" lon="6.9373282604"><ele>1239.28</ele><time>2014-09-02T11:30:01Z</time></trkpt><trkpt lat="46.0386926495" lon="6.9372151885"><ele>1241.20</ele><time>2014-09-02T11:30:11Z</time></trkpt><trkpt lat="46.0387281049" lon="6.9372051302"><ele>1241.68</ele><time>2014-09-02T11:30:13Z</time></trkpt><trkpt lat="46.0387583636" lon="6.9372111652"><ele>1241.68</ele><time>2014-09-02T11:30:14Z</time></trkpt><trkpt lat="46.0389224812" lon="6.9372705929"><ele>1243.12</ele><time>2014-09-02T11:30:19Z</time></trkpt><trkpt lat="46.0391754471" lon="6.9373982493"><ele>1242.64</ele><time>2014-09-02T11:30:24Z</time></trkpt><trkpt lat="46.0392233077" lon="6.9374446850"><ele>1242.64</ele><time>2014-09-02T11:30:25Z</time></trkpt><trkpt lat="46.0392670613" lon="6.9375061244"><ele>1242.64</ele><time>2014-09-02T11:30:26Z</time></trkpt><trkpt lat="46.0393059533" lon="6.9375773706"><ele>1242.64</ele><time>2014-09-02T11:30:27Z</time></trkpt><trkpt lat="46.0393372178" lon="6.9376541488"><ele>1242.64</ele><time>2014-09-02T11:30:28Z</time></trkpt><trkpt lat="46.0393693205" lon="6.9377320167"><ele>1242.64</ele><time>2014-09-02T11:30:29Z</time></trkpt><trkpt lat="46.0394058656" lon="6.9378040172"><ele>1242.64</ele><time>2014-09-02T11:30:30Z</time></trkpt><trkpt lat="46.0394470207" lon="6.9378694799"><ele>1242.64</ele><time>2014-09-02T11:30:31Z</time></trkpt><trkpt lat="46.0394929536" lon="6.9379252195"><ele>1242.16</ele><time>2014-09-02T11:30:32Z</time></trkpt><trkpt lat="46.0395442508" lon="6.9379679672"><ele>1241.68</ele><time>2014-09-02T11:30:33Z</time></trkpt><trkpt lat="46.0396020021" lon="6.9379979745"><ele>1241.68</ele><time>2014-09-02T11:30:34Z</time></trkpt><trkpt lat="46.0396638606" lon="6.9380176719"><ele>1241.20</ele><time>2014-09-02T11:30:35Z</time></trkpt><trkpt lat="46.0397242941" lon="6.9380316697"><ele>1240.72</ele><time>2014-09-02T11:30:36Z</time></trkpt><trkpt lat="46.0398463346" lon="6.9380656164"><ele>1240.24</ele><time>2014-09-02T11:30:38Z</time></trkpt><trkpt lat="46.0399655253" lon="6.9381261338"><ele>1239.76</ele><time>2014-09-02T11:30:40Z</time></trkpt><trkpt lat="46.0400234442" lon="6.9381695520"><ele>1239.76</ele><time>2014-09-02T11:30:41Z</time></trkpt><trkpt lat="46.0401347559" lon="6.9382558856"><ele>1239.28</ele><time>2014-09-02T11:30:43Z</time></trkpt><trkpt lat="46.0401933454" lon="6.9382844679"><ele>1238.80</ele><time>2014-09-02T11:30:44Z</time></trkpt><trkpt lat="46.0402525216" lon="6.9383080211"><ele>1238.32</ele><time>2014-09-02T11:30:45Z</time></trkpt><trkpt lat="46.0405148752" lon="6.9384043291"><ele>1236.87</ele><time>2014-09-02T11:30:49Z</time></trkpt><trkpt lat="46.0405836906" lon="6.9384435564"><ele>1236.39</ele><time>2014-09-02T11:30:50Z</time></trkpt><trkpt lat="46.0406525899" lon="6.9384965301"><ele>1235.91</ele><time>2014-09-02T11:30:51Z</time></trkpt><trkpt lat="46.0407148674" lon="6.9385653455"><ele>1235.43</ele><time>2014-09-02T11:30:52Z</time></trkpt><trkpt lat="46.0407740436" lon="6.9386437163"><ele>1234.95</ele><time>2014-09-02T11:30:53Z</time></trkpt><trkpt lat="46.0411218088" lon="6.9390141126"><ele>1231.11</ele><time>2014-09-02T11:30:58Z</time></trkpt><trkpt lat="46.0412074719" lon="6.9390664995"><ele>1230.14</ele><time>2014-09-02T11:30:59Z</time></trkpt><trkpt lat="46.0421854723" lon="6.9394243229"><ele>1220.05</ele><time>2014-09-02T11:31:10Z</time></trkpt><trkpt lat="46.0422491748" lon="6.9394371472"><ele>1219.09</ele><time>2014-09-02T11:31:11Z</time></trkpt><trkpt lat="46.0423097759" lon="6.9394700881"><ele>1218.61</ele><time>2014-09-02T11:31:12Z</time></trkpt><trkpt lat="46.0423641745" lon="6.9395304378"><ele>1217.65</ele><time>2014-09-02T11:31:13Z</time></trkpt><trkpt lat="46.0424109455" lon="6.9396120775"><ele>1217.17</ele><time>2014-09-02T11:31:14Z</time></trkpt><trkpt lat="46.0424544476" lon="6.9397029374"><ele>1216.21</ele><time>2014-09-02T11:31:15Z</time></trkpt><trkpt lat="46.0425502528" lon="6.9398698211"><ele>1214.76</ele><time>2014-09-02T11:31:17Z</time></trkpt><trkpt lat="46.0426028911" lon="6.9399092998"><ele>1214.28</ele><time>2014-09-02T11:31:18Z</time></trkpt><trkpt lat="46.0426557809" lon="6.9399250578"><ele>1213.80</ele><time>2014-09-02T11:31:19Z</time></trkpt><trkpt lat="46.0429988522" lon="6.9400005788"><ele>1210.44</ele><time>2014-09-02T11:31:28Z</time></trkpt><trkpt lat="46.0431692563" lon="6.9400514569"><ele>1209.00</ele><time>2014-09-02T11:31:31Z</time></trkpt><trkpt lat="46.0440634377" lon="6.9404381979"><ele>1201.79</ele><time>2014-09-02T11:31:43Z</time></trkpt><trkpt lat="46.0448630713" lon="6.9410029706"><ele>1195.06</ele><time>2014-09-02T11:31:53Z</time></trkpt><trkpt lat="46.0450183041" lon="6.9411414396"><ele>1193.61</ele><time>2014-09-02T11:31:55Z</time></trkpt><trkpt lat="46.0450982675" lon="6.9411889650"><ele>1192.65</ele><time>2014-09-02T11:31:56Z</time></trkpt><trkpt lat="46.0462194309" lon="6.9415938109"><ele>1183.04</ele><time>2014-09-02T11:32:08Z</time></trkpt><trkpt lat="46.0463097878" lon="6.9416365586"><ele>1182.56</ele><time>2014-09-02T11:32:09Z</time></trkpt><trkpt lat="46.0472312104" lon="6.9422343560"><ele>1176.31</ele><time>2014-09-02T11:32:20Z</time></trkpt><trkpt lat="46.0480224621" lon="6.9428624120"><ele>1171.02</ele><time>2014-09-02T11:32:30Z</time></trkpt><trkpt lat="46.0482602566" lon="6.9430496637"><ele>1168.62</ele><time>2014-09-02T11:32:33Z</time></trkpt><trkpt lat="46.0490624048" lon="6.9438977446"><ele>1161.89</ele><time>2014-09-02T11:32:44Z</time></trkpt><trkpt lat="46.0499080550" lon="6.9450172316"><ele>1154.68</ele><time>2014-09-02T11:32:57Z</time></trkpt><trkpt lat="46.0501248948" lon="6.9453376718"><ele>1151.80</ele><time>2014-09-02T11:33:01Z</time></trkpt><trkpt lat="46.0502462648" lon="6.9454716146"><ele>1150.84</ele><time>2014-09-02T11:33:03Z</time></trkpt><trkpt lat="46.0507071856" lon="6.9458747841"><ele>1145.55</ele><time>2014-09-02T11:33:10Z</time></trkpt><trkpt lat="46.0507555492" lon="6.9459440187"><ele>1145.07</ele><time>2014-09-02T11:33:11Z</time></trkpt><trkpt lat="46.0507907532" lon="6.9460263290"><ele>1144.11</ele><time>2014-09-02T11:33:12Z</time></trkpt><trkpt lat="46.0508184973" lon="6.9461186975"><ele>1144.11</ele><time>2014-09-02T11:33:13Z</time></trkpt><trkpt lat="46.0508428887" lon="6.9462187774"><ele>1143.14</ele><time>2014-09-02T11:33:14Z</time></trkpt><trkpt lat="46.0509143025" lon="6.9465258066"><ele>1141.22</ele><time>2014-09-02T11:33:17Z</time></trkpt><trkpt lat="46.0509495903" lon="6.9466265570"><ele>1140.26</ele><time>2014-09-02T11:33:18Z</time></trkpt><trkpt lat="46.0511121992" lon="6.9470975362"><ele>1135.94</ele><time>2014-09-02T11:33:23Z</time></trkpt><trkpt lat="46.0511232633" lon="6.9471823610"><ele>1135.45</ele><time>2014-09-02T11:33:24Z</time></trkpt><trkpt lat="46.0511201620" lon="6.9472759869"><ele>1134.49</ele><time>2014-09-02T11:33:25Z</time></trkpt><trkpt lat="46.0511051584" lon="6.9473720435"><ele>1134.01</ele><time>2014-09-02T11:33:26Z</time></trkpt><trkpt lat="46.0510827787" lon="6.9474683516"><ele>1133.53</ele><time>2014-09-02T11:33:27Z</time></trkpt><trkpt lat="46.0510581359" lon="6.9475654140"><ele>1133.05</ele><time>2014-09-02T11:33:28Z</time></trkpt><trkpt lat="46.0510406177" lon="6.9476642366"><ele>1132.09</ele><time>2014-09-02T11:33:29Z</time></trkpt><trkpt lat="46.0510374326" lon="6.9477631431"><ele>1132.09</ele><time>2014-09-02T11:33:30Z</time></trkpt><trkpt lat="46.0510384385" lon="6.9478624687"><ele>1131.61</ele><time>2014-09-02T11:33:31Z</time></trkpt><trkpt lat="46.0510508437" lon="6.9479561783"><ele>1131.13</ele><time>2014-09-02T11:33:32Z</time></trkpt><trkpt lat="46.0510788392" lon="6.9480327051"><ele>1131.13</ele><time>2014-09-02T11:33:33Z</time></trkpt><trkpt lat="46.0511131212" lon="6.9480871875"><ele>1130.65</ele><time>2014-09-02T11:33:34Z</time></trkpt><trkpt lat="46.0511497501" lon="6.9481301866"><ele>1130.17</ele><time>2014-09-02T11:33:35Z</time></trkpt><trkpt lat="46.0511903185" lon="6.9481708389"><ele>1129.69</ele><time>2014-09-02T11:33:36Z</time></trkpt><trkpt lat="46.0512215830" lon="6.9482021034"><ele>1129.21</ele><time>2014-09-02T11:33:37Z</time></trkpt><trkpt lat="46.0514711961" lon="6.9486169238"><ele>1123.44</ele><time>2014-09-02T11:33:49Z</time></trkpt><trkpt lat="46.0514934920" lon="6.9486221205"><ele>1122.96</ele><time>2014-09-02T11:33:52Z</time></trkpt><trkpt lat="46.0515076574" lon="6.9486251380"><ele>1122.96</ele><time>2014-09-02T11:33:53Z</time></trkpt><trkpt lat="46.0515236668" lon="6.9486247189"><ele>1122.96</ele><time>2014-09-02T11:33:54Z</time></trkpt><trkpt lat="46.0515317973" lon="6.9486187678"><ele>1122.96</ele><time>2014-09-02T11:33:55Z</time></trkpt><trkpt lat="46.0515344795" lon="6.9486051891"><ele>1122.48</ele><time>2014-09-02T11:33:56Z</time></trkpt><trkpt lat="46.0515373293" lon="6.9485637825"><ele>1122.96</ele><time>2014-09-02T11:34:10Z</time></trkpt><trkpt lat="46.0515498184" lon="6.9484912790"><ele>1126.80</ele><time>2014-09-02T11:34:39Z</time></trkpt><trkpt lat="46.0515378322" lon="6.9485427439"><ele>1130.65</ele><time>2014-09-02T11:35:08Z</time></trkpt><trkpt lat="46.0515291151" lon="6.9485631119"><ele>1131.61</ele><time>2014-09-02T11:35:25Z</time></trkpt><trkpt lat="46.0515243374" lon="6.9485815521"><ele>1131.61</ele><time>2014-09-02T11:35:26Z</time></trkpt><trkpt lat="46.0515217390" lon="6.9486025069"><ele>1131.13</ele><time>2014-09-02T11:35:27Z</time></trkpt><trkpt lat="46.0515235830" lon="6.9486315083"><ele>1131.13</ele><time>2014-09-02T11:35:28Z</time></trkpt><trkpt lat="46.0515339766" lon="6.9486551452"><ele>1130.65</ele><time>2014-09-02T11:35:29Z</time></trkpt><trkpt lat="46.0515513271" lon="6.9486751780"><ele>1130.17</ele><time>2014-09-02T11:35:30Z</time></trkpt><trkpt lat="46.0515694320" lon="6.9486920256"><ele>1130.17</ele><time>2014-09-02T11:35:31Z</time></trkpt><trkpt lat="46.0516988486" lon="6.9487731624"><ele>1130.17</ele><time>2014-09-02T11:35:39Z</time></trkpt><trkpt lat="46.0517246649" lon="6.9488224480"><ele>1129.69</ele><time>2014-09-02T11:35:41Z</time></trkpt><trkpt lat="46.0517446138" lon="6.9488564786"><ele>1129.21</ele><time>2014-09-02T11:35:42Z</time></trkpt><trkpt lat="46.0517726932" lon="6.9488967117"><ele>1128.73</ele><time>2014-09-02T11:35:43Z</time></trkpt><trkpt lat="46.0518034548" lon="6.9489341788"><ele>1128.73</ele><time>2014-09-02T11:35:44Z</time></trkpt><trkpt lat="46.0518354736" lon="6.9489647727"><ele>1128.24</ele><time>2014-09-02T11:35:45Z</time></trkpt><trkpt lat="46.0518735275" lon="6.9489969593"><ele>1127.76</ele><time>2014-09-02T11:35:46Z</time></trkpt><trkpt lat="46.0519167781" lon="6.9490314927"><ele>1127.28</ele><time>2014-09-02T11:35:47Z</time></trkpt><trkpt lat="46.0519522335" lon="6.9490672834"><ele>1126.80</ele><time>2014-09-02T11:35:48Z</time></trkpt><trkpt lat="46.0522742663" lon="6.9494072534"><ele>1123.44</ele><time>2014-09-02T11:35:56Z</time></trkpt><trkpt lat="46.0526185110" lon="6.9498506561"><ele>1121.52</ele><time>2014-09-02T11:36:06Z</time></trkpt><trkpt lat="46.0531719681" lon="6.9506611861"><ele>1117.67</ele><time>2014-09-02T11:36:23Z</time></trkpt><trkpt lat="46.0536095034" lon="6.9513336662"><ele>1114.79</ele><time>2014-09-02T11:36:35Z</time></trkpt><trkpt lat="46.0538855195" lon="6.9517613947"><ele>1113.82</ele><time>2014-09-02T11:36:46Z</time></trkpt><trkpt lat="46.0539966635" lon="6.9519318826"><ele>1113.82</ele><time>2014-09-02T11:36:50Z</time></trkpt><trkpt lat="46.0540220607" lon="6.9519845210"><ele>1114.31</ele><time>2014-09-02T11:36:51Z</time></trkpt><trkpt lat="46.0540526547" lon="6.9520332199"><ele>1114.31</ele><time>2014-09-02T11:36:52Z</time></trkpt><trkpt lat="46.0541161057" lon="6.9521208107"><ele>1114.31</ele><time>2014-09-02T11:36:54Z</time></trkpt><trkpt lat="46.0547137354" lon="6.9530413952"><ele>1115.27</ele><time>2014-09-02T11:37:12Z</time></trkpt><trkpt lat="46.0547532979" lon="6.9530977216"><ele>1115.27</ele><time>2014-09-02T11:37:13Z</time></trkpt><trkpt lat="46.0547928605" lon="6.9531521201"><ele>1115.27</ele><time>2014-09-02T11:37:14Z</time></trkpt><trkpt lat="46.0550013185" lon="6.9534811936"><ele>1115.75</ele><time>2014-09-02T11:37:20Z</time></trkpt><trkpt lat="46.0554568749" lon="6.9542289432"><ele>1118.63</ele><time>2014-09-02T11:37:37Z</time></trkpt><trkpt lat="46.0557054821" lon="6.9547792152"><ele>1120.07</ele><time>2014-09-02T11:37:52Z</time></trkpt><trkpt lat="46.0557573661" lon="6.9549453445"><ele>1118.63</ele><time>2014-09-02T11:38:01Z</time></trkpt><trkpt lat="46.0558095016" lon="6.9549714960"><ele>1122.96</ele><time>2014-09-02T11:38:25Z</time></trkpt><trkpt lat="46.0557929054" lon="6.9549665507"><ele>1123.44</ele><time>2014-09-02T11:38:51Z</time></trkpt><trkpt lat="46.0557928216" lon="6.9549833145"><ele>1124.40</ele><time>2014-09-02T11:39:13Z</time></trkpt><trkpt lat="46.0557812545" lon="6.9549751002"><ele>1124.40</ele><time>2014-09-02T11:39:40Z</time></trkpt><trkpt lat="46.0558032151" lon="6.9550217874"><ele>1125.36</ele><time>2014-09-02T11:39:50Z</time></trkpt><trkpt lat="46.0558123514" lon="6.9550429098"><ele>1125.36</ele><time>2014-09-02T11:39:51Z</time></trkpt><trkpt lat="46.0558213200" lon="6.9550686423"><ele>1124.88</ele><time>2014-09-02T11:39:52Z</time></trkpt><trkpt lat="46.0558314621" lon="6.9550972246"><ele>1124.88</ele><time>2014-09-02T11:39:53Z</time></trkpt><trkpt lat="46.0558411852" lon="6.9551325962"><ele>1124.88</ele><time>2014-09-02T11:39:54Z</time></trkpt><trkpt lat="46.0561030358" lon="6.9557718001"><ele>1122.48</ele><time>2014-09-02T11:40:07Z</time></trkpt><trkpt lat="46.0567834787" lon="6.9565714337"><ele>1112.86</ele><time>2014-09-02T11:40:22Z</time></trkpt><trkpt lat="46.0568410624" lon="6.9566193782"><ele>1111.90</ele><time>2014-09-02T11:40:23Z</time></trkpt><trkpt lat="46.0568973888" lon="6.9566686638"><ele>1110.94</ele><time>2014-09-02T11:40:24Z</time></trkpt><trkpt lat="46.0575815197" lon="6.9574830495"><ele>1104.21</ele><time>2014-09-02T11:40:38Z</time></trkpt><trkpt lat="46.0581630562" lon="6.9584048074"><ele>1097.96</ele><time>2014-09-02T11:40:55Z</time></trkpt><trkpt lat="46.0585889407" lon="6.9592374656"><ele>1095.56</ele><time>2014-09-02T11:41:09Z</time></trkpt><trkpt lat="46.0587165132" lon="6.9595121406"><ele>1096.52</ele><time>2014-09-02T11:41:13Z</time></trkpt><trkpt lat="46.0590790305" lon="6.9605957530"><ele>1095.56</ele><time>2014-09-02T11:41:28Z</time></trkpt><trkpt lat="46.0592004005" lon="6.9609816559"><ele>1095.08</ele><time>2014-09-02T11:41:33Z</time></trkpt><trkpt lat="46.0594647657" lon="6.9614683092"><ele>1093.64</ele><time>2014-09-02T11:41:40Z</time></trkpt><trkpt lat="46.0597334895" lon="6.9618133921"><ele>1092.20</ele><time>2014-09-02T11:41:45Z</time></trkpt><trkpt lat="46.0598263610" lon="6.9619799405"><ele>1092.20</ele><time>2014-09-02T11:41:47Z</time></trkpt><trkpt lat="46.0598779935" lon="6.9620506838"><ele>1091.71</ele><time>2014-09-02T11:41:48Z</time></trkpt><trkpt lat="46.0603125114" lon="6.9626602996"><ele>1091.23</ele><time>2014-09-02T11:41:59Z</time></trkpt><trkpt lat="46.0603411775" lon="6.9627035502"><ele>1091.23</ele><time>2014-09-02T11:42:00Z</time></trkpt><trkpt lat="46.0606367234" lon="6.9632222224"><ele>1091.23</ele><time>2014-09-02T11:42:14Z</time></trkpt><trkpt lat="46.0609240551" lon="6.9637334347"><ele>1095.56</ele><time>2014-09-02T11:42:30Z</time></trkpt><trkpt lat="46.0611356143" lon="6.9640843011"><ele>1096.04</ele><time>2014-09-02T11:42:44Z</time></trkpt><trkpt lat="46.0611835588" lon="6.9641434774"><ele>1095.56</ele><time>2014-09-02T11:42:47Z</time></trkpt><trkpt lat="46.0611988138" lon="6.9641666114"><ele>1095.56</ele><time>2014-09-02T11:42:48Z</time></trkpt><trkpt lat="46.0613335948" lon="6.9643391948"><ele>1097.96</ele><time>2014-09-02T11:42:57Z</time></trkpt><trkpt lat="46.0613475088" lon="6.9643590599"><ele>1098.44</ele><time>2014-09-02T11:42:58Z</time></trkpt><trkpt lat="46.0615078546" lon="6.9645382650"><ele>1100.37</ele><time>2014-09-02T11:43:09Z</time></trkpt><trkpt lat="46.0615226906" lon="6.9645477366"><ele>1100.85</ele><time>2014-09-02T11:43:10Z</time></trkpt><trkpt lat="46.0615361016" lon="6.9645622373"><ele>1101.33</ele><time>2014-09-02T11:43:11Z</time></trkpt><trkpt lat="46.0617624130" lon="6.9647891354"><ele>1105.65</ele><time>2014-09-02T11:43:26Z</time></trkpt><trkpt lat="46.0619926639" lon="6.9649465475"><ele>1110.46</ele><time>2014-09-02T11:43:40Z</time></trkpt><trkpt lat="46.0622246750" lon="6.9651081506"><ele>1114.31</ele><time>2014-09-02T11:43:54Z</time></trkpt><trkpt lat="46.0624388326" lon="6.9652228989"><ele>1117.19</ele><time>2014-09-02T11:44:06Z</time></trkpt><trkpt lat="46.0625820793" lon="6.9652897865"><ele>1118.63</ele><time>2014-09-02T11:44:15Z</time></trkpt><trkpt lat="46.0626023635" lon="6.9652883615"><ele>1119.11</ele><time>2014-09-02T11:44:16Z</time></trkpt><trkpt lat="46.0626214743" lon="6.9652912952"><ele>1119.59</ele><time>2014-09-02T11:44:17Z</time></trkpt><trkpt lat="46.0626423452" lon="6.9652925525"><ele>1120.07</ele><time>2014-09-02T11:44:18Z</time></trkpt><trkpt lat="46.0626607854" lon="6.9652987551"><ele>1120.55</ele><time>2014-09-02T11:44:19Z</time></trkpt><trkpt lat="46.0626814049" lon="6.9653089810"><ele>1120.55</ele><time>2014-09-02T11:44:20Z</time></trkpt><trkpt lat="46.0626969114" lon="6.9653145131"><ele>1121.03</ele><time>2014-09-02T11:44:21Z</time></trkpt><trkpt lat="46.0627135076" lon="6.9653198775"><ele>1120.55</ele><time>2014-09-02T11:44:22Z</time></trkpt><trkpt lat="46.0629396513" lon="6.9654017687"><ele>1122.00</ele><time>2014-09-02T11:44:35Z</time></trkpt><trkpt lat="46.0631552339" lon="6.9655093085"><ele>1123.44</ele><time>2014-09-02T11:44:48Z</time></trkpt><trkpt lat="46.0632288270" lon="6.9655407406"><ele>1123.92</ele><time>2014-09-02T11:45:00Z</time></trkpt><trkpt lat="46.0632456746" lon="6.9655102305"><ele>1122.00</ele><time>2014-09-02T11:45:26Z</time></trkpt><trkpt lat="46.0632154159" lon="6.9654727634"><ele>1122.48</ele><time>2014-09-02T11:45:48Z</time></trkpt><trkpt lat="46.0632258095" lon="6.9655678142"><ele>1120.07</ele><time>2014-09-02T11:46:07Z</time></trkpt><trkpt lat="46.0632282402" lon="6.9655526429"><ele>1122.00</ele><time>2014-09-02T11:46:28Z</time></trkpt><trkpt lat="46.0632197745" lon="6.9655627850"><ele>1120.55</ele><time>2014-09-02T11:46:45Z</time></trkpt><trkpt lat="46.0632626899" lon="6.9655700773"><ele>1121.03</ele><time>2014-09-02T11:46:50Z</time></trkpt><trkpt lat="46.0632720776" lon="6.9655837398"><ele>1121.03</ele><time>2014-09-02T11:46:51Z</time></trkpt><trkpt lat="46.0632823873" lon="6.9655981567"><ele>1121.03</ele><time>2014-09-02T11:46:52Z</time></trkpt><trkpt lat="46.0632978939" lon="6.9656070415"><ele>1121.52</ele><time>2014-09-02T11:46:53Z</time></trkpt><trkpt lat="46.0633175075" lon="6.9656120706"><ele>1121.52</ele><time>2014-09-02T11:46:54Z</time></trkpt><trkpt lat="46.0636307392" lon="6.9657406490"><ele>1122.96</ele><time>2014-09-02T11:47:08Z</time></trkpt><trkpt lat="46.0639537778" lon="6.9658988155"><ele>1125.36</ele><time>2014-09-02T11:47:23Z</time></trkpt><trkpt lat="46.0641954280" lon="6.9660419784"><ele>1129.21</ele><time>2014-09-02T11:47:35Z</time></trkpt><trkpt lat="46.0644599609" lon="6.9662309065"><ele>1133.05</ele><time>2014-09-02T11:47:49Z</time></trkpt><trkpt lat="46.0647239909" lon="6.9664536975"><ele>1133.53</ele><time>2014-09-02T11:48:03Z</time></trkpt><trkpt lat="46.0649788845" lon="6.9666879717"><ele>1135.94</ele><time>2014-09-02T11:48:18Z</time></trkpt><trkpt lat="46.0649925470" lon="6.9667013828"><ele>1135.94</ele><time>2014-09-02T11:48:19Z</time></trkpt><trkpt lat="46.0650091432" lon="6.9667101838"><ele>1135.94</ele><time>2014-09-02T11:48:20Z</time></trkpt><trkpt lat="46.0650268290" lon="6.9667225890"><ele>1136.42</ele><time>2014-09-02T11:48:21Z</time></trkpt><trkpt lat="46.0650424194" lon="6.9667385146"><ele>1136.42</ele><time>2014-09-02T11:48:22Z</time></trkpt><trkpt lat="46.0650560819" lon="6.9667604752"><ele>1136.42</ele><time>2014-09-02T11:48:23Z</time></trkpt><trkpt lat="46.0650715884" lon="6.9667805918"><ele>1136.42</ele><time>2014-09-02T11:48:24Z</time></trkpt><trkpt lat="46.0650879331" lon="6.9667961821"><ele>1136.42</ele><time>2014-09-02T11:48:25Z</time></trkpt><trkpt lat="46.0651057865" lon="6.9668111857"><ele>1136.90</ele><time>2014-09-02T11:48:26Z</time></trkpt><trkpt lat="46.0651228856" lon="6.9668276142"><ele>1136.90</ele><time>2014-09-02T11:48:27Z</time></trkpt><trkpt lat="46.0651402362" lon="6.9668462221"><ele>1137.38</ele><time>2014-09-02T11:48:28Z</time></trkpt><trkpt lat="46.0651548207" lon="6.9668644108"><ele>1137.38</ele><time>2014-09-02T11:48:29Z</time></trkpt><trkpt lat="46.0651707463" lon="6.9668782409"><ele>1137.38</ele><time>2014-09-02T11:48:30Z</time></trkpt><trkpt lat="46.0651864205" lon="6.9668911491"><ele>1137.38</ele><time>2014-09-02T11:48:31Z</time></trkpt><trkpt lat="46.0652020108" lon="6.9669079129"><ele>1137.38</ele><time>2014-09-02T11:48:32Z</time></trkpt><trkpt lat="46.0652176011" lon="6.9669236708"><ele>1137.86</ele><time>2014-09-02T11:48:33Z</time></trkpt><trkpt lat="46.0652317666" lon="6.9669416081"><ele>1137.86</ele><time>2014-09-02T11:48:34Z</time></trkpt><trkpt lat="46.0654467624" lon="6.9671254233"><ele>1140.26</ele><time>2014-09-02T11:48:48Z</time></trkpt><trkpt lat="46.0656671226" lon="6.9673171174"><ele>1142.66</ele><time>2014-09-02T11:49:02Z</time></trkpt><trkpt lat="46.0657146480" lon="6.9673548359"><ele>1143.14</ele><time>2014-09-02T11:49:05Z</time></trkpt><trkpt lat="46.0657300707" lon="6.9673689175"><ele>1143.14</ele><time>2014-09-02T11:49:06Z</time></trkpt><trkpt lat="46.0657456610" lon="6.9673817419"><ele>1143.14</ele><time>2014-09-02T11:49:07Z</time></trkpt><trkpt lat="46.0657601617" lon="6.9673944823"><ele>1143.63</ele><time>2014-09-02T11:49:08Z</time></trkpt><trkpt lat="46.0657766741" lon="6.9674048759"><ele>1144.11</ele><time>2014-09-02T11:49:09Z</time></trkpt><trkpt lat="46.0657923482" lon="6.9674132578"><ele>1144.11</ele><time>2014-09-02T11:49:10Z</time></trkpt><trkpt lat="46.0658067651" lon="6.9674243219"><ele>1144.11</ele><time>2014-09-02T11:49:11Z</time></trkpt><trkpt lat="46.0658227745" lon="6.9674382359"><ele>1144.11</ele><time>2014-09-02T11:49:12Z</time></trkpt><trkpt lat="46.0658392869" lon="6.9674512278"><ele>1144.59</ele><time>2014-09-02T11:49:13Z</time></trkpt><trkpt lat="46.0658538714" lon="6.9674669858"><ele>1144.59</ele><time>2014-09-02T11:49:14Z</time></trkpt><trkpt lat="46.0658671148" lon="6.9674793910"><ele>1144.59</ele><time>2014-09-02T11:49:15Z</time></trkpt><trkpt lat="46.0658821184" lon="6.9674929697"><ele>1145.07</ele><time>2014-09-02T11:49:16Z</time></trkpt><trkpt lat="46.0661624093" lon="6.9677183591"><ele>1146.99</ele><time>2014-09-02T11:49:34Z</time></trkpt><trkpt lat="46.0663195699" lon="6.9678485300"><ele>1148.91</ele><time>2014-09-02T11:49:44Z</time></trkpt><trkpt lat="46.0665479768" lon="6.9680117257"><ele>1150.84</ele><time>2014-09-02T11:49:58Z</time></trkpt><trkpt lat="46.0667816643" lon="6.9681654498"><ele>1152.28</ele><time>2014-09-02T11:50:12Z</time></trkpt><trkpt lat="46.0670396592" lon="6.9683803618"><ele>1151.80</ele><time>2014-09-02T11:50:26Z</time></trkpt><trkpt lat="46.0673305113" lon="6.9686602335"><ele>1152.28</ele><time>2014-09-02T11:50:43Z</time></trkpt><trkpt lat="46.0675391369" lon="6.9689303823"><ele>1155.16</ele><time>2014-09-02T11:50:59Z</time></trkpt><trkpt lat="46.0676064435" lon="6.9690497406"><ele>1156.12</ele><time>2014-09-02T11:51:06Z</time></trkpt><trkpt lat="46.0676121432" lon="6.9690676779"><ele>1156.12</ele><time>2014-09-02T11:51:07Z</time></trkpt><trkpt lat="46.0676524602" lon="6.9691649918"><ele>1157.56</ele><time>2014-09-02T11:51:20Z</time></trkpt><trkpt lat="46.0676514544" lon="6.9691753853"><ele>1158.53</ele><time>2014-09-02T11:51:48Z</time></trkpt><trkpt lat="46.0676826350" lon="6.9691659138"><ele>1159.49</ele><time>2014-09-02T11:52:21Z</time></trkpt><trkpt lat="46.0677101277" lon="6.9691632316"><ele>1159.01</ele><time>2014-09-02T11:52:44Z</time></trkpt><trkpt lat="46.0677017458" lon="6.9691408519"><ele>1158.05</ele><time>2014-09-02T11:53:21Z</time></trkpt><trkpt lat="46.0677068587" lon="6.9691301230"><ele>1161.89</ele><time>2014-09-02T11:54:03Z</time></trkpt><trkpt lat="46.0676848982" lon="6.9691902213"><ele>1160.45</ele><time>2014-09-02T11:54:28Z</time></trkpt><trkpt lat="46.0676435754" lon="6.9691555202"><ele>1158.05</ele><time>2014-09-02T11:54:57Z</time></trkpt><trkpt lat="46.0676483531" lon="6.9691774808"><ele>1158.05</ele><time>2014-09-02T11:55:14Z</time></trkpt><trkpt lat="46.0676354449" lon="6.9691796601"><ele>1155.16</ele><time>2014-09-02T11:55:46Z</time></trkpt><trkpt lat="46.0676845629" lon="6.9692479726"><ele>1156.12</ele><time>2014-09-02T11:55:59Z</time></trkpt><trkpt lat="46.0677517019" lon="6.9693572726"><ele>1158.53</ele><time>2014-09-02T11:56:05Z</time></trkpt><trkpt lat="46.0677625146" lon="6.9693743717"><ele>1159.01</ele><time>2014-09-02T11:56:06Z</time></trkpt><trkpt lat="46.0677732434" lon="6.9693894591"><ele>1159.49</ele><time>2014-09-02T11:56:07Z</time></trkpt><trkpt lat="46.0678998102" lon="6.9696509745"><ele>1165.26</ele><time>2014-09-02T11:56:20Z</time></trkpt><trkpt lat="46.0680383630" lon="6.9699259009"><ele>1171.02</ele><time>2014-09-02T11:56:34Z</time></trkpt><trkpt lat="46.0681642592" lon="6.9700880907"><ele>1175.83</ele><time>2014-09-02T11:56:48Z</time></trkpt></trkseg><trkseg><trkpt lat="46.0696103051" lon="6.9726575632"><ele>1179.67</ele><time>2014-09-02T11:58:37Z</time></trkpt><trkpt lat="46.0693344567" lon="6.9726146478"><ele>1186.88</ele><time>2014-09-02T11:58:43Z</time></trkpt><trkpt lat="46.0694165155" lon="6.9728884008"><ele>1190.73</ele><time>2014-09-02T11:58:57Z</time></trkpt><trkpt lat="46.0695433337" lon="6.9732038118"><ele>1192.17</ele><time>2014-09-02T11:59:10Z</time></trkpt><trkpt lat="46.0697904322" lon="6.9735371601"><ele>1194.58</ele><time>2014-09-02T11:59:27Z</time></trkpt><trkpt lat="46.0700154863" lon="6.9737503957"><ele>1199.38</ele><time>2014-09-02T11:59:41Z</time></trkpt><trkpt lat="46.0703322385" lon="6.9739589375"><ele>1201.30</ele><time>2014-09-02T11:59:58Z</time></trkpt><trkpt lat="46.0705867968" lon="6.9741114043"><ele>1200.82</ele><time>2014-09-02T12:00:11Z</time></trkpt><trkpt lat="46.0706012975" lon="6.9741289224"><ele>1200.82</ele><time>2014-09-02T12:00:12Z</time></trkpt><trkpt lat="46.0706189834" lon="6.9741440937"><ele>1200.82</ele><time>2014-09-02T12:00:13Z</time></trkpt><trkpt lat="46.0706347413" lon="6.9741597679"><ele>1200.82</ele><time>2014-09-02T12:00:14Z</time></trkpt><trkpt lat="46.0706501640" lon="6.9741761126"><ele>1201.30</ele><time>2014-09-02T12:00:15Z</time></trkpt><trkpt lat="46.0706629045" lon="6.9741932116"><ele>1201.30</ele><time>2014-09-02T12:00:16Z</time></trkpt><trkpt lat="46.0706767347" lon="6.9742062874"><ele>1201.30</ele><time>2014-09-02T12:00:17Z</time></trkpt><trkpt lat="46.0709374119" lon="6.9744517934"><ele>1202.75</ele><time>2014-09-02T12:00:33Z</time></trkpt><trkpt lat="46.0711020324" lon="6.9746712316"><ele>1204.19</ele><time>2014-09-02T12:00:44Z</time></trkpt><trkpt lat="46.0712432675" lon="6.9749309868"><ele>1205.15</ele><time>2014-09-02T12:00:55Z</time></trkpt><trkpt lat="46.0713651404" lon="6.9753126986"><ele>1205.15</ele><time>2014-09-02T12:01:09Z</time></trkpt><trkpt lat="46.0714059602" lon="6.9757488091"><ele>1204.67</ele><time>2014-09-02T12:01:23Z</time></trkpt><trkpt lat="46.0713761207" lon="6.9762573391"><ele>1204.67</ele><time>2014-09-02T12:01:39Z</time></trkpt><trkpt lat="46.0712317843" lon="6.9767738320"><ele>1205.63</ele><time>2014-09-02T12:01:55Z</time></trkpt><trkpt lat="46.0709490627" lon="6.9772982039"><ele>1206.59</ele><time>2014-09-02T12:02:10Z</time></trkpt><trkpt lat="46.0705110244" lon="6.9778046384"><ele>1207.07</ele><time>2014-09-02T12:02:25Z</time></trkpt><trkpt lat="46.0704771616" lon="6.9778381661"><ele>1207.07</ele><time>2014-09-02T12:02:26Z</time></trkpt><trkpt lat="46.0702865571" lon="6.9780632202"><ele>1206.59</ele><time>2014-09-02T12:02:32Z</time></trkpt><trkpt lat="46.0702562984" lon="6.9781026151"><ele>1206.59</ele><time>2014-09-02T12:02:33Z</time></trkpt><trkpt lat="46.0698056873" lon="6.9789392967"><ele>1205.63</ele><time>2014-09-02T12:02:51Z</time></trkpt><trkpt lat="46.0695271567" lon="6.9795235991"><ele>1205.63</ele><time>2014-09-02T12:03:03Z</time></trkpt><trkpt lat="46.0695046932" lon="6.9795750640"><ele>1205.63</ele><time>2014-09-02T12:03:04Z</time></trkpt><trkpt lat="46.0694809724" lon="6.9796234276"><ele>1205.63</ele><time>2014-09-02T12:03:05Z</time></trkpt><trkpt lat="46.0693621170" lon="6.9798746333"><ele>1205.63</ele><time>2014-09-02T12:03:10Z</time></trkpt><trkpt lat="46.0692443512" lon="6.9801079854"><ele>1204.67</ele><time>2014-09-02T12:03:15Z</time></trkpt><trkpt lat="46.0692187864" lon="6.9801597018"><ele>1204.67</ele><time>2014-09-02T12:03:16Z</time></trkpt><trkpt lat="46.0691110790" lon="6.9803370629"><ele>1203.71</ele><time>2014-09-02T12:03:20Z</time></trkpt><trkpt lat="46.0687664989" lon="6.9808899332"><ele>1202.75</ele><time>2014-09-02T12:03:33Z</time></trkpt><trkpt lat="46.0684474837" lon="6.9814574718"><ele>1203.23</ele><time>2014-09-02T12:03:47Z</time></trkpt><trkpt lat="46.0682805162" lon="6.9818877988"><ele>1205.15</ele><time>2014-09-02T12:03:58Z</time></trkpt><trkpt lat="46.0680070147" lon="6.9824120868"><ele>1208.03</ele><time>2014-09-02T12:04:13Z</time></trkpt><trkpt lat="46.0677974671" lon="6.9829565752"><ele>1211.88</ele><time>2014-09-02T12:04:28Z</time></trkpt><trkpt lat="46.0675982293" lon="6.9834792707"><ele>1215.24</ele><time>2014-09-02T12:04:43Z</time></trkpt><trkpt lat="46.0674662143" lon="6.9838449731"><ele>1218.61</ele><time>2014-09-02T12:04:56Z</time></trkpt><trkpt lat="46.0673215427" lon="6.9841441233"><ele>1219.09</ele><time>2014-09-02T12:05:08Z</time></trkpt><trkpt lat="46.0671611130" lon="6.9844393339"><ele>1219.57</ele><time>2014-09-02T12:05:21Z</time></trkpt><trkpt lat="46.0670477059" lon="6.9846348837"><ele>1219.09</ele><time>2014-09-02T12:05:30Z</time></trkpt><trkpt lat="46.0668538325" lon="6.9849198684"><ele>1217.17</ele><time>2014-09-02T12:05:45Z</time></trkpt><trkpt lat="46.0666856077" lon="6.9851232972"><ele>1218.13</ele><time>2014-09-02T12:05:57Z</time></trkpt><trkpt lat="46.0666430276" lon="6.9851483591"><ele>1221.97</ele><time>2014-09-02T12:06:08Z</time></trkpt><trkpt lat="46.0666342266" lon="6.9851063658"><ele>1226.30</ele><time>2014-09-02T12:06:30Z</time></trkpt><trkpt lat="46.0666849371" lon="6.9851229619"><ele>1230.14</ele><time>2014-09-02T12:06:55Z</time></trkpt><trkpt lat="46.0666971747" lon="6.9852237962"><ele>1226.78</ele><time>2014-09-02T12:07:26Z</time></trkpt><trkpt lat="46.0666510742" lon="6.9852885045"><ele>1225.82</ele><time>2014-09-02T12:07:37Z</time></trkpt><trkpt lat="46.0664336476" lon="6.9855459966"><ele>1226.78</ele><time>2014-09-02T12:07:53Z</time></trkpt><trkpt lat="46.0662460607" lon="6.9858894870"><ele>1228.70</ele><time>2014-09-02T12:08:09Z</time></trkpt><trkpt lat="46.0660967790" lon="6.9862004556"><ele>1234.95</ele><time>2014-09-02T12:08:24Z</time></trkpt><trkpt lat="46.0659428034" lon="6.9865027070"><ele>1241.68</ele><time>2014-09-02T12:08:39Z</time></trkpt><trkpt lat="46.0657815356" lon="6.9868206326"><ele>1247.45</ele><time>2014-09-02T12:08:54Z</time></trkpt><trkpt lat="46.0656428151" lon="6.9871124066"><ele>1250.81</ele><time>2014-09-02T12:09:08Z</time></trkpt><trkpt lat="46.0654899292" lon="6.9874299131"><ele>1253.22</ele><time>2014-09-02T12:09:22Z</time></trkpt><trkpt lat="46.0653421562" lon="6.9877455756"><ele>1253.70</ele><time>2014-09-02T12:09:36Z</time></trkpt><trkpt lat="46.0651890188" lon="6.9880350027"><ele>1254.18</ele><time>2014-09-02T12:09:49Z</time></trkpt><trkpt lat="46.0650136694" lon="6.9883182272"><ele>1256.10</ele><time>2014-09-02T12:10:03Z</time></trkpt><trkpt lat="46.0647300258" lon="6.9886656571"><ele>1256.58</ele><time>2014-09-02T12:10:18Z</time></trkpt><trkpt lat="46.0643741302" lon="6.9889615383"><ele>1255.14</ele><time>2014-09-02T12:10:34Z</time></trkpt><trkpt lat="46.0640711244" lon="6.9891819824"><ele>1256.10</ele><time>2014-09-02T12:10:47Z</time></trkpt><trkpt lat="46.0636943579" lon="6.9894508738"><ele>1257.54</ele><time>2014-09-02T12:11:03Z</time></trkpt><trkpt lat="46.0634700581" lon="6.9896823820"><ele>1258.50</ele><time>2014-09-02T12:11:14Z</time></trkpt><trkpt lat="46.0632104706" lon="6.9901402015"><ele>1265.23</ele><time>2014-09-02T12:11:28Z</time></trkpt><trkpt lat="46.0627295170" lon="6.9902763236"><ele>1277.73</ele><time>2014-09-02T12:11:44Z</time></trkpt><trkpt lat="46.0623581987" lon="6.9905102625"><ele>1276.77</ele><time>2014-09-02T12:11:59Z</time></trkpt><trkpt lat="46.0621282831" lon="6.9906749669"><ele>1277.25</ele><time>2014-09-02T12:12:09Z</time></trkpt><trkpt lat="46.0617825296" lon="6.9909841754"><ele>1278.69</ele><time>2014-09-02T12:12:24Z</time></trkpt><trkpt lat="46.0614669509" lon="6.9913484529"><ele>1281.09</ele><time>2014-09-02T12:12:39Z</time></trkpt><trkpt lat="46.0611673817" lon="6.9916924462"><ele>1283.50</ele><time>2014-09-02T12:12:53Z</time></trkpt><trkpt lat="46.0608652141" lon="6.9921127986"><ele>1284.94</ele><time>2014-09-02T12:13:09Z</time></trkpt><trkpt lat="46.0605539102" lon="6.9925318938"><ele>1284.94</ele><time>2014-09-02T12:13:25Z</time></trkpt><trkpt lat="46.0601395927" lon="6.9929191377"><ele>1288.78</ele><time>2014-09-02T12:13:44Z</time></trkpt><trkpt lat="46.0598540213" lon="6.9930533320"><ele>1290.71</ele><time>2014-09-02T12:13:56Z</time></trkpt><trkpt lat="46.0596083477" lon="6.9931499753"><ele>1289.75</ele><time>2014-09-02T12:14:07Z</time></trkpt><trkpt lat="46.0593653563" lon="6.9932989217"><ele>1289.75</ele><time>2014-09-02T12:14:20Z</time></trkpt><trkpt lat="46.0591819603" lon="6.9934382290"><ele>1289.27</ele><time>2014-09-02T12:14:33Z</time></trkpt><trkpt lat="46.0591178387" lon="6.9934561662"><ele>1286.86</ele><time>2014-09-02T12:14:45Z</time></trkpt><trkpt lat="46.0591625981" lon="6.9934875146"><ele>1286.86</ele><time>2014-09-02T12:15:10Z</time></trkpt><trkpt lat="46.0591315012" lon="6.9934816472"><ele>1283.50</ele><time>2014-09-02T12:15:34Z</time></trkpt><trkpt lat="46.0591518693" lon="6.9934200402"><ele>1283.02</ele><time>2014-09-02T12:16:01Z</time></trkpt><trkpt lat="46.0590764321" lon="6.9935327768"><ele>1283.02</ele><time>2014-09-02T12:16:11Z</time></trkpt><trkpt lat="46.0587593447" lon="6.9937749300"><ele>1282.54</ele><time>2014-09-02T12:16:26Z</time></trkpt><trkpt lat="46.0585943051" lon="6.9937924482"><ele>1281.57</ele><time>2014-09-02T12:16:34Z</time></trkpt><trkpt lat="46.0585722607" lon="6.9938011654"><ele>1281.09</ele><time>2014-09-02T12:16:35Z</time></trkpt><trkpt lat="46.0583500564" lon="6.9938444160"><ele>1281.57</ele><time>2014-09-02T12:16:46Z</time></trkpt><trkpt lat="46.0583311971" lon="6.9938455895"><ele>1281.57</ele><time>2014-09-02T12:16:47Z</time></trkpt><trkpt lat="46.0583154391" lon="6.9938513730"><ele>1281.09</ele><time>2014-09-02T12:16:48Z</time></trkpt><trkpt lat="46.0581348930" lon="6.9938640296"><ele>1281.57</ele><time>2014-09-02T12:16:58Z</time></trkpt><trkpt lat="46.0578518361" lon="6.9938623533"><ele>1283.02</ele><time>2014-09-02T12:17:13Z</time></trkpt><trkpt lat="46.0576287098" lon="6.9939278997"><ele>1282.54</ele><time>2014-09-02T12:17:26Z</time></trkpt><trkpt lat="46.0575308092" lon="6.9939629361"><ele>1283.02</ele><time>2014-09-02T12:17:31Z</time></trkpt><trkpt lat="46.0575195774" lon="6.9939801190"><ele>1282.54</ele><time>2014-09-02T12:17:32Z</time></trkpt><trkpt lat="46.0575075075" lon="6.9939948712"><ele>1282.06</ele><time>2014-09-02T12:17:33Z</time></trkpt><trkpt lat="46.0573101137" lon="6.9941073563"><ele>1280.13</ele><time>2014-09-02T12:17:47Z</time></trkpt><trkpt lat="46.0571485944" lon="6.9941404648"><ele>1279.65</ele><time>2014-09-02T12:17:58Z</time></trkpt><trkpt lat="46.0571368597" lon="6.9941402134"><ele>1279.65</ele><time>2014-09-02T12:17:59Z</time></trkpt><trkpt lat="46.0571257956" lon="6.9941475056"><ele>1279.65</ele><time>2014-09-02T12:18:00Z</time></trkpt><trkpt lat="46.0571127199" lon="6.9941576477"><ele>1279.65</ele><time>2014-09-02T12:18:01Z</time></trkpt><trkpt lat="46.0570816230" lon="6.9941672869"><ele>1279.65</ele><time>2014-09-02T12:18:13Z</time></trkpt><trkpt lat="46.0570345167" lon="6.9941848051"><ele>1278.21</ele><time>2014-09-02T12:18:31Z</time></trkpt><trkpt lat="46.0570019111" lon="6.9941760879"><ele>1276.77</ele><time>2014-09-02T12:18:48Z</time></trkpt><trkpt lat="46.0570180044" lon="6.9941481762"><ele>1276.29</ele><time>2014-09-02T12:18:50Z</time></trkpt><trkpt lat="46.0570286494" lon="6.9941433985"><ele>1276.77</ele><time>2014-09-02T12:18:51Z</time></trkpt><trkpt lat="46.0570517834" lon="6.9941405486"><ele>1276.29</ele><time>2014-09-02T12:18:52Z</time></trkpt><trkpt lat="46.0570749175" lon="6.9941401295"><ele>1276.29</ele><time>2014-09-02T12:18:53Z</time></trkpt><trkpt lat="46.0571011528" lon="6.9941474218"><ele>1276.29</ele><time>2014-09-02T12:18:54Z</time></trkpt><trkpt lat="46.0571812000" lon="6.9941393752"><ele>1276.77</ele><time>2014-09-02T12:18:57Z</time></trkpt><trkpt lat="46.0572062619" lon="6.9941273052"><ele>1277.25</ele><time>2014-09-02T12:18:58Z</time></trkpt><trkpt lat="46.0572373588" lon="6.9941184204"><ele>1277.25</ele><time>2014-09-02T12:18:59Z</time></trkpt><trkpt lat="46.0572699644" lon="6.9941138942"><ele>1277.73</ele><time>2014-09-02T12:19:00Z</time></trkpt><trkpt lat="46.0573043302" lon="6.9941078592"><ele>1277.73</ele><time>2014-09-02T12:19:01Z</time></trkpt><trkpt lat="46.0577669274" lon="6.9939061068"><ele>1276.77</ele><time>2014-09-02T12:19:13Z</time></trkpt><trkpt lat="46.0580865294" lon="6.9938855711"><ele>1276.29</ele><time>2014-09-02T12:19:23Z</time></trkpt><trkpt lat="46.0581420176" lon="6.9938911870"><ele>1276.77</ele><time>2014-09-02T12:19:25Z</time></trkpt><trkpt lat="46.0584987514" lon="6.9940107968"><ele>1276.77</ele><time>2014-09-02T12:19:36Z</time></trkpt><trkpt lat="46.0585008468" lon="6.9940646086"><ele>1277.25</ele><time>2014-09-02T12:19:37Z</time></trkpt><trkpt lat="46.0584908724" lon="6.9941061828"><ele>1277.73</ele><time>2014-09-02T12:19:39Z</time></trkpt><trkpt lat="46.0584662296" lon="6.9941554684"><ele>1278.21</ele><time>2014-09-02T12:19:40Z</time></trkpt><trkpt lat="46.0584491305" lon="6.9941746630"><ele>1278.21</ele><time>2014-09-02T12:19:41Z</time></trkpt><trkpt lat="46.0584237333" lon="6.9941974618"><ele>1278.21</ele><time>2014-09-02T12:19:42Z</time></trkpt><trkpt lat="46.0584016889" lon="6.9942227751"><ele>1278.21</ele><time>2014-09-02T12:19:43Z</time></trkpt><trkpt lat="46.0582472105" lon="6.9943743199"><ele>1279.65</ele><time>2014-09-02T12:19:55Z</time></trkpt><trkpt lat="46.0580977611" lon="6.9945306424"><ele>1283.98</ele><time>2014-09-02T12:20:06Z</time></trkpt><trkpt lat="46.0580815002" lon="6.9945441373"><ele>1284.46</ele><time>2014-09-02T12:20:07Z</time></trkpt><trkpt lat="46.0580664128" lon="6.9945588056"><ele>1284.46</ele><time>2014-09-02T12:20:08Z</time></trkpt><trkpt lat="46.0580473021" lon="6.9945725519"><ele>1284.94</ele><time>2014-09-02T12:20:09Z</time></trkpt><trkpt lat="46.0580325499" lon="6.9945846219"><ele>1284.94</ele><time>2014-09-02T12:20:10Z</time></trkpt><trkpt lat="46.0580165405" lon="6.9946006313"><ele>1285.42</ele><time>2014-09-02T12:20:11Z</time></trkpt><trkpt lat="46.0580031294" lon="6.9946167246"><ele>1285.90</ele><time>2014-09-02T12:20:12Z</time></trkpt><trkpt lat="46.0579876229" lon="6.9946351647"><ele>1286.38</ele><time>2014-09-02T12:20:13Z</time></trkpt><trkpt lat="46.0578840226" lon="6.9947611447"><ele>1286.86</ele><time>2014-09-02T12:20:20Z</time></trkpt><trkpt lat="46.0578680132" lon="6.9947765674"><ele>1287.34</ele><time>2014-09-02T12:20:21Z</time></trkpt><trkpt lat="46.0578512494" lon="6.9947919063"><ele>1287.34</ele><time>2014-09-02T12:20:22Z</time></trkpt><trkpt lat="46.0578392632" lon="6.9948071614"><ele>1287.34</ele><time>2014-09-02T12:20:23Z</time></trkpt><trkpt lat="46.0578297917" lon="6.9948212430"><ele>1287.34</ele><time>2014-09-02T12:20:24Z</time></trkpt><trkpt lat="46.0578169674" lon="6.9948347379"><ele>1287.82</ele><time>2014-09-02T12:20:25Z</time></trkpt><trkpt lat="46.0578022990" lon="6.9948509987"><ele>1287.34</ele><time>2014-09-02T12:20:26Z</time></trkpt><trkpt lat="46.0576497484" lon="6.9950026274"><ele>1289.75</ele><time>2014-09-02T12:20:36Z</time></trkpt><trkpt lat="46.0576329008" lon="6.9950217381"><ele>1290.23</ele><time>2014-09-02T12:20:37Z</time></trkpt><trkpt lat="46.0576213337" lon="6.9950374123"><ele>1290.23</ele><time>2014-09-02T12:20:38Z</time></trkpt><trkpt lat="46.0576049890" lon="6.9950459618"><ele>1290.71</ele><time>2014-09-02T12:20:39Z</time></trkpt><trkpt lat="46.0575877223" lon="6.9950581994"><ele>1290.71</ele><time>2014-09-02T12:20:40Z</time></trkpt><trkpt lat="46.0575733893" lon="6.9950708561"><ele>1290.71</ele><time>2014-09-02T12:20:41Z</time></trkpt><trkpt lat="46.0573676974" lon="6.9952918869"><ele>1292.63</ele><time>2014-09-02T12:20:56Z</time></trkpt><trkpt lat="46.0572033282" lon="6.9954545796"><ele>1295.51</ele><time>2014-09-02T12:21:08Z</time></trkpt><trkpt lat="46.0570553876" lon="6.9956112374"><ele>1297.44</ele><time>2014-09-02T12:21:19Z</time></trkpt><trkpt lat="46.0570107121" lon="6.9956511352"><ele>1297.44</ele><time>2014-09-02T12:21:22Z</time></trkpt><trkpt lat="46.0569984745" lon="6.9956622832"><ele>1297.92</ele><time>2014-09-02T12:21:23Z</time></trkpt><trkpt lat="46.0569822975" lon="6.9956737664"><ele>1297.92</ele><time>2014-09-02T12:21:24Z</time></trkpt><trkpt lat="46.0569682997" lon="6.9956861716"><ele>1298.40</ele><time>2014-09-02T12:21:25Z</time></trkpt><trkpt lat="46.0569546372" lon="6.9957020972"><ele>1297.92</ele><time>2014-09-02T12:21:26Z</time></trkpt><trkpt lat="46.0568503663" lon="6.9958278257"><ele>1297.92</ele><time>2014-09-02T12:21:35Z</time></trkpt><trkpt lat="46.0568348598" lon="6.9958408177"><ele>1298.40</ele><time>2014-09-02T12:21:36Z</time></trkpt><trkpt lat="46.0568205267" lon="6.9958561566"><ele>1298.88</ele><time>2014-09-02T12:21:37Z</time></trkpt><trkpt lat="46.0566910263" lon="6.9959543925"><ele>1299.36</ele><time>2014-09-02T12:21:47Z</time></trkpt><trkpt lat="46.0566787887" lon="6.9959526323"><ele>1299.36</ele><time>2014-09-02T12:21:48Z</time></trkpt><trkpt lat="46.0566828959" lon="6.9959845673"><ele>1299.36</ele><time>2014-09-02T12:22:00Z</time></trkpt><trkpt lat="46.0566616897" lon="6.9959678873"><ele>1299.84</ele><time>2014-09-02T12:22:13Z</time></trkpt><trkpt lat="46.0566785373" lon="6.9959707372"><ele>1296.96</ele><time>2014-09-02T12:22:46Z</time></trkpt><trkpt lat="46.0566473566" lon="6.9959720783"><ele>1296.96</ele><time>2014-09-02T12:23:10Z</time></trkpt><trkpt lat="46.0565195326" lon="6.9960253034"><ele>1298.40</ele><time>2014-09-02T12:23:21Z</time></trkpt><trkpt lat="46.0563286766" lon="6.9960256387"><ele>1301.76</ele><time>2014-09-02T12:23:32Z</time></trkpt><trkpt lat="46.0561059695" lon="6.9959854893"><ele>1304.17</ele><time>2014-09-02T12:23:45Z</time></trkpt><trkpt lat="46.0560881160" lon="6.9959859923"><ele>1304.17</ele><time>2014-09-02T12:23:46Z</time></trkpt><trkpt lat="46.0558175482" lon="6.9959734194"><ele>1306.09</ele><time>2014-09-02T12:24:01Z</time></trkpt><trkpt lat="46.0557880439" lon="6.9959746767"><ele>1306.09</ele><time>2014-09-02T12:24:03Z</time></trkpt><trkpt lat="46.0557750519" lon="6.9959774427"><ele>1305.61</ele><time>2014-09-02T12:24:04Z</time></trkpt><trkpt lat="46.0557608865" lon="6.9959763531"><ele>1305.61</ele><time>2014-09-02T12:24:05Z</time></trkpt><trkpt lat="46.0557457991" lon="6.9959781133"><ele>1305.61</ele><time>2014-09-02T12:24:06Z</time></trkpt><trkpt lat="46.0557302926" lon="6.9959818013"><ele>1305.13</ele><time>2014-09-02T12:24:07Z</time></trkpt><trkpt lat="46.0557145346" lon="6.9959902670"><ele>1305.13</ele><time>2014-09-02T12:24:08Z</time></trkpt><trkpt lat="46.0556988604" lon="6.9959985651"><ele>1304.65</ele><time>2014-09-02T12:24:09Z</time></trkpt><trkpt lat="46.0556837730" lon="6.9960083719"><ele>1304.65</ele><time>2014-09-02T12:24:10Z</time></trkpt><trkpt lat="46.0556692723" lon="6.9960178435"><ele>1304.65</ele><time>2014-09-02T12:24:11Z</time></trkpt><trkpt lat="46.0556535982" lon="6.9960271474"><ele>1304.65</ele><time>2014-09-02T12:24:12Z</time></trkpt><trkpt lat="46.0555766523" lon="6.9960717391"><ele>1305.13</ele><time>2014-09-02T12:24:17Z</time></trkpt><trkpt lat="46.0555608105" lon="6.9960703980"><ele>1305.61</ele><time>2014-09-02T12:24:18Z</time></trkpt><trkpt lat="46.0555453878" lon="6.9960757624"><ele>1305.61</ele><time>2014-09-02T12:24:19Z</time></trkpt><trkpt lat="46.0553028993" lon="6.9961840566"><ele>1308.49</ele><time>2014-09-02T12:24:34Z</time></trkpt><trkpt lat="46.0550451558" lon="6.9962779339"><ele>1311.38</ele><time>2014-09-02T12:24:50Z</time></trkpt><trkpt lat="46.0547589138" lon="6.9962881599"><ele>1313.30</ele><time>2014-09-02T12:25:06Z</time></trkpt><trkpt lat="46.0545642860" lon="6.9962777663"><ele>1315.22</ele><time>2014-09-02T12:25:19Z</time></trkpt><trkpt lat="46.0545509588" lon="6.9962724019"><ele>1315.70</ele><time>2014-09-02T12:25:20Z</time></trkpt><trkpt lat="46.0545357037" lon="6.9962684624"><ele>1315.70</ele><time>2014-09-02T12:25:21Z</time></trkpt><trkpt lat="46.0545203649" lon="6.9962675404"><ele>1315.70</ele><time>2014-09-02T12:25:22Z</time></trkpt><trkpt lat="46.0545040201" lon="6.9962659478"><ele>1315.70</ele><time>2014-09-02T12:25:23Z</time></trkpt><trkpt lat="46.0544884298" lon="6.9962663669"><ele>1315.70</ele><time>2014-09-02T12:25:24Z</time></trkpt><trkpt lat="46.0544737615" lon="6.9962652773"><ele>1315.22</ele><time>2014-09-02T12:25:25Z</time></trkpt><trkpt lat="46.0544591770" lon="6.9962653611"><ele>1315.22</ele><time>2014-09-02T12:25:26Z</time></trkpt><trkpt lat="46.0544440895" lon="6.9962672051"><ele>1315.22</ele><time>2014-09-02T12:25:27Z</time></trkpt><trkpt lat="46.0544279963" lon="6.9962636847"><ele>1315.22</ele><time>2014-09-02T12:25:28Z</time></trkpt><trkpt lat="46.0544119868" lon="6.9962615054"><ele>1315.22</ele><time>2014-09-02T12:25:29Z</time></trkpt><trkpt lat="46.0543963965" lon="6.9962569792"><ele>1315.22</ele><time>2014-09-02T12:25:30Z</time></trkpt><trkpt lat="46.0541840829" lon="6.9962143991"><ele>1318.59</ele><time>2014-09-02T12:25:43Z</time></trkpt><trkpt lat="46.0539426003" lon="6.9961696398"><ele>1319.07</ele><time>2014-09-02T12:25:59Z</time></trkpt><trkpt lat="46.0536862817" lon="6.9961101282"><ele>1323.39</ele><time>2014-09-02T12:26:15Z</time></trkpt><trkpt lat="46.0536248423" lon="6.9960903469"><ele>1324.35</ele><time>2014-09-02T12:26:19Z</time></trkpt><trkpt lat="46.0536114313" lon="6.9960866589"><ele>1324.83</ele><time>2014-09-02T12:26:20Z</time></trkpt><trkpt lat="46.0535965953" lon="6.9960815459"><ele>1325.31</ele><time>2014-09-02T12:26:21Z</time></trkpt><trkpt lat="46.0532806814" lon="6.9960257225"><ele>1327.72</ele><time>2014-09-02T12:26:41Z</time></trkpt><trkpt lat="46.0530635901" lon="6.9960053544"><ele>1327.24</ele><time>2014-09-02T12:26:55Z</time></trkpt><trkpt lat="46.0528011527" lon="6.9960050192"><ele>1327.72</ele><time>2014-09-02T12:27:12Z</time></trkpt><trkpt lat="46.0525714885" lon="6.9960647821"><ele>1329.64</ele><time>2014-09-02T12:27:27Z</time></trkpt><trkpt lat="46.0525324289" lon="6.9960642792"><ele>1330.12</ele><time>2014-09-02T12:27:38Z</time></trkpt><trkpt lat="46.0525265615" lon="6.9960682187"><ele>1334.45</ele><time>2014-09-02T12:28:07Z</time></trkpt><trkpt lat="46.0525387991" lon="6.9960641116"><ele>1329.16</ele><time>2014-09-02T12:28:31Z</time></trkpt><trkpt lat="46.0525015835" lon="6.9961209409"><ele>1330.60</ele><time>2014-09-02T12:28:53Z</time></trkpt><trkpt lat="46.0524341930" lon="6.9961504452"><ele>1331.08</ele><time>2014-09-02T12:28:58Z</time></trkpt><trkpt lat="46.0524190217" lon="6.9961594138"><ele>1331.56</ele><time>2014-09-02T12:28:59Z</time></trkpt><trkpt lat="46.0523988213" lon="6.9961662032"><ele>1331.56</ele><time>2014-09-02T12:29:00Z</time></trkpt><trkpt lat="46.0523821414" lon="6.9961711485"><ele>1331.56</ele><time>2014-09-02T12:29:01Z</time></trkpt><trkpt lat="46.0523692332" lon="6.9961785246"><ele>1331.56</ele><time>2014-09-02T12:29:02Z</time></trkpt><trkpt lat="46.0523548163" lon="6.9961869903"><ele>1332.04</ele><time>2014-09-02T12:29:03Z</time></trkpt><trkpt lat="46.0523378849" lon="6.9961926900"><ele>1332.52</ele><time>2014-09-02T12:29:04Z</time></trkpt><trkpt lat="46.0523184389" lon="6.9961995631"><ele>1332.52</ele><time>2014-09-02T12:29:05Z</time></trkpt><trkpt lat="46.0520871822" lon="6.9963450730"><ele>1335.89</ele><time>2014-09-02T12:29:19Z</time></trkpt><trkpt lat="46.0518097412" lon="6.9965437241"><ele>1341.66</ele><time>2014-09-02T12:29:36Z</time></trkpt><trkpt lat="46.0515286960" lon="6.9967411179"><ele>1344.06</ele><time>2014-09-02T12:29:54Z</time></trkpt><trkpt lat="46.0512655042" lon="6.9968321454"><ele>1346.94</ele><time>2014-09-02T12:30:10Z</time></trkpt><trkpt lat="46.0510008875" lon="6.9968597218"><ele>1350.31</ele><time>2014-09-02T12:30:26Z</time></trkpt><trkpt lat="46.0506923497" lon="6.9968486577"><ele>1354.63</ele><time>2014-09-02T12:30:45Z</time></trkpt><trkpt lat="46.0504403897" lon="6.9967563730"><ele>1356.56</ele><time>2014-09-02T12:31:01Z</time></trkpt><trkpt lat="46.0503762681" lon="6.9967431296"><ele>1357.04</ele><time>2014-09-02T12:31:05Z</time></trkpt><trkpt lat="46.0503636114" lon="6.9967397768"><ele>1357.52</ele><time>2014-09-02T12:31:06Z</time></trkpt><trkpt lat="46.0503492784" lon="6.9967370108"><ele>1357.52</ele><time>2014-09-02T12:31:07Z</time></trkpt><trkpt lat="46.0503346939" lon="6.9967352506"><ele>1357.52</ele><time>2014-09-02T12:31:08Z</time></trkpt><trkpt lat="46.0503203608" lon="6.9967334904"><ele>1357.04</ele><time>2014-09-02T12:31:09Z</time></trkpt><trkpt lat="46.0503041837" lon="6.9967299700"><ele>1357.04</ele><time>2014-09-02T12:31:10Z</time></trkpt><trkpt lat="46.0502911918" lon="6.9967224263"><ele>1356.08</ele><time>2014-09-02T12:31:11Z</time></trkpt><trkpt lat="46.0502783675" lon="6.9967222586"><ele>1356.08</ele><time>2014-09-02T12:31:12Z</time></trkpt><trkpt lat="46.0502632800" lon="6.9967256114"><ele>1356.08</ele><time>2014-09-02T12:31:13Z</time></trkpt><trkpt lat="46.0502471030" lon="6.9967230130"><ele>1356.08</ele><time>2014-09-02T12:31:14Z</time></trkpt><trkpt lat="46.0501515493" lon="6.9967191573"><ele>1356.08</ele><time>2014-09-02T12:31:21Z</time></trkpt><trkpt lat="46.0501351207" lon="6.9967192411"><ele>1356.08</ele><time>2014-09-02T12:31:22Z</time></trkpt><trkpt lat="46.0501202848" lon="6.9967238512"><ele>1356.56</ele><time>2014-09-02T12:31:23Z</time></trkpt><trkpt lat="46.0501081310" lon="6.9967286289"><ele>1356.56</ele><time>2014-09-02T12:31:24Z</time></trkpt><trkpt lat="46.0500979051" lon="6.9967308920"><ele>1357.04</ele><time>2014-09-02T12:31:25Z</time></trkpt><trkpt lat="46.0500851646" lon="6.9967373461"><ele>1357.04</ele><time>2014-09-02T12:31:26Z</time></trkpt><trkpt lat="46.0500733461" lon="6.9967455603"><ele>1357.52</ele><time>2014-09-02T12:31:27Z</time></trkpt><trkpt lat="46.0500589292" lon="6.9967498351"><ele>1358.00</ele><time>2014-09-02T12:31:28Z</time></trkpt><trkpt lat="46.0500448477" lon="6.9967538584"><ele>1358.48</ele><time>2014-09-02T12:31:29Z</time></trkpt><trkpt lat="46.0498654749" lon="6.9968723785"><ele>1361.36</ele><time>2014-09-02T12:31:42Z</time></trkpt><trkpt lat="46.0496584419" lon="6.9969903957"><ele>1362.81</ele><time>2014-09-02T12:31:54Z</time></trkpt><trkpt lat="46.0494778119" lon="6.9970540982"><ele>1363.29</ele><time>2014-09-02T12:32:07Z</time></trkpt><trkpt lat="46.0493847728" lon="6.9970688503"><ele>1362.81</ele><time>2014-09-02T12:32:13Z</time></trkpt><trkpt lat="46.0493670870" lon="6.9970728736"><ele>1362.81</ele><time>2014-09-02T12:32:14Z</time></trkpt><trkpt lat="46.0493509937" lon="6.9970772322"><ele>1362.81</ele><time>2014-09-02T12:32:15Z</time></trkpt><trkpt lat="46.0493366607" lon="6.9970794115"><ele>1362.81</ele><time>2014-09-02T12:32:16Z</time></trkpt><trkpt lat="46.0493201483" lon="6.9970788248"><ele>1363.29</ele><time>2014-09-02T12:32:17Z</time></trkpt><trkpt lat="46.0493033845" lon="6.9970781542"><ele>1362.81</ele><time>2014-09-02T12:32:18Z</time></trkpt><trkpt lat="46.0492871236" lon="6.9970782381"><ele>1362.81</ele><time>2014-09-02T12:32:19Z</time></trkpt><trkpt lat="46.0492705274" lon="6.9970820937"><ele>1363.29</ele><time>2014-09-02T12:32:20Z</time></trkpt><trkpt lat="46.0492550209" lon="6.9970871229"><ele>1363.29</ele><time>2014-09-02T12:32:21Z</time></trkpt><trkpt lat="46.0492398497" lon="6.9970929902"><ele>1363.29</ele><time>2014-09-02T12:32:22Z</time></trkpt><trkpt lat="46.0492256843" lon="6.9970995281"><ele>1363.29</ele><time>2014-09-02T12:32:23Z</time></trkpt><trkpt lat="46.0492131952" lon="6.9970996957"><ele>1363.29</ele><time>2014-09-02T12:32:24Z</time></trkpt><trkpt lat="46.0489773285" lon="6.9970611390"><ele>1367.61</ele><time>2014-09-02T12:32:40Z</time></trkpt><trkpt lat="46.0489615705" lon="6.9970608037"><ele>1367.13</ele><time>2014-09-02T12:32:41Z</time></trkpt><trkpt lat="46.0489465669" lon="6.9970539305"><ele>1367.61</ele><time>2014-09-02T12:32:42Z</time></trkpt><trkpt lat="46.0489313956" lon="6.9970483147"><ele>1367.61</ele><time>2014-09-02T12:32:43Z</time></trkpt><trkpt lat="46.0489164758" lon="6.9970443752"><ele>1367.61</ele><time>2014-09-02T12:32:44Z</time></trkpt><trkpt lat="46.0489027295" lon="6.9970410224"><ele>1367.61</ele><time>2014-09-02T12:32:45Z</time></trkpt><trkpt lat="46.0488877259" lon="6.9970387593"><ele>1367.61</ele><time>2014-09-02T12:32:46Z</time></trkpt><trkpt lat="46.0488739796" lon="6.9970323052"><ele>1367.61</ele><time>2014-09-02T12:32:47Z</time></trkpt><trkpt lat="46.0488629993" lon="6.9970263541"><ele>1368.09</ele><time>2014-09-02T12:32:48Z</time></trkpt><trkpt lat="46.0488521028" lon="6.9970233366"><ele>1367.61</ele><time>2014-09-02T12:32:49Z</time></trkpt><trkpt lat="46.0488386080" lon="6.9970200676"><ele>1367.61</ele><time>2014-09-02T12:32:50Z</time></trkpt><trkpt lat="46.0488223471" lon="6.9970192295"><ele>1367.61</ele><time>2014-09-02T12:32:51Z</time></trkpt><trkpt lat="46.0488074273" lon="6.9970239233"><ele>1367.61</ele><time>2014-09-02T12:32:52Z</time></trkpt><trkpt lat="46.0485651065" lon="6.9970514998"><ele>1369.54</ele><time>2014-09-02T12:33:08Z</time></trkpt><trkpt lat="46.0484193452" lon="6.9971066527"><ele>1370.50</ele><time>2014-09-02T12:33:20Z</time></trkpt><trkpt lat="46.0483826324" lon="6.9971149508"><ele>1370.98</ele><time>2014-09-02T12:33:23Z</time></trkpt><trkpt lat="46.0483745020" lon="6.9971167110"><ele>1370.98</ele><time>2014-09-02T12:33:24Z</time></trkpt><trkpt lat="46.0483272281" lon="6.9971264340"><ele>1369.05</ele><time>2014-09-02T12:33:36Z</time></trkpt><trkpt lat="46.0483299103" lon="6.9971737079"><ele>1372.42</ele><time>2014-09-02T12:33:55Z</time></trkpt><trkpt lat="46.0482792836" lon="6.9971763901"><ele>1382.51</ele><time>2014-09-02T12:34:14Z</time></trkpt><trkpt lat="46.0482699797" lon="6.9971659128"><ele>1387.80</ele><time>2014-09-02T12:34:32Z</time></trkpt><trkpt lat="46.0482717399" lon="6.9971048925"><ele>1389.72</ele><time>2014-09-02T12:34:48Z</time></trkpt><trkpt lat="46.0482950415" lon="6.9971110113"><ele>1390.68</ele><time>2014-09-02T12:35:09Z</time></trkpt><trkpt lat="46.0483099613" lon="6.9971261825"><ele>1393.09</ele><time>2014-09-02T12:35:29Z</time></trkpt><trkpt lat="46.0483223666" lon="6.9970648270"><ele>1397.41</ele><time>2014-09-02T12:35:46Z</time></trkpt><trkpt lat="46.0483138170" lon="6.9970400166"><ele>1396.93</ele><time>2014-09-02T12:36:05Z</time></trkpt><trkpt lat="46.0483077820" lon="6.9970221631"><ele>1394.53</ele><time>2014-09-02T12:36:30Z</time></trkpt><trkpt lat="46.0482723266" lon="6.9971004501"><ele>1389.24</ele><time>2014-09-02T12:36:52Z</time></trkpt><trkpt lat="46.0482786968" lon="6.9971361570"><ele>1391.17</ele><time>2014-09-02T12:37:14Z</time></trkpt><trkpt lat="46.0482822172" lon="6.9971421082"><ele>1396.45</ele><time>2014-09-02T12:37:38Z</time></trkpt><trkpt lat="46.0482591670" lon="6.9970989414"><ele>1394.53</ele><time>2014-09-02T12:38:05Z</time></trkpt><trkpt lat="46.0482527129" lon="6.9970771484"><ele>1390.20</ele><time>2014-09-02T12:38:26Z</time></trkpt><trkpt lat="46.0482380446" lon="6.9970834348"><ele>1389.72</ele><time>2014-09-02T12:38:29Z</time></trkpt><trkpt lat="46.0482263938" lon="6.9970923197"><ele>1389.24</ele><time>2014-09-02T12:38:30Z</time></trkpt><trkpt lat="46.0480380524" lon="6.9971212372"><ele>1385.88</ele><time>2014-09-02T12:38:43Z</time></trkpt><trkpt lat="46.0478276666" lon="6.9971628953"><ele>1387.80</ele><time>2014-09-02T12:38:57Z</time></trkpt><trkpt lat="46.0477591865" lon="6.9971762225"><ele>1387.80</ele><time>2014-09-02T12:39:01Z</time></trkpt><trkpt lat="46.0477446020" lon="6.9971771445"><ele>1387.80</ele><time>2014-09-02T12:39:02Z</time></trkpt><trkpt lat="46.0477326997" lon="6.9971762225"><ele>1387.80</ele><time>2014-09-02T12:39:03Z</time></trkpt><trkpt lat="46.0477154329" lon="6.9971761387"><ele>1387.80</ele><time>2014-09-02T12:39:04Z</time></trkpt><trkpt lat="46.0476935562" lon="6.9971785694"><ele>1387.80</ele><time>2014-09-02T12:39:05Z</time></trkpt><trkpt lat="46.0474799853" lon="6.9971631467"><ele>1392.61</ele><time>2014-09-02T12:39:18Z</time></trkpt><trkpt lat="46.0472233314" lon="6.9971229974"><ele>1396.45</ele><time>2014-09-02T12:39:33Z</time></trkpt><trkpt lat="46.0469554458" lon="6.9971268531"><ele>1399.34</ele><time>2014-09-02T12:39:48Z</time></trkpt><trkpt lat="46.0467241053" lon="6.9971690141"><ele>1400.78</ele><time>2014-09-02T12:40:02Z</time></trkpt><trkpt lat="46.0464571416" lon="6.9972509053"><ele>1400.78</ele><time>2014-09-02T12:40:18Z</time></trkpt><trkpt lat="46.0462093726" lon="6.9972879533"><ele>1405.10</ele><time>2014-09-02T12:40:33Z</time></trkpt><trkpt lat="46.0459561553" lon="6.9973605406"><ele>1404.62</ele><time>2014-09-02T12:40:47Z</time></trkpt><trkpt lat="46.0458910279" lon="6.9973860215"><ele>1405.10</ele><time>2014-09-02T12:40:52Z</time></trkpt><trkpt lat="46.0456485394" lon="6.9974545017"><ele>1406.55</ele><time>2014-09-02T12:41:07Z</time></trkpt><trkpt lat="46.0453502275" lon="6.9974821620"><ele>1407.51</ele><time>2014-09-02T12:41:23Z</time></trkpt><trkpt lat="46.0452172067" lon="6.9974751212"><ele>1407.99</ele><time>2014-09-02T12:41:30Z</time></trkpt><trkpt lat="46.0452037957" lon="6.9974750374"><ele>1407.99</ele><time>2014-09-02T12:41:31Z</time></trkpt><trkpt lat="46.0451887920" lon="6.9974707626"><ele>1407.99</ele><time>2014-09-02T12:41:32Z</time></trkpt><trkpt lat="46.0451723635" lon="6.9974717684"><ele>1407.99</ele><time>2014-09-02T12:41:33Z</time></trkpt><trkpt lat="46.0451561864" lon="6.9974737801"><ele>1408.47</ele><time>2014-09-02T12:41:34Z</time></trkpt><trkpt lat="46.0451420210" lon="6.9974778872"><ele>1408.95</ele><time>2014-09-02T12:41:35Z</time></trkpt><trkpt lat="46.0451289453" lon="6.9974814914"><ele>1408.95</ele><time>2014-09-02T12:41:36Z</time></trkpt><trkpt lat="46.0450154543" lon="6.9975224789"><ele>1407.99</ele><time>2014-09-02T12:41:44Z</time></trkpt><trkpt lat="46.0450034682" lon="6.9975348841"><ele>1407.99</ele><time>2014-09-02T12:41:45Z</time></trkpt><trkpt lat="46.0449935775" lon="6.9975503907"><ele>1407.51</ele><time>2014-09-02T12:41:46Z</time></trkpt><trkpt lat="46.0449855309" lon="6.9975694176"><ele>1407.03</ele><time>2014-09-02T12:41:47Z</time></trkpt><trkpt lat="46.0449770652" lon="6.9975893665"><ele>1407.03</ele><time>2014-09-02T12:41:48Z</time></trkpt><trkpt lat="46.0449716169" lon="6.9976102374"><ele>1407.03</ele><time>2014-09-02T12:41:49Z</time></trkpt><trkpt lat="46.0449706111" lon="6.9976289291"><ele>1407.03</ele><time>2014-09-02T12:41:50Z</time></trkpt><trkpt lat="46.0449718684" lon="6.9976489618"><ele>1407.03</ele><time>2014-09-02T12:41:51Z</time></trkpt><trkpt lat="46.0451263469" lon="6.9978457689"><ele>1404.14</ele><time>2014-09-02T12:42:03Z</time></trkpt><trkpt lat="46.0451493971" lon="6.9978376385"><ele>1403.66</ele><time>2014-09-02T12:42:04Z</time></trkpt><trkpt lat="46.0451679211" lon="6.9978314359"><ele>1403.66</ele><time>2014-09-02T12:42:05Z</time></trkpt><trkpt lat="46.0453814920" lon="6.9977737684"><ele>1405.10</ele><time>2014-09-02T12:42:20Z</time></trkpt><trkpt lat="46.0453948192" lon="6.9977630395"><ele>1405.58</ele><time>2014-09-02T12:42:21Z</time></trkpt><trkpt lat="46.0454087332" lon="6.9977539871"><ele>1406.07</ele><time>2014-09-02T12:42:22Z</time></trkpt><trkpt lat="46.0456404928" lon="6.9977047853"><ele>1410.39</ele><time>2014-09-02T12:42:38Z</time></trkpt><trkpt lat="46.0458713304" lon="6.9976969063"><ele>1412.31</ele><time>2014-09-02T12:42:53Z</time></trkpt><trkpt lat="46.0460864939" lon="6.9977193698"><ele>1413.28</ele><time>2014-09-02T12:43:07Z</time></trkpt><trkpt lat="46.0463076085" lon="6.9977570046"><ele>1413.76</ele><time>2014-09-02T12:43:21Z</time></trkpt><trkpt lat="46.0464103706" lon="6.9977664761"><ele>1414.24</ele><time>2014-09-02T12:43:28Z</time></trkpt><trkpt lat="46.0464265477" lon="6.9977643806"><ele>1414.24</ele><time>2014-09-02T12:43:29Z</time></trkpt><trkpt lat="46.0464428924" lon="6.9977684040"><ele>1413.76</ele><time>2014-09-02T12:43:30Z</time></trkpt><trkpt lat="46.0464582313" lon="6.9977732655"><ele>1413.76</ele><time>2014-09-02T12:43:31Z</time></trkpt><trkpt lat="46.0465489235" lon="6.9977943879"><ele>1413.76</ele><time>2014-09-02T12:43:42Z</time></trkpt><trkpt lat="46.0465932637" lon="6.9978329446"><ele>1413.28</ele><time>2014-09-02T12:43:54Z</time></trkpt><trkpt lat="46.0465911683" lon="6.9978375547"><ele>1414.24</ele><time>2014-09-02T12:44:09Z</time></trkpt><trkpt lat="46.0465819482" lon="6.9978208747"><ele>1414.24</ele><time>2014-09-02T12:44:23Z</time></trkpt><trkpt lat="46.0466003045" lon="6.9978445955"><ele>1411.35</ele><time>2014-09-02T12:44:47Z</time></trkpt><trkpt lat="46.0465987120" lon="6.9978285860"><ele>1417.60</ele><time>2014-09-02T12:45:14Z</time></trkpt><trkpt lat="46.0465826187" lon="6.9978186954"><ele>1421.45</ele><time>2014-09-02T12:45:48Z</time></trkpt><trkpt lat="46.0465661902" lon="6.9978534803"><ele>1419.52</ele><time>2014-09-02T12:46:22Z</time></trkpt><trkpt lat="46.0465910006" lon="6.9978331961"><ele>1419.04</ele><time>2014-09-02T12:46:50Z</time></trkpt><trkpt lat="46.0466057528" lon="6.9978180248"><ele>1415.20</ele><time>2014-09-02T12:47:21Z</time></trkpt><trkpt lat="46.0465871450" lon="6.9978642929"><ele>1414.72</ele><time>2014-09-02T12:47:53Z</time></trkpt><trkpt lat="46.0465478338" lon="6.9978398178"><ele>1417.60</ele><time>2014-09-02T12:48:23Z</time></trkpt><trkpt lat="46.0465865582" lon="6.9978517201"><ele>1410.87</ele><time>2014-09-02T12:48:59Z</time></trkpt><trkpt lat="46.0465614963" lon="6.9978735130"><ele>1412.79</ele><time>2014-09-02T12:49:36Z</time></trkpt><trkpt lat="46.0465668608" lon="6.9978703279"><ele>1410.39</ele><time>2014-09-02T12:50:08Z</time></trkpt><trkpt lat="46.0465826187" lon="6.9978970662"><ele>1408.95</ele><time>2014-09-02T12:50:35Z</time></trkpt><trkpt lat="46.0466047470" lon="6.9978507981"><ele>1409.91</ele><time>2014-09-02T12:51:17Z</time></trkpt><trkpt lat="46.0465869773" lon="6.9978681486"><ele>1413.76</ele><time>2014-09-02T12:51:54Z</time></trkpt><trkpt lat="46.0465826187" lon="6.9978467748"><ele>1414.72</ele><time>2014-09-02T12:52:27Z</time></trkpt><trkpt lat="46.0465790145" lon="6.9978440925"><ele>1417.60</ele><time>2014-09-02T12:53:02Z</time></trkpt><trkpt lat="46.0465701297" lon="6.9978528935"><ele>1416.16</ele><time>2014-09-02T12:53:47Z</time></trkpt><trkpt lat="46.0465946048" lon="6.9978563301"><ele>1411.83</ele><time>2014-09-02T12:54:28Z</time></trkpt><trkpt lat="46.0465703811" lon="6.9978174381"><ele>1412.31</ele><time>2014-09-02T12:54:56Z</time></trkpt><trkpt lat="46.0465872288" lon="6.9978844095"><ele>1413.76</ele><time>2014-09-02T12:55:28Z</time></trkpt><trkpt lat="46.0465777572" lon="6.9978516363"><ele>1416.64</ele><time>2014-09-02T12:56:01Z</time></trkpt><trkpt lat="46.0465806909" lon="6.9977984112"><ele>1418.08</ele><time>2014-09-02T12:56:31Z</time></trkpt><trkpt lat="46.0465767514" lon="6.9978101458"><ele>1415.68</ele><time>2014-09-02T12:57:09Z</time></trkpt><trkpt lat="46.0465318244" lon="6.9977869280"><ele>1421.45</ele><time>2014-09-02T12:57:45Z</time></trkpt><trkpt lat="46.0465484206" lon="6.9977828208"><ele>1425.77</ele><time>2014-09-02T12:58:08Z</time></trkpt><trkpt lat="46.0465324949" lon="6.9978060387"><ele>1430.58</ele><time>2014-09-02T12:58:41Z</time></trkpt><trkpt lat="46.0465570539" lon="6.9978123251"><ele>1427.70</ele><time>2014-09-02T12:59:16Z</time></trkpt><trkpt lat="46.0465641785" lon="6.9978122413"><ele>1427.21</ele><time>2014-09-02T12:59:18Z</time></trkpt><trkpt lat="46.0467225965" lon="6.9977975730"><ele>1428.18</ele><time>2014-09-02T12:59:30Z</time></trkpt><trkpt lat="46.0469512548" lon="6.9978311006"><ele>1427.70</ele><time>2014-09-02T12:59:44Z</time></trkpt><trkpt lat="46.0470522568" lon="6.9978419133"><ele>1428.66</ele><time>2014-09-02T12:59:51Z</time></trkpt><trkpt lat="46.0470670927" lon="6.9978450984"><ele>1428.66</ele><time>2014-09-02T12:59:52Z</time></trkpt><trkpt lat="46.0470799170" lon="6.9978495408"><ele>1428.66</ele><time>2014-09-02T12:59:53Z</time></trkpt><trkpt lat="46.0470906459" lon="6.9978527259"><ele>1428.66</ele><time>2014-09-02T12:59:54Z</time></trkpt><trkpt lat="46.0471012909" lon="6.9978561625"><ele>1429.14</ele><time>2014-09-02T12:59:55Z</time></trkpt><trkpt lat="46.0471144505" lon="6.9978626166"><ele>1429.14</ele><time>2014-09-02T12:59:56Z</time></trkpt><trkpt lat="46.0471279453" lon="6.9978668913"><ele>1429.62</ele><time>2014-09-02T12:59:57Z</time></trkpt><trkpt lat="46.0471403506" lon="6.9978735130"><ele>1429.62</ele><time>2014-09-02T12:59:58Z</time></trkpt><trkpt lat="46.0471539292" lon="6.9978770334"><ele>1430.10</ele><time>2014-09-02T12:59:59Z</time></trkpt><trkpt lat="46.0471690167" lon="6.9978784584"><ele>1430.10</ele><time>2014-09-02T13:00:00Z</time></trkpt><trkpt lat="46.0471830145" lon="6.9978849962"><ele>1430.58</ele><time>2014-09-02T13:00:01Z</time></trkpt><trkpt lat="46.0471954197" lon="6.9978928752"><ele>1430.58</ele><time>2014-09-02T13:00:02Z</time></trkpt><trkpt lat="46.0472089984" lon="6.9978984911"><ele>1430.58</ele><time>2014-09-02T13:00:03Z</time></trkpt><trkpt lat="46.0472224094" lon="6.9979011733"><ele>1430.58</ele><time>2014-09-02T13:00:04Z</time></trkpt><trkpt lat="46.0472349823" lon="6.9979034364"><ele>1430.58</ele><time>2014-09-02T13:00:05Z</time></trkpt><trkpt lat="46.0472484771" lon="6.9979062025"><ele>1430.58</ele><time>2014-09-02T13:00:06Z</time></trkpt><trkpt lat="46.0472711083" lon="6.9979111478"><ele>1431.06</ele><time>2014-09-02T13:00:08Z</time></trkpt><trkpt lat="46.0472851899" lon="6.9979129918"><ele>1431.06</ele><time>2014-09-02T13:00:09Z</time></trkpt><trkpt lat="46.0473980941" lon="6.9979572482"><ele>1432.98</ele><time>2014-09-02T13:00:18Z</time></trkpt><trkpt lat="46.0474133492" lon="6.9979612716"><ele>1432.98</ele><time>2014-09-02T13:00:19Z</time></trkpt><trkpt lat="46.0474669095" lon="6.9979782030"><ele>1433.94</ele><time>2014-09-02T13:00:23Z</time></trkpt><trkpt lat="46.0475935601" lon="6.9979921170"><ele>1436.83</ele><time>2014-09-02T13:00:33Z</time></trkpt><trkpt lat="46.0476384033" lon="6.9980056956"><ele>1438.27</ele><time>2014-09-02T13:00:36Z</time></trkpt><trkpt lat="46.0476524848" lon="6.9980173465"><ele>1438.27</ele><time>2014-09-02T13:00:37Z</time></trkpt><trkpt lat="46.0477313586" lon="6.9980460964"><ele>1439.71</ele><time>2014-09-02T13:00:42Z</time></trkpt><trkpt lat="46.0477462783" lon="6.9980466831"><ele>1439.71</ele><time>2014-09-02T13:00:43Z</time></trkpt><trkpt lat="46.0477582645" lon="6.9980511256"><ele>1439.71</ele><time>2014-09-02T13:00:44Z</time></trkpt><trkpt lat="46.0478979070" lon="6.9981070329"><ele>1441.15</ele><time>2014-09-02T13:00:55Z</time></trkpt><trkpt lat="46.0479105636" lon="6.9981129840"><ele>1441.15</ele><time>2014-09-02T13:00:56Z</time></trkpt><trkpt lat="46.0480809677" lon="6.9981764350"><ele>1442.11</ele><time>2014-09-02T13:01:07Z</time></trkpt><trkpt lat="46.0480904393" lon="6.9981908519"><ele>1442.11</ele><time>2014-09-02T13:01:08Z</time></trkpt><trkpt lat="46.0481025092" lon="6.9981982280"><ele>1442.11</ele><time>2014-09-02T13:01:09Z</time></trkpt><trkpt lat="46.0481164232" lon="6.9982044306"><ele>1442.11</ele><time>2014-09-02T13:01:10Z</time></trkpt><trkpt lat="46.0481298342" lon="6.9982108846"><ele>1442.60</ele><time>2014-09-02T13:01:11Z</time></trkpt><trkpt lat="46.0481424909" lon="6.9982163329"><ele>1443.08</ele><time>2014-09-02T13:01:12Z</time></trkpt><trkpt lat="46.0482283216" lon="6.9982626848"><ele>1446.92</ele><time>2014-09-02T13:01:26Z</time></trkpt><trkpt lat="46.0482646991" lon="6.9982569851"><ele>1446.44</ele><time>2014-09-02T13:01:46Z</time></trkpt><trkpt lat="46.0482904315" lon="6.9983040914"><ele>1443.08</ele><time>2014-09-02T13:02:17Z</time></trkpt><trkpt lat="46.0483128112" lon="6.9982981402"><ele>1442.11</ele><time>2014-09-02T13:02:28Z</time></trkpt><trkpt lat="46.0483255517" lon="6.9982973021"><ele>1442.60</ele><time>2014-09-02T13:02:29Z</time></trkpt><trkpt lat="46.0483371187" lon="6.9982978050"><ele>1442.60</ele><time>2014-09-02T13:02:30Z</time></trkpt><trkpt lat="46.0483489372" lon="6.9983006548"><ele>1443.08</ele><time>2014-09-02T13:02:31Z</time></trkpt><trkpt lat="46.0483631026" lon="6.9983052649"><ele>1443.56</ele><time>2014-09-02T13:02:32Z</time></trkpt><trkpt lat="46.0483727418" lon="6.9983105455"><ele>1443.56</ele><time>2014-09-02T13:02:33Z</time></trkpt><trkpt lat="46.0483826324" lon="6.9983177539"><ele>1444.04</ele><time>2014-09-02T13:02:34Z</time></trkpt><trkpt lat="46.0483933613" lon="6.9983210228"><ele>1444.04</ele><time>2014-09-02T13:02:35Z</time></trkpt><trkpt lat="46.0484066047" lon="6.9983263034"><ele>1444.04</ele><time>2014-09-02T13:02:36Z</time></trkpt><trkpt lat="46.0484190937" lon="6.9983339310"><ele>1444.52</ele><time>2014-09-02T13:02:37Z</time></trkpt><trkpt lat="46.0486315750" lon="6.9984223600"><ele>1448.36</ele><time>2014-09-02T13:02:52Z</time></trkpt><trkpt lat="46.0488685314" lon="6.9985124655"><ele>1452.69</ele><time>2014-09-02T13:03:08Z</time></trkpt><trkpt lat="46.0491359141" lon="6.9985346776"><ele>1457.50</ele><time>2014-09-02T13:03:25Z</time></trkpt><trkpt lat="46.0491508339" lon="6.9985289779"><ele>1457.98</ele><time>2014-09-02T13:03:26Z</time></trkpt><trkpt lat="46.0491678491" lon="6.9985301513"><ele>1458.46</ele><time>2014-09-02T13:03:27Z</time></trkpt><trkpt lat="46.0491846967" lon="6.9985324144"><ele>1458.94</ele><time>2014-09-02T13:03:28Z</time></trkpt><trkpt lat="46.0492004547" lon="6.9985330012"><ele>1458.94</ele><time>2014-09-02T13:03:29Z</time></trkpt><trkpt lat="46.0492157098" lon="6.9985263795"><ele>1459.42</ele><time>2014-09-02T13:03:30Z</time></trkpt><trkpt lat="46.0492327251" lon="6.9985256251"><ele>1459.42</ele><time>2014-09-02T13:03:31Z</time></trkpt><trkpt lat="46.0492496565" lon="6.9985278044"><ele>1459.42</ele><time>2014-09-02T13:03:32Z</time></trkpt><trkpt lat="46.0492637381" lon="6.9985226076"><ele>1459.42</ele><time>2014-09-02T13:03:33Z</time></trkpt><trkpt lat="46.0492787417" lon="6.9985154830"><ele>1459.90</ele><time>2014-09-02T13:03:34Z</time></trkpt><trkpt lat="46.0492933262" lon="6.9985100348"><ele>1459.90</ele><time>2014-09-02T13:03:35Z</time></trkpt><trkpt lat="46.0493081622" lon="6.9985050056"><ele>1459.90</ele><time>2014-09-02T13:03:36Z</time></trkpt><trkpt lat="46.0493224952" lon="6.9985017367"><ele>1459.90</ele><time>2014-09-02T13:03:37Z</time></trkpt><trkpt lat="46.0495598707" lon="6.9984372798"><ele>1461.34</ele><time>2014-09-02T13:03:52Z</time></trkpt><trkpt lat="46.0497674067" lon="6.9986000564"><ele>1461.34</ele><time>2014-09-02T13:04:06Z</time></trkpt><trkpt lat="46.0499528982" lon="6.9988379348"><ele>1460.86</ele><time>2014-09-02T13:04:22Z</time></trkpt><trkpt lat="46.0501243081" lon="6.9989456423"><ele>1460.86</ele><time>2014-09-02T13:04:35Z</time></trkpt><trkpt lat="46.0503222886" lon="6.9989158027"><ele>1463.26</ele><time>2014-09-02T13:04:48Z</time></trkpt><trkpt lat="46.0505139828" lon="6.9988610689"><ele>1466.15</ele><time>2014-09-02T13:05:03Z</time></trkpt><trkpt lat="46.0507656075" lon="6.9988489151"><ele>1465.19</ele><time>2014-09-02T13:05:18Z</time></trkpt><trkpt lat="46.0508541204" lon="6.9988791738"><ele>1465.67</ele><time>2014-09-02T13:05:24Z</time></trkpt><trkpt lat="46.0508675314" lon="6.9988885615"><ele>1465.67</ele><time>2014-09-02T13:05:25Z</time></trkpt><trkpt lat="46.0510127060" lon="6.9989958499"><ele>1467.11</ele><time>2014-09-02T13:05:37Z</time></trkpt><trkpt lat="46.0510225967" lon="6.9990104344"><ele>1467.11</ele><time>2014-09-02T13:05:38Z</time></trkpt><trkpt lat="46.0510335770" lon="6.9990219176"><ele>1467.11</ele><time>2014-09-02T13:05:39Z</time></trkpt><trkpt lat="46.0512219183" lon="6.9991808385"><ele>1468.55</ele><time>2014-09-02T13:05:54Z</time></trkpt><trkpt lat="46.0513404384" lon="6.9992731232"><ele>1469.03</ele><time>2014-09-02T13:06:03Z</time></trkpt><trkpt lat="46.0513531789" lon="6.9992774818"><ele>1469.51</ele><time>2014-09-02T13:06:04Z</time></trkpt><trkpt lat="46.0513674282" lon="6.9992812537"><ele>1469.51</ele><time>2014-09-02T13:06:05Z</time></trkpt><trkpt lat="46.0513805039" lon="6.9992830139"><ele>1469.99</ele><time>2014-09-02T13:06:06Z</time></trkpt><trkpt lat="46.0513948370" lon="6.9992893841"><ele>1470.47</ele><time>2014-09-02T13:06:07Z</time></trkpt><trkpt lat="46.0514076613" lon="6.9993007835"><ele>1470.47</ele><time>2014-09-02T13:06:08Z</time></trkpt><trkpt lat="46.0514210723" lon="6.9993111771"><ele>1470.95</ele><time>2014-09-02T13:06:09Z</time></trkpt><trkpt lat="46.0514336452" lon="6.9993212353"><ele>1470.95</ele><time>2014-09-02T13:06:10Z</time></trkpt><trkpt lat="46.0514502414" lon="6.9993319642"><ele>1470.95</ele><time>2014-09-02T13:06:11Z</time></trkpt><trkpt lat="46.0514691006" lon="6.9993405975"><ele>1470.95</ele><time>2014-09-02T13:06:12Z</time></trkpt><trkpt lat="46.0516597051" lon="6.9994593691"><ele>1473.84</ele><time>2014-09-02T13:06:25Z</time></trkpt><trkpt lat="46.0518647265" lon="6.9995187968"><ele>1478.16</ele><time>2014-09-02T13:06:40Z</time></trkpt><trkpt lat="46.0520519782" lon="6.9995618798"><ele>1482.49</ele><time>2014-09-02T13:06:53Z</time></trkpt><trkpt lat="46.0522512998" lon="6.9995666575"><ele>1488.74</ele><time>2014-09-02T13:07:08Z</time></trkpt><trkpt lat="46.0524327680" lon="6.9995153602"><ele>1495.47</ele><time>2014-09-02T13:07:24Z</time></trkpt><trkpt lat="46.0524753481" lon="6.9995193835"><ele>1496.43</ele><time>2014-09-02T13:07:27Z</time></trkpt><trkpt lat="46.0525518749" lon="6.9995631371"><ele>1495.95</ele><time>2014-09-02T13:07:34Z</time></trkpt><trkpt lat="46.0525657889" lon="6.9995716866"><ele>1495.95</ele><time>2014-09-02T13:07:35Z</time></trkpt><trkpt lat="46.0525775235" lon="6.9995751232"><ele>1495.47</ele><time>2014-09-02T13:07:36Z</time></trkpt><trkpt lat="46.0526390467" lon="6.9995835889"><ele>1494.51</ele><time>2014-09-02T13:07:42Z</time></trkpt><trkpt lat="46.0526816268" lon="6.9995982572"><ele>1493.06</ele><time>2014-09-02T13:07:53Z</time></trkpt><trkpt lat="46.0527273919" lon="6.9996078126"><ele>1491.14</ele><time>2014-09-02T13:08:22Z</time></trkpt><trkpt lat="46.0527275596" lon="6.9996338803"><ele>1487.30</ele><time>2014-09-02T13:09:06Z</time></trkpt><trkpt lat="46.0527215246" lon="6.9996605348"><ele>1491.14</ele><time>2014-09-02T13:09:41Z</time></trkpt><trkpt lat="46.0527910106" lon="6.9996799808"><ele>1490.66</ele><time>2014-09-02T13:09:48Z</time></trkpt><trkpt lat="46.0528126359" lon="6.9996772148"><ele>1491.14</ele><time>2014-09-02T13:09:49Z</time></trkpt><trkpt lat="46.0528253764" lon="6.9996756222"><ele>1491.14</ele><time>2014-09-02T13:09:50Z</time></trkpt><trkpt lat="46.0531256162" lon="6.9996187091"><ele>1493.06</ele><time>2014-09-02T13:10:07Z</time></trkpt><trkpt lat="46.0533897299" lon="6.9996672403"><ele>1493.55</ele><time>2014-09-02T13:10:22Z</time></trkpt><trkpt lat="46.0536326375" lon="6.9997016899"><ele>1498.35</ele><time>2014-09-02T13:10:38Z</time></trkpt><trkpt lat="46.0539073963" lon="6.9997555017"><ele>1503.64</ele><time>2014-09-02T13:10:55Z</time></trkpt><trkpt lat="46.0540878586" lon="6.9997372292"><ele>1507.97</ele><time>2014-09-02T13:11:07Z</time></trkpt><trkpt lat="46.0543864220" lon="6.9998313580"><ele>1511.81</ele><time>2014-09-02T13:11:26Z</time></trkpt><trkpt lat="46.0544702411" lon="6.9998294301"><ele>1512.29</ele><time>2014-09-02T13:11:32Z</time></trkpt><trkpt lat="46.0544832330" lon="6.9998255745"><ele>1512.29</ele><time>2014-09-02T13:11:33Z</time></trkpt><trkpt lat="46.0544966441" lon="6.9998262450"><ele>1512.29</ele><time>2014-09-02T13:11:34Z</time></trkpt><trkpt lat="46.0545102227" lon="6.9998269156"><ele>1512.29</ele><time>2014-09-02T13:11:35Z</time></trkpt><trkpt lat="46.0545253940" lon="6.9998287596"><ele>1512.29</ele><time>2014-09-02T13:11:36Z</time></trkpt><trkpt lat="46.0545433313" lon="6.9998300169"><ele>1512.77</ele><time>2014-09-02T13:11:37Z</time></trkpt><trkpt lat="46.0545594245" lon="6.9998295140"><ele>1512.77</ele><time>2014-09-02T13:11:38Z</time></trkpt><trkpt lat="46.0545730870" lon="6.9998330344"><ele>1512.77</ele><time>2014-09-02T13:11:39Z</time></trkpt><trkpt lat="46.0545890965" lon="6.9998383988"><ele>1512.77</ele><time>2014-09-02T13:11:40Z</time></trkpt><trkpt lat="46.0547888372" lon="6.9998038653"><ele>1512.77</ele><time>2014-09-02T13:11:54Z</time></trkpt><trkpt lat="46.0550054256" lon="6.9997869339"><ele>1509.89</ele><time>2014-09-02T13:12:10Z</time></trkpt><trkpt lat="46.0550452396" lon="6.9997848384"><ele>1510.37</ele><time>2014-09-02T13:12:13Z</time></trkpt><trkpt lat="46.0550588183" lon="6.9997802284"><ele>1510.37</ele><time>2014-09-02T13:12:14Z</time></trkpt><trkpt lat="46.0550743248" lon="6.9997783005"><ele>1510.37</ele><time>2014-09-02T13:12:15Z</time></trkpt><trkpt lat="46.0550902504" lon="6.9997741096"><ele>1510.37</ele><time>2014-09-02T13:12:16Z</time></trkpt><trkpt lat="46.0551049188" lon="6.9997680746"><ele>1510.37</ele><time>2014-09-02T13:12:17Z</time></trkpt><trkpt lat="46.0551611613" lon="6.9997443538"><ele>1510.37</ele><time>2014-09-02T13:12:21Z</time></trkpt><trkpt lat="46.0552549548" lon="6.9997559208"><ele>1508.93</ele><time>2014-09-02T13:12:32Z</time></trkpt><trkpt lat="46.0552881472" lon="6.9997399952"><ele>1506.52</ele><time>2014-09-02T13:12:49Z</time></trkpt><trkpt lat="46.0552941822" lon="6.9997353014"><ele>1504.12</ele><time>2014-09-02T13:13:15Z</time></trkpt><trkpt lat="46.0552585591" lon="6.9997049589"><ele>1505.56</ele><time>2014-09-02T13:13:40Z</time></trkpt><trkpt lat="46.0552662704" lon="6.9996762928"><ele>1502.68</ele><time>2014-09-02T13:14:02Z</time></trkpt><trkpt lat="46.0552956909" lon="6.9997271709"><ele>1500.76</ele><time>2014-09-02T13:14:31Z</time></trkpt><trkpt lat="46.0553222615" lon="6.9997301884"><ele>1500.76</ele><time>2014-09-02T13:14:57Z</time></trkpt><trkpt lat="46.0553274583" lon="6.9997258298"><ele>1500.76</ele><time>2014-09-02T13:14:59Z</time></trkpt><trkpt lat="46.0553445574" lon="6.9997259136"><ele>1500.76</ele><time>2014-09-02T13:15:01Z</time></trkpt><trkpt lat="46.0553569626" lon="6.9997303560"><ele>1501.24</ele><time>2014-09-02T13:15:02Z</time></trkpt><trkpt lat="46.0556069948" lon="6.9998026080"><ele>1504.12</ele><time>2014-09-02T13:15:17Z</time></trkpt><trkpt lat="46.0557304602" lon="6.9998106547"><ele>1505.56</ele><time>2014-09-02T13:15:25Z</time></trkpt><trkpt lat="46.0557481460" lon="6.9998066314"><ele>1505.56</ele><time>2014-09-02T13:15:26Z</time></trkpt><trkpt lat="46.0557649937" lon="6.9998078048"><ele>1505.56</ele><time>2014-09-02T13:15:27Z</time></trkpt><trkpt lat="46.0557800811" lon="6.9998091459"><ele>1506.04</ele><time>2014-09-02T13:15:28Z</time></trkpt><trkpt lat="46.0557956714" lon="6.9998102356"><ele>1506.04</ele><time>2014-09-02T13:15:29Z</time></trkpt><trkpt lat="46.0558109265" lon="6.9998108223"><ele>1506.04</ele><time>2014-09-02T13:15:30Z</time></trkpt><trkpt lat="46.0559046362" lon="6.9998140913"><ele>1507.48</ele><time>2014-09-02T13:15:36Z</time></trkpt><trkpt lat="46.0559193045" lon="6.9998087268"><ele>1507.97</ele><time>2014-09-02T13:15:37Z</time></trkpt><trkpt lat="46.0560454521" lon="6.9997999258"><ele>1510.85</ele><time>2014-09-02T13:15:45Z</time></trkpt><trkpt lat="46.0560620483" lon="6.9998020213"><ele>1510.85</ele><time>2014-09-02T13:15:46Z</time></trkpt><trkpt lat="46.0560759623" lon="6.9998003449"><ele>1511.33</ele><time>2014-09-02T13:15:47Z</time></trkpt><trkpt lat="46.0560902115" lon="6.9997968245"><ele>1511.81</ele><time>2014-09-02T13:15:48Z</time></trkpt><trkpt lat="46.0561032034" lon="6.9997954834"><ele>1511.81</ele><time>2014-09-02T13:15:49Z</time></trkpt><trkpt lat="46.0561203863" lon="6.9997994229"><ele>1512.29</ele><time>2014-09-02T13:15:50Z</time></trkpt><trkpt lat="46.0561314505" lon="6.9997970760"><ele>1512.29</ele><time>2014-09-02T13:15:51Z</time></trkpt><trkpt lat="46.0561449453" lon="6.9997920468"><ele>1512.77</ele><time>2014-09-02T13:15:52Z</time></trkpt><trkpt lat="46.0563649703" lon="6.9997736067"><ele>1515.66</ele><time>2014-09-02T13:16:07Z</time></trkpt><trkpt lat="46.0565993283" lon="6.9997771271"><ele>1519.50</ele><time>2014-09-02T13:16:22Z</time></trkpt><trkpt lat="46.0568067804" lon="6.9997443538"><ele>1522.39</ele><time>2014-09-02T13:16:37Z</time></trkpt><trkpt lat="46.0570577346" lon="6.9997586869"><ele>1527.19</ele><time>2014-09-02T13:16:53Z</time></trkpt><trkpt lat="46.0570744984" lon="6.9997603633"><ele>1527.19</ele><time>2014-09-02T13:16:54Z</time></trkpt><trkpt lat="46.0571765061" lon="6.9997689128"><ele>1528.63</ele><time>2014-09-02T13:17:00Z</time></trkpt><trkpt lat="46.0572467465" lon="6.9997908734"><ele>1529.11</ele><time>2014-09-02T13:17:04Z</time></trkpt><trkpt lat="46.0572650190" lon="6.9997896999"><ele>1529.59</ele><time>2014-09-02T13:17:05Z</time></trkpt><trkpt lat="46.0572842136" lon="6.9997928850"><ele>1529.59</ele><time>2014-09-02T13:17:06Z</time></trkpt><trkpt lat="46.0575225111" lon="6.9998124149"><ele>1528.63</ele><time>2014-09-02T13:17:21Z</time></trkpt><trkpt lat="46.0575772449" lon="6.9998136722"><ele>1529.11</ele><time>2014-09-02T13:17:25Z</time></trkpt><trkpt lat="46.0576733854" lon="6.9998259097"><ele>1529.11</ele><time>2014-09-02T13:17:36Z</time></trkpt><trkpt lat="46.0577248503" lon="6.9998437632"><ele>1522.87</ele><time>2014-09-02T13:18:10Z</time></trkpt><trkpt lat="46.0577266943" lon="6.9998062961"><ele>1520.46</ele><time>2014-09-02T13:18:38Z</time></trkpt><trkpt lat="46.0577181447" lon="6.9998173602"><ele>1519.02</ele><time>2014-09-02T13:19:00Z</time></trkpt><trkpt lat="46.0577337351" lon="6.9998128340"><ele>1518.54</ele><time>2014-09-02T13:19:04Z</time></trkpt><trkpt lat="46.0577484034" lon="6.9998030271"><ele>1518.54</ele><time>2014-09-02T13:19:05Z</time></trkpt><trkpt lat="46.0577649157" lon="6.9997986685"><ele>1518.54</ele><time>2014-09-02T13:19:06Z</time></trkpt><trkpt lat="46.0577819310" lon="6.9997981656"><ele>1519.02</ele><time>2014-09-02T13:19:07Z</time></trkpt><trkpt lat="46.0578014608" lon="6.9997952320"><ele>1519.02</ele><time>2014-09-02T13:19:08Z</time></trkpt><trkpt lat="46.0578159615" lon="6.9997917954"><ele>1519.02</ele><time>2014-09-02T13:19:09Z</time></trkpt><trkpt lat="46.0580054764" lon="6.9996400829"><ele>1518.54</ele><time>2014-09-02T13:19:22Z</time></trkpt><trkpt lat="46.0580193903" lon="6.9996322878"><ele>1518.54</ele><time>2014-09-02T13:19:23Z</time></trkpt><trkpt lat="46.0580336396" lon="6.9996211398"><ele>1518.54</ele><time>2014-09-02T13:19:24Z</time></trkpt><trkpt lat="46.0582260042" lon="6.9995309506"><ele>1518.54</ele><time>2014-09-02T13:19:37Z</time></trkpt><trkpt lat="46.0582400020" lon="6.9995440263"><ele>1518.54</ele><time>2014-09-02T13:19:38Z</time></trkpt><trkpt lat="46.0582519043" lon="6.9995630533"><ele>1519.02</ele><time>2014-09-02T13:19:39Z</time></trkpt><trkpt lat="46.0582616273" lon="6.9995848462"><ele>1519.02</ele><time>2014-09-02T13:19:40Z</time></trkpt><trkpt lat="46.0582657345" lon="6.9996045437"><ele>1519.50</ele><time>2014-09-02T13:19:41Z</time></trkpt><trkpt lat="46.0582668241" lon="6.9996280130"><ele>1519.50</ele><time>2014-09-02T13:19:42Z</time></trkpt><trkpt lat="46.0582446959" lon="6.9997713435"><ele>1520.94</ele><time>2014-09-02T13:19:49Z</time></trkpt><trkpt lat="46.0582369845" lon="6.9997896999"><ele>1521.42</ele><time>2014-09-02T13:19:50Z</time></trkpt><trkpt lat="46.0582057200" lon="6.9998839125"><ele>1522.39</ele><time>2014-09-02T13:19:55Z</time></trkpt><trkpt lat="46.0581977572" lon="6.9999021851"><ele>1522.87</ele><time>2014-09-02T13:19:56Z</time></trkpt><trkpt lat="46.0581916384" lon="6.9999225531"><ele>1522.87</ele><time>2014-09-02T13:19:57Z</time></trkpt><trkpt lat="46.0581849329" lon="6.9999448489"><ele>1523.35</ele><time>2014-09-02T13:19:58Z</time></trkpt><trkpt lat="46.0581778921" lon="6.9999641273"><ele>1523.83</ele><time>2014-09-02T13:19:59Z</time></trkpt><trkpt lat="46.0581674986" lon="6.9999809749"><ele>1523.83</ele><time>2014-09-02T13:20:00Z</time></trkpt><trkpt lat="46.0581570212" lon="6.9999981578"><ele>1524.31</ele><time>2014-09-02T13:20:01Z</time></trkpt><trkpt lat="46.0581470467" lon="7.0000157598"><ele>1524.79</ele><time>2014-09-02T13:20:02Z</time></trkpt><trkpt lat="46.0580314603" lon="7.0003134012"><ele>1528.63</ele><time>2014-09-02T13:20:17Z</time></trkpt><trkpt lat="46.0579347331" lon="7.0005449932"><ele>1532.00</ele><time>2014-09-02T13:20:30Z</time></trkpt><trkpt lat="46.0579375830" lon="7.0005649421"><ele>1532.00</ele><time>2014-09-02T13:20:31Z</time></trkpt><trkpt lat="46.0579936579" lon="7.0007582288"><ele>1532.96</ele><time>2014-09-02T13:20:41Z</time></trkpt><trkpt lat="46.0578561947" lon="7.0010820217"><ele>1534.88</ele><time>2014-09-02T13:20:58Z</time></trkpt><trkpt lat="46.0578239243" lon="7.0011581294"><ele>1534.40</ele><time>2014-09-02T13:21:08Z</time></trkpt><trkpt lat="46.0578033049" lon="7.0011421200"><ele>1535.36</ele><time>2014-09-02T13:21:23Z</time></trkpt><trkpt lat="46.0578088369" lon="7.0011247694"><ele>1533.92</ele><time>2014-09-02T13:22:10Z</time></trkpt><trkpt lat="46.0577947553" lon="7.0011442155"><ele>1534.88</ele><time>2014-09-02T13:22:44Z</time></trkpt><trkpt lat="46.0578057356" lon="7.0011472329"><ele>1535.36</ele><time>2014-09-02T13:23:16Z</time></trkpt><trkpt lat="46.0578085016" lon="7.0010944270"><ele>1534.40</ele><time>2014-09-02T13:23:53Z</time></trkpt><trkpt lat="46.0578156263" lon="7.0011071675"><ele>1532.96</ele><time>2014-09-02T13:24:34Z</time></trkpt><trkpt lat="46.0577969346" lon="7.0011247694"><ele>1532.48</ele><time>2014-09-02T13:25:15Z</time></trkpt><trkpt lat="46.0578095075" lon="7.0011215005"><ele>1529.11</ele><time>2014-09-02T13:25:47Z</time></trkpt><trkpt lat="46.0577924084" lon="7.0011339895"><ele>1528.63</ele><time>2014-09-02T13:26:19Z</time></trkpt><trkpt lat="46.0577942524" lon="7.0011314750"><ele>1529.11</ele><time>2014-09-02T13:26:54Z</time></trkpt><trkpt lat="46.0578021314" lon="7.0011400245"><ele>1530.56</ele><time>2014-09-02T13:27:34Z</time></trkpt><trkpt lat="46.0578324739" lon="7.0011643320"><ele>1530.08</ele><time>2014-09-02T13:28:06Z</time></trkpt><trkpt lat="46.0578375030" lon="7.0011472329"><ele>1529.11</ele><time>2014-09-02T13:28:36Z</time></trkpt><trkpt lat="46.0578472260" lon="7.0011798386"><ele>1527.67</ele><time>2014-09-02T13:29:11Z</time></trkpt><trkpt lat="46.0578259360" lon="7.0011909865"><ele>1531.04</ele><time>2014-09-02T13:29:53Z</time></trkpt><trkpt lat="46.0578090046" lon="7.0011819340"><ele>1532.00</ele><time>2014-09-02T13:30:28Z</time></trkpt><trkpt lat="46.0578401014" lon="7.0011553634"><ele>1532.96</ele><time>2014-09-02T13:31:00Z</time></trkpt><trkpt lat="46.0578125250" lon="7.0011185668"><ele>1531.04</ele><time>2014-09-02T13:31:30Z</time></trkpt><trkpt lat="46.0578509141" lon="7.0010997076"><ele>1528.63</ele><time>2014-09-02T13:31:49Z</time></trkpt><trkpt lat="46.0578473099" lon="7.0011149626"><ele>1529.59</ele><time>2014-09-02T13:32:07Z</time></trkpt><trkpt lat="46.0578543507" lon="7.0010940079"><ele>1528.63</ele><time>2014-09-02T13:32:44Z</time></trkpt><trkpt lat="46.0578807537" lon="7.0010661799"><ele>1527.19</ele><time>2014-09-02T13:33:21Z</time></trkpt><trkpt lat="46.0578424484" lon="7.0010985341"><ele>1532.48</ele><time>2014-09-02T13:34:04Z</time></trkpt><trkpt lat="46.0578178894" lon="7.0010861289"><ele>1533.92</ele><time>2014-09-02T13:34:39Z</time></trkpt><trkpt lat="46.0578201525" lon="7.0010899007"><ele>1527.67</ele><time>2014-09-02T13:35:21Z</time></trkpt><trkpt lat="46.0578284506" lon="7.0011096820"><ele>1523.35</ele><time>2014-09-02T13:36:02Z</time></trkpt><trkpt lat="46.0578406043" lon="7.0010965224"><ele>1524.79</ele><time>2014-09-02T13:36:40Z</time></trkpt><trkpt lat="46.0578492377" lon="7.0011030603"><ele>1528.63</ele><time>2014-09-02T13:37:23Z</time></trkpt><trkpt lat="46.0578349885" lon="7.0010833628"><ele>1528.63</ele><time>2014-09-02T13:38:04Z</time></trkpt><trkpt lat="46.0578156263" lon="7.0011240151"><ele>1524.79</ele><time>2014-09-02T13:38:56Z</time></trkpt><trkpt lat="46.0578635707" lon="7.0010823570"><ele>1529.11</ele><time>2014-09-02T13:39:45Z</time></trkpt><trkpt lat="46.0578308813" lon="7.0011185668"><ele>1531.04</ele><time>2014-09-02T13:40:22Z</time></trkpt><trkpt lat="46.0578143690" lon="7.0011009648"><ele>1530.56</ele><time>2014-09-02T13:41:11Z</time></trkpt><trkpt lat="46.0578097589" lon="7.0010836981"><ele>1529.11</ele><time>2014-09-02T13:41:55Z</time></trkpt><trkpt lat="46.0578384250" lon="7.0011017192"><ele>1531.52</ele><time>2014-09-02T13:42:40Z</time></trkpt><trkpt lat="46.0578041431" lon="7.0010996237"><ele>1531.04</ele><time>2014-09-02T13:43:18Z</time></trkpt><trkpt lat="46.0578278638" lon="7.0010768250"><ele>1527.19</ele><time>2014-09-02T13:43:52Z</time></trkpt><trkpt lat="46.0578339826" lon="7.0011215005"><ele>1530.56</ele><time>2014-09-02T13:44:32Z</time></trkpt><trkpt lat="46.0578333121" lon="7.0011150464"><ele>1532.96</ele><time>2014-09-02T13:45:06Z</time></trkpt><trkpt lat="46.0578216612" lon="7.0011362527"><ele>1530.56</ele><time>2014-09-02T13:45:47Z</time></trkpt><trkpt lat="46.0578107648" lon="7.0010803454"><ele>1530.56</ele><time>2014-09-02T13:46:32Z</time></trkpt><trkpt lat="46.0578087531" lon="7.0011295471"><ele>1532.00</ele><time>2014-09-02T13:47:16Z</time></trkpt><trkpt lat="46.0578207392" lon="7.0011254400"><ele>1529.11</ele><time>2014-09-02T13:48:02Z</time></trkpt><trkpt lat="46.0578430351" lon="7.0011377614"><ele>1526.71</ele><time>2014-09-02T13:48:46Z</time></trkpt><trkpt lat="46.0578644928" lon="7.0011195727"><ele>1526.71</ele><time>2014-09-02T13:49:31Z</time></trkpt><trkpt lat="46.0578539316" lon="7.0011201594"><ele>1531.04</ele><time>2014-09-02T13:50:06Z</time></trkpt><trkpt lat="46.0578599665" lon="7.0011243504"><ele>1531.04</ele><time>2014-09-02T13:50:43Z</time></trkpt><trkpt lat="46.0578574520" lon="7.0011205785"><ele>1530.56</ele><time>2014-09-02T13:51:25Z</time></trkpt><trkpt lat="46.0578491539" lon="7.0011364203"><ele>1530.08</ele><time>2014-09-02T13:52:04Z</time></trkpt><trkpt lat="46.0578890517" lon="7.0010893978"><ele>1531.52</ele><time>2014-09-02T13:52:39Z</time></trkpt><trkpt lat="46.0578705277" lon="7.0011256076"><ele>1532.00</ele><time>2014-09-02T13:53:08Z</time></trkpt><trkpt lat="46.0578608885" lon="7.0010758191"><ele>1532.00</ele><time>2014-09-02T13:53:54Z</time></trkpt><trkpt lat="46.0578452144" lon="7.0011664275"><ele>1534.40</ele><time>2014-09-02T13:54:24Z</time></trkpt><trkpt lat="46.0578604694" lon="7.0010968577"><ele>1534.88</ele><time>2014-09-02T13:55:05Z</time></trkpt><trkpt lat="46.0578741319" lon="7.0011520106"><ele>1541.61</ele><time>2014-09-02T13:55:44Z</time></trkpt><trkpt lat="46.0578854475" lon="7.0011111908"><ele>1538.73</ele><time>2014-09-02T13:56:14Z</time></trkpt><trkpt lat="46.0578706115" lon="7.0011054073"><ele>1536.80</ele><time>2014-09-02T13:56:47Z</time></trkpt><trkpt lat="46.0578608885" lon="7.0011370908"><ele>1533.92</ele><time>2014-09-02T13:57:29Z</time></trkpt><trkpt lat="46.0578292888" lon="7.0011380967"><ele>1534.40</ele><time>2014-09-02T13:58:04Z</time></trkpt><trkpt lat="46.0578382574" lon="7.0011427905"><ele>1537.77</ele><time>2014-09-02T13:58:34Z</time></trkpt><trkpt lat="46.0578717012" lon="7.0011059102"><ele>1535.36</ele><time>2014-09-02T13:59:16Z</time></trkpt><trkpt lat="46.0578526743" lon="7.0011054073"><ele>1532.96</ele><time>2014-09-02T14:00:01Z</time></trkpt><trkpt lat="46.0578591283" lon="7.0011189021"><ele>1526.71</ele><time>2014-09-02T14:00:34Z</time></trkpt><trkpt lat="46.0578540992" lon="7.0011024736"><ele>1529.59</ele><time>2014-09-02T14:01:09Z</time></trkpt><trkpt lat="46.0578571167" lon="7.0011263620"><ele>1531.52</ele><time>2014-09-02T14:01:50Z</time></trkpt><trkpt lat="46.0578421969" lon="7.0011126995"><ele>1533.44</ele><time>2014-09-02T14:02:21Z</time></trkpt><trkpt lat="46.0578755569" lon="7.0010972768"><ele>1533.44</ele><time>2014-09-02T14:02:55Z</time></trkpt><trkpt lat="46.0578838550" lon="7.0011246856"><ele>1531.52</ele><time>2014-09-02T14:03:29Z</time></trkpt><trkpt lat="46.0578717012" lon="7.0011051558"><ele>1533.92</ele><time>2014-09-02T14:04:02Z</time></trkpt><trkpt lat="46.0578910634" lon="7.0011209138"><ele>1530.08</ele><time>2014-09-02T14:04:42Z</time></trkpt><trkpt lat="46.0578830168" lon="7.0011069160"><ele>1530.56</ele><time>2014-09-02T14:05:18Z</time></trkpt><trkpt lat="46.0578745510" lon="7.0010958519"><ele>1531.04</ele><time>2014-09-02T14:05:45Z</time></trkpt><trkpt lat="46.0578814242" lon="7.0011059102"><ele>1528.63</ele><time>2014-09-02T14:06:20Z</time></trkpt><trkpt lat="46.0578716174" lon="7.0010940079"><ele>1529.11</ele><time>2014-09-02T14:06:58Z</time></trkpt><trkpt lat="46.0578444600" lon="7.0011457242"><ele>1532.00</ele><time>2014-09-02T14:07:35Z</time></trkpt><trkpt lat="46.0578395147" lon="7.0011363365"><ele>1525.27</ele><time>2014-09-02T14:08:08Z</time></trkpt><trkpt lat="46.0578487348" lon="7.0011301339"><ele>1524.31</ele><time>2014-09-02T14:08:49Z</time></trkpt><trkpt lat="46.0578444600" lon="7.0011593867"><ele>1525.75</ele><time>2014-09-02T14:09:20Z</time></trkpt><trkpt lat="46.0578639898" lon="7.0011152141"><ele>1529.11</ele><time>2014-09-02T14:10:01Z</time></trkpt><trkpt lat="46.0578611400" lon="7.0011324808"><ele>1529.11</ele><time>2014-09-02T14:10:38Z</time></trkpt><trkpt lat="46.0578540154" lon="7.0010967739"><ele>1529.59</ele><time>2014-09-02T14:11:10Z</time></trkpt><trkpt lat="46.0578546021" lon="7.0011232607"><ele>1532.00</ele><time>2014-09-02T14:11:45Z</time></trkpt><trkpt lat="46.0578262713" lon="7.0011097658"><ele>1528.63</ele><time>2014-09-02T14:12:21Z</time></trkpt><trkpt lat="46.0578474775" lon="7.0011059102"><ele>1529.59</ele><time>2014-09-02T14:12:57Z</time></trkpt><trkpt lat="46.0578603018" lon="7.0010950137"><ele>1527.67</ele><time>2014-09-02T14:13:34Z</time></trkpt><trkpt lat="46.0578615591" lon="7.0011110231"><ele>1528.15</ele><time>2014-09-02T14:14:13Z</time></trkpt><trkpt lat="46.0578512494" lon="7.0011216681"><ele>1525.75</ele><time>2014-09-02T14:14:51Z</time></trkpt><trkpt lat="46.0578574520" lon="7.0011246856"><ele>1526.23</ele><time>2014-09-02T14:15:34Z</time></trkpt><trkpt lat="46.0578606371" lon="7.0010847878"><ele>1531.04</ele><time>2014-09-02T14:16:22Z</time></trkpt><trkpt lat="46.0578810889" lon="7.0011374261"><ele>1528.63</ele><time>2014-09-02T14:17:06Z</time></trkpt><trkpt lat="46.0578743834" lon="7.0011173934"><ele>1535.36</ele><time>2014-09-02T14:17:45Z</time></trkpt><trkpt lat="46.0578508303" lon="7.0011238474"><ele>1528.15</ele><time>2014-09-02T14:18:27Z</time></trkpt><trkpt lat="46.0578535125" lon="7.0011391863"><ele>1531.04</ele><time>2014-09-02T14:19:02Z</time></trkpt><trkpt lat="46.0578639060" lon="7.0010510925"><ele>1533.44</ele><time>2014-09-02T14:19:42Z</time></trkpt><trkpt lat="46.0578710306" lon="7.0010871347"><ele>1536.80</ele><time>2014-09-02T14:20:12Z</time></trkpt><trkpt lat="46.0578576196" lon="7.0010191575"><ele>1536.80</ele><time>2014-09-02T14:20:56Z</time></trkpt><trkpt lat="46.0578708630" lon="7.0010612346"><ele>1534.40</ele><time>2014-09-02T14:21:22Z</time></trkpt><trkpt lat="46.0578627326" lon="7.0010862127"><ele>1532.96</ele><time>2014-09-02T14:22:05Z</time></trkpt><trkpt lat="46.0578541830" lon="7.0010548644"><ele>1531.52</ele><time>2014-09-02T14:22:40Z</time></trkpt><trkpt lat="46.0578395147" lon="7.0010895655"><ele>1534.88</ele><time>2014-09-02T14:23:16Z</time></trkpt><trkpt lat="46.0578635707" lon="7.0010942593"><ele>1532.48</ele><time>2014-09-02T14:23:51Z</time></trkpt><trkpt lat="46.0578702763" lon="7.0010847040"><ele>1532.48</ele><time>2014-09-02T14:23:55Z</time></trkpt><trkpt lat="46.0578683484" lon="7.0010197442"><ele>1532.48</ele><time>2014-09-02T14:23:58Z</time></trkpt><trkpt lat="46.0578157939" lon="7.0009747334"><ele>1532.00</ele><time>2014-09-02T14:24:01Z</time></trkpt><trkpt lat="46.0577945039" lon="7.0009957720"><ele>1532.00</ele><time>2014-09-02T14:24:02Z</time></trkpt><trkpt lat="46.0577847809" lon="7.0010067523"><ele>1532.00</ele><time>2014-09-02T14:24:03Z</time></trkpt><trkpt lat="46.0577712022" lon="7.0010237675"><ele>1532.00</ele><time>2014-09-02T14:24:04Z</time></trkpt><trkpt lat="46.0577564500" lon="7.0010429621"><ele>1532.00</ele><time>2014-09-02T14:24:05Z</time></trkpt><trkpt lat="46.0577431228" lon="7.0010642521"><ele>1532.00</ele><time>2014-09-02T14:24:06Z</time></trkpt><trkpt lat="46.0577323101" lon="7.0010890625"><ele>1532.00</ele><time>2014-09-02T14:24:07Z</time></trkpt><trkpt lat="46.0577224195" lon="7.0011147112"><ele>1532.00</ele><time>2014-09-02T14:24:08Z</time></trkpt><trkpt lat="46.0577147081" lon="7.0011393540"><ele>1532.00</ele><time>2014-09-02T14:24:09Z</time></trkpt><trkpt lat="46.0577102657" lon="7.0011696126"><ele>1532.00</ele><time>2014-09-02T14:24:10Z</time></trkpt><trkpt lat="46.0577093437" lon="7.0011965185"><ele>1532.00</ele><time>2014-09-02T14:24:11Z</time></trkpt><trkpt lat="46.0577106848" lon="7.0012266096"><ele>1532.00</ele><time>2014-09-02T14:24:12Z</time></trkpt><trkpt lat="46.0577447154" lon="7.0015123487"><ele>1533.44</ele><time>2014-09-02T14:24:26Z</time></trkpt><trkpt lat="46.0577586293" lon="7.0014978480"><ele>1532.00</ele><time>2014-09-02T14:24:48Z</time></trkpt><trkpt lat="46.0577468947" lon="7.0015229098"><ele>1533.44</ele><time>2014-09-02T14:25:12Z</time></trkpt><trkpt lat="46.0577414464" lon="7.0015263464"><ele>1534.88</ele><time>2014-09-02T14:25:30Z</time></trkpt><trkpt lat="46.0577442963" lon="7.0015105046"><ele>1532.96</ele><time>2014-09-02T14:25:49Z</time></trkpt><trkpt lat="46.0577504989" lon="7.0014712773"><ele>1535.84</ele><time>2014-09-02T14:26:26Z</time></trkpt><trkpt lat="46.0577520076" lon="7.0015032962"><ele>1533.44</ele><time>2014-09-02T14:27:04Z</time></trkpt><trkpt lat="46.0577413626" lon="7.0015047211"><ele>1533.44</ele><time>2014-09-02T14:27:34Z</time></trkpt><trkpt lat="46.0577579588" lon="7.0015091635"><ele>1529.59</ele><time>2014-09-02T14:28:00Z</time></trkpt><trkpt lat="46.0577564500" lon="7.0015043858"><ele>1530.08</ele><time>2014-09-02T14:28:31Z</time></trkpt><trkpt lat="46.0577266105" lon="7.0015276037"><ele>1532.48</ele><time>2014-09-02T14:29:05Z</time></trkpt><trkpt lat="46.0577286221" lon="7.0015268493"><ele>1533.92</ele><time>2014-09-02T14:29:30Z</time></trkpt><trkpt lat="46.0577475652" lon="7.0015330520"><ele>1534.88</ele><time>2014-09-02T14:29:56Z</time></trkpt><trkpt lat="46.0577598028" lon="7.0015351474"><ele>1534.88</ele><time>2014-09-02T14:29:59Z</time></trkpt><trkpt lat="46.0577738844" lon="7.0015483908"><ele>1534.88</ele><time>2014-09-02T14:30:00Z</time></trkpt><trkpt lat="46.0580237489" lon="7.0018348843"><ele>1533.44</ele><time>2014-09-02T14:30:10Z</time></trkpt><trkpt lat="46.0587565787" lon="7.0024823025"><ele>1524.79</ele><time>2014-09-02T14:30:24Z</time></trkpt><trkpt lat="46.0588620231" lon="7.0025821310"><ele>1523.83</ele><time>2014-09-02T14:30:26Z</time></trkpt><trkpt lat="46.0589094646" lon="7.0026478451"><ele>1523.35</ele><time>2014-09-02T14:30:27Z</time></trkpt><trkpt lat="46.0595738981" lon="7.0037907176"><ele>1515.18</ele><time>2014-09-02T14:30:39Z</time></trkpt><trkpt lat="46.0602716077" lon="7.0054344088"><ele>1503.16</ele><time>2014-09-02T14:30:52Z</time></trkpt><trkpt lat="46.0603420157" lon="7.0057004504"><ele>1500.27</ele><time>2014-09-02T14:30:58Z</time></trkpt><trkpt lat="46.0603166185" lon="7.0056819264"><ele>1498.83</ele><time>2014-09-02T14:31:27Z</time></trkpt><trkpt lat="46.0603067279" lon="7.0056822617"><ele>1498.35</ele><time>2014-09-02T14:31:28Z</time></trkpt><trkpt lat="46.0602721106" lon="7.0056726225"><ele>1499.79</ele><time>2014-09-02T14:31:44Z</time></trkpt><trkpt lat="46.0602531675" lon="7.0056330599"><ele>1499.31</ele><time>2014-09-02T14:32:05Z</time></trkpt><trkpt lat="46.0600364953" lon="7.0052966941"><ele>1496.43</ele><time>2014-09-02T14:32:16Z</time></trkpt><trkpt lat="46.0600184742" lon="7.0053270366"><ele>1495.47</ele><time>2014-09-02T14:32:30Z</time></trkpt><trkpt lat="46.0600261856" lon="7.0053368434"><ele>1498.35</ele><time>2014-09-02T14:32:52Z</time></trkpt><trkpt lat="46.0599066596" lon="7.0050910022"><ele>1494.99</ele><time>2014-09-02T14:33:01Z</time></trkpt><trkpt lat="46.0598778259" lon="7.0050380286"><ele>1494.51</ele><time>2014-09-02T14:33:02Z</time></trkpt><trkpt lat="46.0598456394" lon="7.0049809478"><ele>1493.55</ele><time>2014-09-02T14:33:03Z</time></trkpt><trkpt lat="46.0597356688" lon="7.0047947858"><ele>1491.62</ele><time>2014-09-02T14:33:07Z</time></trkpt><trkpt lat="46.0593873169" lon="7.0042369701"><ele>1484.41</ele><time>2014-09-02T14:33:18Z</time></trkpt><trkpt lat="46.0593392048" lon="7.0041793864"><ele>1482.97</ele><time>2014-09-02T14:33:20Z</time></trkpt><trkpt lat="46.0593041684" lon="7.0041725133"><ele>1482.49</ele><time>2014-09-02T14:33:21Z</time></trkpt><trkpt lat="46.0592737421" lon="7.0041808113"><ele>1482.01</ele><time>2014-09-02T14:33:22Z</time></trkpt><trkpt lat="46.0592519492" lon="7.0042081363"><ele>1481.53</ele><time>2014-09-02T14:33:23Z</time></trkpt><trkpt lat="46.0592455789" lon="7.0042642951"><ele>1481.05</ele><time>2014-09-02T14:33:24Z</time></trkpt><trkpt lat="46.0592645220" lon="7.0043349545"><ele>1480.57</ele><time>2014-09-02T14:33:25Z</time></trkpt><trkpt lat="46.0592985526" lon="7.0044124871"><ele>1479.61</ele><time>2014-09-02T14:33:26Z</time></trkpt><trkpt lat="46.0593393724" lon="7.0044982340"><ele>1478.65</ele><time>2014-09-02T14:33:27Z</time></trkpt><trkpt lat="46.0597219225" lon="7.0054836944"><ele>1468.55</ele><time>2014-09-02T14:33:36Z</time></trkpt><trkpt lat="46.0600241739" lon="7.0063259918"><ele>1462.78</ele><time>2014-09-02T14:33:44Z</time></trkpt><trkpt lat="46.0600449611" lon="7.0064318553"><ele>1462.30</ele><time>2014-09-02T14:33:45Z</time></trkpt><trkpt lat="46.0601804126" lon="7.0072133839"><ele>1456.53</ele><time>2014-09-02T14:33:52Z</time></trkpt><trkpt lat="46.0602118447" lon="7.0073196664"><ele>1455.57</ele><time>2014-09-02T14:33:53Z</time></trkpt><trkpt lat="46.0602477193" lon="7.0074273739"><ele>1454.61</ele><time>2014-09-02T14:33:54Z</time></trkpt><trkpt lat="46.0606323648" lon="7.0085416641"><ele>1442.60</ele><time>2014-09-02T14:34:05Z</time></trkpt><trkpt lat="46.0608997475" lon="7.0093587320"><ele>1433.94</ele><time>2014-09-02T14:34:14Z</time></trkpt><trkpt lat="46.0614979640" lon="7.0105485432"><ele>1421.45</ele><time>2014-09-02T14:34:26Z</time></trkpt><trkpt lat="46.0618236847" lon="7.0111517888"><ele>1414.24</ele><time>2014-09-02T14:34:33Z</time></trkpt><trkpt lat="46.0619023070" lon="7.0113543794"><ele>1411.83</ele><time>2014-09-02T14:34:35Z</time></trkpt><trkpt lat="46.0622095037" lon="7.0120824315"><ele>1403.18</ele><time>2014-09-02T14:34:43Z</time></trkpt><trkpt lat="46.0622554366" lon="7.0121711120"><ele>1402.70</ele><time>2014-09-02T14:34:44Z</time></trkpt><trkpt lat="46.0623130202" lon="7.0122546796"><ele>1401.74</ele><time>2014-09-02T14:34:45Z</time></trkpt><trkpt lat="46.0623790696" lon="7.0123333018"><ele>1400.78</ele><time>2014-09-02T14:34:46Z</time></trkpt><trkpt lat="46.0624496453" lon="7.0124073140"><ele>1399.82</ele><time>2014-09-02T14:34:47Z</time></trkpt><trkpt lat="46.0628881026" lon="7.0129222143"><ele>1392.61</ele><time>2014-09-02T14:34:56Z</time></trkpt><trkpt lat="46.0628529824" lon="7.0129839890"><ele>1392.13</ele><time>2014-09-02T14:34:58Z</time></trkpt><trkpt lat="46.0628292616" lon="7.0129789598"><ele>1392.13</ele><time>2014-09-02T14:34:59Z</time></trkpt><trkpt lat="46.0628022719" lon="7.0129616093"><ele>1392.13</ele><time>2014-09-02T14:35:00Z</time></trkpt><trkpt lat="46.0627734382" lon="7.0129342005"><ele>1392.13</ele><time>2014-09-02T14:35:01Z</time></trkpt><trkpt lat="46.0627419222" lon="7.0129046123"><ele>1391.65</ele><time>2014-09-02T14:35:02Z</time></trkpt><trkpt lat="46.0627065506" lon="7.0128762815"><ele>1391.17</ele><time>2014-09-02T14:35:03Z</time></trkpt><trkpt lat="46.0626703408" lon="7.0128480345"><ele>1390.68</ele><time>2014-09-02T14:35:04Z</time></trkpt><trkpt lat="46.0624593683" lon="7.0127539895"><ele>1385.88</ele><time>2014-09-02T14:35:09Z</time></trkpt><trkpt lat="46.0620345734" lon="7.0125969127"><ele>1378.67</ele><time>2014-09-02T14:35:18Z</time></trkpt><trkpt lat="46.0619002115" lon="7.0125647262"><ele>1375.78</ele><time>2014-09-02T14:35:22Z</time></trkpt><trkpt lat="46.0618842859" lon="7.0125920512"><ele>1375.30</ele><time>2014-09-02T14:35:23Z</time></trkpt><trkpt lat="46.0618797597" lon="7.0126432646"><ele>1373.86</ele><time>2014-09-02T14:35:24Z</time></trkpt><trkpt lat="46.0618853755" lon="7.0126691647"><ele>1374.34</ele><time>2014-09-02T14:35:25Z</time></trkpt><trkpt lat="46.0618992895" lon="7.0127255749"><ele>1373.38</ele><time>2014-09-02T14:35:26Z</time></trkpt><trkpt lat="46.0619381815" lon="7.0128388982"><ele>1371.94</ele><time>2014-09-02T14:35:28Z</time></trkpt><trkpt lat="46.0619660933" lon="7.0128953084"><ele>1370.98</ele><time>2014-09-02T14:35:29Z</time></trkpt><trkpt lat="46.0619968548" lon="7.0129422471"><ele>1370.50</ele><time>2014-09-02T14:35:30Z</time></trkpt><trkpt lat="46.0620397702" lon="7.0129906107"><ele>1370.02</ele><time>2014-09-02T14:35:31Z</time></trkpt><trkpt lat="46.0620846972" lon="7.0130267367"><ele>1369.05</ele><time>2014-09-02T14:35:32Z</time></trkpt><trkpt lat="46.0621288698" lon="7.0130563248"><ele>1368.57</ele><time>2014-09-02T14:35:33Z</time></trkpt><trkpt lat="46.0621786583" lon="7.0130895171"><ele>1367.61</ele><time>2014-09-02T14:35:34Z</time></trkpt><trkpt lat="46.0623494815" lon="7.0132056065"><ele>1365.21</ele><time>2014-09-02T14:35:38Z</time></trkpt><trkpt lat="46.0623851884" lon="7.0132460911"><ele>1364.73</ele><time>2014-09-02T14:35:39Z</time></trkpt><trkpt lat="46.0627544113" lon="7.0136936009"><ele>1362.81</ele><time>2014-09-02T14:35:46Z</time></trkpt><trkpt lat="46.0628405772" lon="7.0138568804"><ele>1362.33</ele><time>2014-09-02T14:35:48Z</time></trkpt><trkpt lat="46.0628727637" lon="7.0139398612"><ele>1361.84</ele><time>2014-09-02T14:35:49Z</time></trkpt><trkpt lat="46.0629851650" lon="7.0142727904"><ele>1358.48</ele><time>2014-09-02T14:35:53Z</time></trkpt><trkpt lat="46.0630140826" lon="7.0143327210"><ele>1358.00</ele><time>2014-09-02T14:35:54Z</time></trkpt><trkpt lat="46.0631216224" lon="7.0145194698"><ele>1356.08</ele><time>2014-09-02T14:35:57Z</time></trkpt><trkpt lat="46.0631631967" lon="7.0145695098"><ele>1355.12</ele><time>2014-09-02T14:35:58Z</time></trkpt><trkpt lat="46.0632277373" lon="7.0146242436"><ele>1354.15</ele><time>2014-09-02T14:35:59Z</time></trkpt><trkpt lat="46.0636365227" lon="7.0149641298"><ele>1348.39</ele><time>2014-09-02T14:36:06Z</time></trkpt><trkpt lat="46.0636835452" lon="7.0150334481"><ele>1347.91</ele><time>2014-09-02T14:36:07Z</time></trkpt><trkpt lat="46.0637278017" lon="7.0151149202"><ele>1346.94</ele><time>2014-09-02T14:36:08Z</time></trkpt><trkpt lat="46.0637650173" lon="7.0151977334"><ele>1345.98</ele><time>2014-09-02T14:36:09Z</time></trkpt><trkpt lat="46.0638004728" lon="7.0152828097"><ele>1345.02</ele><time>2014-09-02T14:36:10Z</time></trkpt><trkpt lat="46.0640326515" lon="7.0157789346"><ele>1337.81</ele><time>2014-09-02T14:36:16Z</time></trkpt><trkpt lat="46.0641637444" lon="7.0160068385"><ele>1334.45</ele><time>2014-09-02T14:36:19Z</time></trkpt><trkpt lat="46.0644697677" lon="7.0166271832"><ele>1326.76</ele><time>2014-09-02T14:36:27Z</time></trkpt><trkpt lat="46.0645142756" lon="7.0166737027"><ele>1325.80</ele><time>2014-09-02T14:36:28Z</time></trkpt><trkpt lat="46.0645591188" lon="7.0167115051"><ele>1324.83</ele><time>2014-09-02T14:36:29Z</time></trkpt><trkpt lat="46.0646064766" lon="7.0167441946"><ele>1324.35</ele><time>2014-09-02T14:36:30Z</time></trkpt><trkpt lat="46.0646513198" lon="7.0167712681"><ele>1323.87</ele><time>2014-09-02T14:36:31Z</time></trkpt><trkpt lat="46.0647301096" lon="7.0168361440"><ele>1321.95</ele><time>2014-09-02T14:36:34Z</time></trkpt><trkpt lat="46.0647327080" lon="7.0168662351"><ele>1320.99</ele><time>2014-09-02T14:36:35Z</time></trkpt><trkpt lat="46.0646903794" lon="7.0169089828"><ele>1320.51</ele><time>2014-09-02T14:36:37Z</time></trkpt><trkpt lat="46.0646384116" lon="7.0169020258"><ele>1319.55</ele><time>2014-09-02T14:36:38Z</time></trkpt><trkpt lat="46.0646073986" lon="7.0168931410"><ele>1318.59</ele><time>2014-09-02T14:36:39Z</time></trkpt><trkpt lat="46.0645537544" lon="7.0168701746"><ele>1317.62</ele><time>2014-09-02T14:36:40Z</time></trkpt><trkpt lat="46.0645000264" lon="7.0168478787"><ele>1316.66</ele><time>2014-09-02T14:36:41Z</time></trkpt><trkpt lat="46.0644483939" lon="7.0168296900"><ele>1315.70</ele><time>2014-09-02T14:36:42Z</time></trkpt><trkpt lat="46.0643468890" lon="7.0167815778"><ele>1313.78</ele><time>2014-09-02T14:36:44Z</time></trkpt><trkpt lat="46.0642982740" lon="7.0167470444"><ele>1312.82</ele><time>2014-09-02T14:36:45Z</time></trkpt><trkpt lat="46.0642519221" lon="7.0167055540"><ele>1311.86</ele><time>2014-09-02T14:36:46Z</time></trkpt><trkpt lat="46.0642092582" lon="7.0166608784"><ele>1310.90</ele><time>2014-09-02T14:36:47Z</time></trkpt><trkpt lat="46.0641719587" lon="7.0166139398"><ele>1310.41</ele><time>2014-09-02T14:36:48Z</time></trkpt><trkpt lat="46.0641379282" lon="7.0165695995"><ele>1309.45</ele><time>2014-09-02T14:36:49Z</time></trkpt><trkpt lat="46.0640426259" lon="7.0165105909"><ele>1307.53</ele><time>2014-09-02T14:36:52Z</time></trkpt><trkpt lat="46.0640143789" lon="7.0165241696"><ele>1307.05</ele><time>2014-09-02T14:36:53Z</time></trkpt><trkpt lat="46.0639989562" lon="7.0165508240"><ele>1306.57</ele><time>2014-09-02T14:36:54Z</time></trkpt><trkpt lat="46.0639982857" lon="7.0165908895"><ele>1306.57</ele><time>2014-09-02T14:36:55Z</time></trkpt><trkpt lat="46.0640049074" lon="7.0166369062"><ele>1306.09</ele><time>2014-09-02T14:36:56Z</time></trkpt><trkpt lat="46.0640180670" lon="7.0166854374"><ele>1305.61</ele><time>2014-09-02T14:36:57Z</time></trkpt><trkpt lat="46.0640397761" lon="7.0167360641"><ele>1305.61</ele><time>2014-09-02T14:36:58Z</time></trkpt><trkpt lat="46.0640707891" lon="7.0167907979"><ele>1305.13</ele><time>2014-09-02T14:36:59Z</time></trkpt><trkpt lat="46.0641095974" lon="7.0168473758"><ele>1304.65</ele><time>2014-09-02T14:37:00Z</time></trkpt><trkpt lat="46.0641521774" lon="7.0168990921"><ele>1304.17</ele><time>2014-09-02T14:37:01Z</time></trkpt><trkpt lat="46.0641946737" lon="7.0169526525"><ele>1303.69</ele><time>2014-09-02T14:37:02Z</time></trkpt><trkpt lat="46.0642362479" lon="7.0170138404"><ele>1303.20</ele><time>2014-09-02T14:37:03Z</time></trkpt><trkpt lat="46.0642776545" lon="7.0170767885"><ele>1302.24</ele><time>2014-09-02T14:37:04Z</time></trkpt><trkpt lat="46.0643219948" lon="7.0171369705"><ele>1301.76</ele><time>2014-09-02T14:37:05Z</time></trkpt><trkpt lat="46.0644071549" lon="7.0172363799"><ele>1299.84</ele><time>2014-09-02T14:37:07Z</time></trkpt><trkpt lat="46.0644529201" lon="7.0172726735"><ele>1298.88</ele><time>2014-09-02T14:37:08Z</time></trkpt><trkpt lat="46.0649442673" lon="7.0175157487"><ele>1291.67</ele><time>2014-09-02T14:37:17Z</time></trkpt><trkpt lat="46.0650014319" lon="7.0175565686"><ele>1290.71</ele><time>2014-09-02T14:37:18Z</time></trkpt><trkpt lat="46.0650569201" lon="7.0176031720"><ele>1289.75</ele><time>2014-09-02T14:37:19Z</time></trkpt><trkpt lat="46.0651082173" lon="7.0176594984"><ele>1288.78</ele><time>2014-09-02T14:37:20Z</time></trkpt><trkpt lat="46.0651563294" lon="7.0177190099"><ele>1287.82</ele><time>2014-09-02T14:37:21Z</time></trkpt><trkpt lat="46.0652868357" lon="7.0178893302"><ele>1284.94</ele><time>2014-09-02T14:37:24Z</time></trkpt><trkpt lat="46.0654281545" lon="7.0181307290"><ele>1282.54</ele><time>2014-09-02T14:37:28Z</time></trkpt><trkpt lat="46.0654615983" lon="7.0181934256"><ele>1281.57</ele><time>2014-09-02T14:37:29Z</time></trkpt><trkpt lat="46.0655017477" lon="7.0182569604"><ele>1281.09</ele><time>2014-09-02T14:37:30Z</time></trkpt><trkpt lat="46.0655418970" lon="7.0183123648"><ele>1281.09</ele><time>2014-09-02T14:37:31Z</time></trkpt><trkpt lat="46.0655844770" lon="7.0183598064"><ele>1280.61</ele><time>2014-09-02T14:37:32Z</time></trkpt><trkpt lat="46.0656292364" lon="7.0183946751"><ele>1279.65</ele><time>2014-09-02T14:37:33Z</time></trkpt><trkpt lat="46.0656734090" lon="7.0184206590"><ele>1279.17</ele><time>2014-09-02T14:37:34Z</time></trkpt><trkpt lat="46.0657136422" lon="7.0184479002"><ele>1278.69</ele><time>2014-09-02T14:37:35Z</time></trkpt><trkpt lat="46.0657409672" lon="7.0184770692"><ele>1278.21</ele><time>2014-09-02T14:37:36Z</time></trkpt><trkpt lat="46.0657589044" lon="7.0185158774"><ele>1277.73</ele><time>2014-09-02T14:37:37Z</time></trkpt><trkpt lat="46.0657696333" lon="7.0185587928"><ele>1277.25</ele><time>2014-09-02T14:37:38Z</time></trkpt><trkpt lat="46.0657669511" lon="7.0185974333"><ele>1276.29</ele><time>2014-09-02T14:37:39Z</time></trkpt><trkpt lat="46.0657475051" lon="7.0186233334"><ele>1275.81</ele><time>2014-09-02T14:37:40Z</time></trkpt><trkpt lat="46.0657169949" lon="7.0186256804"><ele>1275.33</ele><time>2014-09-02T14:37:41Z</time></trkpt><trkpt lat="46.0656775162" lon="7.0186087489"><ele>1274.85</ele><time>2014-09-02T14:37:42Z</time></trkpt><trkpt lat="46.0656361934" lon="7.0185897220"><ele>1274.36</ele><time>2014-09-02T14:37:43Z</time></trkpt><trkpt lat="46.0655938648" lon="7.0185793284"><ele>1273.88</ele><time>2014-09-02T14:37:44Z</time></trkpt><trkpt lat="46.0655512009" lon="7.0185732096"><ele>1272.92</ele><time>2014-09-02T14:37:45Z</time></trkpt><trkpt lat="46.0655090399" lon="7.0185648277"><ele>1271.96</ele><time>2014-09-02T14:37:46Z</time></trkpt><trkpt lat="46.0654668789" lon="7.0185518358"><ele>1271.96</ele><time>2014-09-02T14:37:47Z</time></trkpt><trkpt lat="46.0653847363" lon="7.0185131952"><ele>1271.00</ele><time>2014-09-02T14:37:49Z</time></trkpt><trkpt lat="46.0651233047" lon="7.0183912385"><ele>1267.16</ele><time>2014-09-02T14:37:57Z</time></trkpt><trkpt lat="46.0651018471" lon="7.0184279513"><ele>1266.67</ele><time>2014-09-02T14:37:58Z</time></trkpt><trkpt lat="46.0650992487" lon="7.0184894744"><ele>1266.19</ele><time>2014-09-02T14:37:59Z</time></trkpt><trkpt lat="46.0651230533" lon="7.0185643248"><ele>1265.23</ele><time>2014-09-02T14:38:00Z</time></trkpt><trkpt lat="46.0651619453" lon="7.0186300389"><ele>1264.75</ele><time>2014-09-02T14:38:01Z</time></trkpt><trkpt lat="46.0652051959" lon="7.0186877903"><ele>1264.27</ele><time>2014-09-02T14:38:02Z</time></trkpt><trkpt lat="46.0652616899" lon="7.0187576953"><ele>1263.31</ele><time>2014-09-02T14:38:03Z</time></trkpt><trkpt lat="46.0655575711" lon="7.0191270858"><ele>1257.54</ele><time>2014-09-02T14:38:09Z</time></trkpt><trkpt lat="46.0661005508" lon="7.0197109692"><ele>1249.37</ele><time>2014-09-02T14:38:23Z</time></trkpt><trkpt lat="46.0662162211" lon="7.0198129769"><ele>1247.45</ele><time>2014-09-02T14:38:26Z</time></trkpt><trkpt lat="46.0665145330" lon="7.0200281404"><ele>1244.08</ele><time>2014-09-02T14:38:34Z</time></trkpt><trkpt lat="46.0665187240" lon="7.0200604107"><ele>1244.08</ele><time>2014-09-02T14:38:35Z</time></trkpt><trkpt lat="46.0665177181" lon="7.0200932678"><ele>1244.08</ele><time>2014-09-02T14:38:36Z</time></trkpt><trkpt lat="46.0665208194" lon="7.0201328304"><ele>1244.56</ele><time>2014-09-02T14:38:37Z</time></trkpt><trkpt lat="46.0665442888" lon="7.0201772545"><ele>1245.04</ele><time>2014-09-02T14:38:38Z</time></trkpt><trkpt lat="46.0665716138" lon="7.0201976225"><ele>1245.53</ele><time>2014-09-02T14:38:39Z</time></trkpt><trkpt lat="46.0665864497" lon="7.0202026516"><ele>1246.01</ele><time>2014-09-02T14:38:40Z</time></trkpt><trkpt lat="46.0666072369" lon="7.0202133805"><ele>1246.49</ele><time>2014-09-02T14:38:41Z</time></trkpt><trkpt lat="46.0666711908" lon="7.0202661026"><ele>1246.97</ele><time>2014-09-02T14:38:45Z</time></trkpt><trkpt lat="46.0666779801" lon="7.0202879794"><ele>1247.45</ele><time>2014-09-02T14:38:46Z</time></trkpt><trkpt lat="46.0666897986" lon="7.0203009713"><ele>1247.93</ele><time>2014-09-02T14:38:47Z</time></trkpt><trkpt lat="46.0667058919" lon="7.0203042403"><ele>1248.41</ele><time>2014-09-02T14:38:48Z</time></trkpt><trkpt lat="46.0667156987" lon="7.0203016419"><ele>1248.89</ele><time>2014-09-02T14:38:49Z</time></trkpt><trkpt lat="46.0667283554" lon="7.0202977862"><ele>1248.89</ele><time>2014-09-02T14:38:50Z</time></trkpt><trkpt lat="46.0667382460" lon="7.0202848781"><ele>1248.89</ele><time>2014-09-02T14:38:51Z</time></trkpt><trkpt lat="46.0667421017" lon="7.0202528592"><ele>1248.41</ele><time>2014-09-02T14:38:52Z</time></trkpt><trkpt lat="46.0667257570" lon="7.0202143025"><ele>1247.93</ele><time>2014-09-02T14:38:54Z</time></trkpt><trkpt lat="46.0666596238" lon="7.0201896597"><ele>1247.45</ele><time>2014-09-02T14:38:55Z</time></trkpt><trkpt lat="46.0666342266" lon="7.0201842953"><ele>1246.97</ele><time>2014-09-02T14:38:56Z</time></trkpt><trkpt lat="46.0665953346" lon="7.0201674476"><ele>1246.49</ele><time>2014-09-02T14:38:57Z</time></trkpt><trkpt lat="46.0665443726" lon="7.0201433077"><ele>1246.01</ele><time>2014-09-02T14:38:58Z</time></trkpt><trkpt lat="46.0657935217" lon="7.0196468476"><ele>1239.28</ele><time>2014-09-02T14:39:12Z</time></trkpt><trkpt lat="46.0656424798" lon="7.0195504557"><ele>1238.32</ele><time>2014-09-02T14:39:15Z</time></trkpt><trkpt lat="46.0655964632" lon="7.0195361227"><ele>1237.83</ele><time>2014-09-02T14:39:16Z</time></trkpt><trkpt lat="46.0655496083" lon="7.0195382182"><ele>1237.83</ele><time>2014-09-02T14:39:17Z</time></trkpt><trkpt lat="46.0655045137" lon="7.0195621066"><ele>1237.35</ele><time>2014-09-02T14:39:18Z</time></trkpt><trkpt lat="46.0654650349" lon="7.0196081232"><ele>1237.35</ele><time>2014-09-02T14:39:19Z</time></trkpt><trkpt lat="46.0654398892" lon="7.0196682215"><ele>1236.87</ele><time>2014-09-02T14:39:20Z</time></trkpt><trkpt lat="46.0654284898" lon="7.0197381265"><ele>1236.87</ele><time>2014-09-02T14:39:21Z</time></trkpt><trkpt lat="46.0654318426" lon="7.0198107138"><ele>1236.39</ele><time>2014-09-02T14:39:22Z</time></trkpt><trkpt lat="46.0654515401" lon="7.0198814571"><ele>1236.39</ele><time>2014-09-02T14:39:23Z</time></trkpt><trkpt lat="46.0654871631" lon="7.0199506078"><ele>1235.91</ele><time>2014-09-02T14:39:24Z</time></trkpt><trkpt lat="46.0655197687" lon="7.0199998934"><ele>1235.91</ele><time>2014-09-02T14:39:25Z</time></trkpt><trkpt lat="46.0655912664" lon="7.0200871490"><ele>1235.91</ele><time>2014-09-02T14:39:27Z</time></trkpt><trkpt lat="46.0656246264" lon="7.0201116242"><ele>1235.43</ele><time>2014-09-02T14:39:28Z</time></trkpt><trkpt lat="46.0656559747" lon="7.0201255381"><ele>1235.43</ele><time>2014-09-02T14:39:29Z</time></trkpt><trkpt lat="46.0656865686" lon="7.0201330818"><ele>1235.43</ele><time>2014-09-02T14:39:30Z</time></trkpt><trkpt lat="46.0657144804" lon="7.0201398712"><ele>1235.43</ele><time>2014-09-02T14:39:31Z</time></trkpt><trkpt lat="46.0657377820" lon="7.0201480854"><ele>1235.43</ele><time>2014-09-02T14:39:32Z</time></trkpt><trkpt lat="46.0657568090" lon="7.0201588143"><ele>1235.43</ele><time>2014-09-02T14:39:33Z</time></trkpt><trkpt lat="46.0657770932" lon="7.0201862231"><ele>1235.43</ele><time>2014-09-02T14:39:34Z</time></trkpt><trkpt lat="46.0657817870" lon="7.0202163979"><ele>1235.43</ele><time>2014-09-02T14:39:35Z</time></trkpt><trkpt lat="46.0657827090" lon="7.0202370174"><ele>1235.43</ele><time>2014-09-02T14:39:36Z</time></trkpt><trkpt lat="46.0657661129" lon="7.0202544518"><ele>1233.99</ele><time>2014-09-02T14:39:48Z</time></trkpt><trkpt lat="46.0657943599" lon="7.0202390291"><ele>1234.95</ele><time>2014-09-02T14:39:58Z</time></trkpt><trkpt lat="46.0658102017" lon="7.0202041604"><ele>1235.43</ele><time>2014-09-02T14:40:01Z</time></trkpt><trkpt lat="46.0658178292" lon="7.0201796852"><ele>1235.43</ele><time>2014-09-02T14:40:02Z</time></trkpt><trkpt lat="46.0658219364" lon="7.0201459061"><ele>1235.43</ele><time>2014-09-02T14:40:03Z</time></trkpt><trkpt lat="46.0658252891" lon="7.0201256219"><ele>1234.95</ele><time>2014-09-02T14:40:04Z</time></trkpt><trkpt lat="46.0658456571" lon="7.0201024041"><ele>1234.95</ele><time>2014-09-02T14:40:05Z</time></trkpt><trkpt lat="46.0658796038" lon="7.0201056730"><ele>1234.47</ele><time>2014-09-02T14:40:06Z</time></trkpt><trkpt lat="46.0659000557" lon="7.0201126300"><ele>1234.47</ele><time>2014-09-02T14:40:07Z</time></trkpt><trkpt lat="46.0659392830" lon="7.0201247837"><ele>1233.99</ele><time>2014-09-02T14:40:08Z</time></trkpt><trkpt lat="46.0659842100" lon="7.0201427210"><ele>1233.51</ele><time>2014-09-02T14:40:09Z</time></trkpt><trkpt lat="46.0661469027" lon="7.0202303119"><ele>1231.59</ele><time>2014-09-02T14:40:12Z</time></trkpt><trkpt lat="46.0662588011" lon="7.0203210879"><ele>1230.62</ele><time>2014-09-02T14:40:14Z</time></trkpt><trkpt lat="46.0663077515" lon="7.0203760732"><ele>1230.14</ele><time>2014-09-02T14:40:15Z</time></trkpt><trkpt lat="46.0663537681" lon="7.0204371773"><ele>1229.66</ele><time>2014-09-02T14:40:16Z</time></trkpt><trkpt lat="46.0666930676" lon="7.0208252594"><ele>1226.78</ele><time>2014-09-02T14:40:24Z</time></trkpt><trkpt lat="46.0667399224" lon="7.0208528358"><ele>1226.78</ele><time>2014-09-02T14:40:25Z</time></trkpt><trkpt lat="46.0674245562" lon="7.0211360604"><ele>1220.05</ele><time>2014-09-02T14:40:37Z</time></trkpt><trkpt lat="46.0683729686" lon="7.0215190295"><ele>1210.92</ele><time>2014-09-02T14:40:48Z</time></trkpt><trkpt lat="46.0692273360" lon="7.0222803578"><ele>1202.27</ele><time>2014-09-02T14:40:59Z</time></trkpt><trkpt lat="46.0701317433" lon="7.0228474773"><ele>1194.09</ele><time>2014-09-02T14:41:10Z</time></trkpt><trkpt lat="46.0711057205" lon="7.0234798081"><ele>1185.44</ele><time>2014-09-02T14:41:23Z</time></trkpt><trkpt lat="46.0714575928" lon="7.0237879269"><ele>1181.12</ele><time>2014-09-02T14:41:30Z</time></trkpt><trkpt lat="46.0715189483" lon="7.0238186046"><ele>1180.64</ele><time>2014-09-02T14:41:31Z</time></trkpt><trkpt lat="46.0723850504" lon="7.0240025874"><ele>1172.47</ele><time>2014-09-02T14:41:41Z</time></trkpt><trkpt lat="46.0730181355" lon="7.0241515338"><ele>1165.74</ele><time>2014-09-02T14:41:48Z</time></trkpt><trkpt lat="46.0730960872" lon="7.0242066029"><ele>1164.77</ele><time>2014-09-02T14:41:49Z</time></trkpt><trkpt lat="46.0731720272" lon="7.0242765080"><ele>1164.29</ele><time>2014-09-02T14:41:50Z</time></trkpt><trkpt lat="46.0732436087" lon="7.0243586507"><ele>1163.81</ele><time>2014-09-02T14:41:51Z</time></trkpt><trkpt lat="46.0733073950" lon="7.0244547911"><ele>1163.33</ele><time>2014-09-02T14:41:52Z</time></trkpt><trkpt lat="46.0733670741" lon="7.0245576371"><ele>1162.85</ele><time>2014-09-02T14:41:53Z</time></trkpt><trkpt lat="46.0735163558" lon="7.0248437114"><ele>1160.45</ele><time>2014-09-02T14:41:56Z</time></trkpt><trkpt lat="46.0735674854" lon="7.0249448810"><ele>1159.49</ele><time>2014-09-02T14:41:58Z</time></trkpt><trkpt lat="46.0735730175" lon="7.0249876287"><ele>1159.01</ele><time>2014-09-02T14:41:59Z</time></trkpt><trkpt lat="46.0736311879" lon="7.0253066439"><ele>1158.05</ele><time>2014-09-02T14:42:07Z</time></trkpt><trkpt lat="46.0736741032" lon="7.0253095776"><ele>1157.56</ele><time>2014-09-02T14:42:09Z</time></trkpt><trkpt lat="46.0736978240" lon="7.0253156126"><ele>1157.56</ele><time>2014-09-02T14:42:10Z</time></trkpt><trkpt lat="46.0737165157" lon="7.0253277663"><ele>1157.56</ele><time>2014-09-02T14:42:11Z</time></trkpt><trkpt lat="46.0737426672" lon="7.0253454521"><ele>1157.56</ele><time>2014-09-02T14:42:12Z</time></trkpt><trkpt lat="46.0737733450" lon="7.0253581088"><ele>1157.56</ele><time>2014-09-02T14:42:13Z</time></trkpt><trkpt lat="46.0738078784" lon="7.0253654011"><ele>1158.05</ele><time>2014-09-02T14:42:14Z</time></trkpt><trkpt lat="46.0738446750" lon="7.0253669936"><ele>1158.05</ele><time>2014-09-02T14:42:15Z</time></trkpt><trkpt lat="46.0738828965" lon="7.0253655687"><ele>1157.56</ele><time>2014-09-02T14:42:16Z</time></trkpt><trkpt lat="46.0742123891" lon="7.0252748765"><ele>1155.16</ele><time>2014-09-02T14:42:28Z</time></trkpt><trkpt lat="46.0742936097" lon="7.0252511557"><ele>1154.20</ele><time>2014-09-02T14:42:30Z</time></trkpt><trkpt lat="46.0745105334" lon="7.0252167061"><ele>1151.80</ele><time>2014-09-02T14:42:35Z</time></trkpt><trkpt lat="46.0745510180" lon="7.0252276864"><ele>1151.80</ele><time>2014-09-02T14:42:36Z</time></trkpt><trkpt lat="46.0745858867" lon="7.0252604596"><ele>1151.32</ele><time>2014-09-02T14:42:37Z</time></trkpt><trkpt lat="46.0746124573" lon="7.0253161155"><ele>1150.84</ele><time>2014-09-02T14:42:38Z</time></trkpt><trkpt lat="46.0746172350" lon="7.0253840089"><ele>1150.35</ele><time>2014-09-02T14:42:39Z</time></trkpt><trkpt lat="46.0745955259" lon="7.0254473761"><ele>1150.35</ele><time>2014-09-02T14:42:40Z</time></trkpt><trkpt lat="46.0745521076" lon="7.0254897047"><ele>1149.87</ele><time>2014-09-02T14:42:41Z</time></trkpt><trkpt lat="46.0745018162" lon="7.0255165268"><ele>1149.39</ele><time>2014-09-02T14:42:42Z</time></trkpt><trkpt lat="46.0744486749" lon="7.0255380683"><ele>1148.91</ele><time>2014-09-02T14:42:43Z</time></trkpt><trkpt lat="46.0736393183" lon="7.0256162714"><ele>1141.70</ele><time>2014-09-02T14:42:55Z</time></trkpt><trkpt lat="46.0735785495" lon="7.0255808998"><ele>1141.22</ele><time>2014-09-02T14:42:56Z</time></trkpt><trkpt lat="46.0735209659" lon="7.0255283453"><ele>1140.26</ele><time>2014-09-02T14:42:57Z</time></trkpt><trkpt lat="46.0734728537" lon="7.0254646428"><ele>1139.30</ele><time>2014-09-02T14:42:58Z</time></trkpt><trkpt lat="46.0734257475" lon="7.0253893733"><ele>1138.34</ele><time>2014-09-02T14:42:59Z</time></trkpt><trkpt lat="46.0732044652" lon="7.0250185579"><ele>1134.97</ele><time>2014-09-02T14:43:04Z</time></trkpt><trkpt lat="46.0731538385" lon="7.0249551907"><ele>1134.01</ele><time>2014-09-02T14:43:05Z</time></trkpt><trkpt lat="46.0731001105" lon="7.0248954277"><ele>1133.53</ele><time>2014-09-02T14:43:06Z</time></trkpt><trkpt lat="46.0730400961" lon="7.0248426218"><ele>1133.05</ele><time>2014-09-02T14:43:07Z</time></trkpt><trkpt lat="46.0729757231" lon="7.0248020533"><ele>1132.57</ele><time>2014-09-02T14:43:08Z</time></trkpt><trkpt lat="46.0729064886" lon="7.0247714594"><ele>1131.61</ele><time>2014-09-02T14:43:09Z</time></trkpt><trkpt lat="46.0728373379" lon="7.0247493312"><ele>1131.13</ele><time>2014-09-02T14:43:10Z</time></trkpt><trkpt lat="46.0727663431" lon="7.0247384347"><ele>1130.65</ele><time>2014-09-02T14:43:11Z</time></trkpt><trkpt lat="46.0726942588" lon="7.0247391891"><ele>1129.69</ele><time>2014-09-02T14:43:12Z</time></trkpt><trkpt lat="46.0726277903" lon="7.0247505885"><ele>1129.21</ele><time>2014-09-02T14:43:13Z</time></trkpt><trkpt lat="46.0725627467" lon="7.0247646701"><ele>1128.24</ele><time>2014-09-02T14:43:14Z</time></trkpt><trkpt lat="46.0722262971" lon="7.0248463936"><ele>1122.96</ele><time>2014-09-02T14:43:20Z</time></trkpt><trkpt lat="46.0721677076" lon="7.0248483215"><ele>1122.48</ele><time>2014-09-02T14:43:21Z</time></trkpt><trkpt lat="46.0720408056" lon="7.0248354133"><ele>1121.52</ele><time>2014-09-02T14:43:23Z</time></trkpt><trkpt lat="46.0719709843" lon="7.0248153806"><ele>1120.55</ele><time>2014-09-02T14:43:24Z</time></trkpt><trkpt lat="46.0717569105" lon="7.0247458108"><ele>1118.63</ele><time>2014-09-02T14:43:27Z</time></trkpt><trkpt lat="46.0716865025" lon="7.0247360040"><ele>1117.67</ele><time>2014-09-02T14:43:28Z</time></trkpt><trkpt lat="46.0716099758" lon="7.0247351658"><ele>1117.19</ele><time>2014-09-02T14:43:29Z</time></trkpt><trkpt lat="46.0715330299" lon="7.0247459784"><ele>1116.71</ele><time>2014-09-02T14:43:30Z</time></trkpt><trkpt lat="46.0714560840" lon="7.0247656759"><ele>1116.23</ele><time>2014-09-02T14:43:31Z</time></trkpt><trkpt lat="46.0713812336" lon="7.0247929171"><ele>1115.27</ele><time>2014-09-02T14:43:32Z</time></trkpt><trkpt lat="46.0713091493" lon="7.0248211641"><ele>1115.27</ele><time>2014-09-02T14:43:33Z</time></trkpt><trkpt lat="46.0709618032" lon="7.0249051508"><ele>1111.90</ele><time>2014-09-02T14:43:38Z</time></trkpt><trkpt lat="46.0708925687" lon="7.0249015465"><ele>1111.42</ele><time>2014-09-02T14:43:39Z</time></trkpt><trkpt lat="46.0708199814" lon="7.0248909015"><ele>1110.46</ele><time>2014-09-02T14:43:40Z</time></trkpt><trkpt lat="46.0707453825" lon="7.0248715393"><ele>1109.98</ele><time>2014-09-02T14:43:41Z</time></trkpt><trkpt lat="46.0706702806" lon="7.0248405263"><ele>1109.02</ele><time>2014-09-02T14:43:42Z</time></trkpt><trkpt lat="46.0705952626" lon="7.0248060767"><ele>1108.54</ele><time>2014-09-02T14:43:43Z</time></trkpt><trkpt lat="46.0702250339" lon="7.0246813539"><ele>1105.17</ele><time>2014-09-02T14:43:48Z</time></trkpt><trkpt lat="46.0701477528" lon="7.0246773306"><ele>1104.69</ele><time>2014-09-02T14:43:49Z</time></trkpt><trkpt lat="46.0700680409" lon="7.0246810187"><ele>1103.73</ele><time>2014-09-02T14:43:50Z</time></trkpt><trkpt lat="46.0699931905" lon="7.0246940106"><ele>1103.25</ele><time>2014-09-02T14:43:51Z</time></trkpt><trkpt lat="46.0699159093" lon="7.0247134566"><ele>1102.29</ele><time>2014-09-02T14:43:52Z</time></trkpt><trkpt lat="46.0688721947" lon="7.0250061527"><ele>1092.68</ele><time>2014-09-02T14:44:06Z</time></trkpt><trkpt lat="46.0688071512" lon="7.0250405185"><ele>1092.68</ele><time>2014-09-02T14:44:07Z</time></trkpt><trkpt lat="46.0687546805" lon="7.0250924863"><ele>1092.20</ele><time>2014-09-02T14:44:08Z</time></trkpt><trkpt lat="46.0687191412" lon="7.0251582004"><ele>1092.20</ele><time>2014-09-02T14:44:09Z</time></trkpt><trkpt lat="46.0687021259" lon="7.0252354816"><ele>1091.71</ele><time>2014-09-02T14:44:10Z</time></trkpt><trkpt lat="46.0687037185" lon="7.0253120922"><ele>1091.71</ele><time>2014-09-02T14:44:11Z</time></trkpt><trkpt lat="46.0687196441" lon="7.0253826678"><ele>1091.23</ele><time>2014-09-02T14:44:12Z</time></trkpt><trkpt lat="46.0687488131" lon="7.0254450291"><ele>1091.23</ele><time>2014-09-02T14:44:13Z</time></trkpt><trkpt lat="46.0687848553" lon="7.0254902076"><ele>1090.75</ele><time>2014-09-02T14:44:14Z</time></trkpt><trkpt lat="46.0688309558" lon="7.0255157724"><ele>1090.75</ele><time>2014-09-02T14:44:15Z</time></trkpt><trkpt lat="46.0688835941" lon="7.0255224779"><ele>1090.75</ele><time>2014-09-02T14:44:16Z</time></trkpt><trkpt lat="46.0689403396" lon="7.0255125035"><ele>1090.27</ele><time>2014-09-02T14:44:17Z</time></trkpt><trkpt lat="46.0689895414" lon="7.0254951529"><ele>1090.27</ele><time>2014-09-02T14:44:18Z</time></trkpt><trkpt lat="46.0690376535" lon="7.0254674088"><ele>1089.79</ele><time>2014-09-02T14:44:19Z</time></trkpt><trkpt lat="46.0690806527" lon="7.0254322048"><ele>1089.31</ele><time>2014-09-02T14:44:20Z</time></trkpt><trkpt lat="46.0691182874" lon="7.0253990125"><ele>1088.83</ele><time>2014-09-02T14:44:21Z</time></trkpt><trkpt lat="46.0691491328" lon="7.0253816620"><ele>1088.35</ele><time>2014-09-02T14:44:22Z</time></trkpt><trkpt lat="46.0691692494" lon="7.0253763814"><ele>1088.35</ele><time>2014-09-02T14:44:23Z</time></trkpt><trkpt lat="46.0691780504" lon="7.0253848471"><ele>1088.35</ele><time>2014-09-02T14:44:24Z</time></trkpt><trkpt lat="46.0691815708" lon="7.0253895409"><ele>1090.27</ele><time>2014-09-02T14:44:37Z</time></trkpt><trkpt lat="46.0691683274" lon="7.0253852662"><ele>1089.79</ele><time>2014-09-02T14:45:13Z</time></trkpt><trkpt lat="46.0691857617" lon="7.0253850985"><ele>1091.23</ele><time>2014-09-02T14:45:41Z</time></trkpt><trkpt lat="46.0691964068" lon="7.0253736991"><ele>1091.23</ele><time>2014-09-02T14:45:42Z</time></trkpt><trkpt lat="46.0692148469" lon="7.0253606234"><ele>1091.23</ele><time>2014-09-02T14:45:43Z</time></trkpt><trkpt lat="46.0693894420" lon="7.0252877008"><ele>1089.79</ele><time>2014-09-02T14:45:48Z</time></trkpt><trkpt lat="46.0694357939" lon="7.0252742898"><ele>1088.83</ele><time>2014-09-02T14:45:49Z</time></trkpt><trkpt lat="46.0694884323" lon="7.0252636448"><ele>1088.35</ele><time>2014-09-02T14:45:50Z</time></trkpt><trkpt lat="46.0700044222" lon="7.0253354777"><ele>1084.02</ele><time>2014-09-02T14:45:58Z</time></trkpt><trkpt lat="46.0700582340" lon="7.0253662392"><ele>1083.54</ele><time>2014-09-02T14:45:59Z</time></trkpt><trkpt lat="46.0701152310" lon="7.0254044607"><ele>1083.06</ele><time>2014-09-02T14:46:00Z</time></trkpt><trkpt lat="46.0703771655" lon="7.0256233960"><ele>1080.18</ele><time>2014-09-02T14:46:05Z</time></trkpt><trkpt lat="46.0707852803" lon="7.0259460993"><ele>1076.81</ele><time>2014-09-02T14:46:12Z</time></trkpt><trkpt lat="46.0708530899" lon="7.0259737596"><ele>1076.33</ele><time>2014-09-02T14:46:13Z</time></trkpt><trkpt lat="46.0709235817" lon="7.0259910263"><ele>1075.85</ele><time>2014-09-02T14:46:14Z</time></trkpt><trkpt lat="46.0709931515" lon="7.0260029286"><ele>1075.37</ele><time>2014-09-02T14:46:15Z</time></trkpt><trkpt lat="46.0710633919" lon="7.0260119811"><ele>1074.89</ele><time>2014-09-02T14:46:16Z</time></trkpt><trkpt lat="46.0720721539" lon="7.0260633621"><ele>1064.80</ele><time>2014-09-02T14:46:30Z</time></trkpt><trkpt lat="46.0721507762" lon="7.0261051040"><ele>1064.32</ele><time>2014-09-02T14:46:31Z</time></trkpt><trkpt lat="46.0723903310" lon="7.0262854826"><ele>1062.39</ele><time>2014-09-02T14:46:34Z</time></trkpt><trkpt lat="46.0731358174" lon="7.0273978449"><ele>1052.78</ele><time>2014-09-02T14:46:44Z</time></trkpt><trkpt lat="46.0742164124" lon="7.0284974668"><ele>1038.84</ele><time>2014-09-02T14:46:56Z</time></trkpt><trkpt lat="46.0744610801" lon="7.0286651887"><ele>1035.48</ele><time>2014-09-02T14:46:59Z</time></trkpt><trkpt lat="46.0746218450" lon="7.0287320763"><ele>1033.55</ele><time>2014-09-02T14:47:01Z</time></trkpt><trkpt lat="46.0747028980" lon="7.0287488401"><ele>1032.59</ele><time>2014-09-02T14:47:02Z</time></trkpt><trkpt lat="46.0749666765" lon="7.0287443139"><ele>1030.19</ele><time>2014-09-02T14:47:05Z</time></trkpt><trkpt lat="46.0750549380" lon="7.0287205931"><ele>1029.23</ele><time>2014-09-02T14:47:06Z</time></trkpt><trkpt lat="46.0757192038" lon="7.0285582356"><ele>1022.02</ele><time>2014-09-02T14:47:14Z</time></trkpt><trkpt lat="46.0758037772" lon="7.0285709761"><ele>1021.06</ele><time>2014-09-02T14:47:15Z</time></trkpt><trkpt lat="46.0758871771" lon="7.0285951160"><ele>1020.10</ele><time>2014-09-02T14:47:16Z</time></trkpt><trkpt lat="46.0759702418" lon="7.0286295656"><ele>1019.13</ele><time>2014-09-02T14:47:17Z</time></trkpt><trkpt lat="46.0760502890" lon="7.0286690444"><ele>1018.65</ele><time>2014-09-02T14:47:18Z</time></trkpt><trkpt lat="46.0769271199" lon="7.0294043049"><ele>1010.00</ele><time>2014-09-02T14:47:30Z</time></trkpt><trkpt lat="46.0775312874" lon="7.0306299906"><ele>999.43</ele><time>2014-09-02T14:47:40Z</time></trkpt><trkpt lat="46.0778512247" lon="7.0319376513"><ele>989.81</ele><time>2014-09-02T14:47:51Z</time></trkpt><trkpt lat="46.0778862610" lon="7.0320457779"><ele>988.85</ele><time>2014-09-02T14:47:52Z</time></trkpt><trkpt lat="46.0779354628" lon="7.0321409963"><ele>988.37</ele><time>2014-09-02T14:47:53Z</time></trkpt><trkpt lat="46.0779961478" lon="7.0322237257"><ele>987.41</ele><time>2014-09-02T14:47:54Z</time></trkpt><trkpt lat="46.0780645441" lon="7.0323015936"><ele>986.45</ele><time>2014-09-02T14:47:55Z</time></trkpt><trkpt lat="46.0787703004" lon="7.0329137240"><ele>979.24</ele><time>2014-09-02T14:48:04Z</time></trkpt><trkpt lat="46.0788449831" lon="7.0329413842"><ele>978.76</ele><time>2014-09-02T14:48:05Z</time></trkpt><trkpt lat="46.0789186601" lon="7.0329424739"><ele>978.28</ele><time>2014-09-02T14:48:06Z</time></trkpt><trkpt lat="46.0789914988" lon="7.0329221059"><ele>977.32</ele><time>2014-09-02T14:48:07Z</time></trkpt><trkpt lat="46.0790649243" lon="7.0328856446"><ele>976.84</ele><time>2014-09-02T14:48:08Z</time></trkpt><trkpt lat="46.0791391879" lon="7.0328360237"><ele>976.36</ele><time>2014-09-02T14:48:09Z</time></trkpt><trkpt lat="46.0792122781" lon="7.0327718183"><ele>975.39</ele><time>2014-09-02T14:48:10Z</time></trkpt><trkpt lat="46.0792800039" lon="7.0326980576"><ele>974.91</ele><time>2014-09-02T14:48:11Z</time></trkpt><trkpt lat="46.0793452151" lon="7.0326214470"><ele>973.95</ele><time>2014-09-02T14:48:12Z</time></trkpt><trkpt lat="46.0797446966" lon="7.0322714187"><ele>969.15</ele><time>2014-09-02T14:48:18Z</time></trkpt><trkpt lat="46.0798156075" lon="7.0322456025"><ele>968.67</ele><time>2014-09-02T14:48:19Z</time></trkpt><trkpt lat="46.0798922181" lon="7.0322382264"><ele>967.70</ele><time>2014-09-02T14:48:20Z</time></trkpt><trkpt lat="46.0799777135" lon="7.0322538167"><ele>966.74</ele><time>2014-09-02T14:48:21Z</time></trkpt><trkpt lat="46.0800602753" lon="7.0323005039"><ele>965.78</ele><time>2014-09-02T14:48:22Z</time></trkpt><trkpt lat="46.0801189486" lon="7.0323534776"><ele>964.82</ele><time>2014-09-02T14:48:23Z</time></trkpt><trkpt lat="46.0801913682" lon="7.0324367937"><ele>963.86</ele><time>2014-09-02T14:48:24Z</time></trkpt><trkpt lat="46.0802607704" lon="7.0325397234"><ele>962.90</ele><time>2014-09-02T14:48:25Z</time></trkpt><trkpt lat="46.0803116485" lon="7.0326263923"><ele>962.42</ele><time>2014-09-02T14:48:26Z</time></trkpt><trkpt lat="46.0803705733" lon="7.0327382069"><ele>961.46</ele><time>2014-09-02T14:48:27Z</time></trkpt><trkpt lat="46.0804258101" lon="7.0328560565"><ele>960.49</ele><time>2014-09-02T14:48:28Z</time></trkpt><trkpt lat="46.0809597373" lon="7.0341247413"><ele>950.88</ele><time>2014-09-02T14:48:40Z</time></trkpt><trkpt lat="46.0811087675" lon="7.0346173458"><ele>947.04</ele><time>2014-09-02T14:48:45Z</time></trkpt><trkpt lat="46.0811142158" lon="7.0347213652"><ele>946.07</ele><time>2014-09-02T14:48:46Z</time></trkpt><trkpt lat="46.0811110307" lon="7.0348300785"><ele>945.11</ele><time>2014-09-02T14:48:47Z</time></trkpt><trkpt lat="46.0810979549" lon="7.0349393785"><ele>944.63</ele><time>2014-09-02T14:48:48Z</time></trkpt><trkpt lat="46.0810711328" lon="7.0350467507"><ele>944.15</ele><time>2014-09-02T14:48:49Z</time></trkpt><trkpt lat="46.0810336657" lon="7.0351506863"><ele>943.19</ele><time>2014-09-02T14:48:50Z</time></trkpt><trkpt lat="46.0809879843" lon="7.0352476649"><ele>942.71</ele><time>2014-09-02T14:48:51Z</time></trkpt><trkpt lat="46.0809402075" lon="7.0353417099"><ele>942.23</ele><time>2014-09-02T14:48:52Z</time></trkpt><trkpt lat="46.0808999743" lon="7.0354364254"><ele>941.75</ele><time>2014-09-02T14:48:53Z</time></trkpt><trkpt lat="46.0808672011" lon="7.0355327334"><ele>941.27</ele><time>2014-09-02T14:48:54Z</time></trkpt><trkpt lat="46.0808409657" lon="7.0356297959"><ele>940.79</ele><time>2014-09-02T14:48:55Z</time></trkpt><trkpt lat="46.0808215197" lon="7.0357268583"><ele>940.31</ele><time>2014-09-02T14:48:56Z</time></trkpt><trkpt lat="46.0808152333" lon="7.0358258486"><ele>939.83</ele><time>2014-09-02T14:48:57Z</time></trkpt><trkpt lat="46.0808232799" lon="7.0359283593"><ele>939.35</ele><time>2014-09-02T14:48:58Z</time></trkpt><trkpt lat="46.0808478389" lon="7.0360284392"><ele>938.38</ele><time>2014-09-02T14:48:59Z</time></trkpt><trkpt lat="46.0808841325" lon="7.0361271780"><ele>937.90</ele><time>2014-09-02T14:49:00Z</time></trkpt><trkpt lat="46.0809288081" lon="7.0362228155"><ele>936.94</ele><time>2014-09-02T14:49:01Z</time></trkpt><trkpt lat="46.0809799377" lon="7.0363133401"><ele>936.46</ele><time>2014-09-02T14:49:02Z</time></trkpt><trkpt lat="46.0810375214" lon="7.0363997575"><ele>935.50</ele><time>2014-09-02T14:49:03Z</time></trkpt><trkpt lat="46.0814628191" lon="7.0369728282"><ele>929.73</ele><time>2014-09-02T14:49:10Z</time></trkpt><trkpt lat="46.0815310478" lon="7.0370254666"><ele>928.77</ele><time>2014-09-02T14:49:11Z</time></trkpt><trkpt lat="46.0817479715" lon="7.0371741615"><ele>926.37</ele><time>2014-09-02T14:49:14Z</time></trkpt><trkpt lat="46.0818115063" lon="7.0372494310"><ele>925.41</ele><time>2014-09-02T14:49:15Z</time></trkpt><trkpt lat="46.0818707664" lon="7.0373379439"><ele>924.45</ele><time>2014-09-02T14:49:16Z</time></trkpt><trkpt lat="46.0819234885" lon="7.0374319050"><ele>923.96</ele><time>2014-09-02T14:49:17Z</time></trkpt><trkpt lat="46.0819716845" lon="7.0375247765"><ele>923.48</ele><time>2014-09-02T14:49:18Z</time></trkpt><trkpt lat="46.0822156817" lon="7.0379493199"><ele>920.60</ele><time>2014-09-02T14:49:23Z</time></trkpt><trkpt lat="46.0831608251" lon="7.0391978044"><ele>908.58</ele><time>2014-09-02T14:49:39Z</time></trkpt><trkpt lat="46.0838582832" lon="7.0399117749"><ele>900.41</ele><time>2014-09-02T14:49:49Z</time></trkpt><trkpt lat="46.0840583593" lon="7.0400387608"><ele>898.49</ele><time>2014-09-02T14:49:52Z</time></trkpt><trkpt lat="46.0841278452" lon="7.0400566142"><ele>897.53</ele><time>2014-09-02T14:49:53Z</time></trkpt><trkpt lat="46.0845632013" lon="7.0400664210"><ele>892.72</ele><time>2014-09-02T14:49:59Z</time></trkpt><trkpt lat="46.0846336093" lon="7.0400828496"><ele>892.24</ele><time>2014-09-02T14:50:00Z</time></trkpt><trkpt lat="46.0847046878" lon="7.0401204843"><ele>891.28</ele><time>2014-09-02T14:50:01Z</time></trkpt><trkpt lat="46.0847730841" lon="7.0401724521"><ele>890.80</ele><time>2014-09-02T14:50:02Z</time></trkpt><trkpt lat="46.0848398879" lon="7.0402383339"><ele>889.84</ele><time>2014-09-02T14:50:03Z</time></trkpt><trkpt lat="46.0849002376" lon="7.0403151121"><ele>888.88</ele><time>2014-09-02T14:50:04Z</time></trkpt><trkpt lat="46.0849544685" lon="7.0404062234"><ele>888.40</ele><time>2014-09-02T14:50:05Z</time></trkpt><trkpt lat="46.0850046761" lon="7.0405077282"><ele>887.43</ele><time>2014-09-02T14:50:06Z</time></trkpt><trkpt lat="46.0850520339" lon="7.0406104904"><ele>886.95</ele><time>2014-09-02T14:50:07Z</time></trkpt><trkpt lat="46.0857645795" lon="7.0418852102"><ele>876.86</ele><time>2014-09-02T14:50:21Z</time></trkpt><trkpt lat="46.0865502991" lon="7.0428767893"><ele>867.25</ele><time>2014-09-02T14:50:34Z</time></trkpt><trkpt lat="46.0876867175" lon="7.0441651717"><ele>854.27</ele><time>2014-09-02T14:50:51Z</time></trkpt><trkpt lat="46.0888504609" lon="7.0452682301"><ele>841.77</ele><time>2014-09-02T14:51:07Z</time></trkpt><trkpt lat="46.0890692286" lon="7.0454274025"><ele>839.85</ele><time>2014-09-02T14:51:10Z</time></trkpt><trkpt lat="46.0891463421" lon="7.0454623550"><ele>838.89</ele><time>2014-09-02T14:51:11Z</time></trkpt><trkpt lat="46.0900388472" lon="7.0459812786"><ele>830.24</ele><time>2014-09-02T14:51:23Z</time></trkpt><trkpt lat="46.0909601860" lon="7.0470461156"><ele>819.18</ele><time>2014-09-02T14:51:36Z</time></trkpt><trkpt lat="46.0915012378" lon="7.0481516048"><ele>810.53</ele><time>2014-09-02T14:51:47Z</time></trkpt><trkpt lat="46.0918510985" lon="7.0491008554"><ele>803.80</ele><time>2014-09-02T14:51:57Z</time></trkpt><trkpt lat="46.0919001326" lon="7.0491764601"><ele>802.84</ele><time>2014-09-02T14:51:58Z</time></trkpt><trkpt lat="46.0919518489" lon="7.0492474549"><ele>802.36</ele><time>2014-09-02T14:51:59Z</time></trkpt><trkpt lat="46.0926985927" lon="7.0502751600"><ele>793.22</ele><time>2014-09-02T14:52:12Z</time></trkpt><trkpt lat="46.0934919398" lon="7.0514944755"><ele>781.69</ele><time>2014-09-02T14:52:26Z</time></trkpt><trkpt lat="46.0940553714" lon="7.0521474257"><ele>775.44</ele><time>2014-09-02T14:52:34Z</time></trkpt><trkpt lat="46.0952141695" lon="7.0530084148"><ele>763.42</ele><time>2014-09-02T14:52:47Z</time></trkpt><trkpt lat="46.0966988560" lon="7.0543288998"><ele>747.56</ele><time>2014-09-02T14:53:05Z</time></trkpt><trkpt lat="46.0973989964" lon="7.0547930058"><ele>740.35</ele><time>2014-09-02T14:53:14Z</time></trkpt><trkpt lat="46.0977740865" lon="7.0552705228"><ele>735.07</ele><time>2014-09-02T14:53:21Z</time></trkpt><trkpt lat="46.0983049124" lon="7.0559636224"><ele>729.78</ele><time>2014-09-02T14:53:31Z</time></trkpt><trkpt lat="46.0991306137" lon="7.0570311416"><ele>719.68</ele><time>2014-09-02T14:53:44Z</time></trkpt><trkpt lat="46.0997346137" lon="7.0581968129"><ele>710.07</ele><time>2014-09-02T14:53:56Z</time></trkpt><trkpt lat="46.1001439020" lon="7.0596742071"><ele>699.50</ele><time>2014-09-02T14:54:08Z</time></trkpt><trkpt lat="46.1004945170" lon="7.0604898501"><ele>693.73</ele><time>2014-09-02T14:54:15Z</time></trkpt><trkpt lat="46.1005464010" lon="7.0605708193"><ele>693.25</ele><time>2014-09-02T14:54:16Z</time></trkpt><trkpt lat="46.1006064992" lon="7.0606517885"><ele>692.29</ele><time>2014-09-02T14:54:17Z</time></trkpt><trkpt lat="46.1015093978" lon="7.0617042203"><ele>682.67</ele><time>2014-09-02T14:54:31Z</time></trkpt><trkpt lat="46.1022435687" lon="7.0626130700"><ele>674.02</ele><time>2014-09-02T14:54:44Z</time></trkpt><trkpt lat="46.1030849442" lon="7.0637520030"><ele>662.49</ele><time>2014-09-02T14:54:59Z</time></trkpt><trkpt lat="46.1032880377" lon="7.0640238281"><ele>660.56</ele><time>2014-09-02T14:55:04Z</time></trkpt><trkpt lat="46.1033260915" lon="7.0640576072"><ele>660.08</ele><time>2014-09-02T14:55:05Z</time></trkpt><trkpt lat="46.1033656541" lon="7.0640805736"><ele>659.12</ele><time>2014-09-02T14:55:06Z</time></trkpt><trkpt lat="46.1036456097" lon="7.0643021073"><ele>652.39</ele><time>2014-09-02T14:55:16Z</time></trkpt><trkpt lat="46.1036456935" lon="7.0643396582"><ele>651.91</ele><time>2014-09-02T14:55:17Z</time></trkpt><trkpt lat="46.1036356352" lon="7.0643775444"><ele>651.43</ele><time>2014-09-02T14:55:18Z</time></trkpt><trkpt lat="46.1036186200" lon="7.0644163527"><ele>650.95</ele><time>2014-09-02T14:55:19Z</time></trkpt><trkpt lat="46.1036004312" lon="7.0644585975"><ele>650.95</ele><time>2014-09-02T14:55:20Z</time></trkpt><trkpt lat="46.1035841703" lon="7.0644965675"><ele>651.43</ele><time>2014-09-02T14:55:21Z</time></trkpt><trkpt lat="46.1035718489" lon="7.0645276643"><ele>651.43</ele><time>2014-09-02T14:55:22Z</time></trkpt><trkpt lat="46.1035668198" lon="7.0645492896"><ele>651.91</ele><time>2014-09-02T14:55:23Z</time></trkpt><trkpt lat="46.1035648920" lon="7.0645712502"><ele>654.31</ele><time>2014-09-02T14:55:35Z</time></trkpt><trkpt lat="46.1035457812" lon="7.0645779558"><ele>653.83</ele><time>2014-09-02T14:55:56Z</time></trkpt><trkpt lat="46.1035753693" lon="7.0645612758"><ele>652.87</ele><time>2014-09-02T14:56:19Z</time></trkpt><trkpt lat="46.1035847571" lon="7.0645592641"><ele>651.91</ele><time>2014-09-02T14:56:40Z</time></trkpt><trkpt lat="46.1035854276" lon="7.0645695738"><ele>654.31</ele><time>2014-09-02T14:57:01Z</time></trkpt><trkpt lat="46.1036163568" lon="7.0645948872"><ele>657.68</ele><time>2014-09-02T14:57:27Z</time></trkpt><trkpt lat="46.1035935581" lon="7.0645966474"><ele>658.16</ele><time>2014-09-02T14:57:51Z</time></trkpt><trkpt lat="46.1036162730" lon="7.0646306779"><ele>661.52</ele><time>2014-09-02T14:58:12Z</time></trkpt><trkpt lat="46.1035842542" lon="7.0646005031"><ele>660.08</ele><time>2014-09-02T14:58:39Z</time></trkpt><trkpt lat="46.1035503075" lon="7.0645677298"><ele>661.04</ele><time>2014-09-02T14:59:06Z</time></trkpt><trkpt lat="46.1035628803" lon="7.0645797160"><ele>660.08</ele><time>2014-09-02T14:59:30Z</time></trkpt><trkpt lat="46.1035555881" lon="7.0645662211"><ele>657.20</ele><time>2014-09-02T14:59:55Z</time></trkpt><trkpt lat="46.1035402492" lon="7.0645504631"><ele>655.76</ele><time>2014-09-02T15:00:15Z</time></trkpt><trkpt lat="46.1035968270" lon="7.0645735133"><ele>657.20</ele><time>2014-09-02T15:00:41Z</time></trkpt><trkpt lat="46.1035783030" lon="7.0645865891"><ele>657.68</ele><time>2014-09-02T15:01:06Z</time></trkpt><trkpt lat="46.1035897024" lon="7.0646181889"><ele>662.01</ele><time>2014-09-02T15:01:33Z</time></trkpt><trkpt lat="46.1035910435" lon="7.0646342821"><ele>662.49</ele><time>2014-09-02T15:01:56Z</time></trkpt><trkpt lat="46.1035817396" lon="7.0646207035"><ele>664.89</ele><time>2014-09-02T15:02:22Z</time></trkpt><trkpt lat="46.1035933066" lon="7.0646282472"><ele>664.89</ele><time>2014-09-02T15:02:53Z</time></trkpt><trkpt lat="46.1036126688" lon="7.0646234695"><ele>663.93</ele><time>2014-09-02T15:03:27Z</time></trkpt><trkpt lat="46.1035954021" lon="7.0646304265"><ele>664.41</ele><time>2014-09-02T15:03:56Z</time></trkpt><trkpt lat="46.1035917141" lon="7.0646193624"><ele>660.08</ele><time>2014-09-02T15:04:17Z</time></trkpt><trkpt lat="46.1036032811" lon="7.0646021795"><ele>659.60</ele><time>2014-09-02T15:04:35Z</time></trkpt><trkpt lat="46.1036187876" lon="7.0646142494"><ele>662.97</ele><time>2014-09-02T15:05:07Z</time></trkpt><trkpt lat="46.1035789736" lon="7.0645778719"><ele>661.52</ele><time>2014-09-02T15:05:40Z</time></trkpt><trkpt lat="46.1035783030" lon="7.0645915344"><ele>661.52</ele><time>2014-09-02T15:06:08Z</time></trkpt><trkpt lat="46.1035720166" lon="7.0645955577"><ele>662.97</ele><time>2014-09-02T15:06:32Z</time></trkpt><trkpt lat="46.1035499722" lon="7.0645730942"><ele>660.08</ele><time>2014-09-02T15:06:52Z</time></trkpt><trkpt lat="46.1035534926" lon="7.0645585097"><ele>659.60</ele><time>2014-09-02T15:06:53Z</time></trkpt><trkpt lat="46.1035577673" lon="7.0645333640"><ele>659.12</ele><time>2014-09-02T15:06:54Z</time></trkpt><trkpt lat="46.1035565939" lon="7.0645098109"><ele>659.12</ele><time>2014-09-02T15:06:55Z</time></trkpt><trkpt lat="46.1035400815" lon="7.0644744392"><ele>658.64</ele><time>2014-09-02T15:06:56Z</time></trkpt><trkpt lat="46.1035229824" lon="7.0644591004"><ele>658.16</ele><time>2014-09-02T15:06:57Z</time></trkpt><trkpt lat="46.1034941487" lon="7.0644321106"><ele>657.68</ele><time>2014-09-02T15:06:58Z</time></trkpt><trkpt lat="46.1029091757" lon="7.0638525859"><ele>650.47</ele><time>2014-09-02T15:07:11Z</time></trkpt><trkpt lat="46.1019393057" lon="7.0630354341"><ele>640.38</ele><time>2014-09-02T15:07:23Z</time></trkpt><trkpt lat="46.1006512586" lon="7.0621272549"><ele>626.44</ele><time>2014-09-02T15:07:39Z</time></trkpt><trkpt lat="46.1000610888" lon="7.0619057212"><ele>620.67</ele><time>2014-09-02T15:07:46Z</time></trkpt><trkpt lat="46.0999958776" lon="7.0618539210"><ele>619.71</ele><time>2014-09-02T15:07:47Z</time></trkpt><trkpt lat="46.0999379586" lon="7.0617871173"><ele>619.23</ele><time>2014-09-02T15:07:48Z</time></trkpt><trkpt lat="46.0998857394" lon="7.0617078245"><ele>618.26</ele><time>2014-09-02T15:07:49Z</time></trkpt><trkpt lat="46.0998346936" lon="7.0616225805"><ele>617.78</ele><time>2014-09-02T15:07:50Z</time></trkpt><trkpt lat="46.0997902695" lon="7.0615391806"><ele>616.82</ele><time>2014-09-02T15:07:51Z</time></trkpt><trkpt lat="46.0997010022" lon="7.0613619033"><ele>615.86</ele><time>2014-09-02T15:07:53Z</time></trkpt><trkpt lat="46.0996057838" lon="7.0611987077"><ele>614.42</ele><time>2014-09-02T15:07:55Z</time></trkpt><trkpt lat="46.0987836868" lon="7.0603953023"><ele>606.25</ele><time>2014-09-02T15:08:07Z</time></trkpt><trkpt lat="46.0977921914" lon="7.0593987778"><ele>595.67</ele><time>2014-09-02T15:08:20Z</time></trkpt><trkpt lat="46.0977208614" lon="7.0593614783"><ele>594.71</ele><time>2014-09-02T15:08:21Z</time></trkpt><trkpt lat="46.0976499505" lon="7.0593516715"><ele>594.23</ele><time>2014-09-02T15:08:22Z</time></trkpt><trkpt lat="46.0975794587" lon="7.0593612269"><ele>593.75</ele><time>2014-09-02T15:08:23Z</time></trkpt><trkpt lat="46.0974994116" lon="7.0593817625"><ele>592.79</ele><time>2014-09-02T15:08:24Z</time></trkpt><trkpt lat="46.0971838329" lon="7.0594899729"><ele>589.91</ele><time>2014-09-02T15:08:28Z</time></trkpt><trkpt lat="46.0970939789" lon="7.0594954211"><ele>588.95</ele><time>2014-09-02T15:08:29Z</time></trkpt><trkpt lat="46.0970034543" lon="7.0594779029"><ele>587.98</ele><time>2014-09-02T15:08:30Z</time></trkpt><trkpt lat="46.0969156958" lon="7.0594400167"><ele>587.02</ele><time>2014-09-02T15:08:31Z</time></trkpt><trkpt lat="46.0968291108" lon="7.0593877975"><ele>586.06</ele><time>2014-09-02T15:08:32Z</time></trkpt><trkpt lat="46.0958855599" lon="7.0587773435"><ele>576.45</ele><time>2014-09-02T15:08:44Z</time></trkpt><trkpt lat="46.0958126374" lon="7.0587147307"><ele>575.97</ele><time>2014-09-02T15:08:45Z</time></trkpt><trkpt lat="46.0957424808" lon="7.0586396288"><ele>575.01</ele><time>2014-09-02T15:08:46Z</time></trkpt><trkpt lat="46.0956729949" lon="7.0585522056"><ele>574.04</ele><time>2014-09-02T15:08:47Z</time></trkpt><trkpt lat="46.0953585897" lon="7.0581887662"><ele>570.68</ele><time>2014-09-02T15:08:51Z</time></trkpt><trkpt lat="46.0952628683" lon="7.0581120718"><ele>569.72</ele><time>2014-09-02T15:08:52Z</time></trkpt><trkpt lat="46.0941752326" lon="7.0573887974"><ele>559.14</ele><time>2014-09-02T15:09:03Z</time></trkpt><trkpt lat="46.0933559854" lon="7.0566274691"><ele>550.01</ele><time>2014-09-02T15:09:13Z</time></trkpt><trkpt lat="46.0927713476" lon="7.0559694897"><ele>543.76</ele><time>2014-09-02T15:09:20Z</time></trkpt><trkpt lat="46.0926828347" lon="7.0559038594"><ele>542.80</ele><time>2014-09-02T15:09:21Z</time></trkpt><trkpt lat="46.0921427049" lon="7.0555326249"><ele>536.55</ele><time>2014-09-02T15:09:27Z</time></trkpt><trkpt lat="46.0912363697" lon="7.0547890663"><ele>527.90</ele><time>2014-09-02T15:09:38Z</time></trkpt><trkpt lat="46.0902649909" lon="7.0543726534"><ele>518.29</ele><time>2014-09-02T15:09:48Z</time></trkpt><trkpt lat="46.0900346562" lon="7.0543086994"><ele>516.85</ele><time>2014-09-02T15:09:51Z</time></trkpt><trkpt lat="46.0899535194" lon="7.0543052629"><ele>515.88</ele><time>2014-09-02T15:09:52Z</time></trkpt><trkpt lat="46.0898748133" lon="7.0543170813"><ele>515.40</ele><time>2014-09-02T15:09:53Z</time></trkpt><trkpt lat="46.0897997953" lon="7.0543398801"><ele>514.92</ele><time>2014-09-02T15:09:54Z</time></trkpt><trkpt lat="46.0897261184" lon="7.0543759223"><ele>514.44</ele><time>2014-09-02T15:09:55Z</time></trkpt><trkpt lat="46.0896563809" lon="7.0544210169"><ele>513.48</ele><time>2014-09-02T15:09:56Z</time></trkpt><trkpt lat="46.0895886552" lon="7.0544731524"><ele>513.00</ele><time>2014-09-02T15:09:57Z</time></trkpt><trkpt lat="46.0895217676" lon="7.0545350946"><ele>512.04</ele><time>2014-09-02T15:09:58Z</time></trkpt><trkpt lat="46.0894631781" lon="7.0545912534"><ele>511.56</ele><time>2014-09-02T15:09:59Z</time></trkpt><trkpt lat="46.0891478509" lon="7.0548333228"><ele>507.71</ele><time>2014-09-02T15:10:04Z</time></trkpt><trkpt lat="46.0890792031" lon="7.0548555348"><ele>506.75</ele><time>2014-09-02T15:10:05Z</time></trkpt><trkpt lat="46.0890061129" lon="7.0548647549"><ele>506.27</ele><time>2014-09-02T15:10:06Z</time></trkpt><trkpt lat="46.0883734468" lon="7.0549119450"><ele>504.35</ele><time>2014-09-02T15:10:17Z</time></trkpt><trkpt lat="46.0882450361" lon="7.0549494959"><ele>504.83</ele><time>2014-09-02T15:10:22Z</time></trkpt><trkpt lat="46.0882345587" lon="7.0549689420"><ele>504.83</ele><time>2014-09-02T15:10:23Z</time></trkpt><trkpt lat="46.0882254224" lon="7.0549834426"><ele>504.83</ele><time>2014-09-02T15:10:24Z</time></trkpt><trkpt lat="46.0882145260" lon="7.0549987815"><ele>505.31</ele><time>2014-09-02T15:10:38Z</time></trkpt><trkpt lat="46.0882340558" lon="7.0550119411"><ele>505.79</ele><time>2014-09-02T15:11:08Z</time></trkpt><trkpt lat="46.0882130172" lon="7.0550354943"><ele>505.79</ele><time>2014-09-02T15:11:18Z</time></trkpt><trkpt lat="46.0881994385" lon="7.0550405234"><ele>505.79</ele><time>2014-09-02T15:11:19Z</time></trkpt><trkpt lat="46.0881856084" lon="7.0550524257"><ele>505.79</ele><time>2014-09-02T15:11:20Z</time></trkpt><trkpt lat="46.0881726164" lon="7.0550744701"><ele>505.79</ele><time>2014-09-02T15:11:21Z</time></trkpt><trkpt lat="46.0881610494" lon="7.0550953411"><ele>505.31</ele><time>2014-09-02T15:11:22Z</time></trkpt><trkpt lat="46.0881441180" lon="7.0551140327"><ele>505.31</ele><time>2014-09-02T15:11:23Z</time></trkpt><trkpt lat="46.0881158710" lon="7.0551361609"><ele>505.31</ele><time>2014-09-02T15:11:24Z</time></trkpt><trkpt lat="46.0880981013" lon="7.0551455487"><ele>505.31</ele><time>2014-09-02T15:11:25Z</time></trkpt><trkpt lat="46.0880647413" lon="7.0551573671"><ele>505.79</ele><time>2014-09-02T15:11:26Z</time></trkpt><trkpt lat="46.0880364943" lon="7.0551636536"><ele>506.27</ele><time>2014-09-02T15:11:27Z</time></trkpt><trkpt lat="46.0880048946" lon="7.0551660005"><ele>506.27</ele><time>2014-09-02T15:11:28Z</time></trkpt><trkpt lat="46.0876220092" lon="7.0549681038"><ele>509.64</ele><time>2014-09-02T15:11:40Z</time></trkpt><trkpt lat="46.0872555524" lon="7.0547692012"><ele>512.52</ele><time>2014-09-02T15:11:55Z</time></trkpt><trkpt lat="46.0868397262" lon="7.0545672812"><ele>514.44</ele><time>2014-09-02T15:12:10Z</time></trkpt><trkpt lat="46.0864272527" lon="7.0544140600"><ele>515.40</ele><time>2014-09-02T15:12:24Z</time></trkpt><trkpt lat="46.0858843569" lon="7.0543086994"><ele>517.33</ele><time>2014-09-02T15:12:39Z</time></trkpt><trkpt lat="46.0851586517" lon="7.0543268882"><ele>520.21</ele><time>2014-09-02T15:12:58Z</time></trkpt><trkpt lat="46.0845329426" lon="7.0542301610"><ele>522.13</ele><time>2014-09-02T15:13:14Z</time></trkpt><trkpt lat="46.0840983409" lon="7.0538442582"><ele>523.09</ele><time>2014-09-02T15:13:28Z</time></trkpt><trkpt lat="46.0837513302" lon="7.0533801522"><ele>524.06</ele><time>2014-09-02T15:13:42Z</time></trkpt><trkpt lat="46.0833787546" lon="7.0530191436"><ele>526.94</ele><time>2014-09-02T15:13:57Z</time></trkpt><trkpt lat="46.0829228628" lon="7.0528473146"><ele>528.38</ele><time>2014-09-02T15:14:15Z</time></trkpt><trkpt lat="46.0825355351" lon="7.0528793335"><ele>531.75</ele><time>2014-09-02T15:14:30Z</time></trkpt><trkpt lat="46.0822089761" lon="7.0530220773"><ele>532.23</ele><time>2014-09-02T15:14:43Z</time></trkpt><trkpt lat="46.0819503106" lon="7.0531743765"><ele>533.67</ele><time>2014-09-02T15:14:54Z</time></trkpt><trkpt lat="46.0819255002" lon="7.0531840995"><ele>533.67</ele><time>2014-09-02T15:14:55Z</time></trkpt><trkpt lat="46.0819016118" lon="7.0531959180"><ele>533.67</ele><time>2014-09-02T15:14:56Z</time></trkpt><trkpt lat="46.0818772204" lon="7.0532109216"><ele>533.67</ele><time>2014-09-02T15:14:57Z</time></trkpt><trkpt lat="46.0818528291" lon="7.0532237459"><ele>533.67</ele><time>2014-09-02T15:14:58Z</time></trkpt><trkpt lat="46.0818308685" lon="7.0532411803"><ele>533.67</ele><time>2014-09-02T15:14:59Z</time></trkpt><trkpt lat="46.0818073992" lon="7.0532544237"><ele>533.67</ele><time>2014-09-02T15:15:00Z</time></trkpt><trkpt lat="46.0817835946" lon="7.0532687567"><ele>534.15</ele><time>2014-09-02T15:15:01Z</time></trkpt><trkpt lat="46.0817627236" lon="7.0532825869"><ele>534.15</ele><time>2014-09-02T15:15:02Z</time></trkpt><trkpt lat="46.0817404278" lon="7.0532970037"><ele>534.63</ele><time>2014-09-02T15:15:03Z</time></trkpt><trkpt lat="46.0817193054" lon="7.0533105824"><ele>535.11</ele><time>2014-09-02T15:15:04Z</time></trkpt><trkpt lat="46.0813988652" lon="7.0534637198"><ele>538.96</ele><time>2014-09-02T15:15:18Z</time></trkpt><trkpt lat="46.0811535269" lon="7.0535329543"><ele>543.28</ele><time>2014-09-02T15:15:30Z</time></trkpt><trkpt lat="46.0808373615" lon="7.0535522327"><ele>546.65</ele><time>2014-09-02T15:15:46Z</time></trkpt><trkpt lat="46.0804965533" lon="7.0535239857"><ele>549.05</ele><time>2014-09-02T15:16:04Z</time></trkpt><trkpt lat="46.0802101437" lon="7.0535383187"><ele>549.05</ele><time>2014-09-02T15:16:18Z</time></trkpt><trkpt lat="46.0801870935" lon="7.0535513945"><ele>547.61</ele><time>2014-09-02T15:16:29Z</time></trkpt><trkpt lat="46.0801828187" lon="7.0535390731"><ele>549.05</ele><time>2014-09-02T15:16:46Z</time></trkpt><trkpt lat="46.0802133288" lon="7.0535387378"><ele>546.65</ele><time>2014-09-02T15:17:16Z</time></trkpt><trkpt lat="46.0801931284" lon="7.0535235666"><ele>544.72</ele><time>2014-09-02T15:17:42Z</time></trkpt><trkpt lat="46.0801834054" lon="7.0535324514"><ele>543.76</ele><time>2014-09-02T15:18:00Z</time></trkpt><trkpt lat="46.0801636241" lon="7.0535431802"><ele>544.24</ele><time>2014-09-02T15:18:11Z</time></trkpt><trkpt lat="46.0801388137" lon="7.0535399951"><ele>543.76</ele><time>2014-09-02T15:18:15Z</time></trkpt><trkpt lat="46.0801249836" lon="7.0535470359"><ele>543.76</ele><time>2014-09-02T15:18:16Z</time></trkpt><trkpt lat="46.0798108298" lon="7.0535975788"><ele>546.65</ele><time>2014-09-02T15:18:30Z</time></trkpt><trkpt lat="46.0795251746" lon="7.0535791386"><ele>548.09</ele><time>2014-09-02T15:18:42Z</time></trkpt><trkpt lat="46.0791184846" lon="7.0534232352"><ele>551.93</ele><time>2014-09-02T15:19:01Z</time></trkpt><trkpt lat="46.0789293889" lon="7.0532799885"><ele>553.86</ele><time>2014-09-02T15:19:12Z</time></trkpt><trkpt lat="46.0789179895" lon="7.0532605425"><ele>553.86</ele><time>2014-09-02T15:19:13Z</time></trkpt><trkpt lat="46.0789084341" lon="7.0532417670"><ele>554.34</ele><time>2014-09-02T15:19:14Z</time></trkpt><trkpt lat="46.0788947716" lon="7.0532178786"><ele>553.86</ele><time>2014-09-02T15:19:15Z</time></trkpt><trkpt lat="46.0788817797" lon="7.0531986840"><ele>554.34</ele><time>2014-09-02T15:19:16Z</time></trkpt><trkpt lat="46.0788669437" lon="7.0531819202"><ele>554.34</ele><time>2014-09-02T15:19:17Z</time></trkpt><trkpt lat="46.0788515210" lon="7.0531638991"><ele>554.82</ele><time>2014-09-02T15:19:18Z</time></trkpt><trkpt lat="46.0786513612" lon="7.0528990310"><ele>557.70</ele><time>2014-09-02T15:19:33Z</time></trkpt><trkpt lat="46.0785996448" lon="7.0527681895"><ele>560.11</ele><time>2014-09-02T15:19:39Z</time></trkpt><trkpt lat="46.0784128960" lon="7.0524985436"><ele>562.03</ele><time>2014-09-02T15:19:53Z</time></trkpt><trkpt lat="46.0782034323" lon="7.0522149000"><ele>564.43</ele><time>2014-09-02T15:20:07Z</time></trkpt><trkpt lat="46.0780904442" lon="7.0520718209"><ele>566.35</ele><time>2014-09-02T15:20:14Z</time></trkpt><trkpt lat="46.0778441001" lon="7.0518564899"><ele>568.76</ele><time>2014-09-02T15:20:28Z</time></trkpt><trkpt lat="46.0777503904" lon="7.0517948829"><ele>569.24</ele><time>2014-09-02T15:20:33Z</time></trkpt><trkpt lat="46.0774364881" lon="7.0516727585"><ele>566.35</ele><time>2014-09-02T15:20:48Z</time></trkpt><trkpt lat="46.0771338176" lon="7.0515833236"><ele>564.91</ele><time>2014-09-02T15:21:02Z</time></trkpt><trkpt lat="46.0768212564" lon="7.0515258238"><ele>563.95</ele><time>2014-09-02T15:21:17Z</time></trkpt><trkpt lat="46.0765359364" lon="7.0515321940"><ele>564.91</ele><time>2014-09-02T15:21:32Z</time></trkpt><trkpt lat="46.0762585793" lon="7.0515504666"><ele>566.83</ele><time>2014-09-02T15:21:46Z</time></trkpt><trkpt lat="46.0762108024" lon="7.0515501313"><ele>567.80</ele><time>2014-09-02T15:21:56Z</time></trkpt><trkpt lat="46.0762133170" lon="7.0515529811"><ele>567.32</ele><time>2014-09-02T15:22:26Z</time></trkpt><trkpt lat="46.0762039293" lon="7.0515549928"><ele>563.47</ele><time>2014-09-02T15:23:10Z</time></trkpt><trkpt lat="46.0762222856" lon="7.0515649673"><ele>565.39</ele><time>2014-09-02T15:23:42Z</time></trkpt><trkpt lat="46.0761105549" lon="7.0515658893"><ele>565.39</ele><time>2014-09-02T15:24:06Z</time></trkpt><trkpt lat="46.0758527275" lon="7.0515772887"><ele>567.32</ele><time>2014-09-02T15:24:19Z</time></trkpt><trkpt lat="46.0758189484" lon="7.0515860897"><ele>568.76</ele><time>2014-09-02T15:24:35Z</time></trkpt><trkpt lat="46.0755327065" lon="7.0516388956"><ele>572.60</ele><time>2014-09-02T15:24:48Z</time></trkpt><trkpt lat="46.0753272660" lon="7.0517064538"><ele>575.49</ele><time>2014-09-02T15:24:58Z</time></trkpt><trkpt lat="46.0753092449" lon="7.0517199486"><ele>575.49</ele><time>2014-09-02T15:24:59Z</time></trkpt><trkpt lat="46.0752894636" lon="7.0517322700"><ele>575.49</ele><time>2014-09-02T15:25:00Z</time></trkpt><trkpt lat="46.0752701014" lon="7.0517397299"><ele>575.49</ele><time>2014-09-02T15:25:01Z</time></trkpt><trkpt lat="46.0752472188" lon="7.0517511293"><ele>575.49</ele><time>2014-09-02T15:25:02Z</time></trkpt><trkpt lat="46.0752265155" lon="7.0517632831"><ele>575.49</ele><time>2014-09-02T15:25:03Z</time></trkpt><trkpt lat="46.0745145567" lon="7.0521298237"><ele>565.39</ele><time>2014-09-02T15:25:41Z</time></trkpt><trkpt lat="46.0745009780" lon="7.0521460846"><ele>565.39</ele><time>2014-09-02T15:25:42Z</time></trkpt><trkpt lat="46.0743879899" lon="7.0522709750"><ele>568.28</ele><time>2014-09-02T15:25:49Z</time></trkpt><trkpt lat="46.0741279833" lon="7.0526046585"><ele>571.16</ele><time>2014-09-02T15:26:03Z</time></trkpt><trkpt lat="46.0738348681" lon="7.0530371647"><ele>573.08</ele><time>2014-09-02T15:26:19Z</time></trkpt><trkpt lat="46.0736336187" lon="7.0535369776"><ele>575.97</ele><time>2014-09-02T15:26:34Z</time></trkpt><trkpt lat="46.0734793916" lon="7.0540440828"><ele>576.45</ele><time>2014-09-02T15:26:48Z</time></trkpt><trkpt lat="46.0733847599" lon="7.0545666106"><ele>577.89</ele><time>2014-09-02T15:27:02Z</time></trkpt><trkpt lat="46.0733000189" lon="7.0552400965"><ele>579.81</ele><time>2014-09-02T15:27:18Z</time></trkpt><trkpt lat="46.0732640605" lon="7.0561015885"><ele>585.58</ele><time>2014-09-02T15:27:39Z</time></trkpt><trkpt lat="46.0731904674" lon="7.0567756612"><ele>590.87</ele><time>2014-09-02T15:27:56Z</time></trkpt><trkpt lat="46.0730198957" lon="7.0572372526"><ele>592.31</ele><time>2014-09-02T15:28:09Z</time></trkpt><trkpt lat="46.0728344042" lon="7.0577064715"><ele>592.31</ele><time>2014-09-02T15:28:23Z</time></trkpt><trkpt lat="46.0726893134" lon="7.0581416599"><ele>594.71</ele><time>2014-09-02T15:28:37Z</time></trkpt><trkpt lat="46.0726295505" lon="7.0585859846"><ele>595.19</ele><time>2014-09-02T15:28:51Z</time></trkpt><trkpt lat="46.0725947656" lon="7.0592026412"><ele>596.15</ele><time>2014-09-02T15:29:06Z</time></trkpt><trkpt lat="46.0726115294" lon="7.0599245746"><ele>599.52</ele><time>2014-09-02T15:29:22Z</time></trkpt><trkpt lat="46.0727137886" lon="7.0606014132"><ele>602.88</ele><time>2014-09-02T15:29:38Z</time></trkpt><trkpt lat="46.0728349071" lon="7.0613673516"><ele>603.85</ele><time>2014-09-02T15:29:57Z</time></trkpt><trkpt lat="46.0729340650" lon="7.0620983373"><ele>606.25</ele><time>2014-09-02T15:30:15Z</time></trkpt><trkpt lat="46.0729913972" lon="7.0628228690"><ele>609.61</ele><time>2014-09-02T15:30:33Z</time></trkpt><trkpt lat="46.0730182193" lon="7.0635391027"><ele>611.06</ele><time>2014-09-02T15:30:48Z</time></trkpt><trkpt lat="46.0730859451" lon="7.0645574201"><ele>612.50</ele><time>2014-09-02T15:31:08Z</time></trkpt><trkpt lat="46.0733856820" lon="7.0654365979"><ele>611.06</ele><time>2014-09-02T15:31:25Z</time></trkpt><trkpt lat="46.0737251490" lon="7.0659878757"><ele>611.06</ele><time>2014-09-02T15:31:40Z</time></trkpt><trkpt lat="46.0741424840" lon="7.0666098967"><ele>611.06</ele><time>2014-09-02T15:31:58Z</time></trkpt><trkpt lat="46.0746115353" lon="7.0674514398"><ele>612.98</ele><time>2014-09-02T15:32:21Z</time></trkpt><trkpt lat="46.0748625733" lon="7.0681812521"><ele>615.86</ele><time>2014-09-02T15:32:41Z</time></trkpt><trkpt lat="46.0749660898" lon="7.0688171871"><ele>617.78</ele><time>2014-09-02T15:32:56Z</time></trkpt><trkpt lat="46.0750354920" lon="7.0695340075"><ele>621.15</ele><time>2014-09-02T15:33:13Z</time></trkpt><trkpt lat="46.0750959255" lon="7.0703656599"><ele>623.55</ele><time>2014-09-02T15:33:33Z</time></trkpt><trkpt lat="46.0750830173" lon="7.0705336332"><ele>623.07</ele><time>2014-09-02T15:33:44Z</time></trkpt><trkpt lat="46.0750792455" lon="7.0705096610"><ele>623.07</ele><time>2014-09-02T15:34:05Z</time></trkpt><trkpt lat="46.0750765633" lon="7.0705625508"><ele>624.99</ele><time>2014-09-02T15:34:22Z</time></trkpt><trkpt lat="46.0750964284" lon="7.0705944858"><ele>623.55</ele><time>2014-09-02T15:34:38Z</time></trkpt><trkpt lat="46.0751830973" lon="7.0709244814"><ele>624.51</ele><time>2014-09-02T15:34:49Z</time></trkpt><trkpt lat="46.0752835125" lon="7.0714856498"><ele>625.47</ele><time>2014-09-02T15:35:02Z</time></trkpt><trkpt lat="46.0755331255" lon="7.0722117741"><ele>625.47</ele><time>2014-09-02T15:35:16Z</time></trkpt><trkpt lat="46.0760121513" lon="7.0730638783"><ele>624.03</ele><time>2014-09-02T15:35:33Z</time></trkpt><trkpt lat="46.0766026564" lon="7.0738521125"><ele>622.59</ele><time>2014-09-02T15:35:50Z</time></trkpt><trkpt lat="46.0770823527" lon="7.0745535102"><ele>623.55</ele><time>2014-09-02T15:36:05Z</time></trkpt><trkpt lat="46.0775161162" lon="7.0756568201"><ele>625.96</ele><time>2014-09-02T15:36:26Z</time></trkpt><trkpt lat="46.0776368994" lon="7.0763109438"><ele>626.92</ele><time>2014-09-02T15:36:37Z</time></trkpt><trkpt lat="46.0776930582" lon="7.0775098912"><ele>627.40</ele><time>2014-09-02T15:36:56Z</time></trkpt><trkpt lat="46.0779092275" lon="7.0786871295"><ele>625.96</ele><time>2014-09-02T15:37:12Z</time></trkpt><trkpt lat="46.0779331159" lon="7.0787600521"><ele>625.96</ele><time>2014-09-02T15:37:13Z</time></trkpt><trkpt lat="46.0783098824" lon="7.0800387952"><ele>621.63</ele><time>2014-09-02T15:37:29Z</time></trkpt><trkpt lat="46.0783999879" lon="7.0814775489"><ele>619.23</ele><time>2014-09-02T15:37:45Z</time></trkpt><trkpt lat="46.0783808772" lon="7.0832306240"><ele>617.78</ele><time>2014-09-02T15:38:04Z</time></trkpt><trkpt lat="46.0786301550" lon="7.0844527893"><ele>617.78</ele><time>2014-09-02T15:38:19Z</time></trkpt><trkpt lat="46.0786592402" lon="7.0845240355"><ele>617.78</ele><time>2014-09-02T15:38:20Z</time></trkpt><trkpt lat="46.0789912473" lon="7.0850976091"><ele>617.30</ele><time>2014-09-02T15:38:29Z</time></trkpt><trkpt lat="46.0798372328" lon="7.0858034492"><ele>616.82</ele><time>2014-09-02T15:38:46Z</time></trkpt><trkpt lat="46.0800289270" lon="7.0859503839"><ele>616.82</ele><time>2014-09-02T15:38:50Z</time></trkpt><trkpt lat="46.0806737468" lon="7.0868898276"><ele>615.38</ele><time>2014-09-02T15:39:07Z</time></trkpt><trkpt lat="46.0808772594" lon="7.0879658964"><ele>614.90</ele><time>2014-09-02T15:39:21Z</time></trkpt><trkpt lat="46.0808198433" lon="7.0891430508"><ele>617.30</ele><time>2014-09-02T15:39:37Z</time></trkpt><trkpt lat="46.0808175802" lon="7.0892106090"><ele>617.78</ele><time>2014-09-02T15:39:38Z</time></trkpt><trkpt lat="46.0807534587" lon="7.0903279167"><ele>619.23</ele><time>2014-09-02T15:39:54Z</time></trkpt><trkpt lat="46.0808780137" lon="7.0914418716"><ele>620.19</ele><time>2014-09-02T15:40:10Z</time></trkpt><trkpt lat="46.0812024772" lon="7.0924423356"><ele>621.15</ele><time>2014-09-02T15:40:28Z</time></trkpt><trkpt lat="46.0816827603" lon="7.0935186557"><ele>622.59</ele><time>2014-09-02T15:40:49Z</time></trkpt><trkpt lat="46.0817732010" lon="7.0937331486"><ele>622.59</ele><time>2014-09-02T15:40:53Z</time></trkpt><trkpt lat="46.0820483789" lon="7.0944831613"><ele>624.51</ele><time>2014-09-02T15:41:07Z</time></trkpt><trkpt lat="46.0820653103" lon="7.0945408288"><ele>624.51</ele><time>2014-09-02T15:41:08Z</time></trkpt><trkpt lat="46.0822558310" lon="7.0957021415"><ele>625.47</ele><time>2014-09-02T15:41:27Z</time></trkpt><trkpt lat="46.0822643805" lon="7.0968670584"><ele>627.88</ele><time>2014-09-02T15:41:46Z</time></trkpt><trkpt lat="46.0822052881" lon="7.0974174142"><ele>628.84</ele><time>2014-09-02T15:42:00Z</time></trkpt><trkpt lat="46.0821740236" lon="7.0975002274"><ele>630.28</ele><time>2014-09-02T15:42:12Z</time></trkpt><trkpt lat="46.0821659770" lon="7.0975317433"><ele>628.36</ele><time>2014-09-02T15:42:27Z</time></trkpt><trkpt lat="46.0821508057" lon="7.0975264627"><ele>629.80</ele><time>2014-09-02T15:42:44Z</time></trkpt><trkpt lat="46.0821820702" lon="7.0975039992"><ele>632.20</ele><time>2014-09-02T15:43:14Z</time></trkpt><trkpt lat="46.0821555834" lon="7.0975301508"><ele>627.88</ele><time>2014-09-02T15:43:35Z</time></trkpt><trkpt lat="46.0821659770" lon="7.0974767581"><ele>626.92</ele><time>2014-09-02T15:44:13Z</time></trkpt><trkpt lat="46.0821617022" lon="7.0975143090"><ele>627.88</ele><time>2014-09-02T15:44:41Z</time></trkpt><trkpt lat="46.0821601097" lon="7.0975478366"><ele>629.32</ele><time>2014-09-02T15:44:48Z</time></trkpt><trkpt lat="46.0821570922" lon="7.0975673664"><ele>629.80</ele><time>2014-09-02T15:44:49Z</time></trkpt><trkpt lat="46.0821539909" lon="7.0975889917"><ele>629.32</ele><time>2014-09-02T15:44:50Z</time></trkpt><trkpt lat="46.0820860974" lon="7.0979593042"><ele>630.76</ele><time>2014-09-02T15:45:03Z</time></trkpt><trkpt lat="46.0820868518" lon="7.0979933348"><ele>630.76</ele><time>2014-09-02T15:45:04Z</time></trkpt><trkpt lat="46.0820868518" lon="7.0980255213"><ele>630.76</ele><time>2014-09-02T15:45:05Z</time></trkpt><trkpt lat="46.0820828285" lon="7.0980634075"><ele>631.24</ele><time>2014-09-02T15:45:06Z</time></trkpt><trkpt lat="46.0820771288" lon="7.0981026348"><ele>630.76</ele><time>2014-09-02T15:45:07Z</time></trkpt><trkpt lat="46.0820732731" lon="7.0981424488"><ele>630.76</ele><time>2014-09-02T15:45:08Z</time></trkpt><trkpt lat="46.0820700880" lon="7.0981852803"><ele>630.76</ele><time>2014-09-02T15:45:09Z</time></trkpt><trkpt lat="46.0820657294" lon="7.0982303750"><ele>630.76</ele><time>2014-09-02T15:45:10Z</time></trkpt><trkpt lat="46.0819869395" lon="7.0988341235"><ele>631.72</ele><time>2014-09-02T15:45:24Z</time></trkpt><trkpt lat="46.0819934774" lon="7.0993602555"><ele>633.65</ele><time>2014-09-02T15:45:35Z</time></trkpt><trkpt lat="46.0820409190" lon="7.0998522732"><ele>633.65</ele><time>2014-09-02T15:45:47Z</time></trkpt><trkpt lat="46.0820550006" lon="7.1003299579"><ele>633.65</ele><time>2014-09-02T15:45:58Z</time></trkpt><trkpt lat="46.0820042901" lon="7.1014345251"><ele>635.57</ele><time>2014-09-02T15:46:18Z</time></trkpt><trkpt lat="46.0819639731" lon="7.1023177262"><ele>635.09</ele><time>2014-09-02T15:46:34Z</time></trkpt><trkpt lat="46.0819136817" lon="7.1034669690"><ele>636.05</ele><time>2014-09-02T15:46:55Z</time></trkpt><trkpt lat="46.0818700120" lon="7.1043153014"><ele>637.49</ele><time>2014-09-02T15:47:11Z</time></trkpt><trkpt lat="46.0817972571" lon="7.1052719280"><ele>638.45</ele><time>2014-09-02T15:47:29Z</time></trkpt><trkpt lat="46.0816784855" lon="7.1061228588"><ele>639.89</ele><time>2014-09-02T15:47:46Z</time></trkpt><trkpt lat="46.0814908985" lon="7.1069058124"><ele>641.82</ele><time>2014-09-02T15:48:02Z</time></trkpt><trkpt lat="46.0812842846" lon="7.1079738345"><ele>644.70</ele><time>2014-09-02T15:48:23Z</time></trkpt><trkpt lat="46.0812446382" lon="7.1088306326"><ele>646.14</ele><time>2014-09-02T15:48:39Z</time></trkpt><trkpt lat="46.0812283773" lon="7.1096254885"><ele>647.10</ele><time>2014-09-02T15:48:54Z</time></trkpt><trkpt lat="46.0811681114" lon="7.1104275528"><ele>649.03</ele><time>2014-09-02T15:49:10Z</time></trkpt><trkpt lat="46.0810201708" lon="7.1113039646"><ele>650.47</ele><time>2014-09-02T15:49:27Z</time></trkpt><trkpt lat="46.0807887465" lon="7.1122387145"><ele>652.87</ele><time>2014-09-02T15:49:46Z</time></trkpt><trkpt lat="46.0805917718" lon="7.1130731329"><ele>656.24</ele><time>2014-09-02T15:50:03Z</time></trkpt><trkpt lat="46.0804780293" lon="7.1139482874"><ele>657.20</ele><time>2014-09-02T15:50:20Z</time></trkpt><trkpt lat="46.0804053582" lon="7.1149417944"><ele>657.68</ele><time>2014-09-02T15:50:40Z</time></trkpt><trkpt lat="46.0803481936" lon="7.1155681740"><ele>658.16</ele><time>2014-09-02T15:50:55Z</time></trkpt><trkpt lat="46.0802113172" lon="7.1162107307"><ele>661.04</ele><time>2014-09-02T15:51:12Z</time></trkpt><trkpt lat="46.0800567549" lon="7.1167047601"><ele>662.49</ele><time>2014-09-02T15:51:27Z</time></trkpt><trkpt lat="46.0799037013" lon="7.1172671858"><ele>662.49</ele><time>2014-09-02T15:51:44Z</time></trkpt><trkpt lat="46.0797938984" lon="7.1178588644"><ele>665.37</ele><time>2014-09-02T15:52:01Z</time></trkpt><trkpt lat="46.0796918906" lon="7.1184672229"><ele>668.25</ele><time>2014-09-02T15:52:18Z</time></trkpt><trkpt lat="46.0795979295" lon="7.1190726478"><ele>666.81</ele><time>2014-09-02T15:52:33Z</time></trkpt><trkpt lat="46.0794431996" lon="7.1198861953"><ele>669.22</ele><time>2014-09-02T15:52:52Z</time></trkpt><trkpt lat="46.0793000367" lon="7.1204598527"><ele>670.18</ele><time>2014-09-02T15:53:05Z</time></trkpt><trkpt lat="46.0790984519" lon="7.1210199315"><ele>672.10</ele><time>2014-09-02T15:53:20Z</time></trkpt><trkpt lat="46.0786564741" lon="7.1219124366"><ele>672.58</ele><time>2014-09-02T15:53:40Z</time></trkpt><trkpt lat="46.0787369404" lon="7.1224031132"><ele>674.02</ele><time>2014-09-02T15:53:52Z</time></trkpt><trkpt lat="46.0785157420" lon="7.1231452469"><ele>678.35</ele><time>2014-09-02T15:54:10Z</time></trkpt><trkpt lat="46.0783108044" lon="7.1238495782"><ele>679.31</ele><time>2014-09-02T15:54:27Z</time></trkpt><trkpt lat="46.0782013368" lon="7.1246286761"><ele>680.75</ele><time>2014-09-02T15:54:45Z</time></trkpt><trkpt lat="46.0782158375" lon="7.1253234521"><ele>684.60</ele><time>2014-09-02T15:55:02Z</time></trkpt><trkpt lat="46.0783591680" lon="7.1260243468"><ele>688.44</ele><time>2014-09-02T15:55:19Z</time></trkpt><trkpt lat="46.0785139818" lon="7.1264850162"><ele>690.36</ele><time>2014-09-02T15:55:31Z</time></trkpt><trkpt lat="46.0788301472" lon="7.1270254813"><ele>691.33</ele><time>2014-09-02T15:55:47Z</time></trkpt><trkpt lat="46.0791517608" lon="7.1277158149"><ele>691.33</ele><time>2014-09-02T15:56:06Z</time></trkpt><trkpt lat="46.0792989470" lon="7.1283626463"><ele>691.33</ele><time>2014-09-02T15:56:22Z</time></trkpt><trkpt lat="46.0793468077" lon="7.1287234873"><ele>691.81</ele><time>2014-09-02T15:56:36Z</time></trkpt><trkpt lat="46.0793646611" lon="7.1287648100"><ele>694.21</ele><time>2014-09-02T15:56:50Z</time></trkpt><trkpt lat="46.0793258529" lon="7.1288067196"><ele>696.13</ele><time>2014-09-02T15:57:11Z</time></trkpt><trkpt lat="46.0793204885" lon="7.1287616249"><ele>692.77</ele><time>2014-09-02T15:57:35Z</time></trkpt><trkpt lat="46.0793591291" lon="7.1287443582"><ele>693.73</ele><time>2014-09-02T15:58:02Z</time></trkpt><trkpt lat="46.0793475620" lon="7.1288629621"><ele>696.13</ele><time>2014-09-02T15:58:22Z</time></trkpt><trkpt lat="46.0793701932" lon="7.1293115616"><ele>696.61</ele><time>2014-09-02T15:58:34Z</time></trkpt><trkpt lat="46.0793111008" lon="7.1300350036"><ele>696.13</ele><time>2014-09-02T15:58:50Z</time></trkpt><trkpt lat="46.0791422054" lon="7.1308445279"><ele>697.09</ele><time>2014-09-02T15:59:07Z</time></trkpt><trkpt lat="46.0788770020" lon="7.1317500249"><ele>698.05</ele><time>2014-09-02T15:59:25Z</time></trkpt><trkpt lat="46.0785586573" lon="7.1326359082"><ele>698.53</ele><time>2014-09-02T15:59:41Z</time></trkpt><trkpt lat="46.0781868361" lon="7.1339160763"><ele>699.50</ele><time>2014-09-02T16:00:03Z</time></trkpt><trkpt lat="46.0780691542" lon="7.1350109205"><ele>699.50</ele><time>2014-09-02T16:00:22Z</time></trkpt><trkpt lat="46.0780191142" lon="7.1357624419"><ele>697.57</ele><time>2014-09-02T16:00:36Z</time></trkpt><trkpt lat="46.0779910348" lon="7.1365784202"><ele>699.50</ele><time>2014-09-02T16:00:51Z</time></trkpt><trkpt lat="46.0779160168" lon="7.1374123357"><ele>700.94</ele><time>2014-09-02T16:01:07Z</time></trkpt><trkpt lat="46.0779452696" lon="7.1374501381"><ele>700.94</ele><time>2014-09-02T16:01:08Z</time></trkpt><trkpt lat="46.0779768694" lon="7.1374698356"><ele>700.94</ele><time>2014-09-02T16:01:09Z</time></trkpt><trkpt lat="46.0780226346" lon="7.1374745294"><ele>700.94</ele><time>2014-09-02T16:01:10Z</time></trkpt><trkpt lat="46.0780640412" lon="7.1374643035"><ele>700.46</ele><time>2014-09-02T16:01:11Z</time></trkpt><trkpt lat="46.0781196970" lon="7.1374409180"><ele>700.46</ele><time>2014-09-02T16:01:12Z</time></trkpt><trkpt lat="46.0781559907" lon="7.1374226455"><ele>699.98</ele><time>2014-09-02T16:01:13Z</time></trkpt><trkpt lat="46.0783322621" lon="7.1374083962"><ele>699.98</ele><time>2014-09-02T16:01:18Z</time></trkpt><trkpt lat="46.0783705674" lon="7.1375072189"><ele>699.98</ele><time>2014-09-02T16:01:20Z</time></trkpt><trkpt lat="46.0784895904" lon="7.1377659682"><ele>700.94</ele><time>2014-09-02T16:01:28Z</time></trkpt><trkpt lat="46.0784939490" lon="7.1378044412"><ele>701.42</ele><time>2014-09-02T16:01:39Z</time></trkpt><trkpt lat="46.0784624331" lon="7.1377922036"><ele>699.98</ele><time>2014-09-02T16:01:54Z</time></trkpt><trkpt lat="46.0784537159" lon="7.1377878450"><ele>699.50</ele><time>2014-09-02T16:02:24Z</time></trkpt><trkpt lat="46.0785211902" lon="7.1377911139"><ele>697.57</ele><time>2014-09-02T16:02:52Z</time></trkpt><trkpt lat="46.0785212740" lon="7.1378108114"><ele>700.94</ele><time>2014-09-02T16:03:17Z</time></trkpt><trkpt lat="46.0785108805" lon="7.1378253959"><ele>695.65</ele><time>2014-09-02T16:03:43Z</time></trkpt><trkpt lat="46.0785185918" lon="7.1377495397"><ele>698.53</ele><time>2014-09-02T16:04:08Z</time></trkpt><trkpt lat="46.0785240401" lon="7.1377295069"><ele>694.21</ele><time>2014-09-02T16:04:33Z</time></trkpt><trkpt lat="46.0784926079" lon="7.1377582569"><ele>701.90</ele><time>2014-09-02T16:05:01Z</time></trkpt><trkpt lat="46.0785205197" lon="7.1377822291"><ele>700.46</ele><time>2014-09-02T16:05:30Z</time></trkpt><trkpt lat="46.0785200167" lon="7.1377855819"><ele>699.50</ele><time>2014-09-02T16:05:52Z</time></trkpt><trkpt lat="46.0785156582" lon="7.1377891023"><ele>701.90</ele><time>2014-09-02T16:06:22Z</time></trkpt><trkpt lat="46.0784935299" lon="7.1378088836"><ele>699.50</ele><time>2014-09-02T16:06:52Z</time></trkpt><trkpt lat="46.0785237048" lon="7.1378113981"><ele>704.30</ele><time>2014-09-02T16:07:26Z</time></trkpt><trkpt lat="46.0784895066" lon="7.1377835702"><ele>701.42</ele><time>2014-09-02T16:07:55Z</time></trkpt><trkpt lat="46.0784970503" lon="7.1377738472"><ele>699.02</ele><time>2014-09-02T16:08:26Z</time></trkpt><trkpt lat="46.0784788616" lon="7.1377405711"><ele>690.36</ele><time>2014-09-02T16:09:02Z</time></trkpt><trkpt lat="46.0784787778" lon="7.1377361286"><ele>688.44</ele><time>2014-09-02T16:09:32Z</time></trkpt><trkpt lat="46.0785123054" lon="7.1377699077"><ele>689.88</ele><time>2014-09-02T16:10:01Z</time></trkpt><trkpt lat="46.0785116348" lon="7.1378115658"><ele>693.25</ele><time>2014-09-02T16:10:45Z</time></trkpt><trkpt lat="46.0785457492" lon="7.1378119010"><ele>692.77</ele><time>2014-09-02T16:11:30Z</time></trkpt><trkpt lat="46.0785126407" lon="7.1378455125"><ele>698.05</ele><time>2014-09-02T16:12:13Z</time></trkpt><trkpt lat="46.0784745868" lon="7.1378156729"><ele>699.98</ele><time>2014-09-02T16:12:55Z</time></trkpt><trkpt lat="46.0784948710" lon="7.1378255635"><ele>701.90</ele><time>2014-09-02T16:13:27Z</time></trkpt><trkpt lat="46.0784800351" lon="7.1378150862"><ele>702.86</ele><time>2014-09-02T16:14:12Z</time></trkpt><trkpt lat="46.0785189271" lon="7.1377708297"><ele>703.34</ele><time>2014-09-02T16:14:57Z</time></trkpt><trkpt lat="46.0785268899" lon="7.1378240548"><ele>700.46</ele><time>2014-09-02T16:15:29Z</time></trkpt><trkpt lat="46.0785457492" lon="7.1377815586"><ele>697.09</ele><time>2014-09-02T16:16:07Z</time></trkpt><trkpt lat="46.0784805380" lon="7.1377895214"><ele>700.46</ele><time>2014-09-02T16:16:46Z</time></trkpt><trkpt lat="46.0785102937" lon="7.1377963107"><ele>702.86</ele><time>2014-09-02T16:17:29Z</time></trkpt><trkpt lat="46.0785222799" lon="7.1377829835"><ele>705.26</ele><time>2014-09-02T16:18:02Z</time></trkpt><trkpt lat="46.0785045102" lon="7.1378115658"><ele>703.82</ele><time>2014-09-02T16:18:31Z</time></trkpt><trkpt lat="46.0785156582" lon="7.1378011722"><ele>703.34</ele><time>2014-09-02T16:19:06Z</time></trkpt><trkpt lat="46.0784881655" lon="7.1378209535"><ele>700.46</ele><time>2014-09-02T16:19:37Z</time></trkpt><trkpt lat="46.0785061866" lon="7.1378028486"><ele>702.86</ele><time>2014-09-02T16:20:08Z</time></trkpt><trkpt lat="46.0784708988" lon="7.1377786249"><ele>707.67</ele><time>2014-09-02T16:20:45Z</time></trkpt><trkpt lat="46.0785030853" lon="7.1377875935"><ele>706.23</ele><time>2014-09-02T16:21:03Z</time></trkpt><trkpt lat="46.0784903448" lon="7.1378209535"><ele>703.34</ele><time>2014-09-02T16:21:30Z</time></trkpt><trkpt lat="46.0784864053" lon="7.1378289163"><ele>698.53</ele><time>2014-09-02T16:21:59Z</time></trkpt><trkpt lat="46.0784550570" lon="7.1377724223"><ele>693.73</ele><time>2014-09-02T16:22:27Z</time></trkpt><trkpt lat="46.0784720723" lon="7.1377665550"><ele>693.25</ele><time>2014-09-02T16:22:58Z</time></trkpt><trkpt lat="46.0784948710" lon="7.1378127392"><ele>696.13</ele><time>2014-09-02T16:23:34Z</time></trkpt><trkpt lat="46.0785309970" lon="7.1378142480"><ele>695.65</ele><time>2014-09-02T16:23:58Z</time></trkpt><trkpt lat="46.0785680450" lon="7.1378100570"><ele>692.77</ele><time>2014-09-02T16:24:25Z</time></trkpt><trkpt lat="46.0785939451" lon="7.1377971489"><ele>689.40</ele><time>2014-09-02T16:24:56Z</time></trkpt><trkpt lat="46.0785675421" lon="7.1378097218"><ele>694.21</ele><time>2014-09-02T16:25:24Z</time></trkpt><trkpt lat="46.0785369482" lon="7.1377894375"><ele>689.88</ele><time>2014-09-02T16:25:53Z</time></trkpt><trkpt lat="46.0785166640" lon="7.1377861686"><ele>691.81</ele><time>2014-09-02T16:26:25Z</time></trkpt><trkpt lat="46.0784990620" lon="7.1377649624"><ele>691.33</ele><time>2014-09-02T16:26:56Z</time></trkpt><trkpt lat="46.0785127245" lon="7.1377685666"><ele>691.81</ele><time>2014-09-02T16:27:19Z</time></trkpt><trkpt lat="46.0784953739" lon="7.1377780382"><ele>693.25</ele><time>2014-09-02T16:27:50Z</time></trkpt><trkpt lat="46.0784993973" lon="7.1378284134"><ele>699.02</ele><time>2014-09-02T16:28:25Z</time></trkpt><trkpt lat="46.0784837231" lon="7.1378139965"><ele>700.46</ele><time>2014-09-02T16:29:00Z</time></trkpt><trkpt lat="46.0784923565" lon="7.1377804689"><ele>700.94</ele><time>2014-09-02T16:29:32Z</time></trkpt><trkpt lat="46.0785153229" lon="7.1377895214"><ele>700.46</ele><time>2014-09-02T16:30:01Z</time></trkpt><trkpt lat="46.0784699768" lon="7.1377523057"><ele>707.67</ele><time>2014-09-02T16:30:42Z</time></trkpt><trkpt lat="46.0784771014" lon="7.1377728414"><ele>704.78</ele><time>2014-09-02T16:31:13Z</time></trkpt><trkpt lat="46.0784620978" lon="7.1378045250"><ele>701.42</ele><time>2014-09-02T16:31:29Z</time></trkpt><trkpt lat="46.0784591641" lon="7.1377787925"><ele>701.42</ele><time>2014-09-02T16:31:30Z</time></trkpt><trkpt lat="46.0784560628" lon="7.1377483662"><ele>701.90</ele><time>2014-09-02T16:31:32Z</time></trkpt><trkpt lat="46.0783833917" lon="7.1374299377"><ele>700.94</ele><time>2014-09-02T16:31:41Z</time></trkpt><trkpt lat="46.0783713218" lon="7.1373926383"><ele>700.94</ele><time>2014-09-02T16:31:42Z</time></trkpt><trkpt lat="46.0783530492" lon="7.1373709291"><ele>700.94</ele><time>2014-09-02T16:31:43Z</time></trkpt><trkpt lat="46.0783285741" lon="7.1373528242"><ele>700.94</ele><time>2014-09-02T16:31:44Z</time></trkpt><trkpt lat="46.0783165041" lon="7.1373464540"><ele>701.42</ele><time>2014-09-02T16:31:45Z</time></trkpt><trkpt lat="46.0783007462" lon="7.1373379882"><ele>701.42</ele><time>2014-09-02T16:31:46Z</time></trkpt><trkpt lat="46.0782738402" lon="7.1373230685"><ele>700.46</ele><time>2014-09-02T16:31:59Z</time></trkpt><trkpt lat="46.0782861616" lon="7.1372963302"><ele>701.90</ele><time>2014-09-02T16:32:10Z</time></trkpt><trkpt lat="46.0782854911" lon="7.1372932289"><ele>703.34</ele><time>2014-09-02T16:32:47Z</time></trkpt><trkpt lat="46.0782507900" lon="7.1373280976"><ele>703.34</ele><time>2014-09-02T16:32:55Z</time></trkpt><trkpt lat="46.0782388877" lon="7.1373164468"><ele>703.34</ele><time>2014-09-02T16:32:56Z</time></trkpt><trkpt lat="46.0782269854" lon="7.1373066399"><ele>702.86</ele><time>2014-09-02T16:32:57Z</time></trkpt><trkpt lat="46.0782123171" lon="7.1373048797"><ele>702.86</ele><time>2014-09-02T16:32:58Z</time></trkpt><trkpt lat="46.0781968106" lon="7.1373021975"><ele>702.86</ele><time>2014-09-02T16:32:59Z</time></trkpt><trkpt lat="46.0781829804" lon="7.1372986771"><ele>702.86</ele><time>2014-09-02T16:33:00Z</time></trkpt><trkpt lat="46.0781694017" lon="7.1372939833"><ele>702.86</ele><time>2014-09-02T16:33:01Z</time></trkpt><trkpt lat="46.0781523027" lon="7.1372817457"><ele>702.86</ele><time>2014-09-02T16:33:02Z</time></trkpt><trkpt lat="46.0781311803" lon="7.1372689214"><ele>702.86</ele><time>2014-09-02T16:33:03Z</time></trkpt><trkpt lat="46.0781041905" lon="7.1372577734"><ele>702.86</ele><time>2014-09-02T16:33:04Z</time></trkpt><trkpt lat="46.0780737642" lon="7.1372505650"><ele>702.86</ele><time>2014-09-02T16:33:05Z</time></trkpt><trkpt lat="46.0780416615" lon="7.1372436080"><ele>703.34</ele><time>2014-09-02T16:33:06Z</time></trkpt><trkpt lat="46.0779057909" lon="7.1372937318"><ele>703.34</ele><time>2014-09-02T16:33:10Z</time></trkpt><trkpt lat="46.0778902005" lon="7.1373413410"><ele>703.34</ele><time>2014-09-02T16:33:11Z</time></trkpt><trkpt lat="46.0778891109" lon="7.1373933088"><ele>703.34</ele><time>2014-09-02T16:33:12Z</time></trkpt><trkpt lat="46.0779445153" lon="7.1379636135"><ele>703.82</ele><time>2014-09-02T16:33:24Z</time></trkpt><trkpt lat="46.0779433418" lon="7.1391511615"><ele>704.30</ele><time>2014-09-02T16:33:45Z</time></trkpt><trkpt lat="46.0779873468" lon="7.1403819602"><ele>705.75</ele><time>2014-09-02T16:34:06Z</time></trkpt><trkpt lat="46.0780736804" lon="7.1413644031"><ele>707.19</ele><time>2014-09-02T16:34:23Z</time></trkpt><trkpt lat="46.0781751852" lon="7.1422880888"><ele>707.19</ele><time>2014-09-02T16:34:39Z</time></trkpt><trkpt lat="46.0782688111" lon="7.1428087726"><ele>707.67</ele><time>2014-09-02T16:34:48Z</time></trkpt><trkpt lat="46.0784877464" lon="7.1438373160"><ele>707.19</ele><time>2014-09-02T16:35:06Z</time></trkpt><trkpt lat="46.0786426440" lon="7.1447712276"><ele>708.15</ele><time>2014-09-02T16:35:21Z</time></trkpt><trkpt lat="46.0786966234" lon="7.1458931454"><ele>709.11</ele><time>2014-09-02T16:35:38Z</time></trkpt><trkpt lat="46.0787623376" lon="7.1470927633"><ele>709.11</ele><time>2014-09-02T16:35:56Z</time></trkpt><trkpt lat="46.0790248588" lon="7.1482940577"><ele>710.55</ele><time>2014-09-02T16:36:14Z</time></trkpt><trkpt lat="46.0792112723" lon="7.1490983851"><ele>710.55</ele><time>2014-09-02T16:36:26Z</time></trkpt><trkpt lat="46.0792411957" lon="7.1501421835"><ele>711.51</ele><time>2014-09-02T16:36:43Z</time></trkpt><trkpt lat="46.0791711230" lon="7.1511839703"><ele>713.92</ele><time>2014-09-02T16:37:03Z</time></trkpt><trkpt lat="46.0791408643" lon="7.1515361778"><ele>715.84</ele><time>2014-09-02T16:37:10Z</time></trkpt><trkpt lat="46.0791090131" lon="7.1515721362"><ele>715.84</ele><time>2014-09-02T16:37:11Z</time></trkpt><trkpt lat="46.0790787544" lon="7.1515732259"><ele>716.32</ele><time>2014-09-02T16:37:12Z</time></trkpt><trkpt lat="46.0790577997" lon="7.1515689511"><ele>716.32</ele><time>2014-09-02T16:37:13Z</time></trkpt><trkpt lat="46.0790286306" lon="7.1515563782"><ele>716.80</ele><time>2014-09-02T16:37:14Z</time></trkpt><trkpt lat="46.0790024791" lon="7.1515408717"><ele>716.80</ele><time>2014-09-02T16:37:15Z</time></trkpt><trkpt lat="46.0789775848" lon="7.1515209228"><ele>717.28</ele><time>2014-09-02T16:37:16Z</time></trkpt><trkpt lat="46.0789526906" lon="7.1515008062"><ele>717.28</ele><time>2014-09-02T16:37:17Z</time></trkpt><trkpt lat="46.0789272096" lon="7.1514816117"><ele>717.76</ele><time>2014-09-02T16:37:18Z</time></trkpt><trkpt lat="46.0787024908" lon="7.1514314879"><ele>719.68</ele><time>2014-09-02T16:37:30Z</time></trkpt><trkpt lat="46.0787066817" lon="7.1514252014"><ele>719.68</ele><time>2014-09-02T16:37:48Z</time></trkpt><trkpt lat="46.0786886606" lon="7.1514493413"><ele>719.20</ele><time>2014-09-02T16:38:02Z</time></trkpt><trkpt lat="46.0786796920" lon="7.1514287218"><ele>719.68</ele><time>2014-09-02T16:38:20Z</time></trkpt><trkpt lat="46.0786917619" lon="7.1514379419"><ele>719.20</ele><time>2014-09-02T16:38:33Z</time></trkpt><trkpt lat="46.0786817037" lon="7.1514384449"><ele>721.61</ele><time>2014-09-02T16:39:27Z</time></trkpt><trkpt lat="46.0786764231" lon="7.1514045820"><ele>722.09</ele><time>2014-09-02T16:39:38Z</time></trkpt><trkpt lat="46.0786723159" lon="7.1513894107"><ele>722.09</ele><time>2014-09-02T16:39:39Z</time></trkpt><trkpt lat="46.0786643531" lon="7.1513740718"><ele>721.61</ele><time>2014-09-02T16:39:40Z</time></trkpt><trkpt lat="46.0786508583" lon="7.1513620019"><ele>721.61</ele><time>2014-09-02T16:39:41Z</time></trkpt><trkpt lat="46.0786330048" lon="7.1513542067"><ele>721.61</ele><time>2014-09-02T16:39:42Z</time></trkpt><trkpt lat="46.0786185879" lon="7.1513513569"><ele>721.61</ele><time>2014-09-02T16:39:43Z</time></trkpt><trkpt lat="46.0786037520" lon="7.1513508540"><ele>721.61</ele><time>2014-09-02T16:39:44Z</time></trkpt><trkpt lat="46.0784566496" lon="7.1514128800"><ele>721.13</ele><time>2014-09-02T16:39:56Z</time></trkpt><trkpt lat="46.0782558192" lon="7.1513292287"><ele>719.68</ele><time>2014-09-02T16:40:08Z</time></trkpt><trkpt lat="46.0782424919" lon="7.1513283066"><ele>719.68</ele><time>2014-09-02T16:40:09Z</time></trkpt><trkpt lat="46.0782292485" lon="7.1513252053"><ele>719.20</ele><time>2014-09-02T16:40:10Z</time></trkpt><trkpt lat="46.0782111436" lon="7.1513278875"><ele>719.20</ele><time>2014-09-02T16:40:11Z</time></trkpt><trkpt lat="46.0781896021" lon="7.1513305698"><ele>719.20</ele><time>2014-09-02T16:40:12Z</time></trkpt><trkpt lat="46.0781728383" lon="7.1513351798"><ele>719.20</ele><time>2014-09-02T16:40:13Z</time></trkpt><trkpt lat="46.0781576671" lon="7.1513076872"><ele>718.72</ele><time>2014-09-02T16:40:20Z</time></trkpt><trkpt lat="46.0781764425" lon="7.1513008978"><ele>718.24</ele><time>2014-09-02T16:40:21Z</time></trkpt><trkpt lat="46.0782272369" lon="7.1513026580"><ele>718.72</ele><time>2014-09-02T16:40:24Z</time></trkpt><trkpt lat="46.0782411508" lon="7.1513016522"><ele>719.20</ele><time>2014-09-02T16:40:25Z</time></trkpt><trkpt lat="46.0785330925" lon="7.1513552964"><ele>721.13</ele><time>2014-09-02T16:40:38Z</time></trkpt><trkpt lat="46.0785611719" lon="7.1513524465"><ele>721.13</ele><time>2014-09-02T16:40:39Z</time></trkpt><trkpt lat="46.0785834678" lon="7.1513590682"><ele>721.13</ele><time>2014-09-02T16:40:40Z</time></trkpt><trkpt lat="46.0786071047" lon="7.1513686236"><ele>720.65</ele><time>2014-09-02T16:40:41Z</time></trkpt><trkpt lat="46.0790066700" lon="7.1515623294"><ele>722.09</ele><time>2014-09-02T16:40:56Z</time></trkpt><trkpt lat="46.0791015532" lon="7.1517508384"><ele>718.72</ele><time>2014-09-02T16:41:05Z</time></trkpt><trkpt lat="46.0791099351" lon="7.1517749783"><ele>718.72</ele><time>2014-09-02T16:41:06Z</time></trkpt><trkpt lat="46.0791075882" lon="7.1518038958"><ele>718.72</ele><time>2014-09-02T16:41:07Z</time></trkpt><trkpt lat="46.0790647566" lon="7.1524038725"><ele>719.20</ele><time>2014-09-02T16:41:20Z</time></trkpt><trkpt lat="46.0787930992" lon="7.1531689726"><ele>720.65</ele><time>2014-09-02T16:41:36Z</time></trkpt><trkpt lat="46.0784758441" lon="7.1534944419"><ele>723.53</ele><time>2014-09-02T16:41:50Z</time></trkpt><trkpt lat="46.0782913584" lon="7.1536606550"><ele>724.49</ele><time>2014-09-02T16:42:00Z</time></trkpt><trkpt lat="46.0779327806" lon="7.1539603081"><ele>726.89</ele><time>2014-09-02T16:42:16Z</time></trkpt><trkpt lat="46.0776166990" lon="7.1542392578"><ele>729.30</ele><time>2014-09-02T16:42:32Z</time></trkpt><trkpt lat="46.0772895534" lon="7.1545048803"><ele>732.18</ele><time>2014-09-02T16:42:49Z</time></trkpt><trkpt lat="46.0770597216" lon="7.1547047887"><ele>733.62</ele><time>2014-09-02T16:43:01Z</time></trkpt><trkpt lat="46.0769862961" lon="7.1547788847"><ele>734.10</ele><time>2014-09-02T16:43:05Z</time></trkpt><trkpt lat="46.0769674368" lon="7.1548022702"><ele>734.10</ele><time>2014-09-02T16:43:06Z</time></trkpt><trkpt lat="46.0769490805" lon="7.1548139211"><ele>734.10</ele><time>2014-09-02T16:43:07Z</time></trkpt><trkpt lat="46.0766270477" lon="7.1549892705"><ele>736.03</ele><time>2014-09-02T16:43:22Z</time></trkpt><trkpt lat="46.0762239620" lon="7.1549950540"><ele>738.43</ele><time>2014-09-02T16:43:40Z</time></trkpt><trkpt lat="46.0758464411" lon="7.1548917890"><ele>740.83</ele><time>2014-09-02T16:43:57Z</time></trkpt><trkpt lat="46.0754448641" lon="7.1545145195"><ele>741.31</ele><time>2014-09-02T16:44:14Z</time></trkpt><trkpt lat="46.0750183091" lon="7.1540389303"><ele>739.87</ele><time>2014-09-02T16:44:30Z</time></trkpt><trkpt lat="46.0745208431" lon="7.1539505851"><ele>742.28</ele><time>2014-09-02T16:44:44Z</time></trkpt><trkpt lat="46.0739539750" lon="7.1539546084"><ele>743.24</ele><time>2014-09-02T16:44:59Z</time></trkpt><trkpt lat="46.0733707622" lon="7.1539624035"><ele>744.20</ele><time>2014-09-02T16:45:15Z</time></trkpt><trkpt lat="46.0729907267" lon="7.1542472206"><ele>744.68</ele><time>2014-09-02T16:45:27Z</time></trkpt><trkpt lat="46.0723652691" lon="7.1548008453"><ele>746.12</ele><time>2014-09-02T16:45:46Z</time></trkpt><trkpt lat="46.0719351098" lon="7.1548173577"><ele>747.08</ele><time>2014-09-02T16:45:58Z</time></trkpt><trkpt lat="46.0714404937" lon="7.1544641443"><ele>749.49</ele><time>2014-09-02T16:46:14Z</time></trkpt><trkpt lat="46.0708715301" lon="7.1541279461"><ele>751.89</ele><time>2014-09-02T16:46:33Z</time></trkpt><trkpt lat="46.0703893192" lon="7.1539503336"><ele>752.85</ele><time>2014-09-02T16:46:49Z</time></trkpt><trkpt lat="46.0698203556" lon="7.1538167261"><ele>754.77</ele><time>2014-09-02T16:47:07Z</time></trkpt><trkpt lat="46.0693639610" lon="7.1538728848"><ele>756.21</ele><time>2014-09-02T16:47:22Z</time></trkpt><trkpt lat="46.0688420199" lon="7.1541205700"><ele>758.14</ele><time>2014-09-02T16:47:40Z</time></trkpt><trkpt lat="46.0683368426" lon="7.1540414449"><ele>761.50</ele><time>2014-09-02T16:47:57Z</time></trkpt><trkpt lat="46.0678879078" lon="7.1535424702"><ele>761.50</ele><time>2014-09-02T16:48:14Z</time></trkpt><trkpt lat="46.0672753584" lon="7.1530457586"><ele>762.94</ele><time>2014-09-02T16:48:34Z</time></trkpt><trkpt lat="46.0665472224" lon="7.1528204530"><ele>762.46</ele><time>2014-09-02T16:48:52Z</time></trkpt><trkpt lat="46.0657601617" lon="7.1526216343"><ele>764.39</ele><time>2014-09-02T16:49:10Z</time></trkpt><trkpt lat="46.0652071238" lon="7.1522128489"><ele>764.87</ele><time>2014-09-02T16:49:25Z</time></trkpt><trkpt lat="46.0647741985" lon="7.1517177299"><ele>766.79</ele><time>2014-09-02T16:49:40Z</time></trkpt><trkpt lat="46.0643429495" lon="7.1510469262"><ele>767.75</ele><time>2014-09-02T16:49:59Z</time></trkpt><trkpt lat="46.0639862996" lon="7.1504402440"><ele>770.15</ele><time>2014-09-02T16:50:17Z</time></trkpt><trkpt lat="46.0636707209" lon="7.1499172132"><ele>772.08</ele><time>2014-09-02T16:50:34Z</time></trkpt><trkpt lat="46.0634120554" lon="7.1495541930"><ele>773.52</ele><time>2014-09-02T16:50:47Z</time></trkpt><trkpt lat="46.0630477779" lon="7.1491455752"><ele>774.48</ele><time>2014-09-02T16:51:03Z</time></trkpt><trkpt lat="46.0626633000" lon="7.1488196868"><ele>778.81</ele><time>2014-09-02T16:51:20Z</time></trkpt><trkpt lat="46.0622178856" lon="7.1485394798"><ele>779.29</ele><time>2014-09-02T16:51:38Z</time></trkpt><trkpt lat="46.0618756525" lon="7.1483703330"><ele>780.25</ele><time>2014-09-02T16:51:52Z</time></trkpt><trkpt lat="46.0613842215" lon="7.1482452750"><ele>781.69</ele><time>2014-09-02T16:52:11Z</time></trkpt><trkpt lat="46.0610201955" lon="7.1481950674"><ele>783.61</ele><time>2014-09-02T16:52:25Z</time></trkpt><trkpt lat="46.0606928822" lon="7.1482693311"><ele>786.02</ele><time>2014-09-02T16:52:40Z</time></trkpt><trkpt lat="46.0602708533" lon="7.1486031823"><ele>791.30</ele><time>2014-09-02T16:53:01Z</time></trkpt><trkpt lat="46.0594629217" lon="7.1490150690"><ele>794.19</ele><time>2014-09-02T16:53:22Z</time></trkpt><trkpt lat="46.0587779526" lon="7.1486056969"><ele>791.78</ele><time>2014-09-02T16:53:38Z</time></trkpt><trkpt lat="46.0582360625" lon="7.1489005722"><ele>790.82</ele><time>2014-09-02T16:53:58Z</time></trkpt><trkpt lat="46.0570354387" lon="7.1495134570"><ele>796.59</ele><time>2014-09-02T16:54:35Z</time></trkpt><trkpt lat="46.0564642958" lon="7.1496781614"><ele>798.03</ele><time>2014-09-02T16:54:52Z</time></trkpt><trkpt lat="46.0558591224" lon="7.1497774869"><ele>798.99</ele><time>2014-09-02T16:55:09Z</time></trkpt><trkpt lat="46.0552640073" lon="7.1497492399"><ele>799.95</ele><time>2014-09-02T16:55:25Z</time></trkpt><trkpt lat="46.0548602510" lon="7.1496835258"><ele>800.44</ele><time>2014-09-02T16:55:37Z</time></trkpt><trkpt lat="46.0543582588" lon="7.1495922469"><ele>800.92</ele><time>2014-09-02T16:55:53Z</time></trkpt><trkpt lat="46.0537832603" lon="7.1495547798"><ele>802.36</ele><time>2014-09-02T16:56:12Z</time></trkpt><trkpt lat="46.0532014724" lon="7.1495705377"><ele>802.84</ele><time>2014-09-02T16:56:31Z</time></trkpt><trkpt lat="46.0525924433" lon="7.1496211644"><ele>806.20</ele><time>2014-09-02T16:56:51Z</time></trkpt><trkpt lat="46.0521760304" lon="7.1495858766"><ele>808.61</ele><time>2014-09-02T16:57:06Z</time></trkpt><trkpt lat="46.0521585122" lon="7.1495736390"><ele>808.61</ele><time>2014-09-02T16:57:07Z</time></trkpt><trkpt lat="46.0521388985" lon="7.1495428775"><ele>808.61</ele><time>2014-09-02T16:57:08Z</time></trkpt><trkpt lat="46.0521295946" lon="7.1495158877"><ele>808.61</ele><time>2014-09-02T16:57:09Z</time></trkpt><trkpt lat="46.0521213803" lon="7.1494992077"><ele>808.61</ele><time>2014-09-02T16:57:10Z</time></trkpt><trkpt lat="46.0521109868" lon="7.1494707093"><ele>808.13</ele><time>2014-09-02T16:57:11Z</time></trkpt><trkpt lat="46.0521023534" lon="7.1494370978"><ele>808.13</ele><time>2014-09-02T16:57:12Z</time></trkpt><trkpt lat="46.0520935524" lon="7.1494024806"><ele>807.64</ele><time>2014-09-02T16:57:13Z</time></trkpt><trkpt lat="46.0520812310" lon="7.1493710484"><ele>807.64</ele><time>2014-09-02T16:57:14Z</time></trkpt><trkpt lat="46.0520602763" lon="7.1493448969"><ele>807.16</ele><time>2014-09-02T16:57:15Z</time></trkpt><trkpt lat="46.0520351306" lon="7.1493197512"><ele>807.16</ele><time>2014-09-02T16:57:16Z</time></trkpt><trkpt lat="46.0520223901" lon="7.1493088547"><ele>807.16</ele><time>2014-09-02T16:57:17Z</time></trkpt><trkpt lat="46.0520029441" lon="7.1492916718"><ele>807.16</ele><time>2014-09-02T16:57:18Z</time></trkpt><trkpt lat="46.0519891139" lon="7.1492749918"><ele>806.68</ele><time>2014-09-02T16:57:19Z</time></trkpt><trkpt lat="46.0519747809" lon="7.1492639277"><ele>806.68</ele><time>2014-09-02T16:57:20Z</time></trkpt><trkpt lat="46.0519430134" lon="7.1492481697"><ele>805.24</ele><time>2014-09-02T16:57:31Z</time></trkpt><trkpt lat="46.0519706737" lon="7.1492255386"><ele>807.16</ele><time>2014-09-02T16:58:09Z</time></trkpt><trkpt lat="46.0519614536" lon="7.1492242813"><ele>805.24</ele><time>2014-09-02T16:58:38Z</time></trkpt><trkpt lat="46.0519762058" lon="7.1492348425"><ele>802.36</ele><time>2014-09-02T16:59:20Z</time></trkpt><trkpt lat="46.0519900359" lon="7.1492255386"><ele>805.24</ele><time>2014-09-02T16:59:53Z</time></trkpt><trkpt lat="46.0519811511" lon="7.1492398717"><ele>804.76</ele><time>2014-09-02T17:00:28Z</time></trkpt><trkpt lat="46.0519618727" lon="7.1492682863"><ele>806.20</ele><time>2014-09-02T17:00:55Z</time></trkpt><trkpt lat="46.0519533232" lon="7.1492790990"><ele>806.20</ele><time>2014-09-02T17:00:56Z</time></trkpt><trkpt lat="46.0519477911" lon="7.1492989641"><ele>806.20</ele><time>2014-09-02T17:00:57Z</time></trkpt><trkpt lat="46.0519555025" lon="7.1493055020"><ele>806.20</ele><time>2014-09-02T17:00:58Z</time></trkpt><trkpt lat="46.0519710928" lon="7.1493043285"><ele>806.20</ele><time>2014-09-02T17:00:59Z</time></trkpt><trkpt lat="46.0519872699" lon="7.1493059210"><ele>806.20</ele><time>2014-09-02T17:01:00Z</time></trkpt><trkpt lat="46.0520072188" lon="7.1493061725"><ele>805.72</ele><time>2014-09-02T17:01:01Z</time></trkpt><trkpt lat="46.0520794708" lon="7.1495043207"><ele>806.68</ele><time>2014-09-02T17:01:11Z</time></trkpt><trkpt lat="46.0520650540" lon="7.1495284606"><ele>806.68</ele><time>2014-09-02T17:01:12Z</time></trkpt><trkpt lat="46.0520466138" lon="7.1495477390"><ele>806.68</ele><time>2014-09-02T17:01:13Z</time></trkpt><trkpt lat="46.0520187858" lon="7.1495562885"><ele>806.68</ele><time>2014-09-02T17:01:14Z</time></trkpt><trkpt lat="46.0520055424" lon="7.1495580487"><ele>806.68</ele><time>2014-09-02T17:01:15Z</time></trkpt><trkpt lat="46.0519805644" lon="7.1495535225"><ele>807.16</ele><time>2014-09-02T17:01:16Z</time></trkpt><trkpt lat="46.0519538261" lon="7.1495484095"><ele>807.16</ele><time>2014-09-02T17:01:17Z</time></trkpt><trkpt lat="46.0519283451" lon="7.1495426260"><ele>807.16</ele><time>2014-09-02T17:01:18Z</time></trkpt><trkpt lat="46.0514742136" lon="7.1494106948"><ele>809.09</ele><time>2014-09-02T17:01:35Z</time></trkpt><trkpt lat="46.0508932639" lon="7.1491553821"><ele>809.57</ele><time>2014-09-02T17:01:56Z</time></trkpt><trkpt lat="46.0505474266" lon="7.1489147376"><ele>810.05</ele><time>2014-09-02T17:02:10Z</time></trkpt><trkpt lat="46.0500414111" lon="7.1485376358"><ele>811.97</ele><time>2014-09-02T17:02:30Z</time></trkpt><trkpt lat="46.0495896265" lon="7.1482253261"><ele>814.37</ele><time>2014-09-02T17:02:47Z</time></trkpt><trkpt lat="46.0490460601" lon="7.1479707677"><ele>816.30</ele><time>2014-09-02T17:03:06Z</time></trkpt><trkpt lat="46.0485195089" lon="7.1478242520"><ele>819.66</ele><time>2014-09-02T17:03:24Z</time></trkpt><trkpt lat="46.0480238870" lon="7.1477691829"><ele>822.55</ele><time>2014-09-02T17:03:41Z</time></trkpt><trkpt lat="46.0475128423" lon="7.1478122659"><ele>825.43</ele><time>2014-09-02T17:03:59Z</time></trkpt><trkpt lat="46.0469731316" lon="7.1479580272"><ele>826.39</ele><time>2014-09-02T17:04:18Z</time></trkpt><trkpt lat="46.0465505160" lon="7.1481171995"><ele>827.83</ele><time>2014-09-02T17:04:33Z</time></trkpt><trkpt lat="46.0461842269" lon="7.1482877713"><ele>828.79</ele><time>2014-09-02T17:04:47Z</time></trkpt><trkpt lat="46.0458905250" lon="7.1484300122"><ele>829.76</ele><time>2014-09-02T17:04:58Z</time></trkpt><trkpt lat="46.0454766266" lon="7.1486160066"><ele>831.20</ele><time>2014-09-02T17:05:13Z</time></trkpt><trkpt lat="46.0448919889" lon="7.1486839000"><ele>833.60</ele><time>2014-09-02T17:05:33Z</time></trkpt><trkpt lat="46.0448578745" lon="7.1486748476"><ele>833.60</ele><time>2014-09-02T17:05:35Z</time></trkpt><trkpt lat="46.0448246822" lon="7.1486994904"><ele>834.56</ele><time>2014-09-02T17:05:51Z</time></trkpt><trkpt lat="46.0448218323" lon="7.1487246361"><ele>836.48</ele><time>2014-09-02T17:06:23Z</time></trkpt><trkpt lat="46.0446652584" lon="7.1487750113"><ele>837.45</ele><time>2014-09-02T17:06:34Z</time></trkpt><trkpt lat="46.0439903475" lon="7.1487369575"><ele>837.45</ele><time>2014-09-02T17:06:55Z</time></trkpt><trkpt lat="46.0433709249" lon="7.1485793777"><ele>838.89</ele><time>2014-09-02T17:07:14Z</time></trkpt><trkpt lat="46.0427898914" lon="7.1483168565"><ele>841.77</ele><time>2014-09-02T17:07:34Z</time></trkpt><trkpt lat="46.0423518531" lon="7.1480424330"><ele>841.77</ele><time>2014-09-02T17:07:50Z</time></trkpt><trkpt lat="46.0419084504" lon="7.1477659140"><ele>843.69</ele><time>2014-09-02T17:08:07Z</time></trkpt><trkpt lat="46.0413958970" lon="7.1474637464"><ele>846.10</ele><time>2014-09-02T17:08:27Z</time></trkpt><trkpt lat="46.0409747902" lon="7.1472508460"><ele>848.02</ele><time>2014-09-02T17:08:43Z</time></trkpt><trkpt lat="46.0405774880" lon="7.1471030731"><ele>849.94</ele><time>2014-09-02T17:08:58Z</time></trkpt><trkpt lat="46.0400733165" lon="7.1469599940"><ele>851.87</ele><time>2014-09-02T17:09:18Z</time></trkpt><trkpt lat="46.0396424867" lon="7.1468754206"><ele>853.79</ele><time>2014-09-02T17:09:37Z</time></trkpt><trkpt lat="46.0393217113" lon="7.1468517836"><ele>854.75</ele><time>2014-09-02T17:09:51Z</time></trkpt><trkpt lat="46.0392967332" lon="7.1468542982"><ele>855.23</ele><time>2014-09-02T17:09:52Z</time></trkpt><trkpt lat="46.0388446134" lon="7.1468369476"><ele>857.63</ele><time>2014-09-02T17:10:11Z</time></trkpt><trkpt lat="46.0384686012" lon="7.1468576510"><ele>859.56</ele><time>2014-09-02T17:10:28Z</time></trkpt><trkpt lat="46.0380924214" lon="7.1469073556"><ele>861.96</ele><time>2014-09-02T17:10:45Z</time></trkpt><trkpt lat="46.0377403814" lon="7.1469760872"><ele>863.40</ele><time>2014-09-02T17:11:00Z</time></trkpt><trkpt lat="46.0373555683" lon="7.1470934339"><ele>864.84</ele><time>2014-09-02T17:11:17Z</time></trkpt><trkpt lat="46.0369093996" lon="7.1471497603"><ele>867.25</ele><time>2014-09-02T17:11:36Z</time></trkpt><trkpt lat="46.0365470499" lon="7.1471583098"><ele>869.17</ele><time>2014-09-02T17:11:52Z</time></trkpt><trkpt lat="46.0362241790" lon="7.1471083537"><ele>871.09</ele><time>2014-09-02T17:12:07Z</time></trkpt><trkpt lat="46.0360179842" lon="7.1470485069"><ele>872.53</ele><time>2014-09-02T17:12:20Z</time></trkpt><trkpt lat="46.0356862284" lon="7.1469758358"><ele>875.90</ele><time>2014-09-02T17:12:37Z</time></trkpt><trkpt lat="46.0354099609" lon="7.1469211858"><ele>876.86</ele><time>2014-09-02T17:12:52Z</time></trkpt><trkpt lat="46.0352189373" lon="7.1469010692"><ele>879.26</ele><time>2014-09-02T17:13:03Z</time></trkpt><trkpt lat="46.0352014191" lon="7.1468978003"><ele>879.26</ele><time>2014-09-02T17:13:04Z</time></trkpt><trkpt lat="46.0351837333" lon="7.1468962915"><ele>879.26</ele><time>2014-09-02T17:13:05Z</time></trkpt><trkpt lat="46.0351651255" lon="7.1468941960"><ele>879.74</ele><time>2014-09-02T17:13:06Z</time></trkpt><trkpt lat="46.0351478588" lon="7.1468916815"><ele>880.22</ele><time>2014-09-02T17:13:07Z</time></trkpt><trkpt lat="46.0351302568" lon="7.1468911786"><ele>880.71</ele><time>2014-09-02T17:13:08Z</time></trkpt><trkpt lat="46.0351129901" lon="7.1468918491"><ele>880.71</ele><time>2014-09-02T17:13:09Z</time></trkpt><trkpt lat="46.0348480381" lon="7.1468823776"><ele>882.15</ele><time>2014-09-02T17:13:25Z</time></trkpt><trkpt lat="46.0348611977" lon="7.1468696371"><ele>878.30</ele><time>2014-09-02T17:13:43Z</time></trkpt><trkpt lat="46.0348238144" lon="7.1468631830"><ele>878.30</ele><time>2014-09-02T17:14:18Z</time></trkpt><trkpt lat="46.0348332860" lon="7.1468579862"><ele>878.78</ele><time>2014-09-02T17:15:01Z</time></trkpt><trkpt lat="46.0348310228" lon="7.1468769293"><ele>883.11</ele><time>2014-09-02T17:15:32Z</time></trkpt><trkpt lat="46.0348418355" lon="7.1468921006"><ele>881.67</ele><time>2014-09-02T17:16:07Z</time></trkpt><trkpt lat="46.0348233115" lon="7.1468611713"><ele>877.34</ele><time>2014-09-02T17:16:42Z</time></trkpt><trkpt lat="46.0347964056" lon="7.1468750853"><ele>877.34</ele><time>2014-09-02T17:16:47Z</time></trkpt><trkpt lat="46.0345664062" lon="7.1469067689"><ele>879.26</ele><time>2014-09-02T17:16:59Z</time></trkpt><trkpt lat="46.0342527553" lon="7.1469806135"><ele>883.11</ele><time>2014-09-02T17:17:14Z</time></trkpt><trkpt lat="46.0339582153" lon="7.1470802743"><ele>885.51</ele><time>2014-09-02T17:17:29Z</time></trkpt><trkpt lat="46.0337232705" lon="7.1471715532"><ele>887.43</ele><time>2014-09-02T17:17:42Z</time></trkpt><trkpt lat="46.0334467515" lon="7.1472809371"><ele>889.84</ele><time>2014-09-02T17:17:57Z</time></trkpt><trkpt lat="46.0331110563" lon="7.1473675221"><ele>893.20</ele><time>2014-09-02T17:18:14Z</time></trkpt><trkpt lat="46.0327821504" lon="7.1474082582"><ele>895.61</ele><time>2014-09-02T17:18:31Z</time></trkpt><trkpt lat="46.0325145163" lon="7.1474337392"><ele>898.01</ele><time>2014-09-02T17:18:46Z</time></trkpt><trkpt lat="46.0323072318" lon="7.1474339906"><ele>900.41</ele><time>2014-09-02T17:18:58Z</time></trkpt><trkpt lat="46.0322903842" lon="7.1474365052"><ele>900.41</ele><time>2014-09-02T17:18:59Z</time></trkpt><trkpt lat="46.0322734527" lon="7.1474357508"><ele>900.89</ele><time>2014-09-02T17:19:00Z</time></trkpt><trkpt lat="46.0322572757" lon="7.1474318113"><ele>900.89</ele><time>2014-09-02T17:19:01Z</time></trkpt><trkpt lat="46.0322429426" lon="7.1474293806"><ele>900.89</ele><time>2014-09-02T17:19:02Z</time></trkpt><trkpt lat="46.0322277714" lon="7.1474266984"><ele>900.89</ele><time>2014-09-02T17:19:03Z</time></trkpt><trkpt lat="46.0322128516" lon="7.1474251896"><ele>900.89</ele><time>2014-09-02T17:19:04Z</time></trkpt><trkpt lat="46.0321961716" lon="7.1474253573"><ele>900.89</ele><time>2014-09-02T17:19:05Z</time></trkpt><trkpt lat="46.0319546890" lon="7.1473868843"><ele>904.26</ele><time>2014-09-02T17:19:20Z</time></trkpt><trkpt lat="46.0316971131" lon="7.1473477408"><ele>907.14</ele><time>2014-09-02T17:19:37Z</time></trkpt><trkpt lat="46.0314081050" lon="7.1473146323"><ele>909.06</ele><time>2014-09-02T17:19:56Z</time></trkpt><trkpt lat="46.0311639402" lon="7.1472783387"><ele>910.51</ele><time>2014-09-02T17:20:12Z</time></trkpt><trkpt lat="46.0311501101" lon="7.1472790930"><ele>910.51</ele><time>2014-09-02T17:20:13Z</time></trkpt><trkpt lat="46.0311320890" lon="7.1472849604"><ele>910.51</ele><time>2014-09-02T17:20:14Z</time></trkpt><trkpt lat="46.0311204381" lon="7.1472810209"><ele>910.51</ele><time>2014-09-02T17:20:15Z</time></trkpt><trkpt lat="46.0311050992" lon="7.1472761594"><ele>910.51</ele><time>2014-09-02T17:20:16Z</time></trkpt><trkpt lat="46.0310883354" lon="7.1472724713"><ele>910.51</ele><time>2014-09-02T17:20:17Z</time></trkpt><trkpt lat="46.0310735833" lon="7.1472717170"><ele>910.51</ele><time>2014-09-02T17:20:18Z</time></trkpt><trkpt lat="46.0310584959" lon="7.1472681127"><ele>910.51</ele><time>2014-09-02T17:20:19Z</time></trkpt><trkpt lat="46.0310422350" lon="7.1472667716"><ele>910.51</ele><time>2014-09-02T17:20:20Z</time></trkpt><trkpt lat="46.0310278181" lon="7.1472646762"><ele>910.51</ele><time>2014-09-02T17:20:21Z</time></trkpt><trkpt lat="46.0307594296" lon="7.1472661849"><ele>912.91</ele><time>2014-09-02T17:20:38Z</time></trkpt><trkpt lat="46.0305254906" lon="7.1472681127"><ele>914.83</ele><time>2014-09-02T17:20:53Z</time></trkpt><trkpt lat="46.0304835811" lon="7.1472747345"><ele>914.83</ele><time>2014-09-02T17:20:56Z</time></trkpt><trkpt lat="46.0304674879" lon="7.1472719684"><ele>914.83</ele><time>2014-09-02T17:20:57Z</time></trkpt><trkpt lat="46.0304521490" lon="7.1472789254"><ele>914.83</ele><time>2014-09-02T17:20:58Z</time></trkpt><trkpt lat="46.0304350499" lon="7.1472799312"><ele>914.83</ele><time>2014-09-02T17:20:59Z</time></trkpt><trkpt lat="46.0304204654" lon="7.1472780034"><ele>915.31</ele><time>2014-09-02T17:21:00Z</time></trkpt><trkpt lat="46.0303604510" lon="7.1472810209"><ele>916.27</ele><time>2014-09-02T17:21:04Z</time></trkpt><trkpt lat="46.0303436872" lon="7.1472844575"><ele>916.27</ele><time>2014-09-02T17:21:05Z</time></trkpt><trkpt lat="46.0300387535" lon="7.1472998802"><ele>918.68</ele><time>2014-09-02T17:21:25Z</time></trkpt><trkpt lat="46.0297345743" lon="7.1473614872"><ele>922.04</ele><time>2014-09-02T17:21:43Z</time></trkpt><trkpt lat="46.0296200775" lon="7.1473862976"><ele>922.04</ele><time>2014-09-02T17:21:50Z</time></trkpt><trkpt lat="46.0296019726" lon="7.1473872196"><ele>922.04</ele><time>2014-09-02T17:21:51Z</time></trkpt><trkpt lat="46.0293420497" lon="7.1474192385"><ele>923.96</ele><time>2014-09-02T17:22:06Z</time></trkpt><trkpt lat="46.0290138982" lon="7.1474432107"><ele>924.45</ele><time>2014-09-02T17:22:25Z</time></trkpt><trkpt lat="46.0287243873" lon="7.1474631596"><ele>925.41</ele><time>2014-09-02T17:22:41Z</time></trkpt><trkpt lat="46.0285228863" lon="7.1474664286"><ele>927.33</ele><time>2014-09-02T17:22:52Z</time></trkpt><trkpt lat="46.0285010934" lon="7.1474672668"><ele>927.81</ele><time>2014-09-02T17:22:53Z</time></trkpt><trkpt lat="46.0282293521" lon="7.1474702843"><ele>929.25</ele><time>2014-09-02T17:23:08Z</time></trkpt><trkpt lat="46.0281426832" lon="7.1474708710"><ele>930.69</ele><time>2014-09-02T17:23:13Z</time></trkpt><trkpt lat="46.0281286854" lon="7.1474707033"><ele>930.69</ele><time>2014-09-02T17:23:14Z</time></trkpt><trkpt lat="46.0278713610" lon="7.1474309731"><ele>933.58</ele><time>2014-09-02T17:23:29Z</time></trkpt><trkpt lat="46.0276407748" lon="7.1473941766"><ele>934.06</ele><time>2014-09-02T17:23:43Z</time></trkpt><trkpt lat="46.0274071712" lon="7.1473574638"><ele>935.02</ele><time>2014-09-02T17:23:57Z</time></trkpt><trkpt lat="46.0272355936" lon="7.1473446395"><ele>936.46</ele><time>2014-09-02T17:24:08Z</time></trkpt><trkpt lat="46.0272186622" lon="7.1473438852"><ele>936.46</ele><time>2014-09-02T17:24:09Z</time></trkpt><trkpt lat="46.0272013955" lon="7.1473433822"><ele>936.46</ele><time>2014-09-02T17:24:10Z</time></trkpt><trkpt lat="46.0271849670" lon="7.1473380178"><ele>936.94</ele><time>2014-09-02T17:24:11Z</time></trkpt><trkpt lat="46.0271676164" lon="7.1473339945"><ele>936.94</ele><time>2014-09-02T17:24:12Z</time></trkpt><trkpt lat="46.0271503497" lon="7.1473325696"><ele>936.94</ele><time>2014-09-02T17:24:13Z</time></trkpt><trkpt lat="46.0268848948" lon="7.1473198291"><ele>937.42</ele><time>2014-09-02T17:24:28Z</time></trkpt><trkpt lat="46.0265986528" lon="7.1473447233"><ele>939.35</ele><time>2014-09-02T17:24:44Z</time></trkpt><trkpt lat="46.0262697469" lon="7.1473942604"><ele>940.79</ele><time>2014-09-02T17:25:02Z</time></trkpt><trkpt lat="46.0260109138" lon="7.1474239323"><ele>941.75</ele><time>2014-09-02T17:25:16Z</time></trkpt><trkpt lat="46.0259920545" lon="7.1474288777"><ele>941.75</ele><time>2014-09-02T17:25:17Z</time></trkpt><trkpt lat="46.0259734467" lon="7.1474298835"><ele>941.75</ele><time>2014-09-02T17:25:18Z</time></trkpt><trkpt lat="46.0259546712" lon="7.1474299673"><ele>941.75</ele><time>2014-09-02T17:25:19Z</time></trkpt><trkpt lat="46.0259363987" lon="7.1474329848"><ele>941.75</ele><time>2014-09-02T17:25:20Z</time></trkpt><trkpt lat="46.0259184614" lon="7.1474361699"><ele>941.75</ele><time>2014-09-02T17:25:21Z</time></trkpt><trkpt lat="46.0258993506" lon="7.1474365890"><ele>942.23</ele><time>2014-09-02T17:25:22Z</time></trkpt><trkpt lat="46.0258797370" lon="7.1474372596"><ele>942.23</ele><time>2014-09-02T17:25:23Z</time></trkpt><trkpt lat="46.0258602072" lon="7.1474390198"><ele>942.23</ele><time>2014-09-02T17:25:24Z</time></trkpt><trkpt lat="46.0258433595" lon="7.1474396903"><ele>942.71</ele><time>2014-09-02T17:25:25Z</time></trkpt><trkpt lat="46.0258235782" lon="7.1474406123"><ele>942.71</ele><time>2014-09-02T17:25:26Z</time></trkpt><trkpt lat="46.0258044675" lon="7.1474412829"><ele>942.71</ele><time>2014-09-02T17:25:27Z</time></trkpt><trkpt lat="46.0255276971" lon="7.1474142931"><ele>943.19</ele><time>2014-09-02T17:25:42Z</time></trkpt><trkpt lat="46.0251864698" lon="7.1473017242"><ele>944.63</ele><time>2014-09-02T17:26:01Z</time></trkpt><trkpt lat="46.0249346774" lon="7.1471972018"><ele>945.59</ele><time>2014-09-02T17:26:15Z</time></trkpt><trkpt lat="46.0247408878" lon="7.1470594034"><ele>947.04</ele><time>2014-09-02T17:26:29Z</time></trkpt><trkpt lat="46.0247277282" lon="7.1470458247"><ele>945.59</ele><time>2014-09-02T17:26:43Z</time></trkpt><trkpt lat="46.0247154906" lon="7.1470264625"><ele>947.04</ele><time>2014-09-02T17:27:04Z</time></trkpt><trkpt lat="46.0247111320" lon="7.1470374428"><ele>946.56</ele><time>2014-09-02T17:27:27Z</time></trkpt><trkpt lat="46.0247461684" lon="7.1470290609"><ele>943.67</ele><time>2014-09-02T17:27:52Z</time></trkpt><trkpt lat="46.0247112997" lon="7.1470178291"><ele>946.07</ele><time>2014-09-02T17:28:16Z</time></trkpt><trkpt lat="46.0246934462" lon="7.1470115427"><ele>946.56</ele><time>2014-09-02T17:28:17Z</time></trkpt><trkpt lat="46.0246838909" lon="7.1470054239"><ele>946.56</ele><time>2014-09-02T17:28:18Z</time></trkpt><trkpt lat="46.0246672109" lon="7.1469943598"><ele>946.56</ele><time>2014-09-02T17:28:19Z</time></trkpt><trkpt lat="46.0246499442" lon="7.1469810326"><ele>947.04</ele><time>2014-09-02T17:28:20Z</time></trkpt><trkpt lat="46.0246196017" lon="7.1469538752"><ele>947.04</ele><time>2014-09-02T17:28:22Z</time></trkpt><trkpt lat="46.0246078670" lon="7.1469463315"><ele>947.52</ele><time>2014-09-02T17:28:23Z</time></trkpt><trkpt lat="46.0245957132" lon="7.1469394583"><ele>947.52</ele><time>2014-09-02T17:28:24Z</time></trkpt><trkpt lat="46.0245857388" lon="7.1469289809"><ele>947.52</ele><time>2014-09-02T17:28:25Z</time></trkpt><trkpt lat="46.0245705675" lon="7.1469180007"><ele>947.52</ele><time>2014-09-02T17:28:26Z</time></trkpt><trkpt lat="46.0245543066" lon="7.1469074395"><ele>947.52</ele><time>2014-09-02T17:28:27Z</time></trkpt><trkpt lat="46.0245361179" lon="7.1468955372"><ele>947.52</ele><time>2014-09-02T17:28:28Z</time></trkpt><trkpt lat="46.0245173424" lon="7.1468813717"><ele>948.00</ele><time>2014-09-02T17:28:29Z</time></trkpt><trkpt lat="46.0245004110" lon="7.1468669549"><ele>948.00</ele><time>2014-09-02T17:28:30Z</time></trkpt><trkpt lat="46.0244712420" lon="7.1468389593"><ele>948.00</ele><time>2014-09-02T17:28:32Z</time></trkpt><trkpt lat="46.0244575795" lon="7.1468246263"><ele>948.00</ele><time>2014-09-02T17:28:33Z</time></trkpt><trkpt lat="46.0244409833" lon="7.1468080301"><ele>948.00</ele><time>2014-09-02T17:28:34Z</time></trkpt><trkpt lat="46.0244263150" lon="7.1467979718"><ele>948.00</ele><time>2014-09-02T17:28:35Z</time></trkpt><trkpt lat="46.0244085453" lon="7.1467857342"><ele>948.48</ele><time>2014-09-02T17:28:36Z</time></trkpt><trkpt lat="46.0243924521" lon="7.1467714012"><ele>948.48</ele><time>2014-09-02T17:28:37Z</time></trkpt><trkpt lat="46.0243741795" lon="7.1467559785"><ele>948.96</ele><time>2014-09-02T17:28:38Z</time></trkpt><trkpt lat="46.0243569966" lon="7.1467410587"><ele>948.96</ele><time>2014-09-02T17:28:39Z</time></trkpt><trkpt lat="46.0243415739" lon="7.1467291564"><ele>949.44</ele><time>2014-09-02T17:28:40Z</time></trkpt><trkpt lat="46.0240821540" lon="7.1465547290"><ele>951.36</ele><time>2014-09-02T17:28:56Z</time></trkpt><trkpt lat="46.0238335468" lon="7.1464527212"><ele>954.25</ele><time>2014-09-02T17:29:11Z</time></trkpt><trkpt lat="46.0235780664" lon="7.1464666352"><ele>953.77</ele><time>2014-09-02T17:29:25Z</time></trkpt><trkpt lat="46.0233183950" lon="7.1465936210"><ele>954.25</ele><time>2014-09-02T17:29:39Z</time></trkpt><trkpt lat="46.0231362563" lon="7.1468075272"><ele>953.77</ele><time>2014-09-02T17:29:52Z</time></trkpt><trkpt lat="46.0230111144" lon="7.1470187511"><ele>954.73</ele><time>2014-09-02T17:30:03Z</time></trkpt><trkpt lat="46.0229263734" lon="7.1473865490"><ele>955.69</ele><time>2014-09-02T17:30:18Z</time></trkpt><trkpt lat="46.0229302291" lon="7.1478094161"><ele>956.17</ele><time>2014-09-02T17:30:35Z</time></trkpt><trkpt lat="46.0230391938" lon="7.1482031140"><ele>956.65</ele><time>2014-09-02T17:30:52Z</time></trkpt><trkpt lat="46.0231972765" lon="7.1485769469"><ele>958.57</ele><time>2014-09-02T17:31:09Z</time></trkpt><trkpt lat="46.0234888829" lon="7.1487968042"><ele>960.49</ele><time>2014-09-02T17:31:27Z</time></trkpt><trkpt lat="46.0238238238" lon="7.1489321720"><ele>961.94</ele><time>2014-09-02T17:31:45Z</time></trkpt><trkpt lat="46.0241625365" lon="7.1489823796"><ele>964.34</ele><time>2014-09-02T17:32:03Z</time></trkpt><trkpt lat="46.0245345253" lon="7.1490022447"><ele>965.30</ele><time>2014-09-02T17:32:23Z</time></trkpt><trkpt lat="46.0248786863" lon="7.1490246244"><ele>966.74</ele><time>2014-09-02T17:32:42Z</time></trkpt><trkpt lat="46.0251788422" lon="7.1489656158"><ele>970.11</ele><time>2014-09-02T17:32:59Z</time></trkpt><trkpt lat="46.0254349932" lon="7.1489161626"><ele>972.03</ele><time>2014-09-02T17:33:15Z</time></trkpt><trkpt lat="46.0254470631" lon="7.1489055175"><ele>972.03</ele><time>2014-09-02T17:33:16Z</time></trkpt><trkpt lat="46.0254643299" lon="7.1489023324"><ele>972.51</ele><time>2014-09-02T17:33:17Z</time></trkpt><trkpt lat="46.0257380828" lon="7.1488482691"><ele>974.43</ele><time>2014-09-02T17:33:33Z</time></trkpt><trkpt lat="46.0260373168" lon="7.1487528831"><ele>976.84</ele><time>2014-09-02T17:33:50Z</time></trkpt><trkpt lat="46.0263391491" lon="7.1486593410"><ele>978.28</ele><time>2014-09-02T17:34:08Z</time></trkpt><trkpt lat="46.0265608504" lon="7.1486266516"><ele>978.76</ele><time>2014-09-02T17:34:24Z</time></trkpt><trkpt lat="46.0265611019" lon="7.1486460138"><ele>977.32</ele><time>2014-09-02T17:34:45Z</time></trkpt><trkpt lat="46.0265798774" lon="7.1486357879"><ele>977.32</ele><time>2014-09-02T17:34:51Z</time></trkpt><trkpt lat="46.0265927017" lon="7.1486297529"><ele>977.32</ele><time>2014-09-02T17:34:52Z</time></trkpt><trkpt lat="46.0266384669" lon="7.1486180183"><ele>977.80</ele><time>2014-09-02T17:34:55Z</time></trkpt><trkpt lat="46.0266562365" lon="7.1486230474"><ele>977.80</ele><time>2014-09-02T17:34:56Z</time></trkpt><trkpt lat="46.0266707372" lon="7.1486212872"><ele>978.28</ele><time>2014-09-02T17:34:57Z</time></trkpt><trkpt lat="46.0267051868" lon="7.1486149170"><ele>978.76</ele><time>2014-09-02T17:34:59Z</time></trkpt><trkpt lat="46.0267211124" lon="7.1486168448"><ele>978.76</ele><time>2014-09-02T17:35:00Z</time></trkpt><trkpt lat="46.0268080328" lon="7.1486061998"><ele>979.24</ele><time>2014-09-02T17:35:05Z</time></trkpt><trkpt lat="46.0268254671" lon="7.1486075409"><ele>978.76</ele><time>2014-09-02T17:35:06Z</time></trkpt><trkpt lat="46.0268433206" lon="7.1486063674"><ele>978.76</ele><time>2014-09-02T17:35:07Z</time></trkpt><trkpt lat="46.0268606711" lon="7.1486020088"><ele>979.24</ele><time>2014-09-02T17:35:08Z</time></trkpt><trkpt lat="46.0268790275" lon="7.1486024279"><ele>979.24</ele><time>2014-09-02T17:35:09Z</time></trkpt><trkpt lat="46.0268967133" lon="7.1486039367"><ele>979.72</ele><time>2014-09-02T17:35:10Z</time></trkpt><trkpt lat="46.0272486694" lon="7.1486418229"><ele>982.60</ele><time>2014-09-02T17:35:31Z</time></trkpt><trkpt lat="46.0275282059" lon="7.1487847343"><ele>986.45</ele><time>2014-09-02T17:35:48Z</time></trkpt><trkpt lat="46.0275354981" lon="7.1488157474"><ele>986.45</ele><time>2014-09-02T17:35:58Z</time></trkpt><trkpt lat="46.0275485739" lon="7.1488081198"><ele>986.45</ele><time>2014-09-02T17:36:17Z</time></trkpt><trkpt lat="46.0275516752" lon="7.1488287393"><ele>986.45</ele><time>2014-09-02T17:37:06Z</time></trkpt><trkpt lat="46.0275334027" lon="7.1488024201"><ele>986.93</ele><time>2014-09-02T17:37:47Z</time></trkpt><trkpt lat="46.0275357496" lon="7.1487867460"><ele>985.97</ele><time>2014-09-02T17:38:22Z</time></trkpt><trkpt lat="46.0275477357" lon="7.1488131490"><ele>988.37</ele><time>2014-09-02T17:39:07Z</time></trkpt><trkpt lat="46.0275471490" lon="7.1488136519"><ele>986.93</ele><time>2014-09-02T17:39:50Z</time></trkpt><trkpt lat="46.0275487415" lon="7.1488414798"><ele>988.37</ele><time>2014-09-02T17:40:33Z</time></trkpt><trkpt lat="46.0275349114" lon="7.1488180943"><ele>987.89</ele><time>2014-09-02T17:40:56Z</time></trkpt><trkpt lat="46.0275659245" lon="7.1488279011"><ele>988.37</ele><time>2014-09-02T17:41:04Z</time></trkpt><trkpt lat="46.0275760666" lon="7.1488364507"><ele>988.85</ele><time>2014-09-02T17:41:05Z</time></trkpt><trkpt lat="46.0275877174" lon="7.1488473471"><ele>988.85</ele><time>2014-09-02T17:41:06Z</time></trkpt><trkpt lat="46.0276007932" lon="7.1488598362"><ele>988.85</ele><time>2014-09-02T17:41:07Z</time></trkpt><trkpt lat="46.0276142880" lon="7.1488756780"><ele>988.85</ele><time>2014-09-02T17:41:08Z</time></trkpt><trkpt lat="46.0276282020" lon="7.1488923579"><ele>988.85</ele><time>2014-09-02T17:41:09Z</time></trkpt><trkpt lat="46.0276427027" lon="7.1489128936"><ele>989.33</ele><time>2014-09-02T17:41:10Z</time></trkpt><trkpt lat="46.0276561137" lon="7.1489330940"><ele>989.33</ele><time>2014-09-02T17:41:11Z</time></trkpt><trkpt lat="46.0276956763" lon="7.1489838045"><ele>989.81</ele><time>2014-09-02T17:41:14Z</time></trkpt><trkpt lat="46.0277066566" lon="7.1489983890"><ele>989.81</ele><time>2014-09-02T17:41:15Z</time></trkpt><trkpt lat="46.0277158767" lon="7.1490210202"><ele>989.81</ele><time>2014-09-02T17:41:16Z</time></trkpt><trkpt lat="46.0277344845" lon="7.1490657795"><ele>990.30</ele><time>2014-09-02T17:41:18Z</time></trkpt><trkpt lat="46.0277449619" lon="7.1490843035"><ele>990.30</ele><time>2014-09-02T17:41:19Z</time></trkpt><trkpt lat="46.0278269369" lon="7.1494670212"><ele>992.70</ele><time>2014-09-02T17:41:34Z</time></trkpt><trkpt lat="46.0277807526" lon="7.1498818416"><ele>994.62</ele><time>2014-09-02T17:41:51Z</time></trkpt><trkpt lat="46.0276527610" lon="7.1501294430"><ele>995.58</ele><time>2014-09-02T17:42:04Z</time></trkpt><trkpt lat="46.0274947621" lon="7.1502707619"><ele>997.02</ele><time>2014-09-02T17:42:15Z</time></trkpt><trkpt lat="46.0272782575" lon="7.1503389068"><ele>1000.39</ele><time>2014-09-02T17:42:30Z</time></trkpt><trkpt lat="46.0272204224" lon="7.1503523178"><ele>1000.87</ele><time>2014-09-02T17:42:34Z</time></trkpt><trkpt lat="46.0272055864" lon="7.1503524017"><ele>1000.87</ele><time>2014-09-02T17:42:35Z</time></trkpt><trkpt lat="46.0271927621" lon="7.1503501385"><ele>1001.35</ele><time>2014-09-02T17:42:36Z</time></trkpt><trkpt lat="46.0271801054" lon="7.1503432654"><ele>1001.35</ele><time>2014-09-02T17:42:37Z</time></trkpt><trkpt lat="46.0271678679" lon="7.1503407508"><ele>1001.35</ele><time>2014-09-02T17:42:38Z</time></trkpt><trkpt lat="46.0271544568" lon="7.1503399964"><ele>1000.87</ele><time>2014-09-02T17:42:39Z</time></trkpt><trkpt lat="46.0271403752" lon="7.1503389068"><ele>1000.87</ele><time>2014-09-02T17:42:40Z</time></trkpt><trkpt lat="46.0270347632" lon="7.1502698399"><ele>1002.31</ele><time>2014-09-02T17:42:54Z</time></trkpt><trkpt lat="46.0270369425" lon="7.1502786409"><ele>999.91</ele><time>2014-09-02T17:43:10Z</time></trkpt><trkpt lat="46.0270161554" lon="7.1502457000"><ele>1000.87</ele><time>2014-09-02T17:43:43Z</time></trkpt><trkpt lat="46.0270516109" lon="7.1502824128"><ele>1001.35</ele><time>2014-09-02T17:44:07Z</time></trkpt><trkpt lat="46.0270331707" lon="7.1502615418"><ele>1000.87</ele><time>2014-09-02T17:44:38Z</time></trkpt><trkpt lat="46.0269892495" lon="7.1502939798"><ele>1001.83</ele><time>2014-09-02T17:44:55Z</time></trkpt><trkpt lat="46.0267781932" lon="7.1502483822"><ele>1004.23</ele><time>2014-09-02T17:45:08Z</time></trkpt><trkpt lat="46.0264664702" lon="7.1502151899"><ele>1007.12</ele><time>2014-09-02T17:45:25Z</time></trkpt><trkpt lat="46.0264483653" lon="7.1502223983"><ele>1007.12</ele><time>2014-09-02T17:45:26Z</time></trkpt><trkpt lat="46.0264300928" lon="7.1502244938"><ele>1007.60</ele><time>2014-09-02T17:45:27Z</time></trkpt><trkpt lat="46.0264102276" lon="7.1502239071"><ele>1007.60</ele><time>2014-09-02T17:45:28Z</time></trkpt><trkpt lat="46.0263912007" lon="7.1502260864"><ele>1007.60</ele><time>2014-09-02T17:45:29Z</time></trkpt><trkpt lat="46.0263737664" lon="7.1502254158"><ele>1007.60</ele><time>2014-09-02T17:45:30Z</time></trkpt><trkpt lat="46.0263571702" lon="7.1502226498"><ele>1008.08</ele><time>2014-09-02T17:45:31Z</time></trkpt><trkpt lat="46.0263389815" lon="7.1502206381"><ele>1008.08</ele><time>2014-09-02T17:45:32Z</time></trkpt><trkpt lat="46.0263202898" lon="7.1502223145"><ele>1008.08</ele><time>2014-09-02T17:45:33Z</time></trkpt><trkpt lat="46.0260671563" lon="7.1502710972"><ele>1010.00</ele><time>2014-09-02T17:45:47Z</time></trkpt><trkpt lat="46.0259426851" lon="7.1503083967"><ele>1010.96</ele><time>2014-09-02T17:45:55Z</time></trkpt><trkpt lat="46.0259263404" lon="7.1503106598"><ele>1010.48</ele><time>2014-09-02T17:45:56Z</time></trkpt><trkpt lat="46.0259098280" lon="7.1503176168"><ele>1010.96</ele><time>2014-09-02T17:45:57Z</time></trkpt><trkpt lat="46.0258944053" lon="7.1503239032"><ele>1010.96</ele><time>2014-09-02T17:45:58Z</time></trkpt><trkpt lat="46.0258785635" lon="7.1503319498"><ele>1011.44</ele><time>2014-09-02T17:45:59Z</time></trkpt><trkpt lat="46.0258631408" lon="7.1503373142"><ele>1011.44</ele><time>2014-09-02T17:46:00Z</time></trkpt><trkpt lat="46.0258481372" lon="7.1503438521"><ele>1011.93</ele><time>2014-09-02T17:46:01Z</time></trkpt><trkpt lat="46.0258314572" lon="7.1503515635"><ele>1011.93</ele><time>2014-09-02T17:46:02Z</time></trkpt><trkpt lat="46.0255524237" lon="7.1504591033"><ele>1014.33</ele><time>2014-09-02T17:46:19Z</time></trkpt><trkpt lat="46.0252428800" lon="7.1505800541"><ele>1016.73</ele><time>2014-09-02T17:46:38Z</time></trkpt><trkpt lat="46.0249032453" lon="7.1506563295"><ele>1019.13</ele><time>2014-09-02T17:46:58Z</time></trkpt><trkpt lat="46.0246438254" lon="7.1506553236"><ele>1020.58</ele><time>2014-09-02T17:47:14Z</time></trkpt><trkpt lat="46.0246280674" lon="7.1506617777"><ele>1020.58</ele><time>2014-09-02T17:47:15Z</time></trkpt><trkpt lat="46.0246135667" lon="7.1506622806"><ele>1021.06</ele><time>2014-09-02T17:47:16Z</time></trkpt><trkpt lat="46.0245351121" lon="7.1506128274"><ele>1021.54</ele><time>2014-09-02T17:47:22Z</time></trkpt><trkpt lat="46.0245227907" lon="7.1506101452"><ele>1021.06</ele><time>2014-09-02T17:47:23Z</time></trkpt><trkpt lat="46.0242981557" lon="7.1506103966"><ele>1023.94</ele><time>2014-09-02T17:47:40Z</time></trkpt><trkpt lat="46.0242841579" lon="7.1506121568"><ele>1023.94</ele><time>2014-09-02T17:47:41Z</time></trkpt><trkpt lat="46.0242714174" lon="7.1506180242"><ele>1023.94</ele><time>2014-09-02T17:47:42Z</time></trkpt><trkpt lat="46.0242560785" lon="7.1506211255"><ele>1024.42</ele><time>2014-09-02T17:47:43Z</time></trkpt><trkpt lat="46.0242422484" lon="7.1506233048"><ele>1024.42</ele><time>2014-09-02T17:47:44Z</time></trkpt><trkpt lat="46.0241793003" lon="7.1505875140"><ele>1023.46</ele><time>2014-09-02T17:47:55Z</time></trkpt><trkpt lat="46.0241865925" lon="7.1505711693"><ele>1024.90</ele><time>2014-09-02T17:48:15Z</time></trkpt><trkpt lat="46.0241846647" lon="7.1505497955"><ele>1022.50</ele><time>2014-09-02T17:48:48Z</time></trkpt><trkpt lat="46.0241746064" lon="7.1505846642"><ele>1022.50</ele><time>2014-09-02T17:49:14Z</time></trkpt><trkpt lat="46.0241684876" lon="7.1505725943"><ele>1022.02</ele><time>2014-09-02T17:49:41Z</time></trkpt><trkpt lat="46.0241263267" lon="7.1506096423"><ele>1022.02</ele><time>2014-09-02T17:49:54Z</time></trkpt><trkpt lat="46.0241110716" lon="7.1506096423"><ele>1022.50</ele><time>2014-09-02T17:49:55Z</time></trkpt><trkpt lat="46.0240998399" lon="7.1506129950"><ele>1022.98</ele><time>2014-09-02T17:49:56Z</time></trkpt><trkpt lat="46.0240763705" lon="7.1506367996"><ele>1022.98</ele><time>2014-09-02T17:49:58Z</time></trkpt><trkpt lat="46.0240625404" lon="7.1506404039"><ele>1022.98</ele><time>2014-09-02T17:49:59Z</time></trkpt><trkpt lat="46.0239065532" lon="7.1506646276"><ele>1025.38</ele><time>2014-09-02T17:50:10Z</time></trkpt><trkpt lat="46.0238874424" lon="7.1506709978"><ele>1025.38</ele><time>2014-09-02T17:50:11Z</time></trkpt><trkpt lat="46.0238679126" lon="7.1506720874"><ele>1025.38</ele><time>2014-09-02T17:50:12Z</time></trkpt><trkpt lat="46.0238495562" lon="7.1506725065"><ele>1025.38</ele><time>2014-09-02T17:50:13Z</time></trkpt><trkpt lat="46.0238333791" lon="7.1506754402"><ele>1025.86</ele><time>2014-09-02T17:50:14Z</time></trkpt><trkpt lat="46.0238171183" lon="7.1506797988"><ele>1025.86</ele><time>2014-09-02T17:50:15Z</time></trkpt><trkpt lat="46.0235417727" lon="7.1507802140"><ele>1028.27</ele><time>2014-09-02T17:50:30Z</time></trkpt><trkpt lat="46.0232846159" lon="7.1509129833"><ele>1031.15</ele><time>2014-09-02T17:50:45Z</time></trkpt><trkpt lat="46.0230396967" lon="7.1510802861"><ele>1032.59</ele><time>2014-09-02T17:51:01Z</time></trkpt><trkpt lat="46.0230278783" lon="7.1510852315"><ele>1033.07</ele><time>2014-09-02T17:51:02Z</time></trkpt><trkpt lat="46.0230170656" lon="7.1510898415"><ele>1033.07</ele><time>2014-09-02T17:51:03Z</time></trkpt><trkpt lat="46.0230048280" lon="7.1511002351"><ele>1033.07</ele><time>2014-09-02T17:51:04Z</time></trkpt><trkpt lat="46.0229917523" lon="7.1511130594"><ele>1033.55</ele><time>2014-09-02T17:51:05Z</time></trkpt><trkpt lat="46.0229760781" lon="7.1511226986"><ele>1033.55</ele><time>2014-09-02T17:51:06Z</time></trkpt><trkpt lat="46.0227763373" lon="7.1513482556"><ele>1035.48</ele><time>2014-09-02T17:51:21Z</time></trkpt><trkpt lat="46.0225730762" lon="7.1515743993"><ele>1035.96</ele><time>2014-09-02T17:51:37Z</time></trkpt><trkpt lat="46.0223661270" lon="7.1517501678"><ele>1037.40</ele><time>2014-09-02T17:51:52Z</time></trkpt><trkpt lat="46.0221436713" lon="7.1519046463"><ele>1038.36</ele><time>2014-09-02T17:52:08Z</time></trkpt><trkpt lat="46.0218965728" lon="7.1520429477"><ele>1041.25</ele><time>2014-09-02T17:52:25Z</time></trkpt><trkpt lat="46.0216533300" lon="7.1521817520"><ele>1043.65</ele><time>2014-09-02T17:52:43Z</time></trkpt><trkpt lat="46.0214363225" lon="7.1523457859"><ele>1046.53</ele><time>2014-09-02T17:52:58Z</time></trkpt><trkpt lat="46.0211516730" lon="7.1526179463"><ele>1049.42</ele><time>2014-09-02T17:53:20Z</time></trkpt><trkpt lat="46.0209358390" lon="7.1528515499"><ele>1050.86</ele><time>2014-09-02T17:53:38Z</time></trkpt><trkpt lat="46.0209258646" lon="7.1528603509"><ele>1050.86</ele><time>2014-09-02T17:53:39Z</time></trkpt><trkpt lat="46.0209163930" lon="7.1528739296"><ele>1051.34</ele><time>2014-09-02T17:53:40Z</time></trkpt><trkpt lat="46.0209047422" lon="7.1528865024"><ele>1051.82</ele><time>2014-09-02T17:53:41Z</time></trkpt><trkpt lat="46.0208928399" lon="7.1528940462"><ele>1051.82</ele><time>2014-09-02T17:53:42Z</time></trkpt><trkpt lat="46.0208810214" lon="7.1529056970"><ele>1052.30</ele><time>2014-09-02T17:53:43Z</time></trkpt><trkpt lat="46.0208700411" lon="7.1529150009"><ele>1052.30</ele><time>2014-09-02T17:53:44Z</time></trkpt><trkpt lat="46.0208575521" lon="7.1529208682"><ele>1052.30</ele><time>2014-09-02T17:53:45Z</time></trkpt><trkpt lat="46.0207344219" lon="7.1530067828"><ele>1052.78</ele><time>2014-09-02T17:53:59Z</time></trkpt><trkpt lat="46.0207290575" lon="7.1529957186"><ele>1051.82</ele><time>2014-09-02T17:54:33Z</time></trkpt><trkpt lat="46.0207185801" lon="7.1529861633"><ele>1051.34</ele><time>2014-09-02T17:55:12Z</time></trkpt><trkpt lat="46.0207231902" lon="7.1530208644"><ele>1051.34</ele><time>2014-09-02T17:55:49Z</time></trkpt><trkpt lat="46.0207252018" lon="7.1530167572"><ele>1050.38</ele><time>2014-09-02T17:56:27Z</time></trkpt><trkpt lat="46.0207276326" lon="7.1530190203"><ele>1051.82</ele><time>2014-09-02T17:57:01Z</time></trkpt><trkpt lat="46.0207133833" lon="7.1530235466"><ele>1049.42</ele><time>2014-09-02T17:57:32Z</time></trkpt><trkpt lat="46.0207174066" lon="7.1530374605"><ele>1050.38</ele><time>2014-09-02T17:57:37Z</time></trkpt><trkpt lat="46.0207164846" lon="7.1530571580"><ele>1050.38</ele><time>2014-09-02T17:57:38Z</time></trkpt><trkpt lat="46.0207128804" lon="7.1530750953"><ele>1050.38</ele><time>2014-09-02T17:57:39Z</time></trkpt><trkpt lat="46.0207001399" lon="7.1531670447"><ele>1050.86</ele><time>2014-09-02T17:57:44Z</time></trkpt><trkpt lat="46.0206890758" lon="7.1531942859"><ele>1051.34</ele><time>2014-09-02T17:57:45Z</time></trkpt><trkpt lat="46.0206765030" lon="7.1532241255"><ele>1051.34</ele><time>2014-09-02T17:57:46Z</time></trkpt><trkpt lat="46.0206639301" lon="7.1532543842"><ele>1051.82</ele><time>2014-09-02T17:57:47Z</time></trkpt><trkpt lat="46.0206523631" lon="7.1532833017"><ele>1051.82</ele><time>2014-09-02T17:57:48Z</time></trkpt><trkpt lat="46.0204678774" lon="7.1536469087"><ele>1055.18</ele><time>2014-09-02T17:58:03Z</time></trkpt><trkpt lat="46.0203623492" lon="7.1538566239"><ele>1057.11</ele><time>2014-09-02T17:58:12Z</time></trkpt><trkpt lat="46.0203576554" lon="7.1538743936"><ele>1057.11</ele><time>2014-09-02T17:58:13Z</time></trkpt><trkpt lat="46.0203515366" lon="7.1538959350"><ele>1057.59</ele><time>2014-09-02T17:58:14Z</time></trkpt><trkpt lat="46.0203460883" lon="7.1539172251"><ele>1057.59</ele><time>2014-09-02T17:58:15Z</time></trkpt><trkpt lat="46.0203372035" lon="7.1539375931"><ele>1057.59</ele><time>2014-09-02T17:58:16Z</time></trkpt><trkpt lat="46.0203239601" lon="7.1539551113"><ele>1057.59</ele><time>2014-09-02T17:58:17Z</time></trkpt><trkpt lat="46.0203111358" lon="7.1539743058"><ele>1058.07</ele><time>2014-09-02T17:58:18Z</time></trkpt><trkpt lat="46.0201617703" lon="7.1543004457"><ele>1060.47</ele><time>2014-09-02T17:58:34Z</time></trkpt><trkpt lat="46.0200585052" lon="7.1545461193"><ele>1061.43</ele><time>2014-09-02T17:58:46Z</time></trkpt><trkpt lat="46.0200454295" lon="7.1545618773"><ele>1061.43</ele><time>2014-09-02T17:58:47Z</time></trkpt><trkpt lat="46.0200357903" lon="7.1545807365"><ele>1061.43</ele><time>2014-09-02T17:58:48Z</time></trkpt><trkpt lat="46.0200272407" lon="7.1545996796"><ele>1061.91</ele><time>2014-09-02T17:58:49Z</time></trkpt><trkpt lat="46.0200175177" lon="7.1546201315"><ele>1062.39</ele><time>2014-09-02T17:58:50Z</time></trkpt><trkpt lat="46.0200086329" lon="7.1546395775"><ele>1062.39</ele><time>2014-09-02T17:58:51Z</time></trkpt><trkpt lat="46.0200005025" lon="7.1546591911"><ele>1062.39</ele><time>2014-09-02T17:58:52Z</time></trkpt><trkpt lat="46.0198487900" lon="7.1550347842"><ele>1066.24</ele><time>2014-09-02T17:59:09Z</time></trkpt><trkpt lat="46.0197185352" lon="7.1553520393"><ele>1068.16</ele><time>2014-09-02T17:59:25Z</time></trkpt><trkpt lat="46.0196983349" lon="7.1553828847"><ele>1068.64</ele><time>2014-09-02T17:59:27Z</time></trkpt><trkpt lat="46.0196857620" lon="7.1553967986"><ele>1068.64</ele><time>2014-09-02T17:59:28Z</time></trkpt><trkpt lat="46.0195426829" lon="7.1556703839"><ele>1070.57</ele><time>2014-09-02T17:59:43Z</time></trkpt><trkpt lat="46.0194061417" lon="7.1558617428"><ele>1072.49</ele><time>2014-09-02T17:59:55Z</time></trkpt><trkpt lat="46.0193972569" lon="7.1558785904"><ele>1072.49</ele><time>2014-09-02T17:59:56Z</time></trkpt><trkpt lat="46.0192214884" lon="7.1560946759"><ele>1074.41</ele><time>2014-09-02T18:00:11Z</time></trkpt><trkpt lat="46.0190367512" lon="7.1563189756"><ele>1075.37</ele><time>2014-09-02T18:00:26Z</time></trkpt><trkpt lat="46.0188579652" lon="7.1565923933"><ele>1077.78</ele><time>2014-09-02T18:00:42Z</time></trkpt><trkpt lat="46.0186896566" lon="7.1569477022"><ele>1080.18</ele><time>2014-09-02T18:01:00Z</time></trkpt><trkpt lat="46.0185570549" lon="7.1573469322"><ele>1082.10</ele><time>2014-09-02T18:01:18Z</time></trkpt><trkpt lat="46.0185466614" lon="7.1573927812"><ele>1082.10</ele><time>2014-09-02T18:01:20Z</time></trkpt><trkpt lat="46.0185407102" lon="7.1574144065"><ele>1081.62</ele><time>2014-09-02T18:01:21Z</time></trkpt><trkpt lat="46.0185293946" lon="7.1574352775"><ele>1081.62</ele><time>2014-09-02T18:01:22Z</time></trkpt><trkpt lat="46.0185252875" lon="7.1574599203"><ele>1081.62</ele><time>2014-09-02T18:01:23Z</time></trkpt><trkpt lat="46.0185197555" lon="7.1574844792"><ele>1081.62</ele><time>2014-09-02T18:01:24Z</time></trkpt><trkpt lat="46.0185140558" lon="7.1575077809"><ele>1081.62</ele><time>2014-09-02T18:01:25Z</time></trkpt><trkpt lat="46.0184910055" lon="7.1575695556"><ele>1083.06</ele><time>2014-09-02T18:01:36Z</time></trkpt><trkpt lat="46.0184887424" lon="7.1575706452"><ele>1080.66</ele><time>2014-09-02T18:01:52Z</time></trkpt><trkpt lat="46.0184841324" lon="7.1575633530"><ele>1085.47</ele><time>2014-09-02T18:02:39Z</time></trkpt><trkpt lat="46.0184871498" lon="7.1575455833"><ele>1084.02</ele><time>2014-09-02T18:03:10Z</time></trkpt><trkpt lat="46.0184889100" lon="7.1575892530"><ele>1085.47</ele><time>2014-09-02T18:03:37Z</time></trkpt><trkpt lat="46.0184253752" lon="7.1578853857"><ele>1084.99</ele><time>2014-09-02T18:03:49Z</time></trkpt><trkpt lat="46.0183083639" lon="7.1583821811"><ele>1086.91</ele><time>2014-09-02T18:04:07Z</time></trkpt><trkpt lat="46.0182293225" lon="7.1587643959"><ele>1087.39</ele><time>2014-09-02T18:04:21Z</time></trkpt><trkpt lat="46.0181536339" lon="7.1591559146"><ele>1089.31</ele><time>2014-09-02T18:04:36Z</time></trkpt><trkpt lat="46.0179636162" lon="7.1594862454"><ele>1092.68</ele><time>2014-09-02T18:04:53Z</time></trkpt><trkpt lat="46.0177548230" lon="7.1597979683"><ele>1096.52</ele><time>2014-09-02T18:05:12Z</time></trkpt><trkpt lat="46.0176775418" lon="7.1600965317"><ele>1097.96</ele><time>2014-09-02T18:05:26Z</time></trkpt><trkpt lat="46.0175996739" lon="7.1604157984"><ele>1099.40</ele><time>2014-09-02T18:05:41Z</time></trkpt><trkpt lat="46.0174210556" lon="7.1607434470"><ele>1105.17</ele><time>2014-09-02T18:06:00Z</time></trkpt><trkpt lat="46.0174110811" lon="7.1607644856"><ele>1105.17</ele><time>2014-09-02T18:06:01Z</time></trkpt><trkpt lat="46.0174006037" lon="7.1607835963"><ele>1105.17</ele><time>2014-09-02T18:06:02Z</time></trkpt><trkpt lat="46.0173880309" lon="7.1607982647"><ele>1105.17</ele><time>2014-09-02T18:06:03Z</time></trkpt><trkpt lat="46.0173788108" lon="7.1608151961"><ele>1105.17</ele><time>2014-09-02T18:06:04Z</time></trkpt><trkpt lat="46.0173726082" lon="7.1608376596"><ele>1105.17</ele><time>2014-09-02T18:06:05Z</time></trkpt><trkpt lat="46.0173648968" lon="7.1608584467"><ele>1105.65</ele><time>2014-09-02T18:06:06Z</time></trkpt><trkpt lat="46.0173555929" lon="7.1608759649"><ele>1105.65</ele><time>2014-09-02T18:06:07Z</time></trkpt><trkpt lat="46.0173458699" lon="7.1608939022"><ele>1105.65</ele><time>2014-09-02T18:06:08Z</time></trkpt><trkpt lat="46.0173353087" lon="7.1609093249"><ele>1105.65</ele><time>2014-09-02T18:06:09Z</time></trkpt><trkpt lat="46.0173079837" lon="7.1610197984"><ele>1107.10</ele><time>2014-09-02T18:06:15Z</time></trkpt><trkpt lat="46.0172701813" lon="7.1610943973"><ele>1107.58</ele><time>2014-09-02T18:06:27Z</time></trkpt><trkpt lat="46.0172631405" lon="7.1611409169"><ele>1106.61</ele><time>2014-09-02T18:06:42Z</time></trkpt><trkpt lat="46.0172590334" lon="7.1611656435"><ele>1106.61</ele><time>2014-09-02T18:06:55Z</time></trkpt><trkpt lat="46.0172369890" lon="7.1611475386"><ele>1106.61</ele><time>2014-09-02T18:07:11Z</time></trkpt><trkpt lat="46.0172501486" lon="7.1611660626"><ele>1104.21</ele><time>2014-09-02T18:07:25Z</time></trkpt><trkpt lat="46.0173529107" lon="7.1611679904"><ele>1102.29</ele><time>2014-09-02T18:08:17Z</time></trkpt><trkpt lat="46.0172950756" lon="7.1612177789"><ele>1102.77</ele><time>2014-09-02T18:08:58Z</time></trkpt><trkpt lat="46.0172782280" lon="7.1612366382"><ele>1102.29</ele><time>2014-09-02T18:09:28Z</time></trkpt><trkpt lat="46.0172804911" lon="7.1612524800"><ele>1102.29</ele><time>2014-09-02T18:09:29Z</time></trkpt><trkpt lat="46.0172868613" lon="7.1612704173"><ele>1102.29</ele><time>2014-09-02T18:09:30Z</time></trkpt><trkpt lat="46.0172928125" lon="7.1612938028"><ele>1102.29</ele><time>2014-09-02T18:09:31Z</time></trkpt><trkpt lat="46.0172989313" lon="7.1613189485"><ele>1102.29</ele><time>2014-09-02T18:09:32Z</time></trkpt><trkpt lat="46.0172318760" lon="7.1617304999"><ele>1104.69</ele><time>2014-09-02T18:09:48Z</time></trkpt><trkpt lat="46.0169862024" lon="7.1616333537"><ele>1108.06</ele><time>2014-09-02T18:10:02Z</time></trkpt><trkpt lat="46.0167782474" lon="7.1612890251"><ele>1113.82</ele><time>2014-09-02T18:10:20Z</time></trkpt><trkpt lat="46.0165954381" lon="7.1610322036"><ele>1116.23</ele><time>2014-09-02T18:10:36Z</time></trkpt><trkpt lat="46.0163884051" lon="7.1610006038"><ele>1115.75</ele><time>2014-09-02T18:10:49Z</time></trkpt><trkpt lat="46.0162641015" lon="7.1611135080"><ele>1115.75</ele><time>2014-09-02T18:10:57Z</time></trkpt><trkpt lat="46.0162561387" lon="7.1611335408"><ele>1116.23</ele><time>2014-09-02T18:10:58Z</time></trkpt><trkpt lat="46.0162469186" lon="7.1611518133"><ele>1116.23</ele><time>2014-09-02T18:10:59Z</time></trkpt><trkpt lat="46.0162366927" lon="7.1611719299"><ele>1116.23</ele><time>2014-09-02T18:11:00Z</time></trkpt><trkpt lat="46.0162280593" lon="7.1611935552"><ele>1116.23</ele><time>2014-09-02T18:11:01Z</time></trkpt><trkpt lat="46.0162220243" lon="7.1612187009"><ele>1116.71</ele><time>2014-09-02T18:11:02Z</time></trkpt><trkpt lat="46.0162030812" lon="7.1612830739"><ele>1116.71</ele><time>2014-09-02T18:11:05Z</time></trkpt><trkpt lat="46.0161997285" lon="7.1613071300"><ele>1116.71</ele><time>2014-09-02T18:11:06Z</time></trkpt><trkpt lat="46.0161929391" lon="7.1613311023"><ele>1116.71</ele><time>2014-09-02T18:11:07Z</time></trkpt><trkpt lat="46.0161863174" lon="7.1613534819"><ele>1116.71</ele><time>2014-09-02T18:11:08Z</time></trkpt><trkpt lat="46.0161821265" lon="7.1613777895"><ele>1116.71</ele><time>2014-09-02T18:11:09Z</time></trkpt><trkpt lat="46.0161794443" lon="7.1614020132"><ele>1117.19</ele><time>2014-09-02T18:11:10Z</time></trkpt><trkpt lat="46.0161752533" lon="7.1614240576"><ele>1117.19</ele><time>2014-09-02T18:11:11Z</time></trkpt><trkpt lat="46.0161704756" lon="7.1614463534"><ele>1117.19</ele><time>2014-09-02T18:11:12Z</time></trkpt><trkpt lat="46.0161684640" lon="7.1614725050"><ele>1117.67</ele><time>2014-09-02T18:11:13Z</time></trkpt><trkpt lat="46.0161684640" lon="7.1614961419"><ele>1117.67</ele><time>2014-09-02T18:11:14Z</time></trkpt><trkpt lat="46.0161675420" lon="7.1615196951"><ele>1117.67</ele><time>2014-09-02T18:11:15Z</time></trkpt><trkpt lat="46.0161662847" lon="7.1615439188"><ele>1117.67</ele><time>2014-09-02T18:11:16Z</time></trkpt><trkpt lat="46.0161398817" lon="7.1618284006"><ele>1119.11</ele><time>2014-09-02T18:11:29Z</time></trkpt><trkpt lat="46.0161185917" lon="7.1620064322"><ele>1120.07</ele><time>2014-09-02T18:11:37Z</time></trkpt><trkpt lat="46.0161175858" lon="7.1620300692"><ele>1120.07</ele><time>2014-09-02T18:11:38Z</time></trkpt><trkpt lat="46.0161149874" lon="7.1620520297"><ele>1120.07</ele><time>2014-09-02T18:11:39Z</time></trkpt><trkpt lat="46.0161128081" lon="7.1620748285"><ele>1120.07</ele><time>2014-09-02T18:11:40Z</time></trkpt><trkpt lat="46.0161116347" lon="7.1620951127"><ele>1120.55</ele><time>2014-09-02T18:11:41Z</time></trkpt><trkpt lat="46.0161080305" lon="7.1621177439"><ele>1120.55</ele><time>2014-09-02T18:11:42Z</time></trkpt><trkpt lat="46.0161025822" lon="7.1621378604"><ele>1120.55</ele><time>2014-09-02T18:11:43Z</time></trkpt><trkpt lat="46.0160346050" lon="7.1625869628"><ele>1122.96</ele><time>2014-09-02T18:12:02Z</time></trkpt><trkpt lat="46.0158636142" lon="7.1630471293"><ele>1125.84</ele><time>2014-09-02T18:12:22Z</time></trkpt><trkpt lat="46.0156510491" lon="7.1634385642"><ele>1128.73</ele><time>2014-09-02T18:12:42Z</time></trkpt><trkpt lat="46.0154383164" lon="7.1637548134"><ele>1130.65</ele><time>2014-09-02T18:12:59Z</time></trkpt><trkpt lat="46.0152133461" lon="7.1640511975"><ele>1132.57</ele><time>2014-09-02T18:13:16Z</time></trkpt><trkpt lat="46.0150273517" lon="7.1643614955"><ele>1134.01</ele><time>2014-09-02T18:13:32Z</time></trkpt><trkpt lat="46.0147963464" lon="7.1646634955"><ele>1135.94</ele><time>2014-09-02T18:13:49Z</time></trkpt><trkpt lat="46.0145240184" lon="7.1649332251"><ele>1135.94</ele><time>2014-09-02T18:14:05Z</time></trkpt><trkpt lat="46.0141341761" lon="7.1652358957"><ele>1137.38</ele><time>2014-09-02T18:14:22Z</time></trkpt><trkpt lat="46.0136886779" lon="7.1654783841"><ele>1139.78</ele><time>2014-09-02T18:14:42Z</time></trkpt><trkpt lat="46.0134202056" lon="7.1656067111"><ele>1141.22</ele><time>2014-09-02T18:14:57Z</time></trkpt><trkpt lat="46.0131176189" lon="7.1657721698"><ele>1143.63</ele><time>2014-09-02T18:15:16Z</time></trkpt><trkpt lat="46.0128824227" lon="7.1660252195"><ele>1146.51</ele><time>2014-09-02T18:15:33Z</time></trkpt><trkpt lat="46.0127286147" lon="7.1664076019"><ele>1148.43</ele><time>2014-09-02T18:15:51Z</time></trkpt><trkpt lat="46.0127162933" lon="7.1664488409"><ele>1148.91</ele><time>2014-09-02T18:15:53Z</time></trkpt><trkpt lat="46.0127115995" lon="7.1664721426"><ele>1148.91</ele><time>2014-09-02T18:15:54Z</time></trkpt><trkpt lat="46.0127055645" lon="7.1664959472"><ele>1148.91</ele><time>2014-09-02T18:15:55Z</time></trkpt><trkpt lat="46.0126986913" lon="7.1665189974"><ele>1149.39</ele><time>2014-09-02T18:15:56Z</time></trkpt><trkpt lat="46.0126929078" lon="7.1665391140"><ele>1149.39</ele><time>2014-09-02T18:15:57Z</time></trkpt><trkpt lat="46.0126881301" lon="7.1665622480"><ele>1149.39</ele><time>2014-09-02T18:15:58Z</time></trkpt><trkpt lat="46.0126807541" lon="7.1665841248"><ele>1149.87</ele><time>2014-09-02T18:15:59Z</time></trkpt><trkpt lat="46.0126728751" lon="7.1666050795"><ele>1149.87</ele><time>2014-09-02T18:16:00Z</time></trkpt><trkpt lat="46.0126651637" lon="7.1666288842"><ele>1149.87</ele><time>2014-09-02T18:16:01Z</time></trkpt><trkpt lat="46.0126573686" lon="7.1666515153"><ele>1149.87</ele><time>2014-09-02T18:16:02Z</time></trkpt><trkpt lat="46.0125380103" lon="7.1669934969"><ele>1150.84</ele><time>2014-09-02T18:16:17Z</time></trkpt><trkpt lat="46.0123541113" lon="7.1673493087"><ele>1152.28</ele><time>2014-09-02T18:16:34Z</time></trkpt><trkpt lat="46.0123421252" lon="7.1673654858"><ele>1152.28</ele><time>2014-09-02T18:16:35Z</time></trkpt><trkpt lat="46.0123277921" lon="7.1673813276"><ele>1152.28</ele><time>2014-09-02T18:16:36Z</time></trkpt><trkpt lat="46.0121353436" lon="7.1676496323"><ele>1155.16</ele><time>2014-09-02T18:16:52Z</time></trkpt><trkpt lat="46.0118858144" lon="7.1678986587"><ele>1157.56</ele><time>2014-09-02T18:17:09Z</time></trkpt><trkpt lat="46.0116465110" lon="7.1680763550"><ele>1159.49</ele><time>2014-09-02T18:17:25Z</time></trkpt><trkpt lat="46.0113719199" lon="7.1682106331"><ele>1159.49</ele><time>2014-09-02T18:17:42Z</time></trkpt><trkpt lat="46.0110815708" lon="7.1683340985"><ele>1160.93</ele><time>2014-09-02T18:17:59Z</time></trkpt><trkpt lat="46.0108086560" lon="7.1684687957"><ele>1163.33</ele><time>2014-09-02T18:18:16Z</time></trkpt><trkpt lat="46.0105554387" lon="7.1685830411"><ele>1164.77</ele><time>2014-09-02T18:18:31Z</time></trkpt><trkpt lat="46.0103023052" lon="7.1686750744"><ele>1166.70</ele><time>2014-09-02T18:18:46Z</time></trkpt><trkpt lat="46.0100776702" lon="7.1687451471"><ele>1169.10</ele><time>2014-09-02T18:19:00Z</time></trkpt><trkpt lat="46.0099642631" lon="7.1687642578"><ele>1170.06</ele><time>2014-09-02T18:19:13Z</time></trkpt><trkpt lat="46.0099395365" lon="7.1687506791"><ele>1168.14</ele><time>2014-09-02T18:19:39Z</time></trkpt><trkpt lat="46.0099423025" lon="7.1687579714"><ele>1172.47</ele><time>2014-09-02T18:20:27Z</time></trkpt><trkpt lat="46.0099214315" lon="7.1687432192"><ele>1171.50</ele><time>2014-09-02T18:21:07Z</time></trkpt><trkpt lat="46.0099242814" lon="7.1687420458"><ele>1173.91</ele><time>2014-09-02T18:21:39Z</time></trkpt><trkpt lat="46.0099309869" lon="7.1687799320"><ele>1174.39</ele><time>2014-09-02T18:21:59Z</time></trkpt><trkpt lat="46.0099134687" lon="7.1687933430"><ele>1174.39</ele><time>2014-09-02T18:22:01Z</time></trkpt><trkpt lat="46.0099027399" lon="7.1688080113"><ele>1173.91</ele><time>2014-09-02T18:22:02Z</time></trkpt><trkpt lat="46.0098879877" lon="7.1688125376"><ele>1173.91</ele><time>2014-09-02T18:22:03Z</time></trkpt><trkpt lat="46.0098733194" lon="7.1688098554"><ele>1173.91</ele><time>2014-09-02T18:22:04Z</time></trkpt><trkpt lat="46.0098585673" lon="7.1688163932"><ele>1173.91</ele><time>2014-09-02T18:22:05Z</time></trkpt><trkpt lat="46.0098434798" lon="7.1688284632"><ele>1173.91</ele><time>2014-09-02T18:22:06Z</time></trkpt><trkpt lat="46.0098288115" lon="7.1688354202"><ele>1173.91</ele><time>2014-09-02T18:22:07Z</time></trkpt><trkpt lat="46.0098128021" lon="7.1688376833"><ele>1173.91</ele><time>2014-09-02T18:22:08Z</time></trkpt><trkpt lat="46.0097938590" lon="7.1688423771"><ele>1173.43</ele><time>2014-09-02T18:22:09Z</time></trkpt><trkpt lat="46.0095634405" lon="7.1690257732"><ele>1172.47</ele><time>2014-09-02T18:22:23Z</time></trkpt><trkpt lat="46.0093282443" lon="7.1691928245"><ele>1173.43</ele><time>2014-09-02T18:22:38Z</time></trkpt><trkpt lat="46.0090716742" lon="7.1693472192"><ele>1175.35</ele><time>2014-09-02T18:22:54Z</time></trkpt><trkpt lat="46.0087327100" lon="7.1694440302"><ele>1176.79</ele><time>2014-09-02T18:23:13Z</time></trkpt><trkpt lat="46.0084330570" lon="7.1694103349"><ele>1177.27</ele><time>2014-09-02T18:23:29Z</time></trkpt><trkpt lat="46.0083810054" lon="7.1693986841"><ele>1177.75</ele><time>2014-09-02T18:23:32Z</time></trkpt><trkpt lat="46.0083628166" lon="7.1693972591"><ele>1177.75</ele><time>2014-09-02T18:23:33Z</time></trkpt><trkpt lat="46.0083450470" lon="7.1693897992"><ele>1177.75</ele><time>2014-09-02T18:23:34Z</time></trkpt><trkpt lat="46.0083276965" lon="7.1693805791"><ele>1177.75</ele><time>2014-09-02T18:23:35Z</time></trkpt><trkpt lat="46.0083096754" lon="7.1693755500"><ele>1177.75</ele><time>2014-09-02T18:23:36Z</time></trkpt><trkpt lat="46.0082924925" lon="7.1693735383"><ele>1177.75</ele><time>2014-09-02T18:23:37Z</time></trkpt><trkpt lat="46.0082745552" lon="7.1693680901"><ele>1177.75</ele><time>2014-09-02T18:23:38Z</time></trkpt><trkpt lat="46.0079755727" lon="7.1694033779"><ele>1179.67</ele><time>2014-09-02T18:23:55Z</time></trkpt><trkpt lat="46.0079623293" lon="7.1694253385"><ele>1179.67</ele><time>2014-09-02T18:23:56Z</time></trkpt><trkpt lat="46.0079484154" lon="7.1694457065"><ele>1179.67</ele><time>2014-09-02T18:23:57Z</time></trkpt><trkpt lat="46.0079320706" lon="7.1694636438"><ele>1179.67</ele><time>2014-09-02T18:23:58Z</time></trkpt><trkpt lat="46.0079212580" lon="7.1694863588"><ele>1180.16</ele><time>2014-09-02T18:23:59Z</time></trkpt><trkpt lat="46.0079104453" lon="7.1695095766"><ele>1180.16</ele><time>2014-09-02T18:24:00Z</time></trkpt><trkpt lat="46.0079015605" lon="7.1695351414"><ele>1180.16</ele><time>2014-09-02T18:24:01Z</time></trkpt><trkpt lat="46.0078936815" lon="7.1695627179"><ele>1180.16</ele><time>2014-09-02T18:24:02Z</time></trkpt><trkpt lat="46.0079437215" lon="7.1698622033"><ele>1179.19</ele><time>2014-09-02T18:24:14Z</time></trkpt><trkpt lat="46.0079918336" lon="7.1699066274"><ele>1179.19</ele><time>2014-09-02T18:24:17Z</time></trkpt><trkpt lat="46.0080113634" lon="7.1699215472"><ele>1179.19</ele><time>2014-09-02T18:24:18Z</time></trkpt><trkpt lat="46.0080315638" lon="7.1699352935"><ele>1179.67</ele><time>2014-09-02T18:24:19Z</time></trkpt><trkpt lat="46.0080974456" lon="7.1699539851"><ele>1179.67</ele><time>2014-09-02T18:24:22Z</time></trkpt><trkpt lat="46.0084670875" lon="7.1699678991"><ele>1182.56</ele><time>2014-09-02T18:24:36Z</time></trkpt><trkpt lat="46.0088141821" lon="7.1701187734"><ele>1184.96</ele><time>2014-09-02T18:24:53Z</time></trkpt><trkpt lat="46.0090080556" lon="7.1702252235"><ele>1186.88</ele><time>2014-09-02T18:25:05Z</time></trkpt><trkpt lat="46.0090223048" lon="7.1702293307"><ele>1186.88</ele><time>2014-09-02T18:25:06Z</time></trkpt><trkpt lat="46.0090620350" lon="7.1702538896"><ele>1186.88</ele><time>2014-09-02T18:25:09Z</time></trkpt><trkpt lat="46.0090763681" lon="7.1702569909"><ele>1187.37</ele><time>2014-09-02T18:25:10Z</time></trkpt><trkpt lat="46.0090923775" lon="7.1702636965"><ele>1187.37</ele><time>2014-09-02T18:25:11Z</time></trkpt><trkpt lat="46.0091082193" lon="7.1702700667"><ele>1187.37</ele><time>2014-09-02T18:25:12Z</time></trkpt><trkpt lat="46.0091277491" lon="7.1702763531"><ele>1187.37</ele><time>2014-09-02T18:25:13Z</time></trkpt><trkpt lat="46.0091480333" lon="7.1702771913"><ele>1187.37</ele><time>2014-09-02T18:25:14Z</time></trkpt><trkpt lat="46.0091684852" lon="7.1702805441"><ele>1187.85</ele><time>2014-09-02T18:25:15Z</time></trkpt><trkpt lat="46.0091890208" lon="7.1702901833"><ele>1187.85</ele><time>2014-09-02T18:25:16Z</time></trkpt><trkpt lat="46.0095409770" lon="7.1702978108"><ele>1190.25</ele><time>2014-09-02T18:25:33Z</time></trkpt><trkpt lat="46.0099124629" lon="7.1700590104"><ele>1192.17</ele><time>2014-09-02T18:25:52Z</time></trkpt><trkpt lat="46.0101775825" lon="7.1696596965"><ele>1193.13</ele><time>2014-09-02T18:26:08Z</time></trkpt><trkpt lat="46.0104274470" lon="7.1694595367"><ele>1195.06</ele><time>2014-09-02T18:26:21Z</time></trkpt><trkpt lat="46.0104456358" lon="7.1694738697"><ele>1195.54</ele><time>2014-09-02T18:26:22Z</time></trkpt><trkpt lat="46.0105231684" lon="7.1696907096"><ele>1196.50</ele><time>2014-09-02T18:26:30Z</time></trkpt><trkpt lat="46.0103689414" lon="7.1699558292"><ele>1198.90</ele><time>2014-09-02T18:26:42Z</time></trkpt><trkpt lat="46.0103010479" lon="7.1700270753"><ele>1199.38</ele><time>2014-09-02T18:26:47Z</time></trkpt><trkpt lat="46.0102929175" lon="7.1700436715"><ele>1199.38</ele><time>2014-09-02T18:26:48Z</time></trkpt><trkpt lat="46.0102825239" lon="7.1700526401"><ele>1199.38</ele><time>2014-09-02T18:26:49Z</time></trkpt><trkpt lat="46.0100991279" lon="7.1702218708"><ele>1199.86</ele><time>2014-09-02T18:27:03Z</time></trkpt><trkpt lat="46.0098097846" lon="7.1704251319"><ele>1201.79</ele><time>2014-09-02T18:27:20Z</time></trkpt><trkpt lat="46.0095399711" lon="7.1706398763"><ele>1203.71</ele><time>2014-09-02T18:27:38Z</time></trkpt><trkpt lat="46.0093669686" lon="7.1708050836"><ele>1204.67</ele><time>2014-09-02T18:27:52Z</time></trkpt><trkpt lat="46.0093468521" lon="7.1707997192"><ele>1205.15</ele><time>2014-09-02T18:28:05Z</time></trkpt><trkpt lat="46.0093480255" lon="7.1707852185"><ele>1205.63</ele><time>2014-09-02T18:28:42Z</time></trkpt><trkpt lat="46.0093299206" lon="7.1708059218"><ele>1204.19</ele><time>2014-09-02T18:29:21Z</time></trkpt><trkpt lat="46.0093218740" lon="7.1708656009"><ele>1204.19</ele><time>2014-09-02T18:29:39Z</time></trkpt><trkpt lat="46.0090943892" lon="7.1710960194"><ele>1206.11</ele><time>2014-09-02T18:29:54Z</time></trkpt><trkpt lat="46.0088327900" lon="7.1713323053"><ele>1208.51</ele><time>2014-09-02T18:30:10Z</time></trkpt><trkpt lat="46.0085342266" lon="7.1714562736"><ele>1210.92</ele><time>2014-09-02T18:30:27Z</time></trkpt><trkpt lat="46.0082589649" lon="7.1714159567"><ele>1212.84</ele><time>2014-09-02T18:30:42Z</time></trkpt><trkpt lat="46.0079947673" lon="7.1712769009"><ele>1215.24</ele><time>2014-09-02T18:30:58Z</time></trkpt><trkpt lat="46.0077676177" lon="7.1710041538"><ele>1217.65</ele><time>2014-09-02T18:31:15Z</time></trkpt><trkpt lat="46.0076318309" lon="7.1707098652"><ele>1219.57</ele><time>2014-09-02T18:31:30Z</time></trkpt><trkpt lat="46.0075726546" lon="7.1705604997"><ele>1220.53</ele><time>2014-09-02T18:31:37Z</time></trkpt><trkpt lat="46.0075646080" lon="7.1705384552"><ele>1221.01</ele><time>2014-09-02T18:31:38Z</time></trkpt><trkpt lat="46.0074025020" lon="7.1702038497"><ele>1224.38</ele><time>2014-09-02T18:31:56Z</time></trkpt><trkpt lat="46.0072603449" lon="7.1699749399"><ele>1227.74</ele><time>2014-09-02T18:32:13Z</time></trkpt><trkpt lat="46.0072569083" lon="7.1699344553"><ele>1225.34</ele><time>2014-09-02T18:32:27Z</time></trkpt><trkpt lat="46.0072341096" lon="7.1699765325"><ele>1220.53</ele><time>2014-09-02T18:33:06Z</time></trkpt><trkpt lat="46.0072269849" lon="7.1699545719"><ele>1220.05</ele><time>2014-09-02T18:33:23Z</time></trkpt><trkpt lat="46.0069922078" lon="7.1698024403"><ele>1222.93</ele><time>2014-09-02T18:33:37Z</time></trkpt><trkpt lat="46.0066862684" lon="7.1697228123"><ele>1226.78</ele><time>2014-09-02T18:33:54Z</time></trkpt><trkpt lat="46.0065521579" lon="7.1697260812"><ele>1227.26</ele><time>2014-09-02T18:34:02Z</time></trkpt><trkpt lat="46.0065348074" lon="7.1697343793"><ele>1227.26</ele><time>2014-09-02T18:34:03Z</time></trkpt><trkpt lat="46.0065182112" lon="7.1697371453"><ele>1227.26</ele><time>2014-09-02T18:34:04Z</time></trkpt><trkpt lat="46.0065016989" lon="7.1697386540"><ele>1227.26</ele><time>2014-09-02T18:34:05Z</time></trkpt><trkpt lat="46.0064828396" lon="7.1697423421"><ele>1227.74</ele><time>2014-09-02T18:34:06Z</time></trkpt><trkpt lat="46.0062465537" lon="7.1698212158"><ele>1229.18</ele><time>2014-09-02T18:34:20Z</time></trkpt><trkpt lat="46.0061663389" lon="7.1698644664"><ele>1229.66</ele><time>2014-09-02T18:34:25Z</time></trkpt><trkpt lat="46.0061476473" lon="7.1698725969"><ele>1229.66</ele><time>2014-09-02T18:34:26Z</time></trkpt><trkpt lat="46.0060334858" lon="7.1699446812"><ele>1232.07</ele><time>2014-09-02T18:34:34Z</time></trkpt><trkpt lat="46.0060219187" lon="7.1699570864"><ele>1232.07</ele><time>2014-09-02T18:34:35Z</time></trkpt><trkpt lat="46.0060090106" lon="7.1699657198"><ele>1232.07</ele><time>2014-09-02T18:34:36Z</time></trkpt><trkpt lat="46.0058187414" lon="7.1701073740"><ele>1233.03</ele><time>2014-09-02T18:34:51Z</time></trkpt><trkpt lat="46.0056821164" lon="7.1703027561"><ele>1234.47</ele><time>2014-09-02T18:35:05Z</time></trkpt><trkpt lat="46.0056543723" lon="7.1703564003"><ele>1234.47</ele><time>2014-09-02T18:35:08Z</time></trkpt><trkpt lat="46.0056446493" lon="7.1703750081"><ele>1234.47</ele><time>2014-09-02T18:35:09Z</time></trkpt><trkpt lat="46.0056322441" lon="7.1703936160"><ele>1234.95</ele><time>2014-09-02T18:35:10Z</time></trkpt><trkpt lat="46.0056109540" lon="7.1704282332"><ele>1234.95</ele><time>2014-09-02T18:35:12Z</time></trkpt><trkpt lat="46.0054724012" lon="7.1706506889"><ele>1236.87</ele><time>2014-09-02T18:35:25Z</time></trkpt><trkpt lat="46.0053281486" lon="7.1709022298"><ele>1238.80</ele><time>2014-09-02T18:35:39Z</time></trkpt><trkpt lat="46.0051265638" lon="7.1711862925"><ele>1240.72</ele><time>2014-09-02T18:35:56Z</time></trkpt><trkpt lat="46.0051151644" lon="7.1712028887"><ele>1240.72</ele><time>2014-09-02T18:35:57Z</time></trkpt><trkpt lat="46.0051009990" lon="7.1712143719"><ele>1240.72</ele><time>2014-09-02T18:35:58Z</time></trkpt><trkpt lat="46.0050855763" lon="7.1712263580"><ele>1240.72</ele><time>2014-09-02T18:35:59Z</time></trkpt><trkpt lat="46.0050719138" lon="7.1712421160"><ele>1241.20</ele><time>2014-09-02T18:36:00Z</time></trkpt><trkpt lat="46.0050580837" lon="7.1712540183"><ele>1240.72</ele><time>2014-09-02T18:36:01Z</time></trkpt><trkpt lat="46.0050434154" lon="7.1712641604"><ele>1240.72</ele><time>2014-09-02T18:36:02Z</time></trkpt><trkpt lat="46.0050274059" lon="7.1712772362"><ele>1240.72</ele><time>2014-09-02T18:36:03Z</time></trkpt><trkpt lat="46.0050116479" lon="7.1712908149"><ele>1241.20</ele><time>2014-09-02T18:36:04Z</time></trkpt><trkpt lat="46.0049979016" lon="7.1713075787"><ele>1241.20</ele><time>2014-09-02T18:36:05Z</time></trkpt><trkpt lat="46.0049841553" lon="7.1713203192"><ele>1241.20</ele><time>2014-09-02T18:36:06Z</time></trkpt><trkpt lat="46.0049692355" lon="7.1713308804"><ele>1241.20</ele><time>2014-09-02T18:36:07Z</time></trkpt><trkpt lat="46.0047262441" lon="7.1715174615"><ele>1242.64</ele><time>2014-09-02T18:36:24Z</time></trkpt><trkpt lat="46.0045125056" lon="7.1717054676"><ele>1245.04</ele><time>2014-09-02T18:36:39Z</time></trkpt><trkpt lat="46.0043105017" lon="7.1719057113"><ele>1246.49</ele><time>2014-09-02T18:36:54Z</time></trkpt><trkpt lat="46.0041086655" lon="7.1721731778"><ele>1248.41</ele><time>2014-09-02T18:37:11Z</time></trkpt><trkpt lat="46.0038864613" lon="7.1725630201"><ele>1251.77</ele><time>2014-09-02T18:37:32Z</time></trkpt><trkpt lat="46.0037488304" lon="7.1728433110"><ele>1252.74</ele><time>2014-09-02T18:37:46Z</time></trkpt><trkpt lat="46.0037158057" lon="7.1728920937"><ele>1252.74</ele><time>2014-09-02T18:37:49Z</time></trkpt><trkpt lat="46.0037040710" lon="7.1729089413"><ele>1252.74</ele><time>2014-09-02T18:37:50Z</time></trkpt><trkpt lat="46.0036951024" lon="7.1729283035"><ele>1252.74</ele><time>2014-09-02T18:37:51Z</time></trkpt><trkpt lat="46.0036865529" lon="7.1729457378"><ele>1252.74</ele><time>2014-09-02T18:37:52Z</time></trkpt><trkpt lat="46.0036759079" lon="7.1729619149"><ele>1253.22</ele><time>2014-09-02T18:37:53Z</time></trkpt><trkpt lat="46.0036362614" lon="7.1730292216"><ele>1253.70</ele><time>2014-09-02T18:37:57Z</time></trkpt><trkpt lat="46.0036260355" lon="7.1730500087"><ele>1254.18</ele><time>2014-09-02T18:37:58Z</time></trkpt><trkpt lat="46.0036150552" lon="7.1730702091"><ele>1254.18</ele><time>2014-09-02T18:37:59Z</time></trkpt><trkpt lat="46.0036040749" lon="7.1730878949"><ele>1254.18</ele><time>2014-09-02T18:38:00Z</time></trkpt><trkpt lat="46.0035941005" lon="7.1731044911"><ele>1254.66</ele><time>2014-09-02T18:38:01Z</time></trkpt><trkpt lat="46.0035841260" lon="7.1731204167"><ele>1254.66</ele><time>2014-09-02T18:38:02Z</time></trkpt><trkpt lat="46.0035731457" lon="7.1731365938"><ele>1254.66</ele><time>2014-09-02T18:38:03Z</time></trkpt><trkpt lat="46.0035625845" lon="7.1731536929"><ele>1254.66</ele><time>2014-09-02T18:38:04Z</time></trkpt><trkpt lat="46.0035299789" lon="7.1732023079"><ele>1255.14</ele><time>2014-09-02T18:38:07Z</time></trkpt><trkpt lat="46.0035219323" lon="7.1732178144"><ele>1255.14</ele><time>2014-09-02T18:38:08Z</time></trkpt><trkpt lat="46.0034469143" lon="7.1733209118"><ele>1256.58</ele><time>2014-09-02T18:38:21Z</time></trkpt><trkpt lat="46.0034471657" lon="7.1733273659"><ele>1257.06</ele><time>2014-09-02T18:38:47Z</time></trkpt><trkpt lat="46.0034580622" lon="7.1733454708"><ele>1257.54</ele><time>2014-09-02T18:38:49Z</time></trkpt><trkpt lat="46.0034704674" lon="7.1733722091"><ele>1257.54</ele><time>2014-09-02T18:38:51Z</time></trkpt><trkpt lat="46.0034767538" lon="7.1735912282"><ele>1257.54</ele><time>2014-09-02T18:39:05Z</time></trkpt><trkpt lat="46.0034955293" lon="7.1735903062"><ele>1255.62</ele><time>2014-09-02T18:39:21Z</time></trkpt><trkpt lat="46.0035081021" lon="7.1736128535"><ele>1253.70</ele><time>2014-09-02T18:40:06Z</time></trkpt><trkpt lat="46.0035130475" lon="7.1736571938"><ele>1257.54</ele><time>2014-09-02T18:40:55Z</time></trkpt><trkpt lat="46.0034433100" lon="7.1735989396"><ele>1257.06</ele><time>2014-09-02T18:41:15Z</time></trkpt><trkpt lat="46.0034449026" lon="7.1735973470"><ele>1257.06</ele><time>2014-09-02T18:41:20Z</time></trkpt><trkpt lat="46.0033843853" lon="7.1735325549"><ele>1257.06</ele><time>2014-09-02T18:41:25Z</time></trkpt><trkpt lat="46.0033549648" lon="7.1735165454"><ele>1256.58</ele><time>2014-09-02T18:41:26Z</time></trkpt><trkpt lat="46.0033357702" lon="7.1735134441"><ele>1256.58</ele><time>2014-09-02T18:41:27Z</time></trkpt><trkpt lat="46.0033050925" lon="7.1735194791"><ele>1257.06</ele><time>2014-09-02T18:41:28Z</time></trkpt><trkpt lat="46.0032868199" lon="7.1735307109"><ele>1257.06</ele><time>2014-09-02T18:41:29Z</time></trkpt><trkpt lat="46.0032640211" lon="7.1735463012"><ele>1257.06</ele><time>2014-09-02T18:41:30Z</time></trkpt><trkpt lat="46.0029734205" lon="7.1737950761"><ele>1258.50</ele><time>2014-09-02T18:41:46Z</time></trkpt><trkpt lat="46.0026870109" lon="7.1739991754"><ele>1260.43</ele><time>2014-09-02T18:42:03Z</time></trkpt><trkpt lat="46.0024514794" lon="7.1741691604"><ele>1261.87</ele><time>2014-09-02T18:42:18Z</time></trkpt><trkpt lat="46.0022383276" lon="7.1743251476"><ele>1264.27</ele><time>2014-09-02T18:42:32Z</time></trkpt><trkpt lat="46.0020030476" lon="7.1745132376"><ele>1265.71</ele><time>2014-09-02T18:42:48Z</time></trkpt><trkpt lat="46.0019347351" lon="7.1745811310"><ele>1265.71</ele><time>2014-09-02T18:42:53Z</time></trkpt><trkpt lat="46.0019208211" lon="7.1745887585"><ele>1265.71</ele><time>2014-09-02T18:42:54Z</time></trkpt><trkpt lat="46.0016999580" lon="7.1747799497"><ele>1267.64</ele><time>2014-09-02T18:43:09Z</time></trkpt><trkpt lat="46.0015047435" lon="7.1749611665"><ele>1269.56</ele><time>2014-09-02T18:43:24Z</time></trkpt><trkpt lat="46.0012920946" lon="7.1751088556"><ele>1271.00</ele><time>2014-09-02T18:43:39Z</time></trkpt><trkpt lat="46.0010997299" lon="7.1752450615"><ele>1272.92</ele><time>2014-09-02T18:43:53Z</time></trkpt><trkpt lat="46.0008804593" lon="7.1753596421"><ele>1276.29</ele><time>2014-09-02T18:44:08Z</time></trkpt><trkpt lat="46.0006751027" lon="7.1754812635"><ele>1278.69</ele><time>2014-09-02T18:44:24Z</time></trkpt><trkpt lat="46.0006409883" lon="7.1754858736"><ele>1278.69</ele><time>2014-09-02T18:44:35Z</time></trkpt><trkpt lat="46.0006417427" lon="7.1754777431"><ele>1281.09</ele><time>2014-09-02T18:45:13Z</time></trkpt><trkpt lat="46.0006264038" lon="7.1754888073"><ele>1280.61</ele><time>2014-09-02T18:45:58Z</time></trkpt><trkpt lat="46.0006429162" lon="7.1754942555"><ele>1277.73</ele><time>2014-09-02T18:46:22Z</time></trkpt><trkpt lat="46.0005955584" lon="7.1755239274"><ele>1278.69</ele><time>2014-09-02T18:46:36Z</time></trkpt><trkpt lat="46.0003823228" lon="7.1756180562"><ele>1280.13</ele><time>2014-09-02T18:46:49Z</time></trkpt><trkpt lat="46.0001653992" lon="7.1757335588"><ele>1282.54</ele><time>2014-09-02T18:47:03Z</time></trkpt><trkpt lat="45.9999176301" lon="7.1758790687"><ele>1284.46</ele><time>2014-09-02T18:47:19Z</time></trkpt><trkpt lat="45.9997119382" lon="7.1760277636"><ele>1285.90</ele><time>2014-09-02T18:47:33Z</time></trkpt><trkpt lat="45.9994693659" lon="7.1762303542"><ele>1288.30</ele><time>2014-09-02T18:47:49Z</time></trkpt><trkpt lat="45.9993288014" lon="7.1763396543"><ele>1289.27</ele><time>2014-09-02T18:47:58Z</time></trkpt><trkpt lat="45.9993133787" lon="7.1763534006"><ele>1289.75</ele><time>2014-09-02T18:47:59Z</time></trkpt><trkpt lat="45.9992959443" lon="7.1763616148"><ele>1289.75</ele><time>2014-09-02T18:48:00Z</time></trkpt><trkpt lat="45.9992788453" lon="7.1763743553"><ele>1289.75</ele><time>2014-09-02T18:48:01Z</time></trkpt><trkpt lat="45.9992619138" lon="7.1763881017"><ele>1290.23</ele><time>2014-09-02T18:48:02Z</time></trkpt><trkpt lat="45.9992446471" lon="7.1764017642"><ele>1290.23</ele><time>2014-09-02T18:48:03Z</time></trkpt><trkpt lat="45.9990004823" lon="7.1765368804"><ele>1291.67</ele><time>2014-09-02T18:48:18Z</time></trkpt><trkpt lat="45.9987187665" lon="7.1766762715"><ele>1293.11</ele><time>2014-09-02T18:48:35Z</time></trkpt><trkpt lat="45.9984778706" lon="7.1767948754"><ele>1294.55</ele><time>2014-09-02T18:48:51Z</time></trkpt><trkpt lat="45.9984637052" lon="7.1768003237"><ele>1294.55</ele><time>2014-09-02T18:48:52Z</time></trkpt><trkpt lat="45.9984520543" lon="7.1768105496"><ele>1294.55</ele><time>2014-09-02T18:48:53Z</time></trkpt><trkpt lat="45.9984367993" lon="7.1768178418"><ele>1294.55</ele><time>2014-09-02T18:48:54Z</time></trkpt><trkpt lat="45.9984228015" lon="7.1768231224"><ele>1295.03</ele><time>2014-09-02T18:48:55Z</time></trkpt><trkpt lat="45.9982298501" lon="7.1769523714"><ele>1295.99</ele><time>2014-09-02T18:49:12Z</time></trkpt><trkpt lat="45.9982072189" lon="7.1769449115"><ele>1295.51</ele><time>2014-09-02T18:49:25Z</time></trkpt><trkpt lat="45.9982071351" lon="7.1769359428"><ele>1295.03</ele><time>2014-09-02T18:49:42Z</time></trkpt><trkpt lat="45.9982181992" lon="7.1769410558"><ele>1294.55</ele><time>2014-09-02T18:50:12Z</time></trkpt><trkpt lat="45.9982026089" lon="7.1769458335"><ele>1294.07</ele><time>2014-09-02T18:50:48Z</time></trkpt><trkpt lat="45.9981908742" lon="7.1769050974"><ele>1295.51</ele><time>2014-09-02T18:51:16Z</time></trkpt><trkpt lat="45.9982117452" lon="7.1769318357"><ele>1294.07</ele><time>2014-09-02T18:51:45Z</time></trkpt><trkpt lat="45.9982187022" lon="7.1769077796"><ele>1295.99</ele><time>2014-09-02T18:52:14Z</time></trkpt><trkpt lat="45.9982152656" lon="7.1769436542"><ele>1292.63</ele><time>2014-09-02T18:52:39Z</time></trkpt><trkpt lat="45.9982225578" lon="7.1769575682"><ele>1294.07</ele><time>2014-09-02T18:52:57Z</time></trkpt><trkpt lat="45.9982078895" lon="7.1769647766"><ele>1297.44</ele><time>2014-09-02T18:53:28Z</time></trkpt><trkpt lat="45.9981982503" lon="7.1770148166"><ele>1297.92</ele><time>2014-09-02T18:53:39Z</time></trkpt><trkpt lat="45.9981461149" lon="7.1771409642"><ele>1298.40</ele><time>2014-09-02T18:53:45Z</time></trkpt><trkpt lat="45.9981348831" lon="7.1771550458"><ele>1298.40</ele><time>2014-09-02T18:53:46Z</time></trkpt><trkpt lat="45.9981247410" lon="7.1771723963"><ele>1298.88</ele><time>2014-09-02T18:53:47Z</time></trkpt><trkpt lat="45.9981154371" lon="7.1771916747"><ele>1299.36</ele><time>2014-09-02T18:53:48Z</time></trkpt><trkpt lat="45.9981075581" lon="7.1772118751"><ele>1299.84</ele><time>2014-09-02T18:53:49Z</time></trkpt><trkpt lat="45.9981015231" lon="7.1772326622"><ele>1299.84</ele><time>2014-09-02T18:53:50Z</time></trkpt><trkpt lat="45.9980928060" lon="7.1772510186"><ele>1299.84</ele><time>2014-09-02T18:53:51Z</time></trkpt><trkpt lat="45.9980822448" lon="7.1772687882"><ele>1300.32</ele><time>2014-09-02T18:53:52Z</time></trkpt><trkpt lat="45.9979452845" lon="7.1776199900"><ele>1303.20</ele><time>2014-09-02T18:54:05Z</time></trkpt><trkpt lat="45.9976913966" lon="7.1780793183"><ele>1306.09</ele><time>2014-09-02T18:54:24Z</time></trkpt><trkpt lat="45.9973503370" lon="7.1783888619"><ele>1308.01</ele><time>2014-09-02T18:54:42Z</time></trkpt><trkpt lat="45.9969586506" lon="7.1784173604"><ele>1306.57</ele><time>2014-09-02T18:54:57Z</time></trkpt><trkpt lat="45.9965996537" lon="7.1781597007"><ele>1306.09</ele><time>2014-09-02T18:55:11Z</time></trkpt><trkpt lat="45.9961645491" lon="7.1776582953"><ele>1306.57</ele><time>2014-09-02T18:55:29Z</time></trkpt><trkpt lat="45.9959182050" lon="7.1778453793"><ele>1307.05</ele><time>2014-09-02T18:55:38Z</time></trkpt><trkpt lat="45.9957288578" lon="7.1783858445"><ele>1308.49</ele><time>2014-09-02T18:55:51Z</time></trkpt><trkpt lat="45.9955074918" lon="7.1790211927"><ele>1308.01</ele><time>2014-09-02T18:56:09Z</time></trkpt><trkpt lat="45.9953609761" lon="7.1794359293"><ele>1309.45</ele><time>2014-09-02T18:56:22Z</time></trkpt><trkpt lat="45.9951151349" lon="7.1800365765"><ele>1310.41</ele><time>2014-09-02T18:56:41Z</time></trkpt><trkpt lat="45.9948035795" lon="7.1807116549"><ele>1311.38</ele><time>2014-09-02T18:57:02Z</time></trkpt><trkpt lat="45.9945617616" lon="7.1812314168"><ele>1312.82</ele><time>2014-09-02T18:57:19Z</time></trkpt><trkpt lat="45.9943168424" lon="7.1817690320"><ele>1312.82</ele><time>2014-09-02T18:57:37Z</time></trkpt><trkpt lat="45.9941327758" lon="7.1821791586"><ele>1314.74</ele><time>2014-09-02T18:57:54Z</time></trkpt><trkpt lat="45.9939876851" lon="7.1824216470"><ele>1317.62</ele><time>2014-09-02T18:58:06Z</time></trkpt><trkpt lat="45.9939731844" lon="7.1824348066"><ele>1317.62</ele><time>2014-09-02T18:58:07Z</time></trkpt><trkpt lat="45.9939621203" lon="7.1824520733"><ele>1317.62</ele><time>2014-09-02T18:58:08Z</time></trkpt><trkpt lat="45.9939523134" lon="7.1824726928"><ele>1318.10</ele><time>2014-09-02T18:58:09Z</time></trkpt><trkpt lat="45.9939428419" lon="7.1824925579"><ele>1318.59</ele><time>2014-09-02T18:58:10Z</time></trkpt><trkpt lat="45.9939343762" lon="7.1825109981"><ele>1318.59</ele><time>2014-09-02T18:58:11Z</time></trkpt><trkpt lat="45.9939248208" lon="7.1825293545"><ele>1319.07</ele><time>2014-09-02T18:58:12Z</time></trkpt><trkpt lat="45.9939180315" lon="7.1825522371"><ele>1319.07</ele><time>2014-09-02T18:58:13Z</time></trkpt><trkpt lat="45.9938758705" lon="7.1826763730"><ele>1320.51</ele><time>2014-09-02T18:58:25Z</time></trkpt><trkpt lat="45.9938877728" lon="7.1826772951"><ele>1317.62</ele><time>2014-09-02T18:58:43Z</time></trkpt><trkpt lat="45.9938804805" lon="7.1827295981"><ele>1314.74</ele><time>2014-09-02T18:59:24Z</time></trkpt><trkpt lat="45.9939020220" lon="7.1826840006"><ele>1313.78</ele><time>2014-09-02T19:00:06Z</time></trkpt><trkpt lat="45.9939024411" lon="7.1826740261"><ele>1319.55</ele><time>2014-09-02T19:00:41Z</time></trkpt><trkpt lat="45.9938879404" lon="7.1827062964"><ele>1318.59</ele><time>2014-09-02T19:01:08Z</time></trkpt><trkpt lat="45.9938748647" lon="7.1826978307"><ele>1323.87</ele><time>2014-09-02T19:01:37Z</time></trkpt><trkpt lat="45.9938782174" lon="7.1826840844"><ele>1321.95</ele><time>2014-09-02T19:01:56Z</time></trkpt><trkpt lat="45.9938810673" lon="7.1826601122"><ele>1318.10</ele><time>2014-09-02T19:02:20Z</time></trkpt><trkpt lat="45.9938942268" lon="7.1827049553"><ele>1317.14</ele><time>2014-09-02T19:03:05Z</time></trkpt><trkpt lat="45.9938959870" lon="7.1826969925"><ele>1317.14</ele><time>2014-09-02T19:03:36Z</time></trkpt><trkpt lat="45.9938818216" lon="7.1827137563"><ele>1316.18</ele><time>2014-09-02T19:04:08Z</time></trkpt><trkpt lat="45.9937388264" lon="7.1830073744"><ele>1318.59</ele><time>2014-09-02T19:04:22Z</time></trkpt><trkpt lat="45.9935734514" lon="7.1833788604"><ele>1321.47</ele><time>2014-09-02T19:04:37Z</time></trkpt><trkpt lat="45.9934348986" lon="7.1836394537"><ele>1323.39</ele><time>2014-09-02T19:04:49Z</time></trkpt><trkpt lat="45.9931618161" lon="7.1838241909"><ele>1324.83</ele><time>2014-09-02T19:05:04Z</time></trkpt><trkpt lat="45.9928567987" lon="7.1839911584"><ele>1324.35</ele><time>2014-09-02T19:05:20Z</time></trkpt><trkpt lat="45.9927513544" lon="7.1839804295"><ele>1324.83</ele><time>2014-09-02T19:05:32Z</time></trkpt><trkpt lat="45.9927493427" lon="7.1839587204"><ele>1325.31</ele><time>2014-09-02T19:05:46Z</time></trkpt><trkpt lat="45.9927499294" lon="7.1839655098"><ele>1324.35</ele><time>2014-09-02T19:06:01Z</time></trkpt><trkpt lat="45.9927664418" lon="7.1839599777"><ele>1325.31</ele><time>2014-09-02T19:06:37Z</time></trkpt><trkpt lat="45.9927227721" lon="7.1839609835"><ele>1331.08</ele><time>2014-09-02T19:07:16Z</time></trkpt><trkpt lat="45.9927138872" lon="7.1839874703"><ele>1324.83</ele><time>2014-09-02T19:07:58Z</time></trkpt><trkpt lat="45.9927699622" lon="7.1839779150"><ele>1326.28</ele><time>2014-09-02T19:08:37Z</time></trkpt><trkpt lat="45.9927464928" lon="7.1839823574"><ele>1321.95</ele><time>2014-09-02T19:09:18Z</time></trkpt><trkpt lat="45.9927438106" lon="7.1840126161"><ele>1323.39</ele><time>2014-09-02T19:09:31Z</time></trkpt><trkpt lat="45.9927325789" lon="7.1840170585"><ele>1323.87</ele><time>2014-09-02T19:09:32Z</time></trkpt><trkpt lat="45.9927199222" lon="7.1840222552"><ele>1323.87</ele><time>2014-09-02T19:09:33Z</time></trkpt><trkpt lat="45.9926827904" lon="7.1840569563"><ele>1324.35</ele><time>2014-09-02T19:09:37Z</time></trkpt><trkpt lat="45.9926567227" lon="7.1841221675"><ele>1324.35</ele><time>2014-09-02T19:09:40Z</time></trkpt><trkpt lat="45.9926434793" lon="7.1841360815"><ele>1324.35</ele><time>2014-09-02T19:09:41Z</time></trkpt><trkpt lat="45.9926275536" lon="7.1841429546"><ele>1324.83</ele><time>2014-09-02T19:09:42Z</time></trkpt><trkpt lat="45.9926091135" lon="7.1841485705"><ele>1324.83</ele><time>2014-09-02T19:09:43Z</time></trkpt><trkpt lat="45.9925894160" lon="7.1841565333"><ele>1324.83</ele><time>2014-09-02T19:09:44Z</time></trkpt><trkpt lat="45.9922455065" lon="7.1842798311"><ele>1327.24</ele><time>2014-09-02T19:10:01Z</time></trkpt><trkpt lat="45.9919539001" lon="7.1842230856"><ele>1331.08</ele><time>2014-09-02T19:10:15Z</time></trkpt><trkpt lat="45.9916573483" lon="7.1840917412"><ele>1333.01</ele><time>2014-09-02T19:10:31Z</time></trkpt><trkpt lat="45.9913291130" lon="7.1839599777"><ele>1334.45</ele><time>2014-09-02T19:10:48Z</time></trkpt><trkpt lat="45.9910240956" lon="7.1839567088"><ele>1336.85</ele><time>2014-09-02T19:11:03Z</time></trkpt><trkpt lat="45.9907945991" lon="7.1841722075"><ele>1337.33</ele><time>2014-09-02T19:11:17Z</time></trkpt><trkpt lat="45.9906036593" lon="7.1847026981"><ele>1334.45</ele><time>2014-09-02T19:11:34Z</time></trkpt><trkpt lat="45.9904233646" lon="7.1852541436"><ele>1338.77</ele><time>2014-09-02T19:11:52Z</time></trkpt><trkpt lat="45.9904014040" lon="7.1853108052"><ele>1339.25</ele><time>2014-09-02T19:11:55Z</time></trkpt><trkpt lat="45.9903921839" lon="7.1853311732"><ele>1339.25</ele><time>2014-09-02T19:11:56Z</time></trkpt><trkpt lat="45.9902488533" lon="7.1856567264"><ele>1342.62</ele><time>2014-09-02T19:12:12Z</time></trkpt><trkpt lat="45.9900010843" lon="7.1859531943"><ele>1346.46</ele><time>2014-09-02T19:12:33Z</time></trkpt><trkpt lat="45.9898949694" lon="7.1860349178"><ele>1346.94</ele><time>2014-09-02T19:12:46Z</time></trkpt><trkpt lat="45.9898778703" lon="7.1860419586"><ele>1344.54</ele><time>2014-09-02T19:13:17Z</time></trkpt><trkpt lat="45.9898820613" lon="7.1860707924"><ele>1344.06</ele><time>2014-09-02T19:13:29Z</time></trkpt><trkpt lat="45.9898775350" lon="7.1860921662"><ele>1344.06</ele><time>2014-09-02T19:13:30Z</time></trkpt><trkpt lat="45.9898650460" lon="7.1861049067"><ele>1344.06</ele><time>2014-09-02T19:13:31Z</time></trkpt><trkpt lat="45.9898476955" lon="7.1861080918"><ele>1344.54</ele><time>2014-09-02T19:13:32Z</time></trkpt><trkpt lat="45.9898295905" lon="7.1861067507"><ele>1344.54</ele><time>2014-09-02T19:13:33Z</time></trkpt><trkpt lat="45.9898119885" lon="7.1861177310"><ele>1345.02</ele><time>2014-09-02T19:13:34Z</time></trkpt><trkpt lat="45.9897992481" lon="7.1861338243"><ele>1345.02</ele><time>2014-09-02T19:13:35Z</time></trkpt><trkpt lat="45.9897849150" lon="7.1861444693"><ele>1345.50</ele><time>2014-09-02T19:13:36Z</time></trkpt><trkpt lat="45.9897710010" lon="7.1861536894"><ele>1345.98</ele><time>2014-09-02T19:13:37Z</time></trkpt><trkpt lat="45.9897582605" lon="7.1861660108"><ele>1345.98</ele><time>2014-09-02T19:13:38Z</time></trkpt><trkpt lat="45.9897435084" lon="7.1861748118"><ele>1346.46</ele><time>2014-09-02T19:13:39Z</time></trkpt><trkpt lat="45.9894943144" lon="7.1863762289"><ele>1348.87</ele><time>2014-09-02T19:13:56Z</time></trkpt><trkpt lat="45.9892196395" lon="7.1866040491"><ele>1353.67</ele><time>2014-09-02T19:14:15Z</time></trkpt><trkpt lat="45.9891214035" lon="7.1866998542"><ele>1355.12</ele><time>2014-09-02T19:14:23Z</time></trkpt><trkpt lat="45.9891098365" lon="7.1867112536"><ele>1355.12</ele><time>2014-09-02T19:14:24Z</time></trkpt><trkpt lat="45.9890626464" lon="7.1867571864"><ele>1355.60</ele><time>2014-09-02T19:14:28Z</time></trkpt><trkpt lat="45.9890475590" lon="7.1867607068"><ele>1356.08</ele><time>2014-09-02T19:14:29Z</time></trkpt><trkpt lat="45.9890333097" lon="7.1867681667"><ele>1356.08</ele><time>2014-09-02T19:14:30Z</time></trkpt><trkpt lat="45.9890193120" lon="7.1867778059"><ele>1356.08</ele><time>2014-09-02T19:14:31Z</time></trkpt><trkpt lat="45.9890062362" lon="7.1867832541"><ele>1356.56</ele><time>2014-09-02T19:14:32Z</time></trkpt><trkpt lat="45.9889926575" lon="7.1867923904"><ele>1356.56</ele><time>2014-09-02T19:14:33Z</time></trkpt><trkpt lat="45.9889797494" lon="7.1868037060"><ele>1356.56</ele><time>2014-09-02T19:14:34Z</time></trkpt><trkpt lat="45.9889691044" lon="7.1868131775"><ele>1356.56</ele><time>2014-09-02T19:14:35Z</time></trkpt><trkpt lat="45.9887431283" lon="7.1870125830"><ele>1359.92</ele><time>2014-09-02T19:14:52Z</time></trkpt><trkpt lat="45.9887318965" lon="7.1870217193"><ele>1359.92</ele><time>2014-09-02T19:14:53Z</time></trkpt><trkpt lat="45.9887133725" lon="7.1870534867"><ele>1358.96</ele><time>2014-09-02T19:15:04Z</time></trkpt><trkpt lat="45.9887160547" lon="7.1870425064"><ele>1355.12</ele><time>2014-09-02T19:15:32Z</time></trkpt><trkpt lat="45.9886983689" lon="7.1870702505"><ele>1355.12</ele><time>2014-09-02T19:16:13Z</time></trkpt><trkpt lat="45.9886435512" lon="7.1871024370"><ele>1355.12</ele><time>2014-09-02T19:16:19Z</time></trkpt><trkpt lat="45.9885922540" lon="7.1871239785"><ele>1354.63</ele><time>2014-09-02T19:16:33Z</time></trkpt><trkpt lat="45.9885788430" lon="7.1871280856"><ele>1354.63</ele><time>2014-09-02T19:16:50Z</time></trkpt><trkpt lat="45.9885778371" lon="7.1871337015"><ele>1351.27</ele><time>2014-09-02T19:17:13Z</time></trkpt><trkpt lat="45.9885623306" lon="7.1871269122"><ele>1350.79</ele><time>2014-09-02T19:17:48Z</time></trkpt><trkpt lat="45.9885813575" lon="7.1871669777"><ele>1356.08</ele><time>2014-09-02T19:18:24Z</time></trkpt><trkpt lat="45.9885734785" lon="7.1871590987"><ele>1357.52</ele><time>2014-09-02T19:19:02Z</time></trkpt><trkpt lat="45.9885687847" lon="7.1871254873"><ele>1355.12</ele><time>2014-09-02T19:19:40Z</time></trkpt><trkpt lat="45.9885800164" lon="7.1871335339"><ele>1354.15</ele><time>2014-09-02T19:20:17Z</time></trkpt><trkpt lat="45.9885742329" lon="7.1871543210"><ele>1354.15</ele><time>2014-09-02T19:20:44Z</time></trkpt><trkpt lat="45.9885795973" lon="7.1871498786"><ele>1355.12</ele><time>2014-09-02T19:21:09Z</time></trkpt><trkpt lat="45.9885782562" lon="7.1871435922"><ele>1352.23</ele><time>2014-09-02T19:21:43Z</time></trkpt><trkpt lat="45.9885863028" lon="7.1871504653"><ele>1352.71</ele><time>2014-09-02T19:22:13Z</time></trkpt><trkpt lat="45.9885838721" lon="7.1871456876"><ele>1352.23</ele><time>2014-09-02T19:22:33Z</time></trkpt><trkpt lat="45.9885881469" lon="7.1871569194"><ele>1354.63</ele><time>2014-09-02T19:23:04Z</time></trkpt><trkpt lat="45.9885750711" lon="7.1871321928"><ele>1354.63</ele><time>2014-09-02T19:23:34Z</time></trkpt><trkpt lat="45.9885940142" lon="7.1871267445"><ele>1354.15</ele><time>2014-09-02T19:24:07Z</time></trkpt><trkpt lat="45.9885842912" lon="7.1871538181"><ele>1356.08</ele><time>2014-09-02T19:24:39Z</time></trkpt><trkpt lat="45.9885847103" lon="7.1871326957"><ele>1352.71</ele><time>2014-09-02T19:25:06Z</time></trkpt><trkpt lat="45.9885467403" lon="7.1871864237"><ele>1357.52</ele><time>2014-09-02T19:25:46Z</time></trkpt><trkpt lat="45.9885732271" lon="7.1871504653"><ele>1357.04</ele><time>2014-09-02T19:26:21Z</time></trkpt><trkpt lat="45.9885715507" lon="7.1871434245"><ele>1353.19</ele><time>2014-09-02T19:26:53Z</time></trkpt><trkpt lat="45.9885873087" lon="7.1871251520"><ele>1354.63</ele><time>2014-09-02T19:27:24Z</time></trkpt><trkpt lat="45.9885664377" lon="7.1871469449"><ele>1356.08</ele><time>2014-09-02T19:27:58Z</time></trkpt><trkpt lat="45.9885796811" lon="7.1871488728"><ele>1357.52</ele><time>2014-09-02T19:28:36Z</time></trkpt><trkpt lat="45.9885734785" lon="7.1871393174"><ele>1355.60</ele><time>2014-09-02T19:29:07Z</time></trkpt><trkpt lat="45.9885636717" lon="7.1871643793"><ele>1354.15</ele><time>2014-09-02T19:29:42Z</time></trkpt><trkpt lat="45.9885697067" lon="7.1871715877"><ele>1358.96</ele><time>2014-09-02T19:30:12Z</time></trkpt><trkpt lat="45.9885720536" lon="7.1871504653"><ele>1358.48</ele><time>2014-09-02T19:30:46Z</time></trkpt><trkpt lat="45.9885524400" lon="7.1871531475"><ele>1355.12</ele><time>2014-09-02T19:31:17Z</time></trkpt><trkpt lat="45.9885462373" lon="7.1871604398"><ele>1355.60</ele><time>2014-09-02T19:31:48Z</time></trkpt><trkpt lat="45.9885801002" lon="7.1871501300"><ele>1356.56</ele><time>2014-09-02T19:32:18Z</time></trkpt><trkpt lat="45.9885595646" lon="7.1871611103"><ele>1357.04</ele><time>2014-09-02T19:32:52Z</time></trkpt><trkpt lat="45.9885672759" lon="7.1871608589"><ele>1354.63</ele><time>2014-09-02T19:33:06Z</time></trkpt></trkseg></trk></gpx>